# Wetter Temperatur Luftdruck Luftfeuchtigkeit Sichtweite Windgeschwindigkeit Windrichtung Zeit
1 Clouds 2 1022 61 0 2.1 21 09:58 29.01.2020
2 Clouds 2 1022 61 0 2.1 21 09:39 29.01.2020
3 Clouds 1 1013 42 0 2.1 21 09:18 29.01.2020
4 Clouds 1 1013 39 0 0.45 83 08:44 29.01.2020
5 Clouds 1 1012 43 0 2.26 22 08:24 29.01.2020
6 Clouds 1 1021 72 0 2.98 22 07:45 29.01.2020
7 Clouds 0 1021 72 0 2.98 22 07:26 29.01.2020
8 Clouds 1 1020 72 0 2.98 22 06:56 29.01.2020
9 Clouds 1 1011 40 0 2.98 22 06:37 29.01.2020
10 Clouds 1 1011 36 0 1.79 31 06:19 29.01.2020
11 Clouds 1 1011 48 0 2.98 22 05:49 29.01.2020
12 Clouds 1 1011 62 0 2.98 22 05:30 29.01.2020
13 Clouds 2 1011 47 0 0.45 350 04:38 29.01.2020
14 Clouds 2 1011 50 0 2.51 16 03:58 29.01.2020
15 Clouds 2 1011 69 0 2.51 16 02:33 29.01.2020
16 Clear 3 1011 47 0 1.47 8 00:57 29.01.2020
17 Clear 3 1011 45 0 0.45 11 00:36 29.01.2020
18 Clear 3 1011 45 0 0.89 21 00:18 29.01.2020
19 Clear 4 1011 68 0 0.45 236 23:38 28.01.2020
20 Clouds 4 1011 62 0 1.67 18 23:19 28.01.2020
21 Clouds 4 1011 54 0 1.67 18 22:44 28.01.2020
22 Clouds 4 1020 85 0 1.67 18 22:26 28.01.2020
23 Clouds 2 1011 49 0 1.67 18 21:54 28.01.2020
24 Clouds 3 1011 44 0 0.89 349 21:36 28.01.2020
25 Clouds 3 1011 67 0 0.45 34 21:18 28.01.2020
26 Clouds 3 1011 67 0 0.45 34 21:18 28.01.2020
27 Clouds 4 1011 62 0 0.45 232 20:45 28.01.2020
28 Clouds 5 1011 61 0 1.67 18 20:25 28.01.2020
29 Clouds 5 1011 57 0 2.14 4 19:55 28.01.2020
30 Clouds 5 1011 52 0 2.14 4 19:36 28.01.2020
31 Clouds 5 1011 74 0 2.14 4 19:18 28.01.2020
32 Clouds 4 1010 78 0 2.14 4 18:41 28.01.2020
33 Clouds 5 1010 75 0 2.14 4 18:22 28.01.2020
34 Clouds 5 1010 61 0 2.14 4 17:59 28.01.2020
35 Clouds 7 1010 61 0 2.14 4 17:38 28.01.2020
36 Clouds 9 1018 77 0 1.64 268 17:19 28.01.2020
37 Clouds 10 1018 74 0 1.64 268 16:55 28.01.2020
38 Clouds 10 1018 73 0 1.64 268 16:37 28.01.2020
39 Clouds 11 1018 71 0 1.64 268 16:19 28.01.2020
40 Clouds 11 1018 66 0 1.64 268 15:44 28.01.2020
41 Clouds 11 1018 64 0 1.64 268 15:19 28.01.2020
42 Clouds 11 1018 67 0 1.64 268 14:55 28.01.2020
43 Clouds 11 1018 68 0 1.64 268 14:36 28.01.2020
44 Clouds 11 1018 69 0 1.55 280 14:18 28.01.2020
45 Clouds 10 1019 70 0 1.55 280 13:39 28.01.2020
46 Clouds 9 1019 71 0 1.44 256 13:21 28.01.2020
47 Clouds 9 1019 75 0 1.44 256 12:42 28.01.2020
48 Clouds 8 1020 76 0 1.44 256 12:23 28.01.2020
49 Clouds 8 1020 76 0 1.44 256 12:23 28.01.2020
50 Clouds 8 1020 78 0 1.44 256 11:48 28.01.2020
51 Clouds 7 1018 72 0 1.44 256 11:23 28.01.2020
52 Clouds 5 1010 79 0 0.45 232 10:59 28.01.2020
53 Clouds 5 1019 84 0 1.23 25 10:40 28.01.2020
54 Clouds 4 1010 83 0 1.23 25 10:20 28.01.2020
55 Clouds 4 1009 86 0 1.34 0 09:43 28.01.2020
56 Clouds 3 1009 87 0 1.79 30 09:21 28.01.2020
57 Clouds 3 1009 84 0 1.23 25 08:58 28.01.2020
58 Clouds 3 1009 85 0 1.23 25 08:39 28.01.2020
59 Clouds 2 1008 89 0 0.45 66 08:19 28.01.2020
60 Clouds 2 1008 88 0 1.84 349 07:37 28.01.2020
61 Clouds 2 1007 77 0 0.45 200 06:50 28.01.2020
62 Clouds 2 1007 79 0 3.13 225 06:26 28.01.2020
63 Clouds 1 1007 80 0 1.79 212 05:54 28.01.2020
64 Clouds 2 1007 78 0 2.68 215 05:26 28.01.2020
65 Clouds 2 1007 71 0 0.85 256 03:59 28.01.2020
66 Clouds 2 1012 92 0 0.45 225 02:58 28.01.2020
67 Clouds 2 1008 72 0 1.79 132 02:25 28.01.2020
68 Clouds 2 1008 69 0 2.68 205 01:57 28.01.2020
69 Clouds 2 1008 67 0 0.67 286 01:23 28.01.2020
70 Clouds 2 1009 75 0 1.79 205 00:45 28.01.2020
71 Clouds 2 1008 76 0 2.68 252 00:24 28.01.2020
72 Clouds 2 1008 81 0 1.34 212 23:48 27.01.2020
73 Clouds 2 1008 83 0 0.95 291 23:29 27.01.2020
74 Clouds 2 1009 82 0 0.95 291 22:54 27.01.2020
75 Clouds 2 1008 81 0 0.95 291 22:36 27.01.2020
76 Clouds 3 1008 81 0 0.95 291 22:18 27.01.2020
77 Clouds 3 1008 82 0 0.89 255 21:40 27.01.2020
78 Clouds 3 1008 81 0 2.24 215 21:19 27.01.2020
79 Clouds 3 1019 89 0 0.95 291 20:59 27.01.2020
80 Clouds 3 1008 81 0 2.24 191 20:40 27.01.2020
81 Clouds 3 1007 81 0 2.68 204 20:21 27.01.2020
82 Clouds 4 1018 89 0 1.43 185 19:58 27.01.2020
83 Clouds 4 1008 80 0 1.79 221 19:40 27.01.2020
84 Clouds 4 1008 81 0 2.24 236 19:21 27.01.2020
85 Clouds 4 1008 79 0 2.68 214 18:54 27.01.2020
86 Clouds 5 1008 79 0 1.79 200 18:36 27.01.2020
87 Clouds 6 1017 70 10000 1 190 18:18 27.01.2020
88 Clouds 8 1017 70 10000 1 190 17:39 27.01.2020
89 Clouds 8 1017 70 10000 1 190 17:39 27.01.2020
90 Clouds 8 1017 70 10000 1 190 17:39 27.01.2020
91 Clouds 7 1017 70 10000 1 0 17:19 27.01.2020
92 Clouds 7 1017 70 10000 1 0 16:56 27.01.2020
93 Clouds 7 1017 70 10000 1 0 16:37 27.01.2020
94 Clouds 6 1017 70 10000 1 0 16:19 27.01.2020
95 Clouds 7 1018 70 10000 0.5 0 15:41 27.01.2020
96 Clouds 6 1018 70 10000 1.96 225 15:20 27.01.2020
97 Clouds 6 1019 75 10000 1 0 14:57 27.01.2020
98 Clouds 6 1019 75 10000 1 0 14:39 27.01.2020
99 Clouds 6 1019 75 10000 1 0 14:20 27.01.2020
100 Clouds 6 1020 70 10000 0.5 0 13:42 27.01.2020
101 Clouds 6 1020 75 10000 1.78 225 13:23 27.01.2020
102 Clouds 5 1021 75 10000 1 0 12:58 27.01.2020
103 Clouds 4 1021 75 10000 1 0 12:39 27.01.2020
104 Clouds 4 1021 75 10000 0.5 0 12:21 27.01.2020
105 Clouds 3 1021 86 10000 1.5 70 11:43 27.01.2020
106 Clouds 3 1021 86 10000 0.5 0 11:22 27.01.2020
107 Clouds 3 1021 93 10000 0.5 0 10:56 27.01.2020
108 Clouds 2 1021 93 10000 1 0 10:37 27.01.2020
109 Clouds 1 1021 93 10000 1 0 10:18 27.01.2020
110 Clouds 2 1021 93 10000 1 0 09:39 27.01.2020
111 Clouds 1 1021 93 10000 1.5 360 09:19 27.01.2020
112 Clouds 0 1011 51 0 2.24 207 08:48 27.01.2020
113 Clouds 0 1011 55 0 1.34 195 08:23 27.01.2020
114 Clouds -1 1021 95 0 0.54 67 07:55 27.01.2020
115 Clouds -1 1011 55 0 0.54 67 07:36 27.01.2020
116 Clouds 0 1011 56 0 0.54 67 07:18 27.01.2020
117 Clouds 1 1011 51 0 0.54 67 06:33 27.01.2020
118 Clouds 1 1011 49 0 0.45 235 05:37 27.01.2020
119 Clouds 1 1012 47 0 0.19 334 04:20 27.01.2020
120 Clouds 1 1012 54 0 1.34 205 03:27 27.01.2020
121 Clouds 2 1012 73 0 2.68 246 01:32 27.01.2020
122 Clouds 2 1012 82 0 4.47 193 00:59 27.01.2020
123 Clouds 2 1012 78 0 3.58 219 00:38 27.01.2020
124 Clouds 2 1012 82 0 3.58 228 00:19 27.01.2020
125 Clouds 3 1022 92 0 0.25 113 23:42 26.01.2020
126 Clouds 4 1022 92 0 0.68 62 23:20 26.01.2020
127 Clouds 4 1022 92 0 0.68 62 22:57 26.01.2020
128 Clouds 4 1022 92 0 0.68 62 22:37 26.01.2020
129 Clouds 4 1022 91 0 0.68 62 22:18 26.01.2020
130 Clouds 2 1012 88 0 3.58 179 21:56 26.01.2020
131 Clouds 2 1013 89 0 2.68 212 21:38 26.01.2020
132 Clouds 3 1012 84 0 0.89 219 21:19 26.01.2020
133 Clouds 4 1019 90 0 0.68 62 20:55 26.01.2020
134 Clouds 3 1012 83 0 1.34 239 20:36 26.01.2020
135 Snow 5 1021 90 0 0.95 352 20:18 26.01.2020
136 Snow 6 1018 71 0 56.33 45 19:56 26.01.2020
137 Snow 6 1019 89 0 0.45 180 19:37 26.01.2020
138 Snow 6 1021 88 0 0.52 29 19:18 26.01.2020
139 Snow 4 1012 93 0 0.52 29 18:41 26.01.2020
140 Clouds 8 1019 76 10000 3.1 240 18:22 26.01.2020
141 Clouds 5 1019 76 10000 3.1 240 17:58 26.01.2020
142 Clouds 5 1019 76 10000 3.1 240 17:39 26.01.2020
143 Clouds 7 1019 76 10000 3.1 240 17:19 26.01.2020
144 Clouds 8 1019 71 10000 3.1 230 16:58 26.01.2020
145 Clouds 9 1019 71 10000 3.1 230 16:39 26.01.2020
146 Clouds 9 1019 71 10000 3.1 230 16:39 26.01.2020
147 Clouds 8 1019 71 10000 2.6 230 16:20 26.01.2020
148 Rain 9 1019 76 10000 3.1 230 15:55 26.01.2020
149 Rain 9 1019 76 10000 3.1 230 15:37 26.01.2020
150 Snow 9 1020 77 0 0.69 283 15:18 26.01.2020
151 Snow 8 1019 80 0 0.69 283 14:40 26.01.2020
152 Snow 9 1017 66 0 0.45 303 14:19 26.01.2020
153 Snow 8 1017 78 0 0.45 180 13:43 26.01.2020
154 Snow 7 1020 85 0 0.48 195 13:20 26.01.2020
155 Snow 8 1020 87 0 0.48 195 12:58 26.01.2020
156 Snow 8 1020 87 0 0.48 195 12:39 26.01.2020
157 Snow 7 1021 90 0 0.48 195 12:21 26.01.2020
158 Snow 7 1021 92 0 0.48 195 11:57 26.01.2020
159 Snow 7 1021 92 0 0.48 195 11:57 26.01.2020
160 Snow 6 1018 80 0 0.89 158 11:38 26.01.2020
161 Fog 5 1020 100 10000 1 0 11:18 26.01.2020
162 Fog 4 1020 100 10000 1 0 10:58 26.01.2020
163 Fog 4 1020 100 10000 1 0 10:38 26.01.2020
164 Fog 4 1020 100 10000 1 0 10:38 26.01.2020
165 Fog 4 1020 100 10000 1 0 10:38 26.01.2020
166 Fog 3 1020 100 10000 1 0 10:20 26.01.2020
167 Fog 2 1020 100 10000 1.5 60 09:56 26.01.2020
168 Fog 2 1020 100 10000 1.5 60 09:38 26.01.2020
169 Fog 2 1019 100 10000 1.5 10 09:19 26.01.2020
170 Clouds 1 1019 94 0 1.76 37 08:42 26.01.2020
171 Clouds 1 1009 89 0 0.89 190 08:22 26.01.2020
172 Clouds 1 1009 84 0 1.08 27 07:50 26.01.2020
173 Clouds 1 1009 85 0 1.08 27 07:27 26.01.2020
174 Clouds 2 1018 94 0 1.08 27 06:55 26.01.2020
175 Clouds 2 1009 83 0 0.45 194 06:25 26.01.2020
176 Clouds 1 1009 83 0 1.08 27 05:29 26.01.2020
177 Clouds 2 1009 80 0 0.18 158 03:57 26.01.2020
178 Clouds 2 1009 87 0 1.79 205 02:38 26.01.2020
179 Clouds 2 1009 88 0 1.34 229 01:45 26.01.2020
180 Snow 2 1009 84 0 1.79 233 01:22 26.01.2020
181 Snow 2 1019 88 0 1.55 186 00:42 26.01.2020
182 Snow 2 1009 85 0 1.34 256 00:23 26.01.2020
183 Snow 3 1019 87 0 1.55 186 23:39 25.01.2020
184 Snow 3 1019 86 0 1.25 190 23:20 25.01.2020
185 Snow 3 1010 84 0 3.13 197 22:45 25.01.2020
186 Snow 4 1020 86 0 1.25 190 22:22 25.01.2020
187 Snow 4 1020 87 0 1.25 190 21:59 25.01.2020
188 Snow 4 1020 87 0 1.25 190 21:41 25.01.2020
189 Snow 4 1020 86 0 1.25 190 21:22 25.01.2020
190 Snow 5 1020 86 0 1.25 190 20:55 25.01.2020
191 Snow 4 1017 83 0 1.34 45 20:36 25.01.2020
192 Snow -1 1018 99 0 1.61 162 20:18 25.01.2020
193 Snow 5 1020 86 0 1.61 162 19:42 25.01.2020
194 Snow 4 1009 83 0 2.24 210 19:20 25.01.2020
195 Snow 6 1019 85 0 1.33 153 18:57 25.01.2020
196 Snow 6 1019 85 0 1.33 153 18:57 25.01.2020
197 Snow 3 1009 89 0 3.13 226 18:38 25.01.2020
198 Snow 4 1009 87 0 4.02 198 18:20 25.01.2020
199 Snow 4 1019 83 0 1.61 162 17:40 25.01.2020
200 Snow 6 1009 89 0 2.68 210 17:19 25.01.2020
201 Snow 6 1019 80 0 2.05 190 16:57 25.01.2020
202 Snow 6 1009 81 0 2.24 228 16:38 25.01.2020
203 Snow 6 1009 85 0 2.24 215 16:19 25.01.2020
204 Snow 8 1019 74 0 1.87 191 15:46 25.01.2020
205 Snow 7 1009 82 0 3.13 229 15:25 25.01.2020
206 Snow 7 1020 74 0 1.87 191 14:57 25.01.2020
207 Snow 8 1020 72 0 1.87 191 14:39 25.01.2020
208 Snow 8 1016 66 0 2.28 190 14:18 25.01.2020
209 Snow 6 1020 75 0 2.28 190 13:41 25.01.2020
210 Snow 6 1010 82 0 4.02 194 13:22 25.01.2020
211 Snow 6 1010 82 0 4.02 194 13:22 25.01.2020
212 Clouds 6 1022 93 10000 1 0 12:43 25.01.2020
213 Clouds 5 1022 93 10000 1 0 12:23 25.01.2020
214 Clouds 5 1022 93 10000 1 0 11:45 25.01.2020
215 Fog 4 1022 100 10000 1 0 11:22 25.01.2020
216 Fog 3 1021 100 10000 1 0 10:58 25.01.2020
217 Fog 3 1021 100 10000 1 0 10:40 25.01.2020
218 Fog 3 1021 100 10000 0.5 0 10:20 25.01.2020
219 Fog 2 1021 100 10000 1.59 184 09:41 25.01.2020
220 Fog 1 1021 100 9000 1 0 09:22 25.01.2020
221 Snow 2 1011 88 0 1.34 217 08:44 25.01.2020
222 Clouds 0 1011 87 0 0.45 262 08:22 25.01.2020
223 Clouds 0 1011 81 0 1.79 226 07:43 25.01.2020
224 Clouds 0 1021 89 0 0.94 168 06:51 25.01.2020
225 Clouds 0 1021 89 0 0.94 168 06:27 25.01.2020
226 Clouds 0 1021 90 0 0.94 168 05:45 25.01.2020
227 Clouds 0 1011 83 0 4.02 200 04:43 25.01.2020
228 Clouds 0 1011 79 0 1.79 188 03:51 25.01.2020
229 Clouds 1 1022 90 0 0.74 163 02:54 25.01.2020
230 Clouds 1 1012 80 0 2.68 224 01:59 25.01.2020
231 Clouds 1 1012 80 0 2.68 224 01:59 25.01.2020
232 Clouds 1 1012 80 0 3.13 195 01:37 25.01.2020
233 Clouds 1 1012 80 0 3.13 195 01:37 25.01.2020
234 Clouds 1 1012 77 0 3.13 235 00:42 25.01.2020
235 Clouds 0 1012 75 0 2.68 200 00:23 25.01.2020
236 Clouds 1 1012 75 0 3.13 211 23:57 24.01.2020
237 Clouds 1 1012 74 0 3.58 188 23:38 24.01.2020
238 Clouds 1 1012 74 0 3.58 188 23:38 24.01.2020
239 Clouds 1 1012 74 0 3.58 188 23:38 24.01.2020
240 Clouds 1 1013 76 0 2.24 214 23:19 24.01.2020
241 Clouds 1 1023 87 0 0.68 81 22:42 24.01.2020
242 Clouds 2 1013 72 0 1.79 187 22:23 24.01.2020
243 Clouds 2 1023 86 0 0.68 81 21:41 24.01.2020
244 Clouds 2 1012 72 0 2.68 203 21:20 24.01.2020
245 Clouds 2 1012 70 0 3.58 226 21:20 24.01.2020
246 Clouds 3 1023 85 0 0.68 81 20:55 24.01.2020
247 Clouds 3 1022 85 0 0.68 81 20:37 24.01.2020
248 Clouds 4 1022 85 0 0.94 65 20:18 24.01.2020
249 Clouds 4 1022 85 0 0.94 65 19:55 24.01.2020
250 Clouds 5 1022 83 0 0.94 65 19:37 24.01.2020
251 Clouds 5 1022 83 0 0.94 65 19:19 24.01.2020
252 Clouds 5 1022 83 0 0.94 65 19:19 24.01.2020
253 Clouds 4 1020 90 0 0.94 65 18:42 24.01.2020
254 Clouds 5 1021 100 10000 1.5 80 18:21 24.01.2020
255 Clouds 4 1021 100 10000 1.5 80 17:44 24.01.2020
256 Clouds 7 1021 100 10000 1.5 80 17:22 24.01.2020
257 Clouds 8 1021 100 10000 1 0 16:57 24.01.2020
258 Clouds 8 1021 100 10000 1 0 16:57 24.01.2020
259 Clouds 9 1021 100 10000 1 0 16:38 24.01.2020
260 Clouds 8 1021 93 10000 1.5 80 16:18 24.01.2020
261 Clouds 7 1021 93 10000 1.5 0 15:41 24.01.2020
262 Clouds 9 1021 93 10000 1.5 0 15:21 24.01.2020
263 Clouds 9 1022 93 10000 1 0 14:42 24.01.2020
264 Clouds 9 1022 100 10000 1 0 14:24 24.01.2020
265 Clouds 8 1022 100 10000 2.1 110 13:58 24.01.2020
266 Clouds 6 1022 100 10000 2.1 110 13:40 24.01.2020
267 Clouds 7 1023 100 10000 1.5 0 13:21 24.01.2020
268 Clouds 6 1023 93 10000 1 0 12:42 24.01.2020
269 Clouds 5 1024 93 10000 1 0 12:19 24.01.2020
270 Clouds 5 1024 93 10000 1 0 11:44 24.01.2020
271 Clouds 4 1024 93 10000 1.5 10 11:19 24.01.2020
272 Clouds 3 1023 93 10000 1.5 30 10:43 24.01.2020
273 Clouds 1 1023 100 10000 1.5 40 10:23 24.01.2020
274 Clouds 1 1023 100 10000 2.1 40 09:57 24.01.2020
275 Clouds 1 1023 100 10000 2.1 40 09:57 24.01.2020
276 Clouds 1 1023 100 10000 2.1 40 09:57 24.01.2020
277 Clouds 1 1023 100 10000 2.1 40 09:39 24.01.2020
278 Clouds 1 1023 93 10000 1.5 10 09:21 24.01.2020
279 Clear 1 1023 90 0 0.38 181 08:41 24.01.2020
280 Clouds 0 1012 74 0 3.13 238 08:20 24.01.2020
281 Clouds 0 1012 73 0 3.13 193 07:51 24.01.2020
282 Clouds 0 1012 74 0 3.13 214 07:32 24.01.2020
283 Clouds 1 1012 81 0 4.02 210 06:48 24.01.2020
284 Clouds 1 1023 89 0 0.76 58 06:29 24.01.2020
285 Clouds 1 1012 81 0 3.58 184 05:58 24.01.2020
286 Clouds 2 1023 91 0 0.4 182 04:54 24.01.2020
287 Clouds 2 1012 88 0 6.26 146 02:53 24.01.2020
288 Clouds 2 1023 90 0 0.45 93 02:24 24.01.2020
289 Clouds 2 1023 90 0 0.45 93 01:42 24.01.2020
290 Clouds 3 1024 90 0 0.46 91 01:24 24.01.2020
291 Clouds 3 1024 91 0 0.46 91 00:20 24.01.2020
292 Clouds 3 1024 91 0 0.46 91 23:48 23.01.2020
293 Clouds 3 1024 91 0 0.46 91 23:30 23.01.2020
294 Clouds 3 1019 88 0 1.34 45 22:59 23.01.2020
295 Clouds 3 1024 89 0 1.1 93 22:37 23.01.2020
296 Clouds 3 1024 89 0 1.1 93 22:37 23.01.2020
297 Clouds 3 1024 91 0 1.1 93 22:19 23.01.2020
298 Clouds 3 1024 91 0 1.1 93 22:19 23.01.2020
299 Clouds 2 1014 86 0 1.1 93 21:56 23.01.2020
300 Clouds 3 1023 86 0 1.1 93 21:38 23.01.2020
301 Clouds 4 1023 86 0 1.1 93 21:19 23.01.2020
302 Clouds 4 1023 93 0 1.1 93 20:57 23.01.2020
303 Clouds 4 1013 86 0 1.1 93 20:38 23.01.2020
304 Clouds 5 1017 74 0 57.22 270 20:19 23.01.2020
305 Clouds 5 1022 98 0 1.63 157 19:44 23.01.2020
306 Clouds 5 1022 98 0 1.63 157 19:24 23.01.2020
307 Clouds 6 1021 98 0 1.63 157 18:59 23.01.2020
308 Clouds 6 1017 89 0 0.89 67 18:39 23.01.2020
309 Clouds 4 1021 100 10000 2.1 350 18:20 23.01.2020
310 Clouds 5 1021 100 10000 2.1 350 17:56 23.01.2020
311 Clouds 5 1021 100 10000 2.1 350 17:37 23.01.2020
312 Clouds 8 1021 100 10000 2.1 350 17:18 23.01.2020
313 Clouds 9 1021 100 10000 1.5 80 16:39 23.01.2020
314 Fog 7 1021 100 10000 1.5 70 16:20 23.01.2020
315 Mist 7 1021 100 2300 2.6 20 15:58 23.01.2020
316 Mist 7 1021 100 2300 2.6 20 15:39 23.01.2020
317 Fog 7 1021 100 10000 1.5 80 15:19 23.01.2020
318 Rain 6 1021 100 450 2.1 60 14:58 23.01.2020
319 Rain 6 1021 100 450 2.1 60 14:40 23.01.2020
320 Rain 6 1020 100 200 2.1 0 14:22 23.01.2020
321 Rain 7 1021 100 10000 1.5 230 13:55 23.01.2020
322 Rain 6 1021 100 900 1.5 220 13:37 23.01.2020
323 Rain 6 1021 100 900 1.5 220 13:18 23.01.2020
324 Rain 7 1021 100 7000 0.5 0 12:42 23.01.2020
325 Rain 6 1021 100 7000 1 270 12:24 23.01.2020
326 Rain 5 1021 100 1000 1.5 200 11:56 23.01.2020
327 Rain 5 1021 100 6000 2.1 290 11:37 23.01.2020
328 Rain 5 1021 100 6000 2.1 290 11:18 23.01.2020
329 Clouds 6 1021 100 10000 2.1 260 10:41 23.01.2020
330 Snow 5 1021 100 10000 3.1 330 10:19 23.01.2020
331 Snow 5 1021 100 10000 5.7 320 09:42 23.01.2020
332 Fog 5 1021 100 250 1 0 09:23 23.01.2020
333 Snow 6 1020 97 0 2.81 128 08:57 23.01.2020
334 Snow 6 1019 94 0 0.45 337 08:38 23.01.2020
335 Snow 5 1010 96 0 2.35 84 08:19 23.01.2020
336 Snow 6 1017 90 0 1.34 45 07:42 23.01.2020
337 Snow 7 1017 89 0 3.13 248 07:21 23.01.2020
338 Snow 7 1015 79 0 58.56 337 07:21 23.01.2020
339 Snow 5 1011 96 0 2.35 84 06:44 23.01.2020
340 Snow 6 1010 96 0 2.35 84 06:19 23.01.2020
341 Snow 5 1011 96 0 2.16 78 04:44 23.01.2020
342 Snow 5 1011 96 0 2.16 78 03:48 23.01.2020
343 Snow 6 1012 96 0 1.48 117 01:56 23.01.2020
344 Snow 5 1013 96 0 1.78 127 00:46 23.01.2020
345 Snow 5 1013 95 0 1.78 127 00:24 23.01.2020
346 Snow 6 1013 96 0 1.78 127 23:46 22.01.2020
347 Snow 7 1017 88 0 0.89 206 23:28 22.01.2020
348 Snow 7 1020 94 0 2.49 146 22:55 22.01.2020
349 Snow 7 1020 94 0 2.49 146 22:55 22.01.2020
350 Snow 6 1013 96 0 2.49 146 22:37 22.01.2020
351 Snow 7 1017 90 0 1.79 45 22:19 22.01.2020
352 Snow 5 1012 96 0 2.49 146 21:38 22.01.2020
353 Snow 6 1012 96 0 2.49 146 21:20 22.01.2020
354 Snow 6 1013 95 0 2.49 146 20:55 22.01.2020
355 Snow 6 1012 95 0 2.49 146 20:36 22.01.2020
356 Snow 6 1012 96 0 2.36 123 20:18 22.01.2020
357 Snow 6 1012 96 0 2.36 123 19:42 22.01.2020
358 Snow 6 1012 96 0 2.36 123 19:21 22.01.2020
359 Snow 6 1012 96 0 2.36 123 19:21 22.01.2020
360 Snow 5 1012 96 0 2.36 123 18:59 22.01.2020
361 Snow 5 1012 96 0 2.36 123 18:40 22.01.2020
362 Snow 5 1011 96 0 2.36 123 18:21 22.01.2020
363 Snow 5 1012 96 0 2.36 123 17:59 22.01.2020
364 Snow 5 1012 96 0 2.36 123 17:39 22.01.2020
365 Snow 5 1012 95 0 1.73 110 17:20 22.01.2020
366 Snow 5 1011 95 0 1.73 110 17:20 22.01.2020
367 Snow 5 1011 95 0 1.73 110 16:55 22.01.2020
368 Snow 5 1011 95 0 1.73 110 16:55 22.01.2020
369 Snow 5 1011 95 0 1.73 110 16:55 22.01.2020
370 Snow 5 1011 95 0 1.73 110 16:37 22.01.2020
371 Snow 5 1012 95 0 1.73 110 16:18 22.01.2020
372 Snow 5 1012 95 0 1.73 110 15:42 22.01.2020
373 Snow 4 1012 95 0 1.73 110 15:23 22.01.2020
374 Snow 4 1012 95 0 1.73 110 14:59 22.01.2020
375 Snow 4 1012 95 0 1.73 110 14:38 22.01.2020
376 Snow 4 1012 95 0 0.67 91 14:20 22.01.2020
377 Snow 4 1013 95 0 0.45 204 13:56 22.01.2020
378 Snow 4 1013 95 0 0.45 204 13:56 22.01.2020
379 Snow 4 1013 95 0 0.45 204 13:56 22.01.2020
380 Snow 5 1013 95 0 0.67 91 13:37 22.01.2020
381 Snow 4 1014 96 0 0.84 104 13:19 22.01.2020
382 Snow 4 1014 95 0 0.89 232 12:56 22.01.2020
383 Snow 4 1014 95 0 0.84 104 12:38 22.01.2020
384 Snow 5 1014 95 0 3.13 174 12:18 22.01.2020
385 Snow 5 1015 95 0 0.84 104 11:56 22.01.2020
386 Snow 5 1015 95 0 0.89 215 11:38 22.01.2020
387 Snow 4 1015 95 0 0.89 238 11:18 22.01.2020
388 Snow 4 1015 95 0 1.79 212 10:44 22.01.2020
389 Snow 4 1015 95 0 4.02 232 10:21 22.01.2020
390 Snow 4 1015 95 0 4.02 232 10:21 22.01.2020
391 Snow 4 1015 94 0 3.58 214 09:44 22.01.2020
392 Snow 4 1014 94 0 3.58 212 09:25 22.01.2020
393 Snow 3 1014 92 0 1.34 229 08:58 22.01.2020
394 Snow 4 1014 91 0 0.45 221 08:40 22.01.2020
395 Snow 3 1014 91 0 1.49 341 08:21 22.01.2020
396 Snow 3 1014 93 0 1.49 341 07:54 22.01.2020
397 Snow 3 1014 92 0 1.49 341 07:36 22.01.2020
398 Snow 3 1014 94 0 1.49 341 07:18 22.01.2020
399 Snow 2 1024 94 0 1.49 341 06:30 22.01.2020
400 Snow 2 1024 94 0 1.49 341 05:41 22.01.2020
401 Snow 2 1024 94 0 1.49 341 05:41 22.01.2020
402 Snow 2 1024 93 0 1.57 171 04:18 22.01.2020
403 Snow 3 1015 93 0 1.57 171 03:22 22.01.2020
404 Snow 3 1024 91 0 1.57 171 02:27 22.01.2020
405 Snow 5 1024 72 0 3.43 55 00:45 22.01.2020
406 Snow 6 1023 72 0 3.43 55 00:26 22.01.2020
407 Snow 6 1023 74 0 3.43 55 23:39 21.01.2020
408 Snow 6 1023 73 0 3.78 67 23:21 21.01.2020
409 Snow 6 1023 74 0 3.78 67 22:59 21.01.2020
410 Snow 7 1024 73 0 3.78 67 22:39 21.01.2020
411 Snow 7 1024 73 0 3.78 67 22:20 21.01.2020
412 Snow 5 1024 74 0 3.78 67 21:56 21.01.2020
413 Snow 6 1024 73 0 3.78 67 21:37 21.01.2020
414 Snow 5 1016 88 0 0.45 155 21:19 21.01.2020
415 Snow 6 1023 73 0 3.78 67 20:55 21.01.2020
416 Snow 5 1016 86 0 3.78 67 20:37 21.01.2020
417 Snow 5 1016 89 0 2.47 74 20:18 21.01.2020
418 Snow 5 1016 89 0 2.47 74 20:18 21.01.2020
419 Snow 5 1024 70 0 3.04 64 19:55 21.01.2020
420 Snow 5 1016 86 0 3.04 64 19:36 21.01.2020
421 Snow 5 1016 83 0 3.04 64 19:18 21.01.2020
422 Snow 5 1024 72 0 3.04 64 18:54 21.01.2020
423 Snow 5 1024 71 0 3.04 64 18:36 21.01.2020
424 Snow 6 1024 73 0 3.04 64 18:18 21.01.2020
425 Snow 5 1024 74 0 3.04 64 17:42 21.01.2020
426 Snow 7 1024 72 0 2.46 77 17:19 21.01.2020
427 Snow 7 1024 72 0 2.46 77 17:19 21.01.2020
428 Snow 6 1024 72 0 0.45 135 16:55 21.01.2020
429 Snow 6 1024 72 0 2.46 77 16:36 21.01.2020
430 Snow 6 1024 72 0 0.45 224 16:18 21.01.2020
431 Snow 7 1024 73 0 2.46 77 15:39 21.01.2020
432 Snow 6 1024 72 0 0.45 287 15:20 21.01.2020
433 Snow 6 1025 76 0 0.45 222 14:40 21.01.2020
434 Snow 6 1025 76 0 0.45 93 14:22 21.01.2020
435 Snow 6 1025 74 0 3.4 93 13:58 21.01.2020
436 Snow 6 1026 68 0 1.34 165 13:38 21.01.2020
437 Snow 6 1026 63 0 4.04 94 13:18 21.01.2020
438 Snow 6 1026 61 0 0.89 12 12:42 21.01.2020
439 Snow 5 1026 59 0 4.04 94 12:24 21.01.2020
440 Snow 5 1018 84 0 0.45 215 11:56 21.01.2020
441 Snow 5 1027 63 0 4.04 94 11:38 21.01.2020
442 Snow 2 1017 84 0 0.45 239 11:19 21.01.2020
443 Snow 4 1027 64 0 3.7 78 10:43 21.01.2020
444 Snow 4 1017 88 0 3.7 78 10:23 21.01.2020
445 Snow 4 1027 66 0 3.7 78 09:56 21.01.2020
446 Snow 4 1018 85 0 0.45 30 09:38 21.01.2020
447 Snow 3 1018 84 0 3.7 78 09:19 21.01.2020
448 Snow 3 1027 67 0 3.7 78 08:41 21.01.2020
449 Snow 1 1018 84 0 3.46 51 08:22 21.01.2020
450 Snow 2 1027 67 0 3.46 51 07:43 21.01.2020
451 Snow 2 1027 67 0 3.46 51 07:24 21.01.2020
452 Snow 2 1028 66 0 3.46 51 06:57 21.01.2020
453 Snow 2 1028 66 0 3.46 51 06:38 21.01.2020
454 Snow 1 1018 84 0 3.46 51 05:53 21.01.2020
455 Clouds 1 1018 85 0 4.28 42 04:41 21.01.2020
456 Clouds 1 1018 85 0 4.28 42 04:19 21.01.2020
457 Clouds 0 1029 66 0 4.28 42 02:26 21.01.2020
458 Clouds 1 1019 85 0 3.82 49 01:31 21.01.2020
459 Clouds 2 1019 87 0 3.96 44 00:41 21.01.2020
460 Clouds 2 1020 87 0 3.96 44 00:21 21.01.2020
461 Clouds 2 1030 67 0 3.96 44 23:41 20.01.2020
462 Clouds 1 1020 85 0 3.95 49 23:19 20.01.2020
463 Clouds 1 1020 85 0 3.95 49 22:59 20.01.2020
464 Clouds 2 1020 83 0 3.95 49 22:39 20.01.2020
465 Clouds 1 1020 83 0 1.79 8 22:21 20.01.2020
466 Clouds 1 1020 87 0 3.95 49 21:58 20.01.2020
467 Clouds 2 1020 86 0 3.95 49 21:38 20.01.2020
468 Clouds 3 1030 64 0 3.95 49 21:19 20.01.2020
469 Clouds 1 1030 66 0 3.95 49 20:57 20.01.2020
470 Clouds 2 1019 85 0 1.34 255 20:38 20.01.2020
471 Clouds 3 1030 62 0 4.38 38 20:19 20.01.2020
472 Clouds 3 1030 62 0 4.38 38 20:19 20.01.2020
473 Clouds 2 1031 63 0 4.38 38 19:56 20.01.2020
474 Clouds 1 1031 63 0 4.38 38 19:38 20.01.2020
475 Clouds 1 1020 88 0 4.38 38 19:18 20.01.2020
476 Clouds 1 1020 88 0 4.38 38 18:44 20.01.2020
477 Clouds 4 1027 48 10000 7.2 40 18:23 20.01.2020
478 Clouds 4 1027 48 10000 7.2 40 17:58 20.01.2020
479 Clouds 4 1027 48 10000 7.2 40 17:36 20.01.2020
480 Clouds 4 1027 48 10000 7.2 40 17:36 20.01.2020
481 Clouds 5 1027 48 10000 7.2 40 17:18 20.01.2020
482 Clouds 5 1027 48 10000 8.2 50 16:43 20.01.2020
483 Clouds 5 1026 48 10000 7.7 50 16:25 20.01.2020
484 Clouds 5 1026 48 10000 8.2 40 15:58 20.01.2020
485 Clouds 5 1026 48 10000 8.2 40 15:39 20.01.2020
486 Clouds 5 1026 48 10000 8.2 40 15:21 20.01.2020
487 Clouds 5 1026 45 10000 8.2 40 14:42 20.01.2020
488 Clouds 5 1027 48 10000 7.7 40 14:24 20.01.2020
489 Clouds 6 1027 48 10000 7.2 40 13:59 20.01.2020
490 Clouds 6 1027 48 10000 7.2 40 13:40 20.01.2020
491 Clouds 5 1027 48 10000 7.7 50 13:22 20.01.2020
492 Clouds 6 1027 44 10000 8.2 40 12:47 20.01.2020
493 Clouds 5 1028 48 10000 8.7 50 12:28 20.01.2020
494 Clouds 5 1028 48 10000 8.7 50 12:28 20.01.2020
495 Clouds 5 1028 44 10000 8.2 50 11:59 20.01.2020
496 Clouds 5 1028 44 10000 8.2 50 11:39 20.01.2020
497 Clouds 1 1028 44 10000 8.2 40 11:21 20.01.2020
498 Clouds 1 1027 47 10000 6.7 40 10:48 20.01.2020
499 Clouds 1 1027 47 10000 6.7 40 10:48 20.01.2020
500 Clouds 0 1027 47 10000 6.2 40 10:22 20.01.2020
501 Clouds -1 1027 44 10000 8.2 40 09:57 20.01.2020
502 Clouds 2 1027 44 10000 8.2 40 09:39 20.01.2020
503 Clouds 1 1027 40 10000 7.2 40 09:20 20.01.2020
504 Clouds 1 1029 57 0 4.88 38 08:44 20.01.2020
505 Clouds -2 1017 94 0 4.76 33 08:26 20.01.2020
506 Clouds -2 1029 57 0 4.76 33 07:45 20.01.2020
507 Clouds 0 1029 56 0 4.76 33 07:24 20.01.2020
508 Clouds -1 1016 93 0 4.76 33 06:46 20.01.2020
509 Clouds 0 1029 50 0 4.76 33 06:26 20.01.2020
510 Clouds -2 1029 55 0 4.76 33 05:42 20.01.2020
511 Clouds -2 1016 93 0 0.89 1 05:21 20.01.2020
512 Clouds -3 1029 55 0 0.45 139 04:41 20.01.2020
513 Clouds 0 1029 57 0 5.06 24 02:57 20.01.2020
514 Clouds 0 1029 60 0 5.88 17 01:52 20.01.2020
515 Clouds -2 1030 60 0 5.96 20 01:26 20.01.2020
516 Clouds 0 1030 62 0 0.45 308 00:44 20.01.2020
517 Clouds 0 1030 62 0 0.45 304 00:22 20.01.2020
518 Clouds -2 1017 92 0 2.24 349 23:39 19.01.2020
519 Clouds -3 1017 93 0 1.79 300 23:20 19.01.2020
520 Clouds -3 1017 93 0 1.79 300 23:20 19.01.2020
521 Clouds -3 1017 93 0 1.79 300 23:20 19.01.2020
522 Clouds -3 1030 65 0 0.45 291 22:56 19.01.2020
523 Clouds -3 1017 93 0 1.79 336 22:56 19.01.2020
524 Clouds 0 1030 68 0 1.34 117 22:38 19.01.2020
525 Clouds 0 1030 69 0 0.89 305 22:20 19.01.2020
526 Clouds 0 1030 67 0 0.45 34 21:56 19.01.2020
527 Clouds 0 1030 66 0 1.34 34 21:38 19.01.2020
528 Clouds 0 1029 64 0 0.89 25 21:20 19.01.2020
529 Clouds 0 1029 64 0 2.24 232 20:57 19.01.2020
530 Clouds 0 1029 62 0 1.34 299 20:38 19.01.2020
531 Clouds 1 1029 63 0 1.79 257 20:20 19.01.2020
532 Clouds 1 1029 63 0 0.45 301 19:56 19.01.2020
533 Clouds -1 1016 94 0 3.13 3 19:38 19.01.2020
534 Clouds 0 1016 94 0 3.58 3 19:19 19.01.2020
535 Clouds -3 1016 93 0 3.13 10 18:55 19.01.2020
536 Clouds -2 1016 91 0 3.58 17 18:37 19.01.2020
537 Clouds -1 1023 26 10000 11.3 360 18:19 19.01.2020
538 Clouds -1 1023 26 10000 11.3 360 17:58 19.01.2020
539 Clouds 0 1023 26 10000 11.3 360 17:39 19.01.2020
540 Clouds 5 1023 26 10000 11.3 360 17:20 19.01.2020
541 Clouds 5 1022 28 10000 12.3 360 16:57 19.01.2020
542 Clouds 5 1022 28 10000 12.3 360 16:38 19.01.2020
543 Clouds 7 1022 28 10000 10.8 360 16:19 19.01.2020
544 Clouds 7 1021 26 10000 9.3 10 15:57 19.01.2020
545 Clouds 7 1021 26 10000 9.8 10 15:37 19.01.2020
546 Clouds 7 1021 26 10000 9.8 10 15:19 19.01.2020
547 Clouds 7 1021 26 10000 10.3 30 14:57 19.01.2020
548 Clouds 6 1021 26 10000 10.3 30 14:37 19.01.2020
549 Clouds 6 1021 22 10000 10.3 30 14:18 19.01.2020
550 Clouds 6 1021 26 10000 9.3 20 13:54 19.01.2020
551 Clouds 6 1021 26 10000 9.3 20 13:36 19.01.2020
552 Clouds 6 1021 28 10000 7.2 10 13:18 19.01.2020
553 Clouds 7 1022 28 10000 8.7 30 12:42 19.01.2020
554 Clouds 7 1022 36 10000 7.2 40 12:23 19.01.2020
555 Clouds 7 1022 36 10000 7.2 50 11:57 19.01.2020
556 Clouds 7 1022 36 10000 7.2 50 11:39 19.01.2020
557 Clouds 2 1022 38 10000 8.2 40 11:19 19.01.2020
558 Clouds 4 1021 45 10000 8.7 50 10:54 19.01.2020
559 Clouds 4 1021 45 10000 8.7 50 10:36 19.01.2020
560 Clouds 3 1021 52 10000 6.7 50 10:18 19.01.2020
561 Clouds 3 1020 52 10000 6.2 40 09:41 19.01.2020
562 Clouds 4 1020 56 10000 4.6 30 09:23 19.01.2020
563 Clouds 3 1021 59 0 0.45 218 08:56 19.01.2020
564 Clouds 3 1021 65 0 0.45 146 08:38 19.01.2020
565 Snow 2 1021 68 0 0.45 167 08:19 19.01.2020
566 Snow 2 1021 69 0 4.69 18 07:30 19.01.2020
567 Snow 3 1025 58 0 4.69 18 06:56 19.01.2020
568 Snow 2 1025 54 0 4.69 18 06:25 19.01.2020
569 Snow 3 1019 65 0 3.13 20 04:39 19.01.2020
570 Snow 2 1010 72 0 0.89 44 02:36 19.01.2020
571 Snow 2 1020 64 0 0.89 77 01:58 19.01.2020
572 Snow 2 1010 73 0 0.89 77 01:22 19.01.2020
573 Snow 1 1010 74 0 0.74 94 00:45 19.01.2020
574 Snow 1 1010 74 0 0.74 94 00:45 19.01.2020
575 Snow 1 1010 73 0 0.74 94 00:26 19.01.2020
576 Snow 2 1020 61 0 0.74 94 23:55 18.01.2020
577 Snow 2 1010 74 0 0.45 207 23:36 18.01.2020
578 Clouds 2 1010 73 0 1.43 94 23:18 18.01.2020
579 Clouds 2 1021 61 0 1.43 94 22:43 18.01.2020
580 Clouds 2 1010 70 0 2.24 232 22:24 18.01.2020
581 Clouds 2 1011 71 0 1.43 94 21:58 18.01.2020
582 Clouds 2 1021 60 0 1.43 94 21:39 18.01.2020
583 Clouds 2 1011 69 0 1.34 215 21:20 18.01.2020
584 Clouds 2 1021 59 0 1.43 94 20:57 18.01.2020
585 Clouds 2 1022 59 0 1.43 94 20:39 18.01.2020
586 Clouds 2 1011 68 0 2.68 188 20:19 18.01.2020
587 Clouds 3 1011 67 0 2.24 218 19:43 18.01.2020
588 Clouds 3 1011 66 0 2.68 228 19:24 18.01.2020
589 Clouds 4 1012 65 0 3.13 190 18:43 18.01.2020
590 Clouds 5 1022 45 10000 2.6 220 18:25 18.01.2020
591 Clouds 5 1022 45 10000 2.6 220 18:25 18.01.2020
592 Clouds 5 1022 45 10000 2.6 220 17:59 18.01.2020
593 Clouds 6 1022 45 10000 2.6 220 17:40 18.01.2020
594 Clouds 7 1022 45 10000 2.6 220 17:20 18.01.2020
595 Clouds 8 1022 39 10000 2.6 200 16:57 18.01.2020
596 Clouds 8 1022 39 10000 2.6 200 16:38 18.01.2020
597 Clouds 9 1022 36 10000 2.1 220 16:19 18.01.2020
598 Clouds 9 1023 31 10000 1.5 210 15:44 18.01.2020
599 Clouds 9 1024 33 10000 1.5 0 15:25 18.01.2020
600 Clouds 9 1024 36 10000 2.1 230 14:59 18.01.2020
601 Clouds 9 1024 36 10000 2.1 230 14:40 18.01.2020
602 Clouds 8 1025 48 10000 2.1 220 14:19 18.01.2020
603 Clouds 8 1026 48 10000 1.5 220 13:55 18.01.2020
604 Clouds 7 1026 48 10000 1.5 220 13:36 18.01.2020
605 Clouds 7 1027 44 10000 1 0 13:18 18.01.2020
606 Clouds 7 1027 44 10000 1 0 13:18 18.01.2020
607 Clouds 6 1028 48 10000 1.5 190 12:40 18.01.2020
608 Clouds 5 1029 55 10000 0.5 0 12:21 18.01.2020
609 Clouds 4 1029 64 10000 1 0 11:44 18.01.2020
610 Clouds 3 1029 64 10000 2.2 212 11:24 18.01.2020
611 Clouds 2 1029 44 10000 0.5 0 10:57 18.01.2020
612 Clouds 1 1029 44 10000 0.5 0 10:38 18.01.2020
613 Clouds 1 1029 74 10000 1.5 210 10:20 18.01.2020
614 Clouds 0 1029 80 10000 2.1 40 09:48 18.01.2020
615 Clouds 0 1030 74 10000 1 0 09:30 18.01.2020
616 Clouds 0 1030 57 0 0.78 179 08:56 18.01.2020
617 Clouds 0 1019 58 0 0.78 179 08:38 18.01.2020
618 Clouds -1 1019 39 0 1.79 221 08:19 18.01.2020
619 Clouds -1 1019 57 0 0.76 15 07:47 18.01.2020
620 Clouds -1 1029 57 0 0.76 15 07:29 18.01.2020
621 Clouds -1 1029 54 0 0.76 15 06:47 18.01.2020
622 Clouds -1 1019 78 0 0.76 15 05:59 18.01.2020
623 Clouds -1 1019 75 0 2.3 21 05:21 18.01.2020
624 Clouds 0 1029 55 0 2.3 21 02:55 18.01.2020
625 Clouds 0 1020 70 0 0.45 34 01:52 18.01.2020
626 Clouds 1 1029 57 0 3.48 16 01:30 18.01.2020
627 Clouds 1 1029 63 0 3.58 15 00:36 18.01.2020
628 Clouds 2 1028 69 0 0.45 292 00:18 18.01.2020
629 Clouds 2 1031 94 0 3.58 15 23:41 17.01.2020
630 Clouds 3 1025 58 0 2.24 68 23:19 17.01.2020
631 Clouds 2 1029 52 0 0.89 96 22:44 17.01.2020
632 Clouds 3 1029 53 0 3.7 18 22:21 17.01.2020
633 Clouds 3 1029 59 0 3.7 18 21:58 17.01.2020
634 Clouds 4 1027 80 0 0.45 134 21:40 17.01.2020
635 Clouds 3 1025 37 0 3.7 18 21:22 17.01.2020
636 Clouds 4 1033 71 0 3.7 18 20:57 17.01.2020
637 Clouds 4 1030 94 0 3.7 18 20:38 17.01.2020
638 Snow 4 1028 75 0 2.68 225 20:20 17.01.2020
639 Snow 5 1033 67 0 3.52 15 19:55 17.01.2020
640 Snow 5 1033 67 0 3.52 15 19:37 17.01.2020
641 Snow 5 1027 72 0 58.12 225 19:18 17.01.2020
642 Snow 5 1027 70 0 8.05 225 18:45 17.01.2020
643 Rain 5 1025 39 10000 6.7 300 18:27 17.01.2020
644 Rain 6 1025 39 10000 6.7 300 17:56 17.01.2020
645 Rain 6 1025 39 10000 6.7 300 17:38 17.01.2020
646 Rain 7 1025 39 10000 6.7 300 17:20 17.01.2020
647 Rain 7 1025 39 10000 6.7 300 17:20 17.01.2020
648 Clouds 7 1024 39 10000 3.6 290 16:42 17.01.2020
649 Rain 7 1024 46 10000 6.2 280 16:20 17.01.2020
650 Rain 8 1023 53 10000 4.6 240 15:48 17.01.2020
651 Rain 7 1023 53 10000 6.7 220 15:27 17.01.2020
652 Rain 8 1022 40 10000 7.2 250 14:56 17.01.2020
653 Rain 8 1022 40 10000 7.2 250 14:38 17.01.2020
654 Clouds 9 1023 43 10000 6.2 220 14:20 17.01.2020
655 Clouds 9 1024 53 10000 1.5 0 13:39 17.01.2020
656 Clouds 9 1024 61 10000 1 0 13:21 17.01.2020
657 Clouds 9 1024 61 10000 1 0 13:21 17.01.2020
658 Clouds 9 1025 65 10000 1 0 12:45 17.01.2020
659 Clouds 8 1025 70 10000 1 0 12:22 17.01.2020
660 Clouds 7 1026 75 10000 1 0 11:41 17.01.2020
661 Clouds 6 1026 76 10000 1 0 11:19 17.01.2020
662 Clouds 5 1026 76 10000 1 0 10:45 17.01.2020
663 Clouds 3 1025 76 10000 0.5 0 10:24 17.01.2020
664 Clouds 3 1025 76 10000 0.5 0 09:59 17.01.2020
665 Clouds 2 1025 76 10000 0.5 0 09:41 17.01.2020
666 Clouds 2 1025 76 10000 1.5 10 09:20 17.01.2020
667 Clouds 2 1016 76 0 1.01 328 08:46 17.01.2020
668 Clouds 2 1024 82 0 1.01 328 08:26 17.01.2020
669 Clouds 3 1016 75 0 0.89 218 07:56 17.01.2020
670 Clouds 3 1016 75 0 1.34 197 07:36 17.01.2020
671 Clouds 3 1016 74 0 0.89 124 07:18 17.01.2020
672 Clouds 3 1024 77 0 0.76 42 06:43 17.01.2020
673 Clouds 3 1016 74 0 3.13 224 05:59 17.01.2020
674 Clouds 2 1017 71 0 4.02 200 03:44 17.01.2020
675 Clouds 2 1017 71 0 2.24 200 02:55 17.01.2020
676 Clouds 3 1017 75 0 4.92 231 01:48 17.01.2020
677 Clouds 2 1017 74 0 6.26 232 01:29 17.01.2020
678 Clouds 3 1017 72 0 6.26 211 00:51 17.01.2020
679 Clouds 3 1018 73 0 4.02 181 00:28 17.01.2020
680 Clouds 3 1017 71 0 3.13 124 23:46 16.01.2020
681 Clouds 3 1017 71 0 3.13 124 23:46 16.01.2020
682 Clouds 3 1026 76 0 0.45 149 23:26 16.01.2020
683 Clouds 3 1026 75 0 1.98 208 22:58 16.01.2020
684 Clouds 3 1017 65 0 4.02 218 22:40 16.01.2020
685 Clouds 3 1017 64 0 3.13 197 22:20 16.01.2020
686 Clouds 3 1017 64 0 4.02 252 21:55 16.01.2020
687 Clouds 4 1017 63 0 3.58 218 21:37 16.01.2020
688 Clouds 4 1017 62 0 4.92 197 21:18 16.01.2020
689 Clouds 4 1017 61 0 3.13 198 20:41 16.01.2020
690 Clouds 4 1018 61 0 2.24 214 20:41 16.01.2020
691 Clear 5 1017 61 0 3.13 226 20:22 16.01.2020
692 Clear 5 1017 60 0 2.24 201 19:59 16.01.2020
693 Clear 5 1018 58 0 2.68 184 19:41 16.01.2020
694 Clear 5 1018 59 0 3.58 207 19:22 16.01.2020
695 Clear 6 1018 57 0 3.13 212 18:57 16.01.2020
696 Clear 5 1018 57 0 3.58 197 18:39 16.01.2020
697 Clear 6 1025 43 10000 1.5 210 18:20 16.01.2020
698 Clear 7 1025 43 10000 1.5 210 17:59 16.01.2020
699 Clear 7 1025 43 10000 1.5 210 17:59 16.01.2020
700 Clear 8 1025 43 10000 1.5 210 17:40 16.01.2020
701 Clear 8 1025 43 10000 1.5 210 17:20 16.01.2020
702 Clear 10 1025 40 10000 1.5 210 16:42 16.01.2020
703 Clear 11 1025 40 10000 1 0 16:24 16.01.2020
704 Clear 11 1025 37 10000 1 0 15:58 16.01.2020
705 Clear 12 1025 37 10000 1 0 15:39 16.01.2020
706 Clear 12 1025 37 10000 1 0 15:39 16.01.2020
707 Clear 11 1025 39 10000 1 0 15:20 16.01.2020
708 Clear 11 1026 39 10000 0.5 0 14:44 16.01.2020
709 Clear 11 1026 45 10000 2.1 200 14:24 16.01.2020
710 Clear 10 1027 48 10000 1 0 13:55 16.01.2020
711 Clear 10 1027 52 10000 0.5 0 13:37 16.01.2020
712 Clear 9 1027 52 10000 0.5 0 13:19 16.01.2020
713 Clear 9 1028 52 10000 2.42 214 12:41 16.01.2020
714 Clear 8 1028 60 10000 0.5 0 12:21 16.01.2020
715 Clear 7 1029 59 10000 1.5 60 11:43 16.01.2020
716 Clear 4 1029 66 10000 1.5 60 11:24 16.01.2020
717 Clear 3 1029 66 10000 1 0 10:57 16.01.2020
718 Clear 2 1029 66 10000 1 0 10:37 16.01.2020
719 Clear 1 1029 80 10000 1 0 10:19 16.01.2020
720 Clear 1 1029 80 10000 0.13 189 09:44 16.01.2020
721 Clear 0 1029 92 10000 0.5 70 09:24 16.01.2020
722 Clear 0 1019 44 0 2.24 232 08:59 16.01.2020
723 Clear 0 1019 35 0 3.13 222 08:41 16.01.2020
724 Clear 0 1019 45 0 2.24 191 08:20 16.01.2020
725 Clear -1 1029 69 0 0.4 109 07:43 16.01.2020
726 Clear -1 1029 69 0 0.4 109 07:24 16.01.2020
727 Clear 0 1029 68 0 0.4 109 06:55 16.01.2020
728 Clear 0 1018 55 0 3.58 252 06:35 16.01.2020
729 Clear 0 1019 55 0 1.79 177 05:51 16.01.2020
730 Clouds 0 1019 59 0 2.24 207 04:51 16.01.2020
731 Clouds 0 1028 38 0 0.71 100 04:21 16.01.2020
732 Clouds 0 1028 62 0 0.71 100 03:27 16.01.2020
733 Clouds 1 1019 63 0 1.34 201 02:21 16.01.2020
734 Clouds 1 1019 59 0 1.34 207 00:43 16.01.2020
735 Clouds 1 1019 56 0 2.68 276 00:23 16.01.2020
736 Clouds 1 1028 59 0 0.85 77 23:45 15.01.2020
737 Clouds 1 1019 59 0 1.34 58 23:22 15.01.2020
738 Clouds 2 1019 59 0 0.94 92 22:56 15.01.2020
739 Clouds 1 1027 57 0 0.94 92 22:38 15.01.2020
740 Clouds 2 1019 60 0 0.94 92 22:18 15.01.2020
741 Clouds 2 1027 56 0 0.94 92 21:56 15.01.2020
742 Clouds 2 1019 59 0 0.94 92 21:37 15.01.2020
743 Clouds 2 1019 58 0 0.94 92 21:18 15.01.2020
744 Clouds 2 1018 58 0 0.94 92 20:55 15.01.2020
745 Clouds 2 1018 56 0 0.94 92 20:37 15.01.2020
746 Clouds 3 1019 57 0 2.5 32 20:18 15.01.2020
747 Clouds 3 1018 53 0 2.5 32 19:54 15.01.2020
748 Clouds 4 1018 54 0 2.5 32 19:36 15.01.2020
749 Clouds 4 1018 54 0 2.5 32 19:36 15.01.2020
750 Clouds 4 1018 53 0 2.5 32 19:18 15.01.2020
751 Clouds 5 1018 51 0 2.5 32 18:55 15.01.2020
752 Clouds 5 1017 53 0 2.5 32 18:37 15.01.2020
753 Clouds 5 1017 48 0 2.5 32 18:18 15.01.2020
754 Clouds 6 1017 42 0 2.5 32 17:40 15.01.2020
755 Clouds 7 1016 52 0 0.52 313 17:22 15.01.2020
756 Clouds 7 1017 53 0 0.52 313 17:22 15.01.2020
757 Clouds 8 1016 51 0 0.52 313 16:57 15.01.2020
758 Clouds 9 1023 34 0 0.52 313 16:38 15.01.2020
759 Clouds 9 1023 34 0 0.52 313 16:20 15.01.2020
760 Clouds 9 1023 34 0 0.52 313 16:20 15.01.2020
761 Clouds 9 1023 34 0 0.52 313 16:20 15.01.2020
762 Clouds 10 1023 35 0 0.52 313 15:43 15.01.2020
763 Clouds 10 1023 37 0 0.52 313 15:21 15.01.2020
764 Clouds 9 1015 37 0 0.52 313 14:56 15.01.2020
765 Clouds 8 1015 36 0 0.52 313 14:37 15.01.2020
766 Clouds 9 1015 35 0 1.34 249 14:18 15.01.2020
767 Clouds 9 1023 41 0 1.63 226 13:44 15.01.2020
768 Clouds 7 1015 38 0 0.89 233 13:23 15.01.2020
769 Clouds 6 1023 42 0 1.78 228 12:55 15.01.2020
770 Clouds 8 1023 43 0 1.78 228 12:37 15.01.2020
771 Clouds 8 1023 43 0 1.78 228 12:37 15.01.2020
772 Clouds 8 1024 45 0 1.78 228 12:18 15.01.2020
773 Clouds 8 1024 45 0 1.78 228 12:18 15.01.2020
774 Clouds 5 1024 53 0 1.78 228 11:39 15.01.2020
775 Clouds 2 1015 42 0 2.24 134 11:20 15.01.2020
776 Clouds 1 1024 55 0 1.07 210 10:58 15.01.2020
777 Clouds 1 1023 56 0 1.07 210 10:40 15.01.2020
778 Clouds 1 1023 54 0 1.07 210 10:21 15.01.2020
779 Clouds 0 1023 57 0 1.07 210 09:41 15.01.2020
780 Clouds 0 1013 43 0 4.92 200 09:21 15.01.2020
781 Clouds -1 1022 55 0 1.07 210 08:45 15.01.2020
782 Clouds -1 1012 43 0 4.02 228 08:26 15.01.2020
783 Clouds 0 1022 54 0 0.78 213 07:56 15.01.2020
784 Clouds -1 1012 44 0 3.13 200 07:33 15.01.2020
785 Clouds 0 1012 42 0 3.58 257 06:54 15.01.2020
786 Clouds 0 1012 40 0 4.47 208 06:32 15.01.2020
787 Clouds 0 1012 41 0 2.68 215 05:32 15.01.2020
788 Clouds 0 1012 43 0 4.02 225 03:35 15.01.2020
789 Clear 1 1013 38 0 1.79 219 01:49 15.01.2020
790 Clear 1 1012 39 0 4.47 200 01:22 15.01.2020
791 Clear 0 1022 48 0 0.69 196 00:37 15.01.2020
792 Clear 0 1013 38 0 3.58 225 00:19 15.01.2020
793 Clear 1 1013 41 0 4.02 195 23:47 14.01.2020
794 Clear 1 1013 40 0 5.81 231 23:28 14.01.2020
795 Clear 1 1022 45 0 0.51 187 22:57 14.01.2020
796 Clear 2 1022 44 0 0.51 187 22:39 14.01.2020
797 Clear 1 1013 42 0 5.36 204 22:18 14.01.2020
798 Clear 2 1013 43 0 4.92 183 21:57 14.01.2020
799 Clear 2 1013 41 0 4.47 179 21:38 14.01.2020
800 Clear 2 1013 41 0 2.24 203 21:19 14.01.2020
801 Clear 2 1013 44 0 4.02 243 20:43 14.01.2020
802 Clear 3 1013 43 0 3.58 215 20:23 14.01.2020
803 Clear 3 1022 41 0 0.35 184 19:57 14.01.2020
804 Clear 3 1013 45 0 4.92 210 19:39 14.01.2020
805 Clear 4 1013 43 0 3.58 218 19:20 14.01.2020
806 Clear 4 1013 44 0 1.34 218 18:59 14.01.2020
807 Clear 4 1013 40 0 2.24 172 18:40 14.01.2020
808 Clear 5 1013 48 0 2.68 201 18:19 14.01.2020
809 Clear 6 1013 45 0 3.13 232 17:39 14.01.2020
810 Clear 7 1013 45 0 2.24 219 17:20 14.01.2020
811 Clear 7 1020 30 0 2.11 210 16:59 14.01.2020
812 Clear 8 1020 28 0 2.11 210 16:41 14.01.2020
813 Clear 9 1018 10 0 1.34 337 16:21 14.01.2020
814 Clear 10 1018 9 0 2.68 288 15:55 14.01.2020
815 Clear 10 1013 36 0 1.34 315 15:37 14.01.2020
816 Clear 10 1018 53 0 0.89 158 15:18 14.01.2020
817 Clear 9 1020 25 0 0.45 204 14:43 14.01.2020
818 Clouds 9 1020 26 0 2.71 210 14:20 14.01.2020
819 Clouds 8 1020 26 0 2.71 210 13:43 14.01.2020
820 Clouds 8 1021 27 0 2.71 210 13:20 14.01.2020
821 Clouds 8 1021 29 0 2.88 211 12:59 14.01.2020
822 Clouds 10 1021 27 0 2.88 211 12:40 14.01.2020
823 Clouds 9 1021 28 0 2.88 211 12:20 14.01.2020
824 Clouds 9 1021 28 0 2.88 211 12:20 14.01.2020
825 Clouds 9 1021 29 0 2.88 211 11:42 14.01.2020
826 Clouds 3 1013 44 0 3.13 226 11:23 14.01.2020
827 Clouds 3 1013 44 0 3.13 226 11:23 14.01.2020
828 Clouds 3 1022 34 0 0.75 168 10:58 14.01.2020
829 Clouds 3 1022 35 0 0.75 168 10:39 14.01.2020
830 Clouds 2 1013 47 0 3.58 231 10:19 14.01.2020
831 Clouds 3 1022 39 0 0.75 168 10:19 14.01.2020
832 Clouds 2 1022 39 0 0.75 168 09:56 14.01.2020
833 Clouds 1 1012 33 0 2.24 205 09:38 14.01.2020
834 Clouds 1 1012 26 0 0.89 211 09:20 14.01.2020
835 Clouds 0 1021 37 0 0.75 168 08:42 14.01.2020
836 Clouds 0 1021 39 0 0.86 183 08:23 14.01.2020
837 Clouds -1 1012 38 0 2.24 207 07:53 14.01.2020
838 Clouds 0 1012 25 0 1.79 222 07:31 14.01.2020
839 Clouds -1 1011 38 0 3.13 217 06:50 14.01.2020
840 Clouds 0 1011 27 0 2.24 221 06:23 14.01.2020
841 Clouds -1 1020 42 0 0.6 17 04:58 14.01.2020
842 Clouds 0 1011 28 0 0.89 205 03:48 14.01.2020
843 Clouds -1 1012 46 0 0.89 204 02:41 14.01.2020
844 Clear -1 1012 37 0 1.79 224 01:34 14.01.2020
845 Clear -1 1013 25 0 1.79 236 00:49 14.01.2020
846 Clear -1 1022 40 0 0.57 96 00:26 14.01.2020
847 Clear 0 1013 43 0 3.13 198 23:47 13.01.2020
848 Clear 0 1012 45 0 4.02 203 23:19 13.01.2020
849 Clear 0 1012 43 0 3.13 222 22:58 13.01.2020
850 Clear 0 1012 44 0 3.58 215 22:39 13.01.2020
851 Clear 0 1012 43 0 3.58 194 22:20 13.01.2020
852 Clear 0 1021 37 0 0.53 40 21:56 13.01.2020
853 Clear 1 1012 44 0 3.13 215 21:37 13.01.2020
854 Clear 0 1013 42 0 2.68 218 21:18 13.01.2020
855 Clear 1 1013 46 0 4.02 208 20:56 13.01.2020
856 Clear 1 1013 42 0 3.13 219 20:38 13.01.2020
857 Clouds 1 1013 44 0 3.58 210 20:19 13.01.2020
858 Clouds 2 1013 45 0 2.68 215 19:41 13.01.2020
859 Clouds 3 1013 50 0 3.13 204 19:21 13.01.2020
860 Clouds 3 1014 47 0 1.79 198 18:59 13.01.2020
861 Clouds 3 1014 53 0 1.79 228 18:40 13.01.2020
862 Clouds 4 1020 35 10000 0.5 0 18:20 13.01.2020
863 Clouds 4 1020 35 10000 0.5 0 18:20 13.01.2020
864 Clouds 4 1020 35 10000 0.5 0 18:20 13.01.2020
865 Clouds 4 1020 35 10000 0.5 0 18:20 13.01.2020
866 Clouds 5 1020 35 10000 0.5 0 17:58 13.01.2020
867 Clouds 5 1020 35 10000 0.5 0 17:39 13.01.2020
868 Clouds 6 1020 35 10000 0.5 0 17:20 13.01.2020
869 Clouds 6 1021 35 10000 1.5 220 16:43 13.01.2020
870 Clouds 7 1021 27 0 0.95 234 16:24 13.01.2020
871 Clouds 8 1021 25 0 0.95 234 15:59 13.01.2020
872 Clouds 8 1021 25 0 0.95 234 15:41 13.01.2020
873 Clouds 8 1021 26 0 0.95 234 15:21 13.01.2020
874 Clouds 9 1021 26 0 0.95 234 14:43 13.01.2020
875 Clouds 9 1021 10 0 0.95 234 14:24 13.01.2020
876 Clouds 8 1022 27 0 1.9 205 13:59 13.01.2020
877 Clouds 8 1022 28 0 1.9 205 13:40 13.01.2020
878 Clouds 7 1022 11 0 1.7 209 13:22 13.01.2020
879 Clouds 7 1023 27 0 1.7 209 12:57 13.01.2020
880 Clouds 6 1025 55 10000 0.5 0 12:39 13.01.2020
881 Clouds 6 1025 55 10000 0.5 0 12:21 13.01.2020
882 Clouds 4 1025 55 10000 0.5 0 11:39 13.01.2020
883 Clouds 2 1025 63 10000 1 0 11:20 13.01.2020
884 Clouds 1 1026 63 10000 1.5 70 10:57 13.01.2020
885 Clouds 1 1026 68 10000 0.5 0 10:39 13.01.2020
886 Clouds 0 1026 68 10000 0.5 0 10:20 13.01.2020
887 Clouds 1 1026 68 10000 0.5 0 09:56 13.01.2020
888 Clouds 0 1026 68 10000 0.5 0 09:38 13.01.2020
889 Clouds -1 1026 79 10000 1.5 360 09:19 13.01.2020
890 Clouds -1 1025 32 0 0.55 85 08:39 13.01.2020
891 Clouds -2 1017 25 0 0.45 222 08:20 13.01.2020
892 Clouds -2 1025 32 0 1.04 57 07:46 13.01.2020
893 Clouds -2 1025 32 0 1.04 57 07:27 13.01.2020
894 Clouds -2 1025 32 0 1.04 57 06:42 13.01.2020
895 Clouds -2 1025 33 0 1.04 57 06:19 13.01.2020
896 Clouds -2 1017 21 0 0.99 22 05:22 13.01.2020
897 Clouds -1 1018 37 0 2.24 210 03:52 13.01.2020
898 Clouds -1 1019 24 0 1.34 212 03:22 13.01.2020
899 Clouds -1 1027 36 0 0.99 22 02:38 13.01.2020
900 Clouds 0 1019 16 0 0.39 23 02:18 13.01.2020
901 Clouds -1 1019 28 0 0.34 41 00:59 13.01.2020
902 Clouds -1 1028 38 0 0.34 41 00:39 13.01.2020
903 Clouds -1 1020 16 0 0.34 41 00:19 13.01.2020
904 Clouds 0 1028 34 0 0.34 41 23:41 12.01.2020
905 Clouds 0 1020 18 0 0.34 41 23:22 12.01.2020
906 Clouds 0 1021 20 0 1.35 32 22:57 12.01.2020
907 Clouds 0 1028 33 0 1.35 32 22:39 12.01.2020
908 Clouds 0 1021 27 0 1.35 32 22:20 12.01.2020
909 Clouds 0 1029 35 0 1.35 32 21:54 12.01.2020
910 Clouds 0 1029 35 0 1.35 32 21:54 12.01.2020
911 Clouds 0 1029 35 0 1.35 32 21:54 12.01.2020
912 Clouds 0 1021 61 0 1.35 32 21:36 12.01.2020
913 Clouds 0 1021 61 0 1.35 32 21:36 12.01.2020
914 Clouds 0 1021 50 0 1.35 32 21:18 12.01.2020
915 Clouds 1 1021 58 0 1.35 32 20:54 12.01.2020
916 Clouds 1 1021 33 0 1.35 32 20:36 12.01.2020
917 Clouds 1 1021 38 0 1.99 17 20:18 12.01.2020
918 Clouds 1 1022 44 0 1.99 17 19:54 12.01.2020
919 Clouds 1 1022 44 0 1.99 17 19:54 12.01.2020
920 Clouds 1 1022 58 0 1.99 17 19:36 12.01.2020
921 Clouds 2 1022 59 0 1.99 17 19:18 12.01.2020
922 Clouds 2 1022 59 0 1.99 17 19:18 12.01.2020
923 Clouds 2 1022 48 0 1.99 17 18:54 12.01.2020
924 Clouds 2 1021 51 0 1.99 17 18:36 12.01.2020
925 Clouds 3 1022 31 0 1.99 17 18:18 12.01.2020
926 Clouds 4 1027 39 10000 2.6 230 17:42 12.01.2020
927 Clear 6 1027 39 10000 2.6 230 17:20 12.01.2020
928 Clear 7 1027 36 10000 2.6 220 16:57 12.01.2020
929 Clear 8 1027 36 10000 2.6 220 16:37 12.01.2020
930 Clear 8 1027 31 10000 2.1 200 16:19 12.01.2020
931 Clear 9 1027 31 10000 2.1 210 15:43 12.01.2020
932 Clear 9 1027 28 10000 2.1 190 15:25 12.01.2020
933 Clear 9 1027 26 10000 1.5 240 14:57 12.01.2020
934 Clear 9 1027 26 10000 1.5 240 14:38 12.01.2020
935 Clear 9 1028 28 10000 1.5 180 14:20 12.01.2020
936 Clear 8 1028 28 10000 1.5 180 13:54 12.01.2020
937 Clear 8 1029 25 10000 1.5 110 13:36 12.01.2020
938 Clear 8 1029 25 10000 1.5 110 13:18 12.01.2020
939 Clear 8 1029 25 10000 1.5 110 13:18 12.01.2020
940 Clear 8 1029 30 10000 1.16 5 12:43 12.01.2020
941 Clear 7 1030 40 10000 0.5 0 12:20 12.01.2020
942 Clear 7 1030 50 10000 1 0 11:59 12.01.2020
943 Clear 7 1030 50 10000 1 0 11:59 12.01.2020
944 Clear 6 1031 25 10000 0.5 0 11:39 12.01.2020
945 Clear 3 1031 25 10000 0.5 0 11:20 12.01.2020
946 Clear 2 1031 63 10000 1 0 10:42 12.01.2020
947 Clear 0 1031 68 10000 1 0 10:22 12.01.2020
948 Clear 0 1030 68 10000 0.5 0 09:57 12.01.2020
949 Clear 0 1030 68 10000 0.5 0 09:39 12.01.2020
950 Clear -1 1030 73 10000 3.22 25 09:20 12.01.2020
951 Clear -1 1023 28 0 3.22 25 08:45 12.01.2020
952 Clear -2 1022 27 0 3.9 26 08:21 12.01.2020
953 Clear -2 1022 17 0 3.9 26 07:42 12.01.2020
954 Clear -2 1029 21 0 3.9 26 07:24 12.01.2020
955 Clear -2 1029 23 0 3.9 26 06:48 12.01.2020
956 Clear -2 1022 17 0 0.45 333 06:30 12.01.2020
957 Clear -2 1028 22 0 3.9 26 05:32 12.01.2020
958 Clear -2 1028 23 0 3.11 27 04:30 12.01.2020
959 Clear -2 1021 49 0 3.11 27 03:25 12.01.2020
960 Clear -2 1022 51 0 3.11 27 02:34 12.01.2020
961 Clear -2 1021 61 0 2.94 25 01:51 12.01.2020
962 Clear -1 1029 23 0 2.92 27 01:29 12.01.2020
963 Clear -1 1029 23 0 2.92 27 00:41 12.01.2020
964 Clear -1 1022 62 0 0.45 246 00:20 12.01.2020
965 Clear -1 1022 63 0 2.92 27 23:42 11.01.2020
966 Clear -1 1022 63 0 2.92 27 23:42 11.01.2020
967 Clear -1 1022 57 0 3 26 23:19 11.01.2020
968 Clear -1 1022 25 0 3 26 22:58 11.01.2020
969 Clear -1 1022 31 0 3 26 22:39 11.01.2020
970 Clear 0 1022 26 0 0.45 38 22:20 11.01.2020
971 Clear 0 1022 19 0 3 26 21:58 11.01.2020
972 Clear 0 1022 21 0 3 26 21:39 11.01.2020
973 Clear 0 1022 23 0 3 26 21:18 11.01.2020
974 Clear 0 1022 23 0 3 26 21:18 11.01.2020
975 Clear 1 1022 25 0 0.45 3 20:40 11.01.2020
976 Clear 1 1022 26 0 0.45 15 20:40 11.01.2020
977 Clear 1 1022 33 0 3.35 27 20:22 11.01.2020
978 Clear 1 1022 35 0 3.35 27 19:58 11.01.2020
979 Clear 2 1022 32 0 0.45 311 19:39 11.01.2020
980 Clear 1 1022 30 0 0.89 359 19:21 11.01.2020
981 Clear 2 1022 31 0 0.89 58 18:58 11.01.2020
982 Clear 2 1022 32 0 1.34 39 18:38 11.01.2020
983 Clear 3 1027 48 10000 3.6 230 18:19 11.01.2020
984 Clear 2 1027 48 10000 3.6 230 17:57 11.01.2020
985 Clear 3 1027 48 10000 3.6 230 17:39 11.01.2020
986 Clear 5 1027 48 10000 3.6 230 17:19 11.01.2020
987 Clear 7 1027 39 10000 3.1 230 16:44 11.01.2020
988 Clear 7 1027 36 10000 2.6 220 16:26 11.01.2020
989 Clear 7 1027 31 10000 2.1 220 15:58 11.01.2020
990 Clear 8 1027 31 10000 2.1 220 15:40 11.01.2020
991 Clear 9 1027 27 10000 1.5 200 15:20 11.01.2020
992 Clear 9 1027 23 10000 1 0 14:56 11.01.2020
993 Clear 8 1028 26 10000 1 0 14:37 11.01.2020
994 Clear 8 1028 26 10000 1 0 14:19 11.01.2020
995 Clear 8 1028 31 10000 1 0 13:39 11.01.2020
996 Clear 8 1029 38 10000 1 0 13:20 11.01.2020
997 Clear 7 1030 35 10000 0.5 0 12:56 11.01.2020
998 Clear 7 1030 35 10000 0.5 0 12:38 11.01.2020
999 Clear 7 1030 41 10000 0.5 0 12:20 11.01.2020
1000 Clear 5 1030 55 10000 1 0 11:45 11.01.2020
1001 Clear 2 1030 51 10000 0.5 0 11:24 11.01.2020
1002 Clear 1 1030 64 10000 3.24 22 10:50 11.01.2020
1003 Clear 0 1030 68 10000 0.5 0 10:30 11.01.2020
1004 Clear 0 1030 68 10000 0.5 0 09:55 11.01.2020
1005 Clear 0 1030 73 10000 1 0 09:37 11.01.2020
1006 Clear -1 1030 73 10000 1 0 09:18 11.01.2020
1007 Clear 0 1030 29 0 3.24 22 08:41 11.01.2020
1008 Clear -1 1022 53 0 4 22 08:20 11.01.2020
1009 Clear -2 1021 45 0 4 22 07:43 11.01.2020
1010 Clear -1 1021 42 0 0.45 345 07:24 11.01.2020
1011 Clear -1 1021 48 0 4 22 06:45 11.01.2020
1012 Clear 0 1021 41 0 1.79 21 05:31 11.01.2020
1013 Clear 0 1029 31 0 4.04 23 04:43 11.01.2020
1014 Clear 0 1021 39 0 1.79 359 04:25 11.01.2020
1015 Clear 1 1021 58 0 0.45 342 02:48 11.01.2020
1016 Clouds 2 1028 30 0 4.48 21 01:48 11.01.2020
1017 Clouds 2 1028 29 0 1.34 160 01:29 11.01.2020
1018 Clouds 2 1033 62 0 4.56 16 00:54 11.01.2020
1019 Clouds 2 1034 60 0 4.56 16 00:29 11.01.2020
1020 Clouds 3 1034 59 0 4.56 16 23:59 10.01.2020
1021 Clouds 3 1031 92 0 4.56 16 23:39 10.01.2020
1022 Clouds 3 1029 43 0 0.45 120 23:20 10.01.2020
1023 Clouds 3 1029 50 0 4.06 10 22:41 10.01.2020
1024 Clouds 3 1033 50 0 4.06 10 22:22 10.01.2020
1025 Clouds 3 1029 51 0 4.06 10 21:59 10.01.2020
1026 Clouds 3 1029 57 0 4.06 10 21:41 10.01.2020
1027 Clouds 4 1033 48 0 4.06 10 21:20 10.01.2020
1028 Clouds 4 1028 62 0 0.89 292 20:58 10.01.2020
1029 Clouds 4 1028 62 0 4.06 10 20:40 10.01.2020
1030 Clouds 4 1028 62 0 4.06 10 20:40 10.01.2020
1031 Clouds 4 1032 42 0 4.03 9 20:22 10.01.2020
1032 Clouds 5 1032 38 0 3.61 8 19:41 10.01.2020
1033 Clouds 5 1032 33 0 0.89 2 19:21 10.01.2020
1034 Clouds 5 1032 32 0 4.47 279 18:57 10.01.2020
1035 Clouds 5 1032 32 0 4.47 279 18:39 10.01.2020
1036 Clouds 6 1025 34 10000 2.6 360 18:18 10.01.2020
1037 Clouds 6 1031 30 0 4.47 341 17:56 10.01.2020
1038 Clouds 7 1025 34 10000 2.6 360 17:38 10.01.2020
1039 Clouds 7 1025 34 10000 2.6 360 17:38 10.01.2020
1040 Clouds 7 1025 34 10000 2.6 360 17:19 10.01.2020
1041 Clouds 7 1025 34 10000 2.6 360 17:19 10.01.2020
1042 Clouds 8 1025 37 10000 1.5 10 16:43 10.01.2020
1043 Clouds 8 1025 43 10000 1 0 16:21 10.01.2020
1044 Clouds 8 1024 57 10000 2.6 220 15:58 10.01.2020
1045 Clouds 9 1024 57 10000 2.6 220 15:38 10.01.2020
1046 Clouds 9 1024 57 10000 3.1 220 15:20 10.01.2020
1047 Clouds 9 1024 66 10000 2.6 210 14:58 10.01.2020
1048 Clouds 9 1024 66 10000 2.6 210 14:58 10.01.2020
1049 Clouds 9 1024 70 10000 2.6 210 14:40 10.01.2020
1050 Clouds 9 1024 70 10000 2.6 210 14:19 10.01.2020
1051 Clouds 8 1024 70 10000 2.1 200 13:56 10.01.2020
1052 Clouds 8 1025 81 10000 2.1 210 13:37 10.01.2020
1053 Clouds 8 1025 81 10000 2.1 210 13:18 10.01.2020
1054 Clouds 7 1025 87 10000 1 0 12:56 10.01.2020
1055 Clouds 7 1025 87 10000 1 0 12:38 10.01.2020
1056 Clouds 7 1026 93 10000 0.5 0 12:18 10.01.2020
1057 Clouds 6 1026 93 10000 0.5 0 11:42 10.01.2020
1058 Fog 6 1026 100 10000 1.5 10 11:22 10.01.2020
1059 Fog 5 1025 100 10000 0.5 0 10:59 10.01.2020
1060 Fog 5 1025 100 10000 0.5 0 10:38 10.01.2020
1061 Fog 5 1025 100 10000 1 0 10:19 10.01.2020
1062 Clouds 4 1024 100 10000 3.47 6 09:46 10.01.2020
1063 Fog 4 1024 100 10000 2.1 20 09:26 10.01.2020
1064 Snow 4 1024 63 0 3.47 6 08:58 10.01.2020
1065 Snow 4 1024 65 0 3.47 6 08:38 10.01.2020
1066 Snow 4 1023 66 0 0.45 287 08:20 10.01.2020
1067 Snow 4 1023 70 0 3.12 18 07:41 10.01.2020
1068 Snow 4 1028 66 0 3.12 18 07:41 10.01.2020
1069 Snow 5 1028 66 0 3.12 18 07:22 10.01.2020
1070 Snow 5 1022 71 0 3.12 18 06:42 10.01.2020
1071 Snow 5 1027 63 0 3.12 18 06:24 10.01.2020
1072 Snow 5 1027 60 0 3.12 18 05:25 10.01.2020
1073 Snow 5 1027 56 0 3.55 3 03:32 10.01.2020
1074 Snow 5 1027 50 0 3.55 3 02:53 10.01.2020
1075 Snow 5 1027 47 0 3.55 3 02:33 10.01.2020
1076 Clouds 5 1022 74 0 1.72 24 01:33 10.01.2020
1077 Clouds 4 1015 96 0 0.89 52 00:53 10.01.2020
1078 Clouds 4 1015 95 0 0.89 41 00:35 10.01.2020
1079 Clouds 5 1023 65 0 1.72 24 23:57 09.01.2020
1080 Clouds 5 1016 96 0 0.45 11 23:37 09.01.2020
1081 Clouds 5 1016 96 0 0.45 27 23:19 09.01.2020
1082 Clouds 5 1023 62 0 1.45 360 22:56 09.01.2020
1083 Clouds 5 1016 92 0 0.45 20 22:37 09.01.2020
1084 Clouds 5 1016 87 0 1.34 359 22:18 09.01.2020
1085 Clouds 5 1016 77 0 0.89 30 21:55 09.01.2020
1086 Clouds 5 1016 69 0 0.89 243 21:37 09.01.2020
1087 Clouds 5 1016 61 0 1.45 360 21:18 09.01.2020
1088 Clouds 5 1016 67 0 1.79 205 20:55 09.01.2020
1089 Clouds 5 1016 76 0 2.68 239 20:36 09.01.2020
1090 Clouds 5 1016 74 0 3.13 203 20:18 09.01.2020
1091 Clouds 5 1016 75 0 3.13 218 19:39 09.01.2020
1092 Clouds 6 1016 75 0 4.92 219 19:20 09.01.2020
1093 Clouds 6 1016 77 0 4.02 225 18:57 09.01.2020
1094 Clouds 6 1016 77 0 4.02 208 18:39 09.01.2020
1095 Clouds 8 1023 50 10000 2.1 230 18:20 09.01.2020
1096 Clouds 9 1023 50 10000 2.1 230 17:41 09.01.2020
1097 Clouds 9 1023 50 10000 2.1 230 17:19 09.01.2020
1098 Clouds 10 1023 50 10000 1.5 220 16:58 09.01.2020
1099 Clouds 10 1024 46 10000 1 0 16:39 09.01.2020
1100 Clouds 11 1024 46 10000 1 0 16:20 09.01.2020
1101 Clouds 12 1024 50 10000 1.5 0 15:43 09.01.2020
1102 Clouds 12 1024 50 10000 1.5 0 15:22 09.01.2020
1103 Clouds 11 1024 53 10000 1 0 14:58 09.01.2020
1104 Clouds 11 1025 53 10000 1 0 14:39 09.01.2020
1105 Clear 11 1025 53 10000 1 0 14:19 09.01.2020
1106 Clear 11 1025 57 10000 1 0 13:55 09.01.2020
1107 Clear 10 1026 65 10000 1.5 180 13:37 09.01.2020
1108 Clear 9 1026 65 10000 1.5 180 13:18 09.01.2020
1109 Clear 9 1027 65 10000 2.51 212 12:43 09.01.2020
1110 Clear 8 1027 65 10000 2.51 212 12:24 09.01.2020
1111 Clear 8 1028 75 10000 2.51 212 11:59 09.01.2020
1112 Clear 8 1028 63 10000 1 0 11:41 09.01.2020
1113 Clear 5 1028 80 10000 1 0 11:23 09.01.2020
1114 Clear 5 1028 80 10000 0.57 202 10:57 09.01.2020
1115 Clear 4 1028 100 10000 1 0 10:39 09.01.2020
1116 Clear 4 1028 100 10000 1 0 10:20 09.01.2020
1117 Clear 2 1028 100 10000 0.57 202 09:41 09.01.2020
1118 Clear 2 1028 100 10000 0.57 202 09:41 09.01.2020
1119 Clear 3 1028 100 10000 0.57 202 09:41 09.01.2020
1120 Clear 2 1028 100 10000 0.57 202 09:23 09.01.2020
1121 Clear 2 1026 83 0 0.57 202 08:56 09.01.2020
1122 Clear 2 1019 84 0 0.57 202 08:38 09.01.2020
1123 Clear 1 1020 82 0 0.26 356 08:19 09.01.2020
1124 Clear 1 1020 77 0 0.2 357 07:44 09.01.2020
1125 Clear 1 1026 81 0 0.2 357 07:25 09.01.2020
1126 Clear 1 1026 81 0 0.2 357 06:39 09.01.2020
1127 Clear 1 1020 75 0 0.2 357 06:21 09.01.2020
1128 Clear 1 1020 78 0 0.89 195 05:50 09.01.2020
1129 Clear 1 1020 81 0 1.79 187 04:45 09.01.2020
1130 Clear 2 1021 83 0 2.68 212 03:54 09.01.2020
1131 Clear 2 1021 82 0 2.24 212 03:26 09.01.2020
1132 Clear 2 1027 76 0 0.32 158 02:30 09.01.2020
1133 Clouds 2 1022 82 0 0.45 222 01:40 09.01.2020
1134 Clear 3 1022 83 0 0.89 186 00:44 09.01.2020
1135 Clear 3 1022 83 0 1.34 207 00:21 09.01.2020
1136 Clear 3 1023 82 0 0.89 193 23:55 08.01.2020
1137 Clear 3 1023 82 0 0.45 208 23:37 08.01.2020
1138 Clear 3 1023 81 0 0.89 228 23:18 08.01.2020
1139 Clear 4 1028 70 0 0.28 231 22:39 08.01.2020
1140 Clear 4 1023 82 0 0.28 231 22:21 08.01.2020
1141 Clear 4 1028 70 0 0.28 231 21:57 08.01.2020
1142 Clear 4 1024 83 0 0.89 217 21:38 08.01.2020
1143 Clear 4 1024 80 0 0.28 231 21:20 08.01.2020
1144 Clear 4 1024 80 0 0.28 231 20:58 08.01.2020
1145 Clear 4 1024 80 0 0.28 231 20:38 08.01.2020
1146 Clouds 5 1024 78 0 0.53 345 20:20 08.01.2020
1147 Clouds 5 1024 80 0 0.53 345 19:56 08.01.2020
1148 Clouds 5 1024 80 0 0.53 345 19:37 08.01.2020
1149 Clouds 6 1024 80 0 0.53 345 19:18 08.01.2020
1150 Clouds 6 1024 80 0 0.53 345 18:55 08.01.2020
1151 Clouds 5 1024 81 0 0.53 345 18:37 08.01.2020
1152 Clouds 7 1024 80 0 0.53 345 18:18 08.01.2020
1153 Clouds 7 1024 78 0 0.53 345 17:47 08.01.2020
1154 Clouds 11 1030 15 0 0.53 345 17:24 08.01.2020
1155 Clear 11 1027 46 0 0.86 226 16:57 08.01.2020
1156 Clear 11 1027 44 0 0.86 226 16:39 08.01.2020
1157 Clear 12 1028 73 0 0.86 226 16:19 08.01.2020
1158 Clear 12 1028 73 0 0.86 226 16:19 08.01.2020
1159 Clear 13 1030 11 0 0.86 226 15:57 08.01.2020
1160 Clear 13 1029 55 0 0.86 226 15:39 08.01.2020
1161 Clear 13 1030 9 0 0.45 320 15:18 08.01.2020
1162 Clear 13 1030 9 0 0.89 290 14:55 08.01.2020
1163 Clear 13 1026 46 0 0.45 245 14:36 08.01.2020
1164 Clouds 13 1026 42 0 0.41 262 14:18 08.01.2020
1165 Clouds 12 1027 45 0 0.41 262 13:38 08.01.2020
1166 Clouds 11 1030 51 0 0.54 222 13:18 08.01.2020
1167 Clouds 11 1032 9 0 0.54 222 12:41 08.01.2020
1168 Clouds 11 1028 45 0 0.54 222 12:18 08.01.2020
1169 Clouds 10 1028 51 0 0.54 222 11:55 08.01.2020
1170 Clouds 9 1028 49 0 0.54 222 11:36 08.01.2020
1171 Clouds 7 1025 71 0 2.17 26 11:18 08.01.2020
1172 Clouds 6 1028 51 0 2.17 26 10:41 08.01.2020
1173 Clouds 5 1025 63 0 0.45 345 10:22 08.01.2020
1174 Clouds 4 1028 53 0 2.17 26 09:58 08.01.2020
1175 Clouds 5 1025 66 0 2.17 26 09:38 08.01.2020
1176 Clouds 4 1025 66 0 0.89 13 09:18 08.01.2020
1177 Clouds 4 1028 46 0 2.17 26 08:42 08.01.2020
1178 Clouds 2 1024 72 0 0.45 1 08:23 08.01.2020
1179 Clouds 2 1024 72 0 3.84 23 07:59 08.01.2020
1180 Clouds 2 1024 64 0 3.84 23 07:41 08.01.2020
1181 Clouds 2 1024 60 0 3.84 23 07:20 08.01.2020
1182 Clouds 2 1024 51 0 3.84 23 06:42 08.01.2020
1183 Clouds 2 1024 51 0 3.84 23 06:42 08.01.2020
1184 Clouds 1 1024 55 0 3.84 23 05:57 08.01.2020
1185 Clouds 2 1024 55 0 3.96 21 05:27 08.01.2020
1186 Clouds 2 1024 59 0 1.34 20 04:37 08.01.2020
1187 Clouds 2 1024 74 0 1.34 24 02:47 08.01.2020
1188 Clouds 2 1025 73 0 1.34 3 02:28 08.01.2020
1189 Clouds 1 1024 74 0 1.34 17 01:57 08.01.2020
1190 Clouds 1 1024 73 0 1.34 284 01:32 08.01.2020
1191 Clouds 1 1024 70 0 0.45 357 00:51 08.01.2020
1192 Clouds 2 1024 70 0 3.77 20 00:22 08.01.2020
1193 Clouds 2 1024 78 0 3.77 20 23:46 07.01.2020
1194 Clouds 3 1025 77 0 3.73 22 23:21 07.01.2020
1195 Clouds 3 1025 77 0 3.73 22 22:43 07.01.2020
1196 Clouds 4 1025 80 0 0.45 342 22:21 07.01.2020
1197 Clouds 4 1025 80 0 3.73 22 21:59 07.01.2020
1198 Clouds 3 1025 80 0 0.89 253 21:41 07.01.2020
1199 Clouds 3 1025 75 0 3.73 22 21:21 07.01.2020
1200 Clouds 3 1025 80 0 0.89 359 20:58 07.01.2020
1201 Clouds 3 1025 72 0 3.73 22 20:39 07.01.2020
1202 Clouds 3 1025 68 0 3.87 18 20:21 07.01.2020
1203 Clouds 3 1025 57 0 3.95 19 19:57 07.01.2020
1204 Clouds 4 1025 54 0 3.95 19 19:37 07.01.2020
1205 Clouds 4 1025 45 0 3.95 19 19:19 07.01.2020
1206 Clouds 4 1025 45 0 3.95 19 19:19 07.01.2020
1207 Clouds 4 1025 45 0 3.95 19 19:19 07.01.2020
1208 Clouds 4 1025 43 0 3.95 19 18:55 07.01.2020
1209 Clouds 5 1025 41 0 3.95 19 18:37 07.01.2020
1210 Clouds 5 1025 40 0 3.95 19 18:18 07.01.2020
1211 Clouds 6 1024 33 0 0.45 51 17:41 07.01.2020
1212 Clouds 7 1024 36 0 3.95 19 17:23 07.01.2020
1213 Clouds 9 1032 12 0 2.84 18 16:58 07.01.2020
1214 Clouds 9 1032 11 0 2.84 18 16:38 07.01.2020
1215 Clouds 10 1028 55 0 2.84 18 16:19 07.01.2020
1216 Clouds 11 1032 11 0 2.84 18 15:59 07.01.2020
1217 Clouds 11 1032 11 0 0.89 261 15:41 07.01.2020
1218 Clouds 10 1031 11 0 2.84 18 15:23 07.01.2020
1219 Clouds 11 1031 10 0 2.84 18 14:56 07.01.2020
1220 Clouds 11 1032 10 0 1.34 236 14:37 07.01.2020
1221 Clouds 11 1032 11 0 0.89 229 14:19 07.01.2020
1222 Clouds 10 1033 11 0 0.45 239 13:40 07.01.2020
1223 Clouds 9 1033 11 0 1.34 9 13:19 07.01.2020
1224 Clouds 10 1028 24 0 2.89 15 12:42 07.01.2020
1225 Clouds 9 1033 11 0 1.34 247 12:21 07.01.2020
1226 Clouds 8 1033 12 0 0.89 223 11:59 07.01.2020
1227 Clouds 7 1034 14 0 2.89 15 11:40 07.01.2020
1228 Clouds 5 1025 40 0 2.8 22 11:21 07.01.2020
1229 Clouds 4 1025 35 0 0.45 359 10:42 07.01.2020
1230 Clouds 4 1025 36 0 0.45 17 10:42 07.01.2020
1231 Clouds 3 1025 38 0 2.8 22 10:24 07.01.2020
1232 Clouds 3 1030 30 0 2.8 22 09:59 07.01.2020
1233 Clouds 6 1025 29 0 2.8 22 09:38 07.01.2020
1234 Clouds 5 1025 29 0 0.45 8 09:20 07.01.2020
1235 Clouds 5 1025 30 0 2.8 22 08:46 07.01.2020
1236 Clouds 3 1030 29 0 2.8 22 08:26 07.01.2020
1237 Clouds 3 1030 29 0 2.8 22 08:26 07.01.2020
1238 Clouds 1 1024 33 0 3.12 23 07:54 07.01.2020
1239 Clouds 1 1029 32 0 3.12 23 07:29 07.01.2020
1240 Clouds 1 1029 35 0 3.12 23 06:54 07.01.2020
1241 Clouds 1 1024 29 0 0.89 330 06:34 07.01.2020
1242 Clouds 1 1024 30 0 0.45 21 05:55 07.01.2020
1243 Clouds 0 1024 36 0 0.89 23 04:41 07.01.2020
1244 Clouds 1 1024 33 0 0.45 352 04:41 07.01.2020
1245 Clouds 2 1024 26 0 3.14 22 03:29 07.01.2020
1246 Clouds 1 1024 43 0 3.14 22 02:22 07.01.2020
1247 Clouds 1 1024 57 0 3.4 25 01:54 07.01.2020
1248 Clouds 1 1024 38 0 3.4 25 01:30 07.01.2020
1249 Clouds 1 1024 40 0 3.33 22 00:37 07.01.2020
1250 Clouds 2 1024 54 0 3.33 22 00:18 07.01.2020
1251 Clouds 1 1024 57 0 3.33 22 23:40 06.01.2020
1252 Clear 2 1024 55 0 3.67 23 23:21 06.01.2020
1253 Clear 2 1024 39 0 3.67 23 22:58 06.01.2020
1254 Clear 2 1024 49 0 0.45 1 22:39 06.01.2020
1255 Clear 2 1024 58 0 3.67 23 22:21 06.01.2020
1256 Clear 2 1024 64 0 3.67 23 21:56 06.01.2020
1257 Clear 2 1024 61 0 3.67 23 21:38 06.01.2020
1258 Clear 2 1024 59 0 3.67 23 21:19 06.01.2020
1259 Clear 2 1023 49 0 3.67 23 20:56 06.01.2020
1260 Clear 2 1023 44 0 3.67 23 20:37 06.01.2020
1261 Clear 3 1023 47 0 2.51 26 20:19 06.01.2020
1262 Clear 4 1028 50 0 2.81 26 19:55 06.01.2020
1263 Clear 3 1028 51 0 2.81 26 19:37 06.01.2020
1264 Clear 4 1023 51 0 2.81 26 19:18 06.01.2020
1265 Clear 4 1022 65 0 2.81 26 18:44 06.01.2020
1266 Clear 5 1027 42 10000 2.1 230 18:21 06.01.2020
1267 Clear 6 1027 42 10000 2.1 230 17:40 06.01.2020
1268 Clear 6 1027 42 10000 2.1 230 17:40 06.01.2020
1269 Clear 8 1027 42 10000 2.1 230 17:20 06.01.2020
1270 Clear 9 1027 39 10000 2.1 230 16:58 06.01.2020
1271 Clear 10 1027 39 10000 2.1 220 16:40 06.01.2020
1272 Clear 10 1027 39 10000 2.1 220 16:22 06.01.2020
1273 Clear 11 1026 34 10000 1 0 15:59 06.01.2020
1274 Clear 11 1027 34 10000 1 0 15:36 06.01.2020
1275 Clear 11 1027 34 10000 1 0 15:18 06.01.2020
1276 Clear 11 1027 36 10000 1 0 14:41 06.01.2020
1277 Clear 11 1027 36 10000 1 0 14:41 06.01.2020
1278 Clear 11 1027 36 10000 1 0 14:22 06.01.2020
1279 Clear 10 1028 42 10000 0.5 0 13:59 06.01.2020
1280 Clear 9 1028 48 10000 1 0 13:39 06.01.2020
1281 Clear 9 1028 48 10000 1 0 13:20 06.01.2020
1282 Clear 11 1029 52 10000 0.5 0 12:55 06.01.2020
1283 Clear 10 1029 51 10000 1.07 273 12:37 06.01.2020
1284 Clear 10 1029 51 10000 1.07 273 12:37 06.01.2020
1285 Clear 10 1029 51 10000 1.07 273 12:18 06.01.2020
1286 Clear 7 1030 69 10000 1.5 50 11:41 06.01.2020
1287 Clear 5 1030 69 10000 1.5 50 11:23 06.01.2020
1288 Clear 4 1030 69 10000 0.26 320 10:59 06.01.2020
1289 Clear 3 1030 86 10000 0.5 50 10:40 06.01.2020
1290 Clear 2 1030 86 10000 0.5 50 10:20 06.01.2020
1291 Clear 2 1030 86 10000 0.26 320 09:39 06.01.2020
1292 Clear 1 1030 86 10000 0.26 320 09:20 06.01.2020
1293 Clear 2 1022 54 0 0.26 320 08:51 06.01.2020
1294 Clear 2 1022 52 0 0.26 320 08:33 06.01.2020
1295 Clear 0 1022 51 0 0.95 11 07:56 06.01.2020
1296 Clear 0 1027 45 0 0.95 11 07:33 06.01.2020
1297 Clear 0 1021 50 0 0.45 221 06:46 06.01.2020
1298 Clear 0 1021 49 0 0.95 11 06:23 06.01.2020
1299 Clear 0 1021 50 0 0.95 11 05:45 06.01.2020
1300 Clear 0 1021 50 0 0.46 19 04:38 06.01.2020
1301 Clear 1 1021 52 0 0.46 19 04:19 06.01.2020
1302 Clear 1 1022 54 0 0.46 19 02:46 06.01.2020
1303 Clear 1 1027 37 0 0.46 19 02:24 06.01.2020
1304 Clear 1 1027 35 0 0.84 45 01:44 06.01.2020
1305 Clear 2 1027 34 0 0.88 46 01:26 06.01.2020
1306 Clear 1 1023 51 0 0.88 46 00:42 06.01.2020
1307 Clear 1 1023 62 0 0.88 46 00:23 06.01.2020
1308 Clear 1 1030 18 0 0.88 46 23:42 05.01.2020
1309 Clear 1 1030 18 0 0.88 46 23:42 05.01.2020
1310 Clear 1 1023 69 0 1.21 40 23:22 05.01.2020
1311 Clear 2 1023 54 0 1.21 40 22:56 05.01.2020
1312 Clear 2 1023 45 0 1.21 40 22:38 05.01.2020
1313 Clear 2 1023 46 0 1.21 40 22:19 05.01.2020
1314 Clear 1 1023 48 0 1.21 40 21:54 05.01.2020
1315 Clear 2 1023 48 0 1.21 40 21:36 05.01.2020
1316 Clear 1 1023 48 0 1.21 40 21:18 05.01.2020
1317 Clear 1 1023 48 0 1.21 40 21:18 05.01.2020
1318 Clear 1 1023 62 0 1.21 40 20:54 05.01.2020
1319 Clear 2 1023 64 0 1.21 40 20:36 05.01.2020
1320 Clear 2 1023 64 0 1.21 40 20:36 05.01.2020
1321 Clear 3 1024 68 0 2.36 34 20:18 05.01.2020
1322 Clear 3 1023 64 0 2.36 34 19:41 05.01.2020
1323 Clear 4 1023 63 0 2.36 34 19:21 05.01.2020
1324 Clear 3 1023 46 0 2.36 34 18:56 05.01.2020
1325 Clear 4 1023 65 0 2.36 34 18:38 05.01.2020
1326 Clear 4 1023 67 0 2.36 34 18:20 05.01.2020
1327 Clear 4 1024 61 0 2.36 34 17:59 05.01.2020
1328 Clear 4 1023 65 0 2.36 34 17:59 05.01.2020
1329 Clear 5 1027 34 10000 2.1 250 17:39 05.01.2020
1330 Clear 9 1026 34 10000 2.1 230 17:20 05.01.2020
1331 Clear 9 1026 34 10000 2.1 230 16:57 05.01.2020
1332 Clear 9 1026 37 10000 1.5 230 16:39 05.01.2020
1333 Clear 9 1026 37 10000 1.5 230 16:39 05.01.2020
1334 Clear 11 1026 37 10000 1.5 230 16:20 05.01.2020
1335 Clear 11 1026 27 10000 1 0 15:40 05.01.2020
1336 Clear 11 1026 27 10000 1 0 15:22 05.01.2020
1337 Clear 11 1027 30 10000 1 0 14:57 05.01.2020
1338 Clear 11 1027 30 10000 1 0 14:57 05.01.2020
1339 Clear 9 1027 37 10000 1 0 14:39 05.01.2020
1340 Clear 11 1027 37 10000 1 0 14:20 05.01.2020
1341 Clear 10 1028 39 10000 1 0 13:57 05.01.2020
1342 Clear 10 1028 45 10000 1 0 13:38 05.01.2020
1343 Clear 10 1028 45 10000 1 0 13:20 05.01.2020
1344 Clear 10 1028 45 10000 1 0 13:20 05.01.2020
1345 Clear 10 1029 48 10000 0.5 0 12:56 05.01.2020
1346 Clear 13 1030 52 10000 3.04 22 12:37 05.01.2020
1347 Clear 13 1033 11 0 0.89 225 12:19 05.01.2020
1348 Clear 13 1033 11 0 0.89 225 12:19 05.01.2020
1349 Clear 12 1030 15 0 3.04 22 11:44 05.01.2020
1350 Clear 5 1031 64 10000 1 0 11:20 05.01.2020
1351 Clear 5 1031 69 10000 0.5 0 11:00 05.01.2020
1352 Clear 4 1031 69 10000 0.5 0 10:40 05.01.2020
1353 Clear 4 1031 69 10000 0.5 0 10:20 05.01.2020
1354 Clear 3 1031 80 10000 1 0 09:42 05.01.2020
1355 Clear 2 1031 80 10000 1 0 09:22 05.01.2020
1356 Clear 2 1026 62 0 3.99 21 08:54 05.01.2020
1357 Clear 3 1026 26 0 3.99 21 08:35 05.01.2020
1358 Clouds 1 1025 27 0 4.93 20 07:59 05.01.2020
1359 Clouds 1 1025 27 0 0.45 27 07:39 05.01.2020
1360 Clouds 2 1025 26 0 0.45 38 07:20 05.01.2020
1361 Clouds 1 1025 27 0 0.45 75 06:44 05.01.2020
1362 Clouds 2 1025 24 0 0.89 23 05:38 05.01.2020
1363 Clouds 2 1025 25 0 0.89 13 04:55 05.01.2020
1364 Clouds 2 1025 23 0 1.34 359 04:18 05.01.2020
1365 Clouds 2 1025 23 0 1.34 359 04:18 05.01.2020
1366 Clouds 2 1025 20 0 0.45 14 04:18 05.01.2020
1367 Clouds 1 1025 31 0 4.52 18 03:18 05.01.2020
1368 Clouds 2 1025 34 0 0.45 14 02:32 05.01.2020
1369 Clouds 2 1025 37 0 4.6 20 01:49 05.01.2020
1370 Clear 2 1025 42 0 4.61 20 01:20 05.01.2020
1371 Clear 3 1025 37 0 4.61 20 00:56 05.01.2020
1372 Clear 2 1026 39 0 0.45 30 00:37 05.01.2020
1373 Clear 3 1026 42 0 4.61 20 00:19 05.01.2020
1374 Clear 3 1026 44 0 4.61 20 23:40 04.01.2020
1375 Clear 4 1026 56 0 4.2 18 23:20 04.01.2020
1376 Clear 3 1026 46 0 4.2 18 22:40 04.01.2020
1377 Clear 3 1026 51 0 0.45 336 22:22 04.01.2020
1378 Clear 3 1026 52 0 0.45 357 21:58 04.01.2020
1379 Clear 3 1026 47 0 0.89 18 21:40 04.01.2020
1380 Clear 3 1026 48 0 0.45 284 21:21 04.01.2020
1381 Clear 3 1026 49 0 0.45 11 20:59 04.01.2020
1382 Clear 3 1026 50 0 1.34 1 20:40 04.01.2020
1383 Clouds 4 1026 49 0 1.79 15 20:22 04.01.2020
1384 Clouds 4 1026 50 0 1.34 359 19:57 04.01.2020
1385 Clouds 4 1026 47 0 1.34 8 19:38 04.01.2020
1386 Clouds 4 1026 51 0 1.79 53 19:20 04.01.2020
1387 Clouds 3 1026 53 0 0.89 14 18:56 04.01.2020
1388 Clouds 4 1030 50 10000 1 0 18:37 04.01.2020
1389 Clouds 4 1030 50 10000 1 0 18:19 04.01.2020
1390 Clouds 4 1030 50 10000 1 0 17:41 04.01.2020
1391 Clouds 7 1030 51 10000 1 0 17:23 04.01.2020
1392 Clouds 7 1030 46 10000 1.5 210 16:58 04.01.2020
1393 Clouds 8 1030 46 10000 1 0 16:39 04.01.2020
1394 Clouds 8 1030 46 10000 1 0 16:21 04.01.2020
1395 Clouds 9 1030 43 10000 0.5 0 15:56 04.01.2020
1396 Clouds 9 1030 49 10000 1 0 15:37 04.01.2020
1397 Clouds 9 1030 49 10000 1 0 15:18 04.01.2020
1398 Clouds 9 1030 49 10000 1.5 200 14:42 04.01.2020
1399 Clouds 9 1030 49 10000 1.5 200 14:42 04.01.2020
1400 Clear 9 1030 49 10000 1.5 200 14:20 04.01.2020
1401 Clear 7 1031 56 10000 1 0 13:59 04.01.2020
1402 Clear 7 1031 56 10000 1 0 13:59 04.01.2020
1403 Clear 9 1032 60 10000 1 0 13:38 04.01.2020
1404 Clear 9 1032 60 10000 1 0 13:19 04.01.2020
1405 Clear 10 1032 65 10000 0.5 0 12:57 04.01.2020
1406 Clear 9 1033 69 10000 3.85 13 12:39 04.01.2020
1407 Clear 10 1033 69 10000 3.85 13 12:39 04.01.2020
1408 Clear 9 1033 69 10000 3.85 13 12:18 04.01.2020
1409 Clear 9 1033 69 10000 3.85 13 12:18 04.01.2020
1410 Clear 8 1033 74 10000 0.5 0 11:56 04.01.2020
1411 Clear 7 1034 86 10000 1 0 11:37 04.01.2020
1412 Clear 3 1034 86 10000 1 0 11:18 04.01.2020
1413 Clear 3 1033 100 10000 1 0 10:40 04.01.2020
1414 Clear 2 1033 100 10000 1 0 10:21 04.01.2020
1415 Clear 3 1033 100 10000 0.5 60 09:47 04.01.2020
1416 Clear 2 1033 100 10000 1.5 20 09:26 04.01.2020
1417 Clear 3 1036 48 0 4.02 13 08:49 04.01.2020
1418 Clear 2 1025 84 0 1.34 359 08:29 04.01.2020
1419 Clouds 0 1032 59 0 3.97 19 07:57 04.01.2020
1420 Clouds 0 1025 88 0 3.97 19 07:39 04.01.2020
1421 Clouds 1 1031 63 0 3.97 19 06:44 04.01.2020
1422 Clouds 1 1024 88 0 0.45 336 05:59 04.01.2020
1423 Clouds 2 1024 93 0 0.45 356 04:52 04.01.2020
1424 Clouds 2 1031 70 0 3.3 8 04:31 04.01.2020
1425 Clouds 2 1024 86 0 0.89 354 03:30 04.01.2020
1426 Clouds 2 1031 67 0 3.3 8 02:52 04.01.2020
1427 Clouds 2 1024 88 0 1.34 359 02:18 04.01.2020
1428 Clouds 2 1031 68 0 2.84 9 01:45 04.01.2020
1429 Clouds 2 1025 85 0 2.84 9 01:27 04.01.2020
1430 Clouds 2 1025 86 0 0.45 8 00:29 04.01.2020
1431 Clouds 1 1025 85 0 0.89 37 00:29 04.01.2020
1432 Clouds 2 1025 85 0 0.89 359 23:59 03.01.2020
1433 Clouds 2 1025 85 0 0.89 23 23:59 03.01.2020
1434 Clouds 2 1025 85 0 0.45 8 23:37 03.01.2020
1435 Clouds 2 1025 83 0 0.89 359 23:18 03.01.2020
1436 Clouds 3 1025 79 0 0.89 42 22:40 03.01.2020
1437 Clouds 3 1025 75 0 0.45 10 22:19 03.01.2020
1438 Clouds 2 1025 71 0 0.45 15 21:57 03.01.2020
1439 Clouds 2 1025 69 0 3.04 11 21:38 03.01.2020
1440 Clouds 3 1025 74 0 1.79 18 21:19 03.01.2020
1441 Clouds 3 1024 63 0 0.45 4 20:55 03.01.2020
1442 Clouds 3 1025 63 0 0.45 37 20:37 03.01.2020
1443 Clouds 3 1024 50 0 3.81 13 20:18 03.01.2020
1444 Clouds 3 1025 53 0 3.81 13 19:54 03.01.2020
1445 Clouds 3 1024 64 0 3.81 13 19:36 03.01.2020
1446 Clouds 4 1025 56 0 3.81 13 19:18 03.01.2020
1447 Clouds 4 1024 51 0 0.89 359 18:39 03.01.2020
1448 Clouds 4 1024 51 0 0.89 359 18:39 03.01.2020
1449 Clouds 5 1029 61 10000 2.6 230 18:20 03.01.2020
1450 Clouds 5 1029 61 10000 2.6 230 17:42 03.01.2020
1451 Clouds 6 1029 65 10000 2.6 230 17:22 03.01.2020
1452 Clouds 7 1029 65 10000 2.1 220 16:59 03.01.2020
1453 Clouds 8 1029 65 10000 2.1 230 16:40 03.01.2020
1454 Clouds 7 1029 65 10000 2.1 230 16:21 03.01.2020
1455 Clouds 8 1028 52 10000 1 0 15:42 03.01.2020
1456 Clouds 8 1028 56 10000 1 0 15:19 03.01.2020
1457 Clouds 9 1029 52 10000 1.5 220 14:40 03.01.2020
1458 Clouds 9 1029 52 10000 1.5 220 14:21 03.01.2020
1459 Clouds 9 1029 60 10000 1.5 230 13:59 03.01.2020
1460 Clouds 9 1029 65 10000 1.5 230 13:40 03.01.2020
1461 Clouds 8 1029 65 10000 1.5 230 13:22 03.01.2020
1462 Clouds 8 1030 65 10000 0.52 259 12:41 03.01.2020
1463 Clouds 8 1030 65 10000 0.52 259 12:22 03.01.2020
1464 Clouds 7 1031 69 10000 0.52 259 11:57 03.01.2020
1465 Clouds 7 1031 69 10000 0.52 259 11:57 03.01.2020
1466 Clouds 6 1031 74 10000 1 0 11:39 03.01.2020
1467 Clouds 4 1031 74 10000 0.5 0 10:59 03.01.2020
1468 Clouds 4 1031 74 10000 0.5 0 10:59 03.01.2020
1469 Clouds 3 1031 38 10000 0.99 45 10:40 03.01.2020
1470 Clouds 2 1031 38 10000 0.99 45 10:22 03.01.2020
1471 Clouds 1 1030 38 10000 0.5 0 09:56 03.01.2020
1472 Clouds 2 1030 38 10000 0.5 0 09:38 03.01.2020
1473 Clouds 2 1030 38 10000 0.5 0 09:20 03.01.2020
1474 Clouds 2 1029 46 0 0.99 45 08:45 03.01.2020
1475 Clouds 1 1023 31 0 1.56 43 08:23 03.01.2020
1476 Clouds 1 1023 27 0 1.56 43 07:57 03.01.2020
1477 Clouds 1 1023 31 0 1.56 43 07:38 03.01.2020
1478 Clouds 1 1023 30 0 1.56 43 07:18 03.01.2020
1479 Clouds 1 1028 48 0 1.56 43 06:42 03.01.2020
1480 Clouds 1 1023 54 0 1.56 43 06:22 03.01.2020
1481 Clouds 2 1023 51 0 0.93 42 05:20 03.01.2020
1482 Clouds 2 1029 45 0 0.93 42 03:42 03.01.2020
1483 Clouds 1 1029 48 0 0.93 42 02:53 03.01.2020
1484 Clouds 2 1024 32 0 0.82 71 01:51 03.01.2020
1485 Clouds 2 1030 47 0 0.82 71 01:33 03.01.2020
1486 Clouds 3 1024 52 0 1.79 204 00:43 03.01.2020
1487 Clouds 2 1031 47 0 0.91 64 00:24 03.01.2020
1488 Clouds 3 1025 43 0 1.34 194 23:39 02.01.2020
1489 Clouds 2 1025 49 0 1.34 245 23:20 02.01.2020
1490 Clouds 3 1025 53 0 1.19 69 22:59 02.01.2020
1491 Clouds 2 1025 33 0 1.19 69 22:41 02.01.2020
1492 Clouds 2 1025 34 0 1.19 69 22:20 02.01.2020
1493 Clouds 3 1025 34 0 1.19 69 21:56 02.01.2020
1494 Clouds 2 1030 46 0 1.19 69 21:38 02.01.2020
1495 Clouds 3 1025 34 0 1.19 69 21:19 02.01.2020
1496 Clouds 3 1030 42 0 1.19 69 20:56 02.01.2020
1497 Clouds 3 1025 41 0 1.19 69 20:37 02.01.2020
1498 Clouds 3 1025 45 0 1.14 46 20:18 02.01.2020
1499 Clouds 3 1030 42 0 1.14 46 19:54 02.01.2020
1500 Clouds 3 1025 45 0 1.14 46 19:36 02.01.2020
1501 Clouds 3 1025 46 0 1.14 46 19:18 02.01.2020
1502 Clouds 4 1025 49 0 1.14 46 18:43 02.01.2020
1503 Clouds 5 1029 49 10000 2.1 240 18:24 02.01.2020
1504 Clouds 5 1029 49 10000 2.1 240 17:58 02.01.2020
1505 Clouds 5 1029 49 10000 2.1 240 17:58 02.01.2020
1506 Clouds 6 1029 49 10000 2.1 240 17:39 02.01.2020
1507 Clouds 8 1029 49 10000 2.1 240 17:20 02.01.2020
1508 Clouds 8 1029 49 10000 2.1 230 16:58 02.01.2020
1509 Clouds 9 1029 42 10000 1.5 220 16:40 02.01.2020
1510 Clouds 9 1029 42 10000 1.5 220 16:20 02.01.2020
1511 Clouds 9 1029 46 10000 1.5 210 15:57 02.01.2020
1512 Clouds 10 1029 43 10000 1 0 15:39 02.01.2020
1513 Clouds 10 1029 43 10000 1 0 15:19 02.01.2020
1514 Clouds 10 1029 43 10000 1 0 14:56 02.01.2020
1515 Clouds 10 1029 45 10000 0.5 0 14:36 02.01.2020
1516 Clouds 10 1030 52 10000 0.5 0 14:18 02.01.2020
1517 Clouds 10 1030 52 10000 0.5 0 13:47 02.01.2020
1518 Clouds 10 1030 52 10000 0.5 0 13:29 02.01.2020
1519 Clouds 11 1031 60 10000 1.03 242 12:45 02.01.2020
1520 Clouds 9 1031 60 10000 1.03 242 12:25 02.01.2020
1521 Clouds 9 1031 60 10000 1.03 242 12:25 02.01.2020
1522 Clouds 9 1032 74 10000 0.5 0 11:57 02.01.2020
1523 Clouds 9 1032 74 10000 0.5 0 11:37 02.01.2020
1524 Clouds 3 1032 86 10000 0.5 0 11:19 02.01.2020
1525 Clouds 1 1032 39 10000 1 0 10:39 02.01.2020
1526 Clouds 1 1032 39 10000 1 0 10:19 02.01.2020
1527 Clouds 0 1032 100 10000 1 0 09:42 02.01.2020
1528 Clouds 0 1032 100 10000 1 0 09:24 02.01.2020
1529 Clouds 0 1024 43 0 0.33 24 08:45 02.01.2020
1530 Clouds 1 1030 46 0 0.33 24 08:45 02.01.2020
1531 Clouds 0 1030 46 0 0.33 24 08:27 02.01.2020
1532 Clouds -1 1024 41 0 1.06 48 07:50 02.01.2020
1533 Clouds 0 1023 34 0 1.06 48 07:30 02.01.2020
1534 Clouds 0 1023 36 0 1.06 48 06:45 02.01.2020
1535 Clouds 0 1029 48 0 1.06 48 06:26 02.01.2020
1536 Clouds 0 1029 51 0 1.09 51 04:53 02.01.2020
1537 Clouds 0 1023 30 0 1.09 51 04:30 02.01.2020
1538 Clouds 0 1023 26 0 1.09 51 02:32 02.01.2020
1539 Clouds 0 1023 28 0 0.8 68 01:58 02.01.2020
1540 Clouds 1 1023 27 0 0.8 68 01:33 02.01.2020
1541 Clouds 1 1029 48 0 0.8 73 00:57 02.01.2020
1542 Clouds 1 1024 27 0 0.8 73 00:33 02.01.2020
1543 Clouds 1 1024 26 0 0.8 73 00:33 02.01.2020
1544 Clouds 1 1024 31 0 1.79 186 23:49 01.01.2020
1545 Clouds 1 1030 46 0 0.8 73 23:26 01.01.2020
1546 Clouds 2 1025 31 0 0.45 232 22:55 01.01.2020
1547 Clouds 2 1024 34 0 0.45 229 22:37 01.01.2020
1548 Clouds 2 1025 32 0 0.79 64 22:18 01.01.2020
1549 Clouds 2 1025 32 0 0.79 64 21:42 01.01.2020
1550 Clouds 3 1025 34 0 0.79 64 21:21 01.01.2020
1551 Clouds 3 1025 37 0 0.79 64 20:59 01.01.2020
1552 Clouds 3 1030 44 0 0.79 64 20:39 01.01.2020
1553 Clouds 3 1025 39 0 0.55 32 20:21 01.01.2020
1554 Clouds 3 1025 49 0 0.55 32 19:58 01.01.2020
1555 Clouds 3 1025 65 0 0.55 32 19:58 01.01.2020
1556 Clouds 3 1025 73 0 0.55 32 19:39 01.01.2020
1557 Clouds 3 1025 42 0 0.55 32 19:20 01.01.2020
1558 Clouds 3 1025 40 0 0.55 32 18:57 01.01.2020
1559 Clouds 3 1025 42 0 0.55 32 18:39 01.01.2020
1560 Clouds 4 1025 42 0 0.55 32 18:20 01.01.2020
1561 Clouds 4 1025 52 0 0.55 32 17:59 01.01.2020
1562 Clouds 4 1025 56 0 0.55 32 17:40 01.01.2020
1563 Clouds 4 1025 56 0 0.55 32 17:40 01.01.2020
1564 Clouds 7 1029 44 0 1.05 210 17:20 01.01.2020
1565 Clouds 7 1025 42 0 1.05 210 16:58 01.01.2020
1566 Clouds 8 1025 34 0 1.05 210 16:38 01.01.2020
1567 Clouds 8 1025 34 0 1.05 210 16:38 01.01.2020
1568 Clouds 9 1029 37 0 1.05 210 16:19 01.01.2020
1569 Clouds 8 1024 38 0 1.05 210 15:57 01.01.2020
1570 Clouds 8 1024 38 0 1.05 210 15:57 01.01.2020
1571 Clouds 9 1029 34 0 1.05 210 15:37 01.01.2020
1572 Clouds 9 1024 29 0 1.05 210 15:19 01.01.2020
1573 Clouds 9 1029 34 0 1.05 210 14:55 01.01.2020
1574 Clouds 9 1024 27 0 1.05 210 14:37 01.01.2020
1575 Clouds 9 1024 23 0 1.45 205 14:19 01.01.2020
1576 Clouds 8 1029 27 0 1.45 205 13:55 01.01.2020
1577 Clouds 9 1025 27 0 1.45 205 13:36 01.01.2020
1578 Clouds 9 1029 29 0 1.55 202 13:18 01.01.2020
1579 Clouds 9 1030 31 0 1.55 202 12:40 01.01.2020
1580 Clouds 8 1034 25 0 1.34 278 12:19 01.01.2020
1581 Clouds 8 1031 32 0 1.55 202 12:19 01.01.2020
1582 Clouds 7 1034 31 0 2.68 254 11:56 01.01.2020
1583 Clouds 7 1031 32 0 1.55 202 11:38 01.01.2020
1584 Clear 4 1026 25 0 1.71 45 11:19 01.01.2020
1585 Clear 2 1026 23 0 1.71 45 10:54 01.01.2020
1586 Clear 3 1026 28 0 1.71 45 10:36 01.01.2020
1587 Clear 3 1031 35 0 1.71 45 10:18 01.01.2020
1588 Clear 5 1026 29 0 1.71 45 09:39 01.01.2020
1589 Clear 3 1025 36 0 1.71 45 09:19 01.01.2020
1590 Clear 3 1025 50 0 1.71 45 09:19 01.01.2020
1591 Clear 3 1025 31 0 1.71 45 08:56 01.01.2020
1592 Clear 3 1025 26 0 1.71 45 08:37 01.01.2020
1593 Clear 1 1025 25 0 2.47 32 08:19 01.01.2020
1594 Clear 1 1030 35 0 2.47 32 07:55 01.01.2020
1595 Clear 0 1025 51 0 2.47 32 07:37 01.01.2020
1596 Clear 0 1025 51 0 2.47 32 07:37 01.01.2020
1597 Clear 1 1029 38 0 2.47 32 06:45 01.01.2020
1598 Clear 1 1025 35 0 2.47 32 06:22 01.01.2020
1599 Clear 0 1025 37 0 2.47 32 05:23 01.01.2020
1600 Clear 2 1025 49 0 1.9 33 03:47 01.01.2020
1601 Clear 2 1029 42 0 1.9 33 03:24 01.01.2020
1602 Clear 1 1029 44 0 1.9 33 02:57 01.01.2020
1603 Clear 2 1025 65 0 1.9 33 02:37 01.01.2020
1604 Clear 1 1029 46 0 2.17 34 01:59 01.01.2020
1605 Clear 0 1025 43 0 2.17 34 01:38 01.01.2020
1606 Clear 1 1025 55 0 2 34 01:20 01.01.2020
1607 Clear 0 1025 48 0 2 34 00:44 01.01.2020
1608 Clear 0 1025 48 0 2 34 00:44 01.01.2020
1609 Clear 1 1030 44 0 2 34 00:25 01.01.2020
1610 Clear 0 1026 52 0 2 34 23:41 31.12.2019
1611 Clear 0 1026 65 0 2.4 29 23:21 31.12.2019
1612 Clear 0 1026 55 0 2.4 29 22:57 31.12.2019
1613 Clear 1 1026 55 0 2.4 29 22:39 31.12.2019
1614 Clear 1 1026 55 0 2.4 29 22:39 31.12.2019
1615 Clear 1 1026 48 0 2.4 29 22:20 31.12.2019
1616 Clear 1 1026 49 0 2.4 29 21:57 31.12.2019
1617 Clear 2 1026 53 0 2.4 29 21:39 31.12.2019
1618 Clear 2 1026 48 0 2.4 29 21:20 31.12.2019
1619 Clear 2 1026 45 0 2.4 29 20:55 31.12.2019
1620 Clear 2 1026 50 0 2.4 29 20:37 31.12.2019
1621 Clouds 3 1026 62 0 2.64 27 20:18 31.12.2019
1622 Clouds 3 1029 43 0 2.64 27 19:43 31.12.2019
1623 Clouds 3 1029 44 0 2.64 27 19:24 31.12.2019
1624 Clouds 3 1029 44 0 2.64 27 18:59 31.12.2019
1625 Clouds 3 1026 69 0 2.64 27 18:40 31.12.2019
1626 Clouds 4 1026 65 0 2.64 27 18:21 31.12.2019
1627 Clouds 4 1026 58 0 2.64 27 17:57 31.12.2019
1628 Clouds 4 1026 63 0 2.64 27 17:39 31.12.2019
1629 Clear 6 1007 12 0 1.22 353 17:19 31.12.2019
1630 Clear 6 1007 12 0 1.22 353 17:19 31.12.2019
1631 Clear 7 1025 46 0 1.22 353 16:57 31.12.2019
1632 Clear 7 1025 46 0 1.22 353 16:57 31.12.2019
1633 Clear 8 1025 44 0 1.22 353 16:39 31.12.2019
1634 Clear 8 1025 43 0 1.22 353 16:19 31.12.2019
1635 Clear 9 1025 41 0 1.22 353 15:57 31.12.2019
1636 Clear 9 1025 42 0 1.22 353 15:39 31.12.2019
1637 Clear 9 1025 41 0 1.22 353 15:21 31.12.2019
1638 Clear 9 1028 40 0 1.22 353 14:58 31.12.2019
1639 Clear 9 1025 41 0 1.22 353 14:39 31.12.2019
1640 Clear 9 1029 39 0 0.61 298 14:19 31.12.2019
1641 Clear 9 1029 39 0 0.45 250 13:58 31.12.2019
1642 Clear 9 1029 39 0 0.61 298 13:40 31.12.2019
1643 Clear 9 1029 41 0 0.67 307 13:21 31.12.2019
1644 Clear 9 1029 40 0 0.67 307 12:58 31.12.2019
1645 Clear 10 1037 11 0 2.68 356 12:40 31.12.2019
1646 Clear 11 1030 36 0 0.67 307 12:20 31.12.2019
1647 Clear 11 1030 35 0 0.67 307 11:56 31.12.2019
1648 Clear 11 1038 10 0 0.67 307 11:38 31.12.2019
1649 Clear 4 1027 37 0 2.26 26 11:20 31.12.2019
1650 Clear 2 1027 39 0 2.26 26 10:57 31.12.2019
1651 Clear 2 1027 39 0 2.26 26 10:57 31.12.2019
1652 Clear 2 1027 39 0 2.26 26 10:38 31.12.2019
1653 Clear 2 1027 40 0 2.26 26 10:20 31.12.2019
1654 Clear 2 1026 45 0 2.26 26 09:58 31.12.2019
1655 Clear 4 1030 41 0 2.26 26 09:39 31.12.2019
1656 Clear 2 1026 49 0 2.26 26 09:20 31.12.2019
1657 Clear 2 1030 43 0 2.26 26 08:57 31.12.2019
1658 Clear 4 1026 42 0 2.26 26 08:37 31.12.2019
1659 Clear 0 1026 43 0 2.44 28 08:19 31.12.2019
1660 Clear 0 1025 45 0 2.44 28 07:42 31.12.2019
1661 Clear 0 1025 52 0 2.44 28 07:20 31.12.2019
1662 Clear 0 1025 45 0 2.44 28 06:49 31.12.2019
1663 Clear 0 1025 46 0 2.44 28 05:57 31.12.2019
1664 Clear 1 1026 44 0 2.68 23 04:28 31.12.2019
1665 Clear 1 1026 42 0 2.68 23 03:27 31.12.2019
1666 Clear 1 1026 42 0 2.68 23 02:49 31.12.2019
1667 Clear 1 1026 43 0 2.74 26 01:55 31.12.2019
1668 Clear 1 1026 44 0 2.74 26 01:34 31.12.2019
1669 Clear 1 1026 47 0 2.69 25 00:58 31.12.2019
1670 Clear 1 1026 46 0 2.69 25 00:39 31.12.2019
1671 Clear 1 1026 43 0 2.69 25 00:21 31.12.2019
1672 Clear 1 1026 41 0 2.69 25 23:56 30.12.2019
1673 Clear 2 1027 39 0 2.69 25 23:37 30.12.2019
1674 Clear 1 1027 40 0 2.76 28 23:19 30.12.2019
1675 Clear 2 1027 43 0 2.76 28 22:56 30.12.2019
1676 Clear 2 1027 43 0 2.76 28 22:56 30.12.2019
1677 Clear 2 1027 39 0 2.76 28 22:37 30.12.2019
1678 Clear 2 1026 43 0 2.76 28 22:18 30.12.2019
1679 Clear 2 1026 40 0 2.76 28 21:55 30.12.2019
1680 Clear 2 1026 40 0 2.76 28 21:37 30.12.2019
1681 Clear 2 1026 43 0 2.76 28 21:18 30.12.2019
1682 Clear 2 1026 44 0 2.76 28 20:55 30.12.2019
1683 Clear 2 1026 44 0 2.76 28 20:55 30.12.2019
1684 Clear 3 1026 40 0 2.76 28 20:37 30.12.2019
1685 Clear 3 1026 39 0 3.11 25 20:18 30.12.2019
1686 Clear 3 1026 38 0 3.11 25 19:55 30.12.2019
1687 Clear 3 1026 43 0 3.11 25 19:36 30.12.2019
1688 Clear 3 1026 42 0 3.11 25 19:18 30.12.2019
1689 Clear 4 1026 39 0 3.11 25 18:42 30.12.2019
1690 Clear 4 1031 65 10000 2.6 240 18:21 30.12.2019
1691 Clear 4 1031 65 10000 2.6 240 17:59 30.12.2019
1692 Clear 5 1031 65 10000 2.6 240 17:41 30.12.2019
1693 Clear 7 1031 65 10000 2.6 240 17:20 30.12.2019
1694 Clear 7 1031 60 10000 2.1 230 16:59 30.12.2019
1695 Clear 8 1031 52 10000 2.1 220 16:40 30.12.2019
1696 Clear 9 1031 52 10000 2.1 220 16:20 30.12.2019
1697 Clear 9 1031 52 10000 1.5 0 15:57 30.12.2019
1698 Clear 9 1031 52 10000 2.1 220 15:38 30.12.2019
1699 Clear 10 1031 52 10000 2.1 220 15:19 30.12.2019
1700 Clear 10 1031 52 10000 2.1 220 15:19 30.12.2019
1701 Clear 9 1031 52 10000 1.5 190 14:54 30.12.2019
1702 Clear 9 1031 60 10000 1.5 190 14:36 30.12.2019
1703 Clear 9 1032 60 10000 1 0 14:18 30.12.2019
1704 Clear 9 1032 65 10000 1 0 13:41 30.12.2019
1705 Clear 9 1032 65 10000 1 0 13:23 30.12.2019
1706 Clear 9 1032 65 10000 1 0 13:23 30.12.2019
1707 Clear 9 1033 64 10000 0.5 0 12:58 30.12.2019
1708 Clear 10 1033 74 10000 0.5 0 12:39 30.12.2019
1709 Clear 9 1033 74 10000 0.5 0 12:19 30.12.2019
1710 Clear 8 1034 80 10000 0.5 0 11:56 30.12.2019
1711 Clear 8 1034 80 10000 0.5 0 11:37 30.12.2019
1712 Clear 3 1034 46 10000 1.93 25 11:18 30.12.2019
1713 Fog 2 1034 92 10000 1 90 10:40 30.12.2019
1714 Fog 2 1034 92 10000 1 90 10:20 30.12.2019
1715 Fog 2 1033 100 10000 0.5 320 09:43 30.12.2019
1716 Fog 1 1033 100 10000 0.5 320 09:21 30.12.2019
1717 Clear 2 1026 62 0 1.93 25 08:57 30.12.2019
1718 Clear 2 1026 36 0 1.93 25 08:38 30.12.2019
1719 Clouds 0 1026 37 0 2.47 26 08:19 30.12.2019
1720 Clouds 0 1026 49 0 2.47 26 07:46 30.12.2019
1721 Clouds 0 1026 63 0 2.47 26 07:23 30.12.2019
1722 Clouds 1 1026 34 0 2.47 26 06:30 30.12.2019
1723 Clouds 0 1026 69 0 3.4 24 04:31 30.12.2019
1724 Clouds 1 1026 62 0 3.4 24 03:47 30.12.2019
1725 Clouds 1 1026 21 0 3.4 24 02:45 30.12.2019
1726 Clouds 1 1026 12 0 3.4 24 02:25 30.12.2019
1727 Clouds 1 1026 15 0 3.52 26 01:27 30.12.2019
1728 Clouds 1 1026 11 0 0.45 10 00:51 30.12.2019
1729 Clouds 1 1026 12 0 3.52 26 00:28 30.12.2019
1730 Clouds 1 1026 10 0 3.52 26 23:40 29.12.2019
1731 Clouds 2 1026 11 0 0.45 42 23:22 29.12.2019
1732 Clouds 2 1026 11 0 0.45 354 22:57 29.12.2019
1733 Clouds 2 1026 12 0 3.74 23 22:38 29.12.2019
1734 Clouds 2 1026 12 0 0.45 239 22:20 29.12.2019
1735 Clouds 2 1026 15 0 3.74 23 21:55 29.12.2019
1736 Clouds 2 1026 12 0 1.34 350 21:36 29.12.2019
1737 Clouds 2 1026 13 0 0.45 13 21:18 29.12.2019
1738 Clouds 2 1026 13 0 3.74 23 20:55 29.12.2019
1739 Clouds 2 1026 14 0 3.74 23 20:36 29.12.2019
1740 Clear 2 1026 13 0 3.74 22 20:18 29.12.2019
1741 Clear 3 1026 15 0 3.74 22 19:40 29.12.2019
1742 Clear 3 1026 16 0 3.74 22 19:22 29.12.2019
1743 Clear 3 1026 40 0 3.74 22 18:59 29.12.2019
1744 Clear 4 1026 21 0 3.74 22 18:40 29.12.2019
1745 Clear 4 1026 23 0 3.74 22 18:21 29.12.2019
1746 Clear 5 1029 61 10000 2.6 240 17:58 29.12.2019
1747 Clear 5 1029 61 10000 2.6 240 17:58 29.12.2019
1748 Clear 5 1029 61 10000 2.6 240 17:39 29.12.2019
1749 Clouds 7 1029 61 10000 2.6 240 17:20 29.12.2019
1750 Clouds 8 1029 61 10000 2.1 220 16:57 29.12.2019
1751 Clouds 8 1029 47 10000 2.1 230 16:39 29.12.2019
1752 Clouds 8 1029 47 10000 2.1 230 16:21 29.12.2019
1753 Clouds 8 1029 52 10000 2.1 220 15:59 29.12.2019
1754 Clouds 9 1030 49 10000 2.1 210 15:39 29.12.2019
1755 Clouds 8 1030 49 10000 2.1 210 15:20 29.12.2019
1756 Clouds 8 1030 49 10000 2.1 210 15:20 29.12.2019
1757 Clouds 8 1030 52 10000 1.5 200 14:58 29.12.2019
1758 Clouds 8 1030 52 10000 1 0 14:39 29.12.2019
1759 Clouds 9 1030 52 10000 1 0 14:18 29.12.2019
1760 Clouds 9 1030 52 10000 0.5 0 13:58 29.12.2019
1761 Clouds 9 1031 60 10000 0.5 0 13:39 29.12.2019
1762 Clouds 8 1031 60 10000 0.5 0 13:21 29.12.2019
1763 Clouds 11 1032 65 10000 2 5 12:56 29.12.2019
1764 Clouds 11 1032 64 10000 0.5 0 12:37 29.12.2019
1765 Clouds 10 1032 64 10000 0.5 0 12:19 29.12.2019
1766 Clouds 10 1033 80 10000 2 5 11:40 29.12.2019
1767 Clear 4 1033 80 10000 3.28 23 11:20 29.12.2019
1768 Fog 3 1033 36 10000 1 0 10:55 29.12.2019
1769 Fog 2 1033 100 10000 1 80 10:37 29.12.2019
1770 Fog 2 1033 100 10000 1 80 10:18 29.12.2019
1771 Fog 2 1033 100 10000 3.28 23 09:43 29.12.2019
1772 Fog 1 1033 100 10000 3.28 23 09:25 29.12.2019
1773 Clear 2 1026 13 0 0.45 4 08:50 29.12.2019
1774 Clear 2 1026 17 0 3.28 23 08:29 29.12.2019
1775 Clouds 0 1029 22 0 2.67 22 07:59 29.12.2019
1776 Clouds 0 1026 21 0 2.67 22 07:32 29.12.2019
1777 Clouds 0 1026 14 0 2.67 22 06:57 29.12.2019
1778 Clouds 1 1029 21 0 2.67 22 06:27 29.12.2019
1779 Clouds 1 1029 22 0 2.67 22 05:54 29.12.2019
1780 Clear 1 1026 16 0 2.9 26 04:42 29.12.2019
1781 Clear 1 1026 12 0 2.9 26 04:21 29.12.2019
1782 Clear 1 1026 12 0 2.9 26 03:21 29.12.2019
1783 Clouds 1 1026 13 0 2.62 27 02:22 29.12.2019
1784 Clouds 2 1026 12 0 2.62 27 01:42 29.12.2019
1785 Clouds 2 1026 17 0 2.97 29 01:22 29.12.2019
1786 Clouds 2 1026 14 0 2.97 29 00:42 29.12.2019
1787 Clouds 2 1026 21 0 2.97 29 00:24 29.12.2019
1788 Clouds 2 1027 27 0 2.97 29 23:45 28.12.2019
1789 Clouds 2 1027 62 0 2.94 25 23:18 28.12.2019
1790 Clouds 3 1026 18 0 2.94 25 22:40 28.12.2019
1791 Clouds 2 1028 49 0 2.94 25 22:21 28.12.2019
1792 Clouds 3 1026 30 0 2.94 25 21:59 28.12.2019
1793 Clouds 3 1026 16 0 2.94 25 21:40 28.12.2019
1794 Clouds 3 1026 16 0 2.94 25 21:40 28.12.2019
1795 Clouds 3 1026 27 0 2.94 25 21:22 28.12.2019
1796 Clouds 3 1026 38 0 2.94 25 20:59 28.12.2019
1797 Clouds 3 1026 40 0 2.94 25 20:38 28.12.2019
1798 Clear 4 1026 35 0 3.32 22 20:20 28.12.2019
1799 Clear 4 1026 32 0 3.32 22 19:58 28.12.2019
1800 Clear 4 1026 32 0 3.32 22 19:58 28.12.2019
1801 Clear 4 1026 31 0 3.32 22 19:39 28.12.2019
1802 Clear 4 1026 62 0 3.32 22 19:21 28.12.2019
1803 Clear 4 1026 50 0 3.32 22 18:58 28.12.2019
1804 Clear 4 1026 58 0 3.32 22 18:40 28.12.2019
1805 Clear 5 1026 59 0 3.32 22 18:19 28.12.2019
1806 Clear 5 1026 37 0 3.32 22 17:55 28.12.2019
1807 Clear 7 1029 50 10000 2.6 230 17:36 28.12.2019
1808 Clear 8 1029 53 10000 3.1 220 17:18 28.12.2019
1809 Clear 10 1028 46 10000 2.6 220 16:46 28.12.2019
1810 Clear 10 1028 46 10000 2.6 220 16:26 28.12.2019
1811 Clear 11 1028 55 10000 2.1 230 15:46 28.12.2019
1812 Clear 11 1028 55 10000 1.5 230 15:24 28.12.2019
1813 Clear 11 1028 43 10000 1.5 200 14:59 28.12.2019
1814 Clear 12 1028 55 10000 1 0 14:39 28.12.2019
1815 Clouds 12 1028 45 10000 1 0 14:20 28.12.2019
1816 Clouds 11 1029 53 10000 2.25 12 13:43 28.12.2019
1817 Clouds 10 1029 53 10000 2.25 12 13:24 28.12.2019
1818 Clouds 10 1030 57 10000 0.5 0 12:59 28.12.2019
1819 Clouds 12 1031 70 10000 1 0 12:41 28.12.2019
1820 Clouds 11 1031 70 10000 1 0 12:23 28.12.2019
1821 Clouds 11 1031 46 10000 0.5 0 11:55 28.12.2019
1822 Clouds 8 1031 75 10000 2.39 14 11:37 28.12.2019
1823 Clouds 5 1031 75 10000 3.39 23 11:18 28.12.2019
1824 Clouds 5 1031 75 10000 3.39 23 11:18 28.12.2019
1825 Clouds 5 1031 44 10000 1 40 10:43 28.12.2019
1826 Clouds 4 1031 44 10000 1 40 10:20 28.12.2019
1827 Clouds 3 1031 86 10000 1 90 09:56 28.12.2019
1828 Clouds 4 1031 44 10000 0.5 10 09:38 28.12.2019
1829 Clouds 3 1031 44 10000 0.5 10 09:18 28.12.2019
1830 Clouds 3 1031 44 10000 0.5 10 09:18 28.12.2019
1831 Clouds 3 1028 42 0 3.39 23 08:43 28.12.2019
1832 Clear 3 1028 40 0 3.33 23 08:25 28.12.2019
1833 Clouds 2 1025 69 0 4.43 20 07:49 28.12.2019
1834 Clouds 2 1024 69 0 4.43 20 07:25 28.12.2019
1835 Clouds 2 1024 61 0 4.43 20 05:52 28.12.2019
1836 Clouds 3 1025 66 0 4.22 20 03:49 28.12.2019
1837 Clouds 2 1024 62 0 1.34 18 02:52 28.12.2019
1838 Clouds 3 1024 65 0 1.79 25 02:31 28.12.2019
1839 Clouds 2 1024 68 0 2.24 13 01:56 28.12.2019
1840 Clouds 2 1024 68 0 2.24 6 01:56 28.12.2019
1841 Clouds 2 1025 71 0 1.79 42 01:24 28.12.2019
1842 Clouds 2 1025 74 0 2.68 32 00:51 28.12.2019
1843 Clouds 3 1025 73 0 2.24 52 00:32 28.12.2019
1844 Clouds 3 1025 77 0 1.79 356 23:59 27.12.2019
1845 Clouds 3 1025 78 0 1.79 10 23:39 27.12.2019
1846 Clear 3 1025 78 0 1.34 34 23:19 27.12.2019
1847 Clear 4 1025 78 0 1.79 27 22:57 27.12.2019
1848 Clear 4 1029 59 0 4.26 16 22:38 27.12.2019
1849 Clear 4 1029 59 0 4.26 16 22:38 27.12.2019
1850 Clear 4 1029 60 0 4.26 16 22:19 27.12.2019
1851 Clear 4 1025 71 0 2.68 357 21:43 27.12.2019
1852 Clear 4 1025 75 0 1.79 305 21:43 27.12.2019
1853 Clear 4 1024 74 0 2.24 53 21:25 27.12.2019
1854 Clear 4 1024 79 0 2.68 20 20:58 27.12.2019
1855 Clear 4 1024 78 0 1.34 343 20:40 27.12.2019
1856 Clear 5 1024 81 0 1.34 318 20:21 27.12.2019
1857 Clear 5 1024 82 0 2.24 65 19:41 27.12.2019
1858 Clear 5 1024 81 0 3.13 21 19:20 27.12.2019
1859 Clear 4 1024 82 0 2.68 49 18:57 27.12.2019
1860 Clear 4 1024 83 0 2.68 42 18:37 27.12.2019
1861 Clear 5 1028 64 10000 0.5 0 18:19 27.12.2019
1862 Clear 5 1028 64 10000 0.5 0 17:55 27.12.2019
1863 Clear 5 1028 64 10000 0.5 0 17:37 27.12.2019
1864 Clear 8 1028 53 10000 1 0 17:18 27.12.2019
1865 Clear 8 1027 53 10000 1 0 16:43 27.12.2019
1866 Clear 9 1027 53 10000 1 0 16:23 27.12.2019
1867 Clear 10 1027 46 10000 0.5 0 15:58 27.12.2019
1868 Clear 9 1027 54 10000 0.5 0 15:37 27.12.2019
1869 Clear 9 1027 54 10000 0.5 0 15:37 27.12.2019
1870 Clear 9 1027 54 10000 0.5 0 15:19 27.12.2019
1871 Clear 9 1028 54 10000 0.5 0 14:56 27.12.2019
1872 Clear 9 1028 54 10000 1 0 14:38 27.12.2019
1873 Clouds 9 1028 44 10000 1 0 14:19 27.12.2019
1874 Clouds 8 1029 44 10000 0.5 0 14:19 27.12.2019
1875 Clouds 8 1029 44 10000 0.5 0 13:46 27.12.2019
1876 Clouds 8 1030 42 10000 2.97 4 13:23 27.12.2019
1877 Clouds 10 1030 74 10000 1.5 10 12:49 27.12.2019
1878 Clouds 10 1031 69 10000 1 0 12:29 27.12.2019
1879 Clouds 8 1031 69 10000 1.5 0 11:59 27.12.2019
1880 Clouds 8 1031 74 10000 2.97 4 11:41 27.12.2019
1881 Clouds 3 1031 74 10000 3.66 17 11:20 27.12.2019
1882 Clouds 3 1031 40 10000 1.5 50 10:47 27.12.2019
1883 Clouds 2 1031 40 10000 1.5 50 10:24 27.12.2019
1884 Clouds 3 1031 40 10000 0.5 0 09:57 27.12.2019
1885 Clouds 3 1030 40 10000 1.5 80 09:38 27.12.2019
1886 Clouds 2 1030 40 10000 1.5 80 09:20 27.12.2019
1887 Clouds 2 1023 25 0 0.89 56 08:46 27.12.2019
1888 Clouds 2 1029 28 0 3.61 16 08:27 27.12.2019
1889 Clear 1 1023 30 0 0.45 156 07:41 27.12.2019
1890 Clear 2 1023 24 0 0.45 11 07:22 27.12.2019
1891 Clear 1 1029 32 0 3.46 23 06:27 27.12.2019
1892 Clear 2 1029 35 0 2.71 16 04:40 27.12.2019
1893 Clear 3 1029 38 0 2.71 16 02:29 27.12.2019
1894 Clear 4 1029 40 0 1.24 22 01:45 27.12.2019
1895 Clear 4 1024 34 0 1.37 18 01:23 27.12.2019
1896 Clear 4 1029 37 0 1.37 18 00:47 27.12.2019
1897 Clear 5 1024 43 0 1.37 18 00:27 27.12.2019
1898 Clear 4 1024 38 0 1.37 18 23:56 26.12.2019
1899 Clear 4 1024 44 0 1.37 18 23:38 26.12.2019
1900 Clear 5 1024 85 0 2.78 29 23:19 26.12.2019
1901 Clear 5 1024 39 0 2.78 29 22:40 26.12.2019
1902 Clear 5 1024 61 0 2.78 29 22:18 26.12.2019
1903 Clear 6 1024 22 0 0.45 4 21:40 26.12.2019
1904 Clear 6 1023 19 0 1.79 17 21:21 26.12.2019
1905 Clear 6 1023 19 0 1.79 28 20:58 26.12.2019
1906 Clear 7 1023 16 0 1.34 48 20:38 26.12.2019
1907 Clear 7 1023 18 0 0.45 23 20:38 26.12.2019
1908 Clouds 7 1023 18 0 1.79 20 20:20 26.12.2019
1909 Clouds 7 1023 19 0 3.51 18 19:55 26.12.2019
1910 Clouds 7 1023 17 0 1.34 339 19:37 26.12.2019
1911 Clouds 7 1023 21 0 1.34 6 19:19 26.12.2019
1912 Clouds 7 1023 18 0 1.34 18 19:19 26.12.2019
1913 Clouds 7 1027 69 0 3.51 18 18:55 26.12.2019
1914 Clouds 8 1023 24 0 3.51 18 18:36 26.12.2019
1915 Clouds 9 1026 66 10000 0.5 0 18:18 26.12.2019
1916 Clouds 10 1026 66 10000 0.5 0 17:41 26.12.2019
1917 Clouds 10 1026 66 10000 0.5 0 17:21 26.12.2019
1918 Clouds 10 1026 66 10000 0.5 0 17:21 26.12.2019
1919 Clouds 11 1026 58 10000 0.5 0 16:49 26.12.2019
1920 Clouds 11 1026 58 10000 0.5 0 16:26 26.12.2019
1921 Clouds 11 1026 54 10000 1.5 60 15:57 26.12.2019
1922 Clouds 12 1025 58 10000 1.5 340 15:38 26.12.2019
1923 Clouds 12 1025 58 10000 1.5 340 15:19 26.12.2019
1924 Clouds 12 1026 62 10000 0.5 0 14:41 26.12.2019
1925 Clouds 12 1026 62 10000 0.5 0 14:23 26.12.2019
1926 Clouds 12 1026 62 10000 0.5 0 14:23 26.12.2019
1927 Clouds 12 1026 66 10000 1 0 13:46 26.12.2019
1928 Clouds 11 1026 70 10000 1 0 13:26 26.12.2019
1929 Clouds 11 1027 76 10000 0.5 0 12:59 26.12.2019
1930 Clouds 11 1027 76 10000 0.5 0 12:59 26.12.2019
1931 Clouds 11 1027 70 10000 1 0 12:41 26.12.2019
1932 Clouds 10 1027 86 10000 1.5 20 12:23 26.12.2019
1933 Clouds 10 1027 86 10000 1.5 20 11:58 26.12.2019
1934 Clouds 9 1027 93 10000 1 0 11:40 26.12.2019
1935 Clouds 8 1027 93 10000 1 0 11:21 26.12.2019
1936 Clouds 7 1026 93 10000 4.67 13 10:49 26.12.2019
1937 Clouds 7 1026 100 10000 1.5 20 10:24 26.12.2019
1938 -273 0 0 0 0 0 09:54 26.12.2019
1939 Fog 6 1025 100 10000 1 0 09:33 26.12.2019
1940 Clouds 6 1024 53 0 1.34 204 08:58 26.12.2019
1941 Clouds 7 1023 52 0 0.45 149 08:38 26.12.2019
1942 Clouds 4 1020 65 0 0.89 6 08:20 26.12.2019
1943 Clouds 4 1020 59 0 0.89 49 07:31 26.12.2019
1944 Clouds 5 1019 58 0 0.89 132 06:57 26.12.2019
1945 Clouds 5 1023 52 0 4.76 21 06:34 26.12.2019
1946 Clouds 4 1019 53 0 2.24 356 05:57 26.12.2019
1947 Clouds 4 1019 50 0 1.79 39 05:38 26.12.2019
1948 Clouds 5 1022 56 0 2.67 21 04:32 26.12.2019
1949 Clouds 5 1019 42 0 0.45 359 03:20 26.12.2019
1950 Clouds 4 1023 55 0 2.67 21 02:40 26.12.2019
1951 Clouds 4 1019 75 0 1.82 19 02:20 26.12.2019
1952 Clouds 4 1019 75 0 1.82 19 01:42 26.12.2019
1953 Clouds 4 1019 60 0 1.99 23 01:24 26.12.2019
1954 Clouds 5 1023 53 0 1.99 23 00:42 26.12.2019
1955 Clouds 5 1019 53 0 1.79 210 00:22 26.12.2019
1956 Clouds 5 1019 48 0 1.34 217 23:56 25.12.2019
1957 Clouds 5 1019 60 0 1.79 211 23:36 25.12.2019
1958 Clouds 5 1020 56 0 0.89 238 23:18 25.12.2019
1959 Clouds 5 1020 58 0 2.24 20 22:55 25.12.2019
1960 Clouds 5 1020 58 0 2.24 20 22:55 25.12.2019
1961 Clouds 5 1020 87 0 2.24 20 22:36 25.12.2019
1962 Clouds 4 1024 92 0 2.24 20 22:18 25.12.2019
1963 Clouds 5 1020 76 0 2.24 20 21:40 25.12.2019
1964 Clouds 6 1020 59 0 2.24 20 21:22 25.12.2019
1965 Clouds 6 1020 64 0 2.24 20 20:58 25.12.2019
1966 Clouds 6 1020 65 0 2.24 20 20:40 25.12.2019
1967 Clouds 6 1020 53 0 2.86 24 20:18 25.12.2019
1968 Clouds 7 1020 50 0 0.45 343 19:44 25.12.2019
1969 Clouds 7 1020 47 0 1.34 3 19:25 25.12.2019
1970 Clouds 7 1020 46 0 2.86 24 18:59 25.12.2019
1971 Clouds 8 1020 45 0 0.89 315 18:38 25.12.2019
1972 Clouds 7 1020 45 0 0.89 24 18:38 25.12.2019
1973 Clouds 8 1020 44 0 0.89 342 18:19 25.12.2019
1974 Clouds 8 1020 41 0 0.45 6 17:43 25.12.2019
1975 Clouds 10 1020 41 0 2.09 12 17:20 25.12.2019
1976 Clouds 11 1023 40 0 2.09 12 16:59 25.12.2019
1977 Clouds 11 1023 43 0 2.09 12 16:39 25.12.2019
1978 Clouds 12 1023 40 0 2.09 12 16:19 25.12.2019
1979 Clouds 13 1023 38 0 2.09 12 15:57 25.12.2019
1980 Clouds 14 1023 40 0 2.09 12 15:39 25.12.2019
1981 Clouds 14 1023 41 0 2.09 12 15:20 25.12.2019
1982 Clouds 14 1023 46 0 2.09 12 14:58 25.12.2019
1983 Clouds 14 1023 41 0 2.09 12 14:39 25.12.2019
1984 Clouds 14 1023 41 0 2.09 12 14:39 25.12.2019
1985 Clouds 14 1023 41 0 2.09 12 14:39 25.12.2019
1986 Clouds 13 1023 45 0 0.91 338 14:20 25.12.2019
1987 Clouds 14 1023 41 0 0.91 338 13:45 25.12.2019
1988 Clouds 13 1024 45 0 0.81 333 13:22 25.12.2019
1989 Clouds 13 1024 47 0 0.81 333 12:58 25.12.2019
1990 Clouds 13 1025 54 0 0.81 333 12:38 25.12.2019
1991 Clouds 13 1025 55 0 0.81 333 12:20 25.12.2019
1992 Clouds 12 1025 53 0 0.81 333 11:43 25.12.2019
1993 Clouds 7 1022 84 0 0.81 333 11:22 25.12.2019
1994 Clouds 7 1026 59 0 2.27 25 10:59 25.12.2019
1995 Clouds 6 1022 49 0 2.27 25 10:37 25.12.2019
1996 Clouds 6 1025 73 0 2.27 25 10:19 25.12.2019
1997 Clouds 5 1022 51 0 2.27 25 09:44 25.12.2019
1998 Clouds 5 1025 74 0 2.27 25 09:26 25.12.2019
1999 Clouds 4 1025 77 0 2.27 25 08:46 25.12.2019
2000 Clouds 4 1021 89 0 0.45 321 08:26 25.12.2019
2001 Clear 4 1024 80 0 3.47 25 07:45 25.12.2019
2002 Clear 4 1024 80 0 3.47 25 07:23 25.12.2019
2003 Clear 4 1024 81 0 3.47 25 06:47 25.12.2019
2004 Clear 4 1021 79 0 3.47 25 06:22 25.12.2019
2005 Clouds 4 1021 88 0 0.89 8 04:49 25.12.2019
2006 Clouds 4 1025 83 0 3.26 20 04:25 25.12.2019
2007 Clouds 4 1021 89 0 0.89 60 03:58 25.12.2019
2008 Clouds 4 1021 84 0 0.45 288 03:39 25.12.2019
2009 Clouds 5 1021 89 0 2.24 195 02:32 25.12.2019
2010 Clouds 4 1022 92 0 2.27 25 01:55 25.12.2019
2011 Clouds 5 1026 80 0 2.27 25 01:24 25.12.2019
2012 Clouds 4 1026 79 0 2.26 27 00:46 25.12.2019
2013 Clouds 4 1026 80 0 2.26 27 00:27 25.12.2019
2014 Clouds 4 1022 93 0 2.26 27 23:55 24.12.2019
2015 Clouds 4 1022 91 0 2.26 27 23:36 24.12.2019
2016 Clouds 5 1022 90 0 2.72 23 23:18 24.12.2019
2017 Clouds 4 1022 92 0 2.72 23 22:38 24.12.2019
2018 Clouds 4 1022 92 0 2.72 23 22:20 24.12.2019
2019 Clouds 6 1022 92 0 2.72 23 22:20 24.12.2019
2020 Clouds 5 1022 93 0 2.72 23 21:42 24.12.2019
2021 Clouds 5 1022 92 0 2.72 23 21:22 24.12.2019
2022 Clouds 5 1023 91 0 2.72 23 20:45 24.12.2019
2023 Clouds 6 1023 88 0 0.45 39 20:24 24.12.2019
2024 Clouds 7 1026 72 0 3.32 24 19:57 24.12.2019
2025 Clouds 7 1022 87 0 3.32 24 19:38 24.12.2019
2026 Clouds 7 1022 89 0 3.32 24 19:18 24.12.2019
2027 Clouds 6 1022 87 0 0.45 13 18:42 24.12.2019
2028 Clouds 7 1022 88 0 3.32 24 18:19 24.12.2019
2029 Clouds 7 1022 87 0 1.34 34 17:45 24.12.2019
2030 Clouds 10 1022 86 0 0.45 359 17:23 24.12.2019
2031 Clouds 11 1025 62 0 2.74 15 16:59 24.12.2019
2032 Clouds 11 1025 62 0 2.74 15 16:59 24.12.2019
2033 Clouds 12 1022 84 0 0.89 18 16:40 24.12.2019
2034 Clouds 13 1025 53 0 2.74 15 16:22 24.12.2019
2035 Clouds 13 1025 52 0 2.74 15 15:58 24.12.2019
2036 Clouds 13 1025 52 0 2.74 15 15:38 24.12.2019
2037 Clouds 13 1025 54 0 2.74 15 15:20 24.12.2019
2038 Clouds 13 1025 51 0 2.74 15 14:58 24.12.2019
2039 Clouds 12 1025 52 0 2.74 15 14:40 24.12.2019
2040 Clouds 13 1025 55 0 1.74 9 14:22 24.12.2019
2041 Clouds 12 1025 53 0 1.74 9 13:56 24.12.2019
2042 Clouds 12 1025 53 0 1.74 9 13:38 24.12.2019
2043 Clouds 13 1025 53 0 1.42 10 13:20 24.12.2019
2044 Clouds 12 1026 52 0 1.42 10 12:57 24.12.2019
2045 Clouds 13 1026 54 0 1.42 10 12:38 24.12.2019
2046 Clouds 12 1026 53 0 1.42 10 12:19 24.12.2019
2047 Clouds 12 1026 57 0 1.42 10 11:57 24.12.2019
2048 Clouds 12 1024 52 0 0.45 337 11:37 24.12.2019
2049 Clouds 6 1022 83 0 0.45 20 11:19 24.12.2019
2050 Clouds 5 1022 80 0 1.34 45 10:56 24.12.2019
2051 Clouds 5 1022 84 0 0.45 55 10:38 24.12.2019
2052 Clouds 4 1022 87 0 3.03 20 10:19 24.12.2019
2053 Clouds 4 1027 69 0 0.45 156 10:19 24.12.2019
2054 Clouds 4 1027 69 0 0.89 131 09:55 24.12.2019
2055 Clouds 6 1022 89 0 0.89 44 09:37 24.12.2019
2056 Clouds 4 1022 90 0 1.34 59 09:19 24.12.2019
2057 Clouds 6 1026 70 0 3.03 20 08:46 24.12.2019
2058 Clouds 3 1020 94 0 1.34 6 08:24 24.12.2019
2059 Clouds 4 1020 83 0 1.34 24 07:46 24.12.2019
2060 Clouds 4 1026 73 0 3.23 23 07:27 24.12.2019
2061 Clouds 3 1019 87 0 0.45 330 06:59 24.12.2019
2062 Clouds 3 1020 88 0 3.23 23 06:39 24.12.2019
2063 Clouds 3 1020 89 0 0.45 359 06:19 24.12.2019
2064 Clouds 3 1020 88 0 3.23 23 05:46 24.12.2019
2065 Clouds 2 1020 89 0 0.45 20 05:18 24.12.2019
2066 Clouds 3 1019 91 0 0.89 23 03:55 24.12.2019
2067 Clouds 3 1020 93 0 0.45 186 03:25 24.12.2019
2068 Clouds 4 1019 96 0 0.89 7 02:25 24.12.2019
2069 Clouds 4 1019 96 0 0.89 7 02:25 24.12.2019
2070 Clouds 4 1019 89 0 0.45 359 01:51 24.12.2019
2071 Clouds 4 1019 85 0 2.24 39 01:23 24.12.2019
2072 Clouds 4 1020 85 0 4.92 4 00:46 24.12.2019
2073 Clouds 4 1020 86 0 4.02 90 00:26 24.12.2019
2074 Clouds 4 1020 86 0 3.13 48 23:59 23.12.2019
2075 Clouds 4 1020 86 0 3.13 48 23:59 23.12.2019
2076 Clouds 4 1019 85 0 2.68 18 23:41 23.12.2019
2077 Clouds 4 1019 87 0 2.68 21 23:23 23.12.2019
2078 Clouds 4 1026 76 0 3.09 5 22:56 23.12.2019
2079 Clouds 4 1019 89 0 3.58 14 22:37 23.12.2019
2080 Clouds 4 1019 92 0 4.02 300 22:19 23.12.2019
2081 Clouds 4 1019 92 0 1.34 339 21:55 23.12.2019
2082 Clouds 4 1019 94 0 0.89 0 21:36 23.12.2019
2083 Clouds 5 1018 93 0 1.79 359 21:18 23.12.2019
2084 Clouds 5 1018 95 0 1.79 359 20:57 23.12.2019
2085 Clouds 5 1019 94 0 2.24 37 20:39 23.12.2019
2086 Clouds 5 1018 93 0 2.68 0 20:18 23.12.2019
2087 Clouds 5 1017 91 0 3.13 359 19:55 23.12.2019
2088 Clouds 5 1017 91 0 4.02 8 19:37 23.12.2019
2089 Clouds 5 1017 89 0 2.24 329 19:19 23.12.2019
2090 Clouds 6 1017 86 0 1.79 60 18:55 23.12.2019
2091 Clouds 5 1017 84 0 2.68 38 18:37 23.12.2019
2092 Clouds 6 1022 50 10000 4.6 220 18:19 23.12.2019
2093 Clouds 6 1024 67 0 2.86 1 17:55 23.12.2019
2094 Clouds 6 1024 67 0 2.86 1 17:55 23.12.2019
2095 Clouds 6 1022 50 10000 4.6 220 17:37 23.12.2019
2096 Clouds 8 1021 77 10000 4.6 220 17:18 23.12.2019
2097 Clouds 9 1021 35 10000 5.1 230 16:42 23.12.2019
2098 Clouds 9 1021 35 10000 5.1 230 16:19 23.12.2019
2099 Clouds 10 1021 28 10000 4.6 230 15:59 23.12.2019
2100 Clouds 10 1021 26 10000 2.6 0 15:38 23.12.2019
2101 Clouds 11 1021 26 10000 2.6 0 15:20 23.12.2019
2102 Clouds 10 1021 46 10000 2.6 210 14:58 23.12.2019
2103 Clouds 10 1021 77 10000 1 0 14:39 23.12.2019
2104 Clouds 10 1021 72 10000 1 0 14:21 23.12.2019
2105 Clouds 10 1021 72 10000 1 0 13:58 23.12.2019
2106 Clouds 10 1022 49 10000 1.5 0 13:40 23.12.2019
2107 Clouds 10 1022 49 10000 1.5 0 13:22 23.12.2019
2108 Clouds 9 1023 52 10000 1 0 12:56 23.12.2019
2109 Clouds 8 1023 72 10000 1 0 12:37 23.12.2019
2110 Clouds 8 1023 72 10000 1 0 12:19 23.12.2019
2111 Clouds 7 1023 72 10000 3.34 357 11:44 23.12.2019
2112 Clouds 7 1023 72 10000 3.34 357 11:25 23.12.2019
2113 Clouds 6 1022 85 10000 1 0 10:57 23.12.2019
2114 Clouds 5 1022 85 10000 1.5 50 10:39 23.12.2019
2115 Clouds 5 1022 85 10000 1.5 50 10:20 23.12.2019
2116 Clouds 4 1022 74 10000 0.5 0 09:59 23.12.2019
2117 Clouds 4 1022 86 10000 1 0 09:39 23.12.2019
2118 Clouds 2 1022 86 10000 1 0 09:20 23.12.2019
2119 Clouds 3 1013 88 0 3.13 359 08:55 23.12.2019
2120 Clouds 3 1013 88 0 2.24 18 08:37 23.12.2019
2121 Clouds 3 1013 88 0 2.68 17 08:18 23.12.2019
2122 Clouds 3 1022 74 0 4.31 8 07:43 23.12.2019
2123 Clouds 3 1012 92 0 2.68 14 07:20 23.12.2019
2124 Clouds 4 1021 71 0 4.31 8 06:50 23.12.2019
2125 Clouds 3 1021 72 0 4.31 8 06:23 23.12.2019
2126 Clouds 4 1020 72 0 4.31 8 05:49 23.12.2019
2127 Snow 4 1020 69 0 3.46 359 05:19 23.12.2019
2128 Snow 4 1019 75 0 3.46 359 04:19 23.12.2019
2129 Snow 4 1017 72 0 3.46 359 02:49 23.12.2019
2130 Snow 4 1017 73 0 3.46 359 02:25 23.12.2019
2131 Snow 4 1017 91 0 2.75 342 01:53 23.12.2019
2132 Snow 4 1017 92 0 2.75 342 01:32 23.12.2019
2133 Snow 5 1016 91 0 2.93 347 00:55 23.12.2019
2134 Snow 5 1016 90 0 2.93 347 00:35 23.12.2019
2135 Snow 5 1015 91 0 0.89 218 23:57 22.12.2019
2136 Snow 5 1015 92 0 2.93 347 23:39 22.12.2019
2137 Snow 5 1014 92 0 2.43 338 23:20 22.12.2019
2138 Snow 5 1014 91 0 2.43 338 22:57 22.12.2019
2139 Snow 5 1014 91 0 2.43 338 22:38 22.12.2019
2140 Snow 5 1014 91 0 2.43 338 22:38 22.12.2019
2141 Snow 5 1013 90 0 2.43 338 22:19 22.12.2019
2142 Snow 5 1013 89 0 2.43 338 21:56 22.12.2019
2143 Snow 6 1012 87 0 2.43 338 21:38 22.12.2019
2144 Snow 6 1012 87 0 2.43 338 21:38 22.12.2019
2145 Snow 7 1012 86 0 2.43 338 21:20 22.12.2019
2146 Snow 6 1011 84 0 2.43 338 20:43 22.12.2019
2147 Snow 6 1011 85 0 1.65 312 20:19 22.12.2019
2148 Snow 6 1011 85 0 0.45 270 19:58 22.12.2019
2149 Snow 6 1011 93 0 1.65 312 19:39 22.12.2019
2150 Snow 6 1010 93 0 1.65 312 19:20 22.12.2019
2151 Snow 7 1009 92 0 1.65 312 18:55 22.12.2019
2152 Snow 7 1009 91 0 1.65 312 18:37 22.12.2019
2153 Clouds 7 1008 87 10000 3.6 230 18:18 22.12.2019
2154 Clouds 7 1008 87 10000 3.6 230 17:54 22.12.2019
2155 Clouds 8 1008 87 10000 3.6 230 17:36 22.12.2019
2156 Rain 8 1008 81 10000 4.6 230 17:18 22.12.2019
2157 Rain 9 1007 75 10000 4.1 230 16:42 22.12.2019
2158 Rain 9 1007 75 10000 4.1 230 16:42 22.12.2019
2159 Rain 9 1007 75 10000 4.1 230 16:23 22.12.2019
2160 Rain 10 1007 57 10000 6.2 220 15:57 22.12.2019
2161 Clouds 9 1007 50 10000 5.1 220 15:39 22.12.2019
2162 Clouds 11 1007 50 10000 5.1 220 15:21 22.12.2019
2163 Clouds 11 1007 50 10000 5.1 230 14:56 22.12.2019
2164 Clouds 11 1008 46 10000 5.7 220 14:38 22.12.2019
2165 Clouds 11 1007 46 10000 5.1 210 14:19 22.12.2019
2166 Clouds 11 1007 46 10000 5.1 210 14:19 22.12.2019
2167 Clouds 11 1007 46 10000 5.1 210 13:56 22.12.2019
2168 Clouds 11 1007 53 10000 5.1 200 13:38 22.12.2019
2169 Clouds 11 1008 84 10000 5.1 230 13:19 22.12.2019
2170 Clouds 11 1008 84 10000 5.1 230 13:19 22.12.2019
2171 Clouds 10 1008 84 10000 5.1 230 12:56 22.12.2019
2172 Clouds 10 1009 61 10000 5.1 200 12:38 22.12.2019
2173 Clouds 10 1009 61 10000 5.1 200 12:19 22.12.2019
2174 Clouds 9 1008 66 10000 3.6 210 11:56 22.12.2019
2175 Clouds 9 1008 66 10000 3.6 210 11:56 22.12.2019
2176 Clouds 9 1008 61 10000 4.1 230 11:38 22.12.2019
2177 Clouds 9 1008 61 10000 4.1 230 11:19 22.12.2019
2178 Clouds 7 1008 75 10000 3.6 220 10:55 22.12.2019
2179 Clouds 7 1007 81 10000 3.6 220 10:37 22.12.2019
2180 Clouds 6 1007 81 10000 3.6 220 10:18 22.12.2019
2181 Clouds 6 1006 81 10000 2.6 220 09:57 22.12.2019
2182 Clouds 6 1006 65 10000 2.6 260 09:38 22.12.2019
2183 Clouds 6 1006 65 10000 2.6 260 09:20 22.12.2019
2184 Snow 5 1006 88 0 2.89 290 08:42 22.12.2019
2185 Snow 6 1005 89 0 1.99 321 08:21 22.12.2019
2186 Snow 6 1004 87 0 1.99 321 07:40 22.12.2019
2187 Snow 6 1004 82 0 0.45 308 07:21 22.12.2019
2188 Snow 7 1003 86 0 1.99 321 06:42 22.12.2019
2189 Snow 7 1002 91 0 1.99 321 06:21 22.12.2019
2190 Snow 7 1001 94 0 1.99 321 05:29 22.12.2019
2191 Snow 7 1000 94 0 2.25 287 04:45 22.12.2019
2192 Snow 7 999 93 0 2.25 287 04:22 22.12.2019
2193 Snow 7 1000 94 0 2.25 287 02:43 22.12.2019
2194 Snow 7 1000 94 0 2.25 287 02:43 22.12.2019
2195 Snow 7 997 90 0 2.31 255 01:57 22.12.2019
2196 Snow 7 997 89 0 2.31 255 01:31 22.12.2019
2197 Snow 6 989 95 0 1.79 195 00:48 22.12.2019
2198 Snow 7 996 72 0 5.81 225 00:26 22.12.2019
2199 Snow 7 997 94 0 3.34 239 23:57 21.12.2019
2200 Snow 7 993 75 0 55.88 0 23:38 21.12.2019
2201 Snow 8 996 76 0 1.34 192 23:19 21.12.2019
2202 Snow 9 996 76 0 0.45 155 22:45 21.12.2019
2203 Snow 9 995 88 0 4.37 248 22:20 21.12.2019
2204 Snow 8 995 91 0 4.37 248 21:57 21.12.2019
2205 Snow 7 988 96 0 3.13 353 21:38 21.12.2019
2206 Snow 7 987 96 0 2.68 3 21:20 21.12.2019
2207 Snow 7 987 95 0 3.13 211 20:59 21.12.2019
2208 Snow 9 997 92 0 4.37 248 20:39 21.12.2019
2209 Rain 9 994 91 0 0.89 334 20:21 21.12.2019
2210 Rain 8 993 90 0 0.45 95 19:58 21.12.2019
2211 Rain 9 994 86 0 0.45 74 19:40 21.12.2019
2212 Rain 9 994 86 0 0.45 74 19:40 21.12.2019
2213 Rain 9 995 84 0 6.8 234 19:19 21.12.2019
2214 Rain 9 995 73 0 1.34 291 18:45 21.12.2019
2215 Rain 8 999 100 550 1.5 200 18:24 21.12.2019
2216 Rain 9 999 100 550 1.5 200 17:58 21.12.2019
2217 Rain 9 999 100 550 1.5 200 17:39 21.12.2019
2218 Rain 10 999 100 550 1.5 200 17:21 21.12.2019
2219 Rain 10 999 100 700 1.5 0 16:59 21.12.2019
2220 Rain 9 999 100 10000 1 0 16:41 21.12.2019
2221 Rain 9 999 100 10000 1 0 16:19 21.12.2019
2222 Clouds 10 1000 100 10000 1 0 15:57 21.12.2019
2223 Rain 9 1001 100 8000 2.6 210 15:38 21.12.2019
2224 Rain 9 1001 100 8000 2.6 210 15:19 21.12.2019
2225 Rain 9 1001 100 1800 1.5 190 14:55 21.12.2019
2226 Rain 9 1001 100 10000 1 0 14:37 21.12.2019
2227 Rain 9 1001 100 10000 3.62 209 14:18 21.12.2019
2228 Rain 9 1001 100 10000 3.62 209 13:54 21.12.2019
2229 Clouds 11 1002 100 10000 0.5 0 13:36 21.12.2019
2230 Fog 11 1002 100 10000 1 0 13:18 21.12.2019
2231 Fog 11 1002 100 10000 1 0 12:54 21.12.2019
2232 Fog 11 1002 100 10000 0.5 0 12:36 21.12.2019
2233 Fog 11 1002 100 10000 0.5 0 12:36 21.12.2019
2234 Fog 10 1002 100 10000 0.5 0 12:18 21.12.2019
2235 Fog 10 1003 100 200 0.5 0 11:41 21.12.2019
2236 Fog 10 1003 100 200 0.5 0 11:41 21.12.2019
2237 Fog 8 1003 100 200 0.5 0 11:23 21.12.2019
2238 Fog 6 1003 100 10000 1.5 350 10:42 21.12.2019
2239 Fog 5 1003 100 10000 1.5 350 10:23 21.12.2019
2240 Fog 5 1003 100 10000 1.5 350 10:23 21.12.2019
2241 Fog 6 1003 100 10000 1.5 20 09:59 21.12.2019
2242 Fog 5 1003 100 10000 2.6 30 09:41 21.12.2019
2243 Fog 5 1003 100 10000 2.6 30 09:20 21.12.2019
2244 Clouds 5 994 95 0 2.68 205 08:55 21.12.2019
2245 Clouds 4 994 95 0 2.13 215 08:36 21.12.2019
2246 Snow 5 1001 95 0 2.32 213 08:18 21.12.2019
2247 Snow 5 1001 94 0 2.32 213 07:41 21.12.2019
2248 Snow 5 993 95 0 1.79 212 07:21 21.12.2019
2249 Snow 5 1000 95 0 2.32 213 06:42 21.12.2019
2250 Snow 6 992 96 0 2.32 213 06:24 21.12.2019
2251 Snow 6 999 96 0 2.32 213 05:45 21.12.2019
2252 Snow 6 999 96 0 1.51 283 04:56 21.12.2019
2253 Snow 6 998 96 0 1.51 283 03:56 21.12.2019
2254 Snow 6 990 95 0 0.45 225 02:39 21.12.2019
2255 Rain 7 996 95 0 0.45 156 01:53 21.12.2019
2256 Rain 7 996 95 0 1.72 211 01:26 21.12.2019
2257 Rain 7 996 95 0 1.72 211 00:49 21.12.2019
2258 Rain 7 996 95 0 1.72 211 00:28 21.12.2019
2259 Rain 7 995 95 0 1.72 211 23:40 20.12.2019
2260 Rain 7 995 95 0 1.72 211 23:40 20.12.2019
2261 Snow 7 995 95 0 2.78 194 23:21 20.12.2019
2262 Snow 7 994 95 0 2.78 194 22:59 20.12.2019
2263 Snow 7 995 95 0 2.78 194 22:39 20.12.2019
2264 Snow 7 995 94 0 2.78 194 22:19 20.12.2019
2265 Snow 7 995 94 0 0.45 276 21:54 20.12.2019
2266 Snow 7 996 94 0 2.78 194 21:36 20.12.2019
2267 Snow 7 996 94 0 2.78 194 21:18 20.12.2019
2268 Snow 7 996 94 0 2.78 194 21:18 20.12.2019
2269 Snow 7 996 94 0 2.78 194 21:18 20.12.2019
2270 Rain 7 997 92 0 3.4 187 20:38 20.12.2019
2271 Rain 7 997 90 0 3.42 187 20:19 20.12.2019
2272 Rain 7 997 87 0 1.34 144 19:56 20.12.2019
2273 Rain 7 997 86 0 1.34 134 19:38 20.12.2019
2274 Rain 7 997 86 0 1.34 105 19:19 20.12.2019
2275 Rain 8 997 83 0 2.68 111 18:41 20.12.2019
2276 Clouds 8 1000 61 10000 1.5 300 18:23 20.12.2019
2277 Clouds 9 1000 61 10000 1.5 300 17:58 20.12.2019
2278 Clouds 9 1000 61 10000 1.5 300 17:39 20.12.2019
2279 Clouds 9 1000 61 10000 1.5 300 17:20 20.12.2019
2280 Clouds 10 1000 53 10000 2.6 240 16:57 20.12.2019
2281 Clouds 10 1000 53 10000 2.6 240 16:38 20.12.2019
2282 Clouds 10 1000 53 10000 2.6 240 16:38 20.12.2019
2283 Clouds 10 1000 53 10000 2.6 240 16:38 20.12.2019
2284 Clouds 10 1000 50 10000 4.6 200 16:19 20.12.2019
2285 Clouds 11 1000 50 10000 4.1 210 15:54 20.12.2019
2286 Clouds 11 999 54 10000 3.6 230 15:36 20.12.2019
2287 Clouds 11 999 54 10000 3.6 230 15:18 20.12.2019
2288 Clouds 11 999 50 10000 7.2 250 14:42 20.12.2019
2289 Clouds 10 999 58 10000 5.1 240 14:24 20.12.2019
2290 Clouds 10 999 66 10000 2.1 0 13:57 20.12.2019
2291 Clouds 10 999 81 10000 3.6 190 13:37 20.12.2019
2292 Clouds 10 999 81 10000 3.6 190 13:18 20.12.2019
2293 Clouds 10 999 81 10000 3.6 190 13:18 20.12.2019
2294 Rain 11 1000 76 10000 5.7 230 12:55 20.12.2019
2295 Clouds 10 999 87 10000 3.1 180 12:36 20.12.2019
2296 Clouds 10 999 87 10000 3.1 180 12:18 20.12.2019
2297 Rain 10 999 93 10000 2.6 260 11:57 20.12.2019
2298 Fog 10 999 100 10000 2.1 290 11:38 20.12.2019
2299 Fog 10 999 100 10000 2.1 290 11:18 20.12.2019
2300 Rain 10 999 100 10000 1 0 10:55 20.12.2019
2301 Rain 10 999 100 10000 1 0 10:37 20.12.2019
2302 Rain 11 999 100 8000 1 0 10:19 20.12.2019
2303 Rain 10 998 100 10000 2.1 210 09:42 20.12.2019
2304 Rain 10 998 100 10000 2.1 210 09:21 20.12.2019
2305 Rain 10 997 87 0 2.24 203 08:54 20.12.2019
2306 Rain 10 997 86 0 4.02 252 08:36 20.12.2019
2307 Rain 11 996 88 0 0.45 91 08:18 20.12.2019
2308 Rain 11 996 88 0 2.68 67 07:41 20.12.2019
2309 Rain 11 995 91 0 1.79 153 07:22 20.12.2019
2310 Rain 10 996 90 0 0.45 98 06:52 20.12.2019
2311 Rain 9 995 91 0 0.45 89 06:33 20.12.2019
2312 Rain 10 996 90 0 0.89 32 05:56 20.12.2019
2313 Rain 11 996 90 0 1.79 79 05:38 20.12.2019
2314 Rain 10 987 95 0 9.39 187 04:34 20.12.2019
2315 Rain 11 987 95 0 11.18 177 03:31 20.12.2019
2316 Rain 11 990 95 0 9.83 215 02:44 20.12.2019
2317 Rain 9 992 93 0 8.05 191 01:54 20.12.2019
2318 Rain 8 1002 88 0 0.89 117 01:33 20.12.2019
2319 Rain 10 1003 90 0 0.89 70 00:48 20.12.2019
2320 Rain 10 992 92 0 5.81 246 00:29 20.12.2019
2321 Rain 9 994 91 0 8.05 142 23:54 19.12.2019
2322 Rain 9 994 93 0 9.83 204 23:36 19.12.2019
2323 Rain 8 1005 88 0 1.34 325 23:18 19.12.2019
2324 Rain 8 1006 88 0 1.34 76 22:37 19.12.2019
2325 Rain 8 1006 88 0 1.34 115 22:19 19.12.2019
2326 Rain 7 997 90 0 7.15 203 21:55 19.12.2019
2327 Rain 9 998 91 0 6.26 156 21:37 19.12.2019
2328 Rain 9 998 90 0 6.26 193 21:18 19.12.2019
2329 Rain 9 998 90 0 8.49 235 21:18 19.12.2019
2330 Rain 9 999 89 0 7.6 148 20:55 19.12.2019
2331 Rain 7 998 88 0 8.94 187 20:36 19.12.2019
2332 Rain 8 1008 90 0 0.45 273 20:18 19.12.2019
2333 Rain 8 1010 95 0 3.85 191 19:54 19.12.2019
2334 Rain 8 1001 88 0 4.92 188 19:36 19.12.2019
2335 Rain 7 1002 87 0 6.71 210 19:18 19.12.2019
2336 Rain 8 1007 83 0 0.45 247 18:41 19.12.2019
2337 Clouds 8 1013 87 10000 1 0 18:22 19.12.2019
2338 Clouds 9 1013 87 10000 1 0 17:57 19.12.2019
2339 Clouds 9 1013 87 10000 1 0 17:39 19.12.2019
2340 Clouds 10 1013 87 10000 1 0 17:19 19.12.2019
2341 Clouds 10 1012 93 10000 1 0 16:57 19.12.2019
2342 Clouds 10 1012 93 10000 1 0 16:39 19.12.2019
2343 Clouds 10 1012 93 10000 1.5 20 16:20 19.12.2019
2344 Clouds 11 1013 93 10000 1 0 15:58 19.12.2019
2345 Clouds 11 1013 93 10000 1 0 15:39 19.12.2019
2346 Clouds 11 1013 93 10000 1 0 15:19 19.12.2019
2347 Clouds 11 1013 100 10000 1 0 14:57 19.12.2019
2348 Clouds 10 1014 100 10000 1.5 320 14:39 19.12.2019
2349 Clouds 10 1014 100 10000 1.5 320 14:18 19.12.2019
2350 Clouds 9 1015 100 10000 1 0 13:39 19.12.2019
2351 Rain 9 1016 100 10000 1 0 13:20 19.12.2019
2352 Fog 9 1016 100 10000 0.5 0 12:59 19.12.2019
2353 Fog 8 1016 100 10000 0.5 0 12:40 19.12.2019
2354 Fog 7 1016 100 8000 0.5 0 12:19 19.12.2019
2355 Fog 7 1016 100 8000 0.5 0 12:19 19.12.2019
2356 Fog 7 1016 100 8000 0.5 0 12:19 19.12.2019
2357 Fog 7 1016 100 8000 0.5 0 12:19 19.12.2019
2358 Drizzle 7 1017 100 200 1.5 60 11:59 19.12.2019
2359 Drizzle 6 1017 100 200 1.5 60 11:41 19.12.2019
2360 Drizzle 6 1017 100 3000 1.5 20 11:20 19.12.2019
2361 Drizzle 6 1017 100 3000 1.5 20 11:20 19.12.2019
2362 Drizzle 6 1017 100 3000 1.5 20 11:20 19.12.2019
2363 Fog 6 1017 100 400 1 0 10:59 19.12.2019
2364 Fog 5 1017 100 5000 0.5 0 10:38 19.12.2019
2365 Fog 4 1017 100 5000 0.5 0 10:20 19.12.2019
2366 Fog 5 1017 100 200 1.5 70 09:57 19.12.2019
2367 Fog 5 1017 100 200 1.5 70 09:37 19.12.2019
2368 Fog 5 1017 100 600 1.5 40 09:19 19.12.2019
2369 Clouds 5 1012 92 0 0.45 67 08:55 19.12.2019
2370 Clouds 4 1015 97 0 2.3 188 08:37 19.12.2019
2371 Clouds 4 1006 87 0 1.34 256 08:18 19.12.2019
2372 Clouds 4 1007 89 0 2.68 170 07:43 19.12.2019
2373 Clouds 4 1007 89 0 4.02 205 07:24 19.12.2019
2374 Clouds 3 1007 89 0 3.13 224 06:59 19.12.2019
2375 Clouds 3 1007 89 0 2.68 203 06:41 19.12.2019
2376 Clouds 3 1007 89 0 3.13 205 06:21 19.12.2019
2377 Clouds 3 1007 89 0 2.24 195 05:42 19.12.2019
2378 Clouds 3 1007 88 0 2.68 201 05:19 19.12.2019
2379 Clouds 3 1008 87 0 4.02 208 03:51 19.12.2019
2380 Clouds 4 1009 80 0 2.68 194 02:28 19.12.2019
2381 Clouds 4 1009 84 0 4.92 210 01:24 19.12.2019
2382 Clouds 4 1009 85 0 4.02 181 00:57 19.12.2019
2383 Clouds 4 1010 88 0 3.58 218 00:38 19.12.2019
2384 Clouds 4 1010 88 0 2.68 200 00:19 19.12.2019
2385 Clouds 4 1010 88 0 2.68 200 00:19 19.12.2019
2386 Clouds 4 1010 90 0 5.36 210 23:43 18.12.2019
2387 Clouds 4 1010 90 0 5.36 210 23:43 18.12.2019
2388 Clouds 4 1010 90 0 0.89 207 23:19 18.12.2019
2389 Clouds 5 1010 89 0 4.02 217 22:56 18.12.2019
2390 Clouds 5 1010 90 0 4.47 193 22:38 18.12.2019
2391 Clouds 5 1010 90 0 3.58 191 22:20 18.12.2019
2392 Clouds 6 1010 87 0 2.68 201 21:58 18.12.2019
2393 Clouds 6 1010 88 0 3.58 222 21:39 18.12.2019
2394 Clouds 6 1010 86 0 3.13 218 21:39 18.12.2019
2395 Clouds 6 1010 87 0 1.79 198 21:20 18.12.2019
2396 Clouds 6 1010 87 0 3.58 153 20:55 18.12.2019
2397 Clouds 6 1010 89 0 4.02 195 20:37 18.12.2019
2398 Clouds 6 1010 89 0 4.02 195 20:37 18.12.2019
2399 Clear 7 1010 88 0 3.58 181 20:19 18.12.2019
2400 Clear 7 1010 87 0 4.47 210 19:55 18.12.2019
2401 Clear 7 1010 89 0 1.79 174 19:37 18.12.2019
2402 Clear 8 1010 89 0 4.02 239 19:18 18.12.2019
2403 Clear 8 1010 89 0 2.24 132 18:45 18.12.2019
2404 Clear 7 1010 89 0 4.47 188 18:25 18.12.2019
2405 Clear 8 1010 88 0 4.47 240 17:57 18.12.2019
2406 Clear 6 1010 88 0 4.47 200 17:39 18.12.2019
2407 Clear 11 1015 79 0 3.1 202 17:20 18.12.2019
2408 Clear 12 1012 83 0 3.1 202 16:57 18.12.2019
2409 Clear 10 1010 88 0 4.92 204 16:57 18.12.2019
2410 Clear 12 1012 71 0 0.45 67 16:38 18.12.2019
2411 Clear 12 1013 67 0 1.34 61 16:20 18.12.2019
2412 Clear 13 1012 65 0 0.45 157 15:55 18.12.2019
2413 Clear 14 1010 47 0 0.45 315 15:37 18.12.2019
2414 Clear 14 1010 47 0 0.45 315 15:37 18.12.2019
2415 Clear 14 1013 71 0 1.34 115 15:19 18.12.2019
2416 Clear 14 1015 73 0 3.1 202 14:42 18.12.2019
2417 Fog 13 1017 100 10000 1 0 14:22 18.12.2019
2418 Fog 13 1017 100 10000 1 0 13:57 18.12.2019
2419 Fog 13 1017 100 10000 1 0 13:39 18.12.2019
2420 Fog 12 1017 100 10000 1 0 13:20 18.12.2019
2421 Mist 11 1018 100 1100 0.5 0 12:58 18.12.2019
2422 Fog 11 1018 100 250 2.96 191 12:38 18.12.2019
2423 Fog 11 1018 100 250 2.96 191 12:38 18.12.2019
2424 Fog 11 1018 100 250 2.96 191 12:20 18.12.2019
2425 Fog 10 1018 100 200 0.5 0 11:56 18.12.2019
2426 Fog 9 1018 100 150 2.96 191 11:38 18.12.2019
2427 Fog 9 1018 100 200 1.29 156 11:19 18.12.2019
2428 Fog 9 1018 100 200 1.29 156 11:19 18.12.2019
2429 Fog 9 1018 100 200 1.29 156 10:55 18.12.2019
2430 Fog 7 1018 100 2000 1 40 10:37 18.12.2019
2431 Fog 7 1018 100 2000 1 40 10:37 18.12.2019
2432 Fog 7 1018 100 2000 1 40 10:19 18.12.2019
2433 Fog 6 1017 100 200 1.5 350 09:50 18.12.2019
2434 Fog 5 1017 100 200 1.29 156 09:18 18.12.2019
2435 Fog 6 1016 100 1200 1 10 08:40 18.12.2019
2436 Clouds 6 1008 93 0 4.92 210 08:21 18.12.2019
2437 Clouds 6 1008 94 0 4.47 195 07:43 18.12.2019
2438 Clouds 6 1008 94 0 4.02 198 07:23 18.12.2019
2439 Clouds 6 1008 93 0 4.47 214 06:55 18.12.2019
2440 Clouds 7 1012 72 0 3.13 68 06:27 18.12.2019
2441 Clouds 7 1014 92 0 0.9 106 05:47 18.12.2019
2442 Snow 7 1014 92 0 2.1 177 04:52 18.12.2019
2443 Snow 8 1013 88 0 0.45 101 02:55 18.12.2019
2444 Snow 8 1012 81 0 2.68 45 02:36 18.12.2019
2445 Snow 7 1007 91 0 4.92 218 02:18 18.12.2019
2446 Snow 7 1006 92 0 4.47 198 01:40 18.12.2019
2447 Snow 7 1006 92 0 4.47 176 01:21 18.12.2019
2448 Snow 7 1006 92 0 4.47 225 00:40 18.12.2019
2449 Snow 7 1006 92 0 3.58 242 00:22 18.12.2019
2450 Snow 7 1006 92 0 4.92 214 23:56 17.12.2019
2451 Snow 7 1006 93 0 4.92 162 23:37 17.12.2019
2452 Clouds 7 1006 92 0 4.47 190 23:18 17.12.2019
2453 Clouds 7 1006 92 0 4.47 190 23:18 17.12.2019
2454 Clouds 8 1012 88 0 0.45 135 22:55 17.12.2019
2455 Clouds 9 1011 79 0 1.79 23 22:37 17.12.2019
2456 Clouds 9 1012 88 0 0.45 135 22:18 17.12.2019
2457 Clouds 7 1006 92 0 5.81 231 21:55 17.12.2019
2458 Clouds 8 1010 92 0 0.45 202 21:55 17.12.2019
2459 Clouds 7 1005 91 0 4.92 200 21:37 17.12.2019
2460 Clouds 8 1012 87 0 1.99 149 21:18 17.12.2019
2461 Clouds 8 1012 87 0 1.99 149 20:55 17.12.2019
2462 Clouds 7 1005 92 0 5.81 210 20:37 17.12.2019
2463 Snow 9 1010 73 0 0.45 121 20:18 17.12.2019
2464 Snow 9 1010 73 0 1.78 185 19:41 17.12.2019
2465 Snow 8 1005 91 0 3.58 201 19:20 17.12.2019
2466 Snow 8 1009 73 0 1.78 185 18:58 17.12.2019
2467 Snow 6 1004 91 0 3.58 221 18:40 17.12.2019
2468 Snow 6 1004 91 0 4.02 235 18:21 17.12.2019
2469 Snow 6 1004 89 0 3.13 238 17:56 17.12.2019
2470 Snow 7 1003 89 0 2.68 256 17:38 17.12.2019
2471 Rain 11 1008 71 0 2.49 169 17:18 17.12.2019
2472 Rain 12 1009 76 0 1.34 323 16:55 17.12.2019
2473 Rain 12 1008 71 0 0.45 110 16:55 17.12.2019
2474 Rain 13 1005 91 0 0.45 135 16:37 17.12.2019
2475 Rain 12 1008 77 0 1.34 68 16:18 17.12.2019
2476 Rain 13 1004 46 0 1.79 326 15:38 17.12.2019
2477 Rain 13 1007 74 0 1.34 90 15:20 17.12.2019
2478 Rain 13 1004 92 0 0.45 67 14:57 17.12.2019
2479 Rain 13 1004 92 0 0.45 90 14:39 17.12.2019
2480 Clouds 13 1006 68 0 0.89 146 14:19 17.12.2019
2481 Clouds 13 1006 68 0 0.89 146 14:19 17.12.2019
2482 Clouds 13 1006 68 0 0.45 163 13:59 17.12.2019
2483 Clouds 13 1005 66 0 1.34 131 13:41 17.12.2019
2484 Clouds 13 1005 65 0 0.89 142 13:19 17.12.2019
2485 Clouds 13 1005 63 0 0.45 125 12:59 17.12.2019
2486 Clouds 13 1006 9 0 2.24 220 12:38 17.12.2019
2487 Clouds 12 1005 65 0 0.89 300 12:18 17.12.2019
2488 Clouds 12 1005 65 0 0.89 300 12:18 17.12.2019
2489 Clouds 12 1005 64 0 0.89 117 11:57 17.12.2019
2490 Clouds 12 1005 69 0 0.45 99 11:37 17.12.2019
2491 Clouds 11 1006 91 0 1.97 138 11:18 17.12.2019
2492 Clouds 9 1005 72 0 1.97 138 10:57 17.12.2019
2493 Clouds 10 1005 73 0 1.97 138 10:38 17.12.2019
2494 Clouds 10 999 92 0 3.58 176 10:19 17.12.2019
2495 Clouds 10 999 92 0 3.58 176 10:19 17.12.2019
2496 Clouds 9 1004 78 0 1.97 138 09:55 17.12.2019
2497 Clouds 9 999 94 0 4.92 180 09:37 17.12.2019
2498 Clouds 9 998 94 0 4.92 181 09:18 17.12.2019
2499 Clouds 9 1004 77 0 1.97 138 08:40 17.12.2019
2500 Rain 8 998 94 0 3.58 160 08:22 17.12.2019
2501 Rain 8 998 94 0 2.24 187 07:59 17.12.2019
2502 Rain 8 998 94 0 2.68 193 07:41 17.12.2019
2503 Rain 8 998 94 0 2.24 205 07:22 17.12.2019
2504 Rain 8 1003 85 0 0.89 139 06:43 17.12.2019
2505 Rain 8 1003 86 0 2.25 138 06:24 17.12.2019
2506 Rain 8 997 95 0 3.58 181 05:41 17.12.2019
2507 Snow 8 998 96 0 4.47 166 04:53 17.12.2019
2508 Snow 8 998 95 0 4.02 187 03:51 17.12.2019
2509 Snow 8 1004 83 0 0.89 127 02:25 17.12.2019
2510 Snow 8 999 91 0 1.79 176 01:21 17.12.2019
2511 Snow 8 999 90 0 3.58 160 00:47 17.12.2019
2512 Snow 8 1000 91 0 3.58 197 00:21 17.12.2019
2513 Snow 8 1000 91 0 3.58 197 00:21 17.12.2019
2514 Snow 8 1000 91 0 3.58 197 00:21 17.12.2019
2515 Snow 8 1000 87 0 4.02 243 23:44 16.12.2019
2516 Clouds 8 999 87 0 4.92 225 23:20 16.12.2019
2517 Clouds 8 999 86 0 4.47 217 22:59 16.12.2019
2518 Clouds 8 999 85 0 2.68 198 22:39 16.12.2019
2519 Clouds 7 999 85 0 4.02 186 22:21 16.12.2019
2520 Clouds 7 999 84 0 3.58 226 21:57 16.12.2019
2521 Clouds 7 999 84 0 3.58 226 21:57 16.12.2019
2522 Clouds 8 999 83 0 5.81 198 21:39 16.12.2019
2523 Clouds 7 998 84 0 5.81 166 21:20 16.12.2019
2524 Clouds 7 998 83 0 5.36 188 20:58 16.12.2019
2525 Clouds 7 997 83 0 6.26 177 20:39 16.12.2019
2526 Clouds 7 997 83 0 7.15 169 20:20 16.12.2019
2527 Clouds 7 997 84 0 6.71 176 19:57 16.12.2019
2528 Clouds 7 997 83 0 6.26 180 19:37 16.12.2019
2529 Clouds 7 998 83 0 7.6 212 19:19 16.12.2019
2530 Clouds 7 998 83 0 7.6 212 19:19 16.12.2019
2531 Clouds 8 998 83 0 6.71 204 18:59 16.12.2019
2532 Clouds 8 997 82 0 7.15 210 18:41 16.12.2019
2533 Fog 7 1008 100 10000 1 0 18:20 16.12.2019
2534 Fog 8 1008 100 10000 1 0 17:59 16.12.2019
2535 Fog 8 1008 100 10000 1 0 17:40 16.12.2019
2536 Fog 8 1008 100 10000 1 0 17:40 16.12.2019
2537 Fog 8 1008 100 10000 1 0 17:21 16.12.2019
2538 Fog 8 1008 100 10000 1 0 16:57 16.12.2019
2539 Fog 8 1008 100 10000 1 0 16:39 16.12.2019
2540 Fog 9 1008 100 10000 1 0 16:20 16.12.2019
2541 Fog 9 1008 100 10000 3.78 178 15:59 16.12.2019
2542 Fog 9 1008 100 10000 3.78 178 15:59 16.12.2019
2543 Fog 9 1008 100 10000 0.5 0 15:39 16.12.2019
2544 Mist 9 1009 100 4000 0.5 0 15:20 16.12.2019
2545 Mist 9 1009 100 4000 0.5 0 14:57 16.12.2019
2546 Fog 8 1010 100 10000 0.5 0 14:37 16.12.2019
2547 Fog 9 1010 100 10000 0.5 0 14:19 16.12.2019
2548 Fog 9 1010 100 6000 1 0 14:19 16.12.2019
2549 Fog 9 1010 100 6000 1 0 14:19 16.12.2019
2550 Fog 9 1010 100 6000 1 0 13:56 16.12.2019
2551 Fog 9 1011 100 250 1.5 220 13:37 16.12.2019
2552 Fog 9 1011 100 250 1.5 220 13:37 16.12.2019
2553 Fog 10 1011 100 250 1.5 220 13:19 16.12.2019
2554 Fog 11 1011 100 400 1.5 350 12:57 16.12.2019
2555 Fog 9 1012 100 100 1 0 12:39 16.12.2019
2556 Fog 10 1012 63 50 5.03 186 12:18 16.12.2019
2557 Fog 11 1012 64 50 5.17 187 11:58 16.12.2019
2558 Fog 10 1012 64 50 1 0 11:40 16.12.2019
2559 Fog 5 1012 72 150 0.5 0 11:19 16.12.2019
2560 Fog 5 1012 72 50 1 0 11:19 16.12.2019
2561 Fog 5 1012 72 150 0.5 0 10:56 16.12.2019
2562 Fog 4 1013 74 100 1 0 10:36 16.12.2019
2563 Fog 3 1013 100 50 1 0 10:18 16.12.2019
2564 Fog 5 1012 100 100 1.5 30 09:44 16.12.2019
2565 Fog 5 1012 100 100 1.5 30 09:44 16.12.2019
2566 Fog 4 1012 100 100 1.5 30 09:26 16.12.2019
2567 Clear 4 1010 57 0 0.45 118 08:41 16.12.2019
2568 Clear 3 1002 75 0 5.36 224 08:20 16.12.2019
2569 Clear 3 1001 76 0 6.71 193 07:53 16.12.2019
2570 Clear 3 1001 75 0 6.26 203 07:33 16.12.2019
2571 Clear 3 1002 81 0 4.47 14 06:59 16.12.2019
2572 Clear 3 1001 80 0 5.36 208 06:40 16.12.2019
2573 Clear 3 1001 81 0 5.81 222 06:21 16.12.2019
2574 Clear 3 1002 80 0 5.81 198 05:41 16.12.2019
2575 Clear 3 1001 79 0 6.26 166 05:23 16.12.2019
2576 Clear 3 1001 78 0 6.71 221 03:29 16.12.2019
2577 Clouds 4 1003 84 0 4.02 210 01:51 16.12.2019
2578 Clouds 4 1003 84 0 4.02 79 01:33 16.12.2019
2579 Clouds 4 1004 81 0 4.02 200 00:39 16.12.2019
2580 Clouds 4 1004 82 0 4.02 211 00:20 16.12.2019
2581 Clouds 4 1012 81 0 1.82 191 23:44 15.12.2019
2582 Clouds 4 1012 82 0 1.82 191 23:25 15.12.2019
2583 Clouds 5 1012 81 0 1.33 196 22:57 15.12.2019
2584 Clouds 5 1005 80 0 4.02 146 22:39 15.12.2019
2585 Clouds 5 1005 78 0 4.02 207 22:20 15.12.2019
2586 Clouds 5 1005 80 0 2.68 231 21:59 15.12.2019
2587 Clouds 4 1005 78 0 4.02 233 21:39 15.12.2019
2588 Clouds 4 1005 78 0 4.02 233 21:39 15.12.2019
2589 Clouds 4 1005 80 0 4.47 184 21:20 15.12.2019
2590 Clouds 5 1005 79 0 2.68 198 20:58 15.12.2019
2591 Clouds 5 1005 78 0 4.47 212 20:40 15.12.2019
2592 Clouds 5 1005 76 0 4.02 210 20:22 15.12.2019
2593 Clouds 5 1005 78 0 4.47 195 19:58 15.12.2019
2594 Clouds 6 1006 79 0 2.68 229 19:40 15.12.2019
2595 Clouds 6 1006 80 0 1.34 183 19:20 15.12.2019
2596 Clouds 6 1013 80 0 0.81 194 18:58 15.12.2019
2597 Clouds 6 1005 79 0 2.68 210 18:39 15.12.2019
2598 Clouds 7 1012 87 10000 1.5 220 18:19 15.12.2019
2599 Clouds 6 1012 87 10000 1.5 220 17:57 15.12.2019
2600 Clouds 7 1012 87 10000 1.5 220 17:38 15.12.2019
2601 Clear 8 1013 81 10000 1.5 200 17:19 15.12.2019
2602 Clear 9 1013 81 10000 1.5 200 16:58 15.12.2019
2603 Clear 9 1013 81 10000 1 0 16:39 15.12.2019
2604 Clear 10 1013 81 10000 1 0 16:21 15.12.2019
2605 Clouds 11 1013 81 10000 1.5 170 15:56 15.12.2019
2606 Clouds 12 1013 87 10000 1 0 15:38 15.12.2019
2607 Clouds 12 1013 87 10000 1 0 15:19 15.12.2019
2608 Clouds 11 1013 87 10000 1.5 140 14:56 15.12.2019
2609 Clouds 10 1013 87 0 1.5 140 14:37 15.12.2019
2610 Clouds 11 1013 87 0 1.5 140 14:18 15.12.2019
2611 Clouds 11 1014 87 10000 1.5 170 13:58 15.12.2019
2612 Clouds 11 1014 93 10000 1 0 13:37 15.12.2019
2613 Clouds 11 1014 93 10000 1 0 13:37 15.12.2019
2614 Clouds 10 1015 87 10000 1 0 13:19 15.12.2019
2615 Clouds 10 1015 87 10000 1 0 13:19 15.12.2019
2616 Clouds 10 1015 87 10000 1 0 12:56 15.12.2019
2617 Clouds 11 1015 93 10000 0.5 0 12:38 15.12.2019
2618 Clouds 11 1015 93 10000 0.5 0 12:20 15.12.2019
2619 Clouds 9 1015 100 10000 0.5 0 11:39 15.12.2019
2620 Clouds 6 1015 100 10000 0.5 0 11:20 15.12.2019
2621 Clouds 6 1015 100 10000 0.5 0 10:59 15.12.2019
2622 Clouds 6 1015 100 10000 0.5 0 10:41 15.12.2019
2623 Clouds 5 1015 100 10000 0.5 0 10:20 15.12.2019
2624 Clouds 5 1015 100 10000 0.77 150 09:59 15.12.2019
2625 Clouds 5 1015 100 10000 1 0 09:39 15.12.2019
2626 Clear 3 1013 92 0 0.77 150 09:20 15.12.2019
2627 Clear 3 1007 46 0 0.77 150 08:56 15.12.2019
2628 Clear 3 1007 51 0 0.77 150 08:38 15.12.2019
2629 Clear 3 1007 63 0 0.44 76 08:20 15.12.2019
2630 Clear 3 1007 71 0 1.34 214 07:55 15.12.2019
2631 Clear 3 1007 76 0 2.24 207 07:33 15.12.2019
2632 Clear 3 1012 91 0 0.44 76 06:31 15.12.2019
2633 Clear 3 1006 87 0 2.68 205 05:51 15.12.2019
2634 Clear 4 1006 86 0 3.13 229 05:25 15.12.2019
2635 Clouds 4 1006 83 0 1.79 210 04:24 15.12.2019
2636 Clouds 4 1007 83 0 2.68 193 03:22 15.12.2019
2637 Clouds 5 1007 79 0 3.58 218 02:32 15.12.2019
2638 Clouds 5 1012 88 0 0.61 226 01:43 15.12.2019
2639 Clouds 5 1006 84 0 3.58 210 01:20 15.12.2019
2640 Clouds 5 1007 85 0 4.02 172 00:53 15.12.2019
2641 Clouds 5 1007 85 0 4.47 225 00:34 15.12.2019
2642 Clouds 5 1013 90 0 0.48 253 23:56 14.12.2019
2643 Clouds 5 1007 83 0 4.47 148 23:38 14.12.2019
2644 Clouds 5 1007 85 0 4.47 250 23:18 14.12.2019
2645 Clouds 5 1007 86 0 4.02 211 22:56 14.12.2019
2646 Clouds 5 1007 86 0 3.58 228 22:37 14.12.2019
2647 Clouds 6 1013 91 0 0.98 219 22:18 14.12.2019
2648 Clouds 6 1007 89 0 4.47 211 21:55 14.12.2019
2649 Clouds 6 1007 88 0 4.47 166 21:37 14.12.2019
2650 Clouds 6 1007 89 0 4.47 179 21:18 14.12.2019
2651 Clouds 6 1013 92 0 0.98 219 20:42 14.12.2019
2652 Clouds 6 1007 90 0 2.68 38 20:20 14.12.2019
2653 Clouds 6 1013 89 0 0.9 149 19:59 14.12.2019
2654 Clouds 7 1013 91 0 0.9 149 19:39 14.12.2019
2655 Clouds 6 1007 92 0 4.47 211 19:21 14.12.2019
2656 Clouds 6 1008 91 0 3.13 201 18:57 14.12.2019
2657 Clouds 7 1008 87 0 2.24 194 18:38 14.12.2019
2658 Clouds 7 1014 87 10000 2.1 200 18:20 14.12.2019
2659 Clouds 7 1014 87 10000 2.1 200 17:54 14.12.2019
2660 Clouds 8 1014 87 10000 2.1 200 17:36 14.12.2019
2661 Clouds 10 1014 81 10000 2.1 200 17:18 14.12.2019
2662 Clouds 11 1014 87 10000 1.5 200 16:40 14.12.2019
2663 Clouds 11 1014 87 10000 1.5 200 16:19 14.12.2019
2664 Clouds 11 1014 87 10000 2.1 220 15:54 14.12.2019
2665 Clouds 11 1014 93 10000 2.1 230 15:36 14.12.2019
2666 Clouds 11 1014 93 10000 2.1 230 15:36 14.12.2019
2667 Clouds 11 1014 93 10000 2.1 230 15:36 14.12.2019
2668 Clouds 11 1014 93 10000 2.1 230 15:18 14.12.2019
2669 Clouds 11 1014 100 10000 1.5 220 14:40 14.12.2019
2670 Mist 11 1014 100 10000 1.67 32 14:21 14.12.2019
2671 Mist 11 1014 100 10000 1.67 32 13:59 14.12.2019
2672 Fog 11 1014 100 10000 0.5 0 13:41 14.12.2019
2673 Fog 10 1014 100 400 0.5 0 13:19 14.12.2019
2674 Fog 10 1014 100 400 0.5 0 13:19 14.12.2019
2675 Fog 11 1014 100 400 0.5 0 12:56 14.12.2019
2676 Fog 11 1014 100 100 1 0 12:37 14.12.2019
2677 Fog 11 1014 100 100 1 0 12:19 14.12.2019
2678 Fog 10 1014 100 50 0.5 0 11:56 14.12.2019
2679 Fog 10 1014 100 50 0.5 0 11:37 14.12.2019
2680 Fog 8 1014 100 100 1 0 11:18 14.12.2019
2681 Fog 8 1014 100 100 1.5 10 10:55 14.12.2019
2682 Fog 8 1014 100 100 1.5 10 10:37 14.12.2019
2683 Fog 8 1014 100 100 1.5 10 10:18 14.12.2019
2684 Fog 7 1012 100 100 1.5 250 09:41 14.12.2019
2685 Fog 6 1012 100 100 1.5 250 09:21 14.12.2019
2686 Clouds 6 1013 65 0 3.58 19 08:45 14.12.2019
2687 Clouds 7 1007 84 0 3.13 49 08:21 14.12.2019
2688 Clouds 6 1012 65 0 3.93 17 07:58 14.12.2019
2689 Clouds 7 1006 84 0 3.58 38 07:38 14.12.2019
2690 Clouds 7 1006 82 0 4.02 13 07:19 14.12.2019
2691 Clouds 7 1005 85 0 2.68 10 06:41 14.12.2019
2692 Clouds 7 1005 85 0 0.89 25 06:22 14.12.2019
2693 Clouds 7 1005 92 0 2.24 8 05:22 14.12.2019
2694 Clouds 6 1003 89 0 3.13 35 02:49 14.12.2019
2695 Rain 7 1003 87 0 0.89 17 02:22 14.12.2019
2696 Rain 7 1003 87 0 1.34 11 01:43 14.12.2019
2697 Rain 7 1010 70 0 3.27 357 00:54 14.12.2019
2698 Rain 7 1002 83 0 2.68 8 00:54 14.12.2019
2699 Rain 7 1002 86 0 2.68 28 00:36 14.12.2019
2700 Rain 7 1001 83 0 2.68 15 00:18 14.12.2019
2701 Rain 7 1009 77 0 3.27 357 23:39 13.12.2019
2702 Rain 7 1001 92 0 1.34 30 23:19 13.12.2019
2703 Rain 7 1001 95 0 2.68 24 22:55 13.12.2019
2704 Rain 8 1001 97 0 2.68 45 22:36 13.12.2019
2705 Rain 8 1001 97 0 1.79 340 22:36 13.12.2019
2706 Rain 8 1001 98 0 3.13 359 22:18 13.12.2019
2707 Rain 8 1000 98 0 2.24 345 21:39 13.12.2019
2708 Rain 8 1000 98 0 1.34 31 21:21 13.12.2019
2709 Rain 9 1008 93 0 2.57 343 20:55 13.12.2019
2710 Rain 9 1008 92 0 2.57 343 20:37 13.12.2019
2711 Rain 10 1008 93 0 2.33 331 20:19 13.12.2019
2712 Rain 10 1007 93 0 2.5 343 19:56 13.12.2019
2713 Rain 10 1007 93 0 2.5 343 19:36 13.12.2019
2714 Rain 10 1008 92 0 2.5 343 19:18 13.12.2019
2715 Rain 9 1008 46 0 2.5 343 18:41 13.12.2019
2716 Clouds 9 1003 93 10000 2.1 160 18:19 13.12.2019
2717 Clouds 9 1003 93 10000 2.1 160 17:57 13.12.2019
2718 Clouds 9 1003 93 10000 2.1 160 17:39 13.12.2019
2719 Clouds 11 1003 93 10000 2.1 160 17:18 13.12.2019
2720 Clouds 11 1003 87 10000 2.1 0 16:54 13.12.2019
2721 Clouds 11 1002 87 10000 1.5 210 16:36 13.12.2019
2722 Clouds 11 1002 87 10000 1.5 210 16:18 13.12.2019
2723 Rain 11 1003 76 9000 1.5 0 15:38 13.12.2019
2724 Rain 11 1002 100 8000 1.5 70 15:20 13.12.2019
2725 Rain 11 1001 100 6000 2.6 60 14:42 13.12.2019
2726 Clouds 10 1001 87 10000 1 0 14:22 13.12.2019
2727 Clouds 10 1001 87 10000 1 0 13:58 13.12.2019
2728 Clouds 10 1001 87 10000 1 0 13:40 13.12.2019
2729 Clouds 10 1001 87 9000 1.5 80 13:21 13.12.2019
2730 Clouds 10 1001 87 9000 1.5 80 13:21 13.12.2019
2731 Mist 10 1002 100 4400 1.5 40 12:43 13.12.2019
2732 Mist 9 1002 100 4400 1.5 40 12:20 13.12.2019
2733 Mist 9 1002 100 10000 0.5 0 11:57 13.12.2019
2734 Mist 9 1002 100 10000 0.5 0 11:57 13.12.2019
2735 Mist 9 1002 100 2000 1 0 11:39 13.12.2019
2736 Mist 8 1002 100 2000 1 0 11:21 13.12.2019
2737 Rain 7 1002 100 10000 1.5 90 10:43 13.12.2019
2738 Rain 6 1001 100 9000 1 0 10:23 13.12.2019
2739 Rain 6 1001 100 100 1 0 09:59 13.12.2019
2740 Rain 6 1001 100 100 1 0 09:39 13.12.2019
2741 Rain 5 1001 100 10000 0.5 0 09:18 13.12.2019
2742 Rain 6 1003 96 0 2.75 281 08:41 13.12.2019
2743 Snow 6 990 96 0 2.68 6 08:23 13.12.2019
2744 Snow 6 991 96 0 2.24 24 07:46 13.12.2019
2745 Snow 6 990 95 0 4.02 267 07:21 13.12.2019
2746 Snow 5 993 93 0 5.81 18 06:54 13.12.2019
2747 Snow 5 1002 95 0 1.84 266 06:28 13.12.2019
2748 Snow 5 991 95 0 1.84 266 05:46 13.12.2019
2749 Snow 5 991 95 0 0.41 263 05:26 13.12.2019
2750 Snow 5 992 95 0 0.41 263 04:35 13.12.2019
2751 Snow 5 1003 95 0 0.41 263 03:39 13.12.2019
2752 Snow 4 993 96 0 0.41 263 02:33 13.12.2019
2753 Snow 4 1003 95 0 1.28 321 01:43 13.12.2019
2754 Snow 4 993 96 0 1.51 323 00:55 13.12.2019
2755 Snow 4 1004 95 0 1.51 323 00:36 13.12.2019
2756 Snow 4 993 95 0 1.51 323 23:57 12.12.2019
2757 Snow 4 993 95 0 1.51 323 23:37 12.12.2019
2758 Snow 4 993 96 0 0.63 303 23:19 12.12.2019
2759 Snow 5 1004 94 0 0.63 303 22:54 12.12.2019
2760 Snow 5 993 95 0 0.63 303 22:36 12.12.2019
2761 Snow 4 993 95 0 0.63 303 22:18 12.12.2019
2762 Snow 4 993 95 0 0.63 303 22:18 12.12.2019
2763 Snow 4 993 95 0 0.63 303 21:54 12.12.2019
2764 Snow 4 994 95 0 0.63 303 21:36 12.12.2019
2765 Snow 4 1005 94 0 0.63 303 21:18 12.12.2019
2766 Snow 3 1005 94 0 0.63 303 20:55 12.12.2019
2767 Snow 3 994 94 0 0.95 287 20:37 12.12.2019
2768 Snow 3 994 94 0 2.68 206 20:19 12.12.2019
2769 Snow 4 994 92 0 2.71 214 19:42 12.12.2019
2770 Snow 4 994 91 0 2.71 214 19:22 12.12.2019
2771 Snow 4 994 91 0 2.71 214 18:58 12.12.2019
2772 Snow 4 994 91 0 2.71 214 18:39 12.12.2019
2773 Clouds 5 1007 70 10000 3.1 210 18:20 12.12.2019
2774 Clouds 5 1007 70 10000 3.1 210 17:57 12.12.2019
2775 Clouds 4 1007 70 10000 3.1 210 17:39 12.12.2019
2776 Clouds 5 1007 70 10000 3.1 210 17:20 12.12.2019
2777 Clouds 5 1007 70 10000 3.1 210 17:20 12.12.2019
2778 Clouds 5 1007 65 10000 2.6 220 16:57 12.12.2019
2779 Clouds 6 1008 65 10000 2.6 210 16:38 12.12.2019
2780 Clouds 6 1008 65 10000 2.6 210 16:20 12.12.2019
2781 Clouds 6 1008 65 10000 2.6 200 15:54 12.12.2019
2782 Clouds 6 1009 91 10000 5.1 200 15:36 12.12.2019
2783 Clouds 6 1009 91 10000 5.1 200 15:18 12.12.2019
2784 Clouds 6 1010 91 10000 4.6 200 14:38 12.12.2019
2785 Clouds 6 1010 91 10000 4.6 200 14:38 12.12.2019
2786 Clouds 6 1010 74 10000 4.6 200 14:20 12.12.2019
2787 Clouds 6 1010 74 10000 3.6 210 13:57 12.12.2019
2788 Clouds 6 1011 65 10000 3.1 220 13:39 12.12.2019
2789 Clouds 6 1011 65 10000 3.1 220 13:21 12.12.2019
2790 Clouds 5 1011 73 10000 2.6 220 12:57 12.12.2019
2791 Clouds 6 1011 73 10000 2.6 220 12:39 12.12.2019
2792 Clouds 5 1012 73 10000 2.1 190 12:20 12.12.2019
2793 Clouds 4 1013 73 10000 2.1 220 11:56 12.12.2019
2794 Clouds 4 1013 69 10000 1.5 0 11:37 12.12.2019
2795 Clouds 4 1013 69 10000 1.5 0 11:19 12.12.2019
2796 Clouds 4 1013 69 10000 1 0 10:55 12.12.2019
2797 Clouds 3 1013 69 10000 0.53 283 10:37 12.12.2019
2798 Clouds 3 1013 69 10000 0.53 283 10:18 12.12.2019
2799 Clouds 3 1013 69 10000 0.53 283 10:18 12.12.2019
2800 Clouds 2 1013 80 10000 0.53 283 09:41 12.12.2019
2801 Clouds 2 1013 80 10000 0.53 283 09:23 12.12.2019
2802 Clouds 1 1013 90 0 0.53 283 08:56 12.12.2019
2803 Clouds 1 1003 90 0 0.53 283 08:38 12.12.2019
2804 Clouds 1 1003 90 0 0.53 283 08:38 12.12.2019
2805 Snow 2 1003 89 0 1.68 338 08:19 12.12.2019
2806 Snow 1 1014 89 0 1.75 350 07:42 12.12.2019
2807 Snow 1 1003 90 0 1.75 350 07:24 12.12.2019
2808 Snow 1 1013 87 0 1.75 350 06:48 12.12.2019
2809 Snow 1 1013 87 0 1.75 350 06:48 12.12.2019
2810 Snow 2 1013 87 0 1.75 350 06:30 12.12.2019
2811 Snow 2 1017 49 0 1.75 350 05:36 12.12.2019
2812 Snow 2 1017 39 0 0.89 250 04:51 12.12.2019
2813 Snow 2 1017 39 0 0.89 250 04:51 12.12.2019
2814 Snow 2 1017 39 0 0.89 250 04:51 12.12.2019
2815 Snow 2 1014 85 0 1.83 326 03:20 12.12.2019
2816 Snow 3 1014 82 0 1.83 326 02:37 12.12.2019
2817 Snow 3 1014 81 0 2.2 342 02:19 12.12.2019
2818 Snow 2 1014 78 0 2.2 342 01:37 12.12.2019
2819 Snow 2 1014 78 0 1.93 340 01:18 12.12.2019
2820 Snow 3 1015 78 0 0.45 138 00:40 12.12.2019
2821 Snow 2 1015 80 0 1.93 340 00:18 12.12.2019
2822 Snow 2 1015 81 0 1.93 340 23:42 11.12.2019
2823 Clouds 2 1015 81 0 0.45 39 23:20 11.12.2019
2824 Clouds 2 1020 55 0 1.34 159 22:57 11.12.2019
2825 Clouds 2 1016 72 0 2.07 348 22:38 11.12.2019
2826 Clouds 2 1016 62 0 2.07 348 22:19 11.12.2019
2827 Clouds 2 1016 62 0 0.45 294 21:57 11.12.2019
2828 Clouds 2 1020 65 0 1.34 221 21:37 11.12.2019
2829 Clouds 2 1006 79 0 2.07 348 21:37 11.12.2019
2830 Clouds 2 1006 71 0 2.07 348 21:19 11.12.2019
2831 Clouds 2 1006 71 0 2.07 348 21:19 11.12.2019
2832 Clouds 3 1020 59 0 2.07 348 20:55 11.12.2019
2833 Clouds 3 1020 58 0 2.07 348 20:37 11.12.2019
2834 Snow 3 1016 57 0 3.78 5 20:18 11.12.2019
2835 Snow 3 1016 57 0 3.78 5 19:55 11.12.2019
2836 Snow 4 1016 58 0 3.78 5 19:36 11.12.2019
2837 Snow 4 1017 59 0 3.78 5 19:18 11.12.2019
2838 Snow 5 1020 50 0 3.78 5 18:40 11.12.2019
2839 Snow 5 1021 47 0 3.78 5 18:21 11.12.2019
2840 Snow 5 1021 47 0 3.78 5 18:21 11.12.2019
2841 Snow 5 1021 43 0 3.78 5 17:57 11.12.2019
2842 Snow 5 1021 40 0 2.24 331 17:38 11.12.2019
2843 Snow 6 1021 40 0 3.42 360 17:18 11.12.2019
2844 Snow 6 1015 73 0 3.42 360 16:56 11.12.2019
2845 Snow 6 1015 73 0 3.42 360 16:56 11.12.2019
2846 Snow 6 1015 71 0 3.42 360 16:37 11.12.2019
2847 Snow 6 1014 76 0 0.45 139 16:19 11.12.2019
2848 Snow 6 1020 30 0 4.02 262 15:57 11.12.2019
2849 Snow 6 1018 89 0 3.42 360 15:37 11.12.2019
2850 Snow 6 1014 79 0 3.42 360 15:19 11.12.2019
2851 Snow 7 1019 40 0 2.68 231 14:55 11.12.2019
2852 Snow 7 1019 40 0 2.68 231 14:55 11.12.2019
2853 Snow 7 1019 35 0 1.34 213 14:37 11.12.2019
2854 Clouds 7 1015 54 0 0.81 322 14:18 11.12.2019
2855 Clouds 8 1014 46 0 0.81 322 13:43 11.12.2019
2856 Clouds 8 1019 16 0 2.24 291 13:23 11.12.2019
2857 Clouds 8 1014 44 0 0.89 322 12:58 11.12.2019
2858 Clouds 8 1014 47 0 0.89 322 12:39 11.12.2019
2859 Clouds 7 1019 17 0 0.89 237 12:21 11.12.2019
2860 Clouds 7 1009 57 0 0.45 236 11:58 11.12.2019
2861 Clouds 6 1016 42 0 0.89 322 11:39 11.12.2019
2862 Clouds 5 1010 54 0 0.89 340 11:19 11.12.2019
2863 Clouds 5 1010 54 0 0.89 340 11:19 11.12.2019
2864 Clouds 5 1016 41 0 0.43 127 10:59 11.12.2019
2865 Clouds 5 1016 40 0 0.43 127 10:39 11.12.2019
2866 Clouds 4 1017 43 0 0.43 127 10:21 11.12.2019
2867 Clouds 2 1017 42 0 0.43 127 09:55 11.12.2019
2868 Clouds 2 1010 80 0 1.79 198 09:37 11.12.2019
2869 Clouds 2 1017 36 0 0.43 127 09:19 11.12.2019
2870 Clouds 2 1011 81 0 1.79 204 08:55 11.12.2019
2871 Clouds 2 1011 77 0 0.43 127 08:36 11.12.2019
2872 Clouds 2 1011 84 0 0.89 201 08:18 11.12.2019
2873 Clouds 2 1011 69 0 0.89 228 07:42 11.12.2019
2874 Clouds 2 1011 69 0 0.89 228 07:42 11.12.2019
2875 Clouds 2 1011 53 0 2.52 32 07:22 11.12.2019
2876 Clouds 2 1012 54 0 2.52 32 06:45 11.12.2019
2877 Clouds 2 1011 51 0 2.52 32 06:24 11.12.2019
2878 Clouds 1 1012 45 0 2.52 32 05:52 11.12.2019
2879 Clouds 1 1012 52 0 2.52 32 05:27 11.12.2019
2880 Clouds 2 1019 38 0 2.03 35 04:47 11.12.2019
2881 Clouds 1 1014 66 0 2.03 35 02:50 11.12.2019
2882 Clouds 1 1015 39 0 2.24 32 01:30 11.12.2019
2883 Clouds 2 1016 70 0 2.24 32 00:56 11.12.2019
2884 Clouds 2 1016 43 0 2.24 32 00:36 11.12.2019
2885 Clouds 2 1016 68 0 2.24 32 00:18 11.12.2019
2886 Clouds 2 1016 38 0 2.24 32 23:41 10.12.2019
2887 Clouds 2 1016 40 0 2.6 27 23:21 10.12.2019
2888 Clouds 2 1023 38 0 2.6 27 22:41 10.12.2019
2889 Clouds 3 1016 40 0 2.6 27 22:22 10.12.2019
2890 Clouds 3 1023 34 0 2.6 27 21:57 10.12.2019
2891 Clouds 3 1017 38 0 2.6 27 21:39 10.12.2019
2892 Clouds 3 1017 34 0 2.6 27 21:39 10.12.2019
2893 Clouds 3 1017 27 0 2.6 27 21:21 10.12.2019
2894 Clouds 3 1023 35 0 2.6 27 20:57 10.12.2019
2895 Clouds 3 1017 49 0 2.6 27 20:38 10.12.2019
2896 Clouds 3 1017 80 0 3.4 29 20:19 10.12.2019
2897 Clouds 3 1024 33 0 3.4 29 20:19 10.12.2019
2898 Clouds 3 1017 55 0 3.4 29 20:19 10.12.2019
2899 Clouds 3 1017 35 0 3.4 29 19:55 10.12.2019
2900 Clouds 3 1017 43 0 3.4 29 19:37 10.12.2019
2901 Clouds 4 1017 31 0 3.4 29 19:19 10.12.2019
2902 Clouds 4 1017 26 0 0.89 13 18:41 10.12.2019
2903 Clouds 4 1017 23 0 0.45 346 18:21 10.12.2019
2904 Clouds 4 1017 29 0 1.34 339 17:58 10.12.2019
2905 Clouds 4 1017 29 0 1.34 339 17:58 10.12.2019
2906 Clouds 3 1017 37 0 3.4 29 17:40 10.12.2019
2907 Clouds 3 1017 37 0 3.4 29 17:40 10.12.2019
2908 Clouds 7 1026 39 0 2.82 19 17:20 10.12.2019
2909 Clouds 8 1017 38 0 2.82 19 16:54 10.12.2019
2910 Clouds 8 1026 31 0 2.82 19 16:36 10.12.2019
2911 Clouds 9 1024 29 0 2.82 19 16:18 10.12.2019
2912 Clouds 10 1024 27 0 2.82 19 15:38 10.12.2019
2913 Clouds 10 1024 26 0 2.82 19 15:18 10.12.2019
2914 Clouds 10 1017 39 0 1.34 247 14:56 10.12.2019
2915 Clouds 10 1021 65 0 0.89 158 14:37 10.12.2019
2916 Clouds 10 1025 28 0 0.45 256 14:19 10.12.2019
2917 Clouds 10 1025 31 0 0.45 169 13:57 10.12.2019
2918 Clouds 10 1025 31 0 0.45 169 13:57 10.12.2019
2919 Clear 10 1026 83 0 4.25 12 13:38 10.12.2019
2920 Clouds 11 1026 33 0 4.37 13 13:19 10.12.2019
2921 Clear 12 1027 33 0 0.89 114 12:47 10.12.2019
2922 Clear 12 1027 33 0 0.45 169 12:27 10.12.2019
2923 Clear 10 1028 28 0 0.89 225 11:55 10.12.2019
2924 Clear 10 1028 24 0 0.45 194 11:36 10.12.2019
2925 Clear 7 1028 25 0 0.89 245 11:18 10.12.2019
2926 Clear 6 1020 30 0 0.89 359 10:42 10.12.2019
2927 Clear 6 1020 33 0 4.94 9 10:23 10.12.2019
2928 Clear 6 1029 35 0 4.94 9 09:57 10.12.2019
2929 Clear 7 1029 33 0 4.94 9 09:38 10.12.2019
2930 Clear 7 1029 33 0 4.94 9 09:38 10.12.2019
2931 Clear 6 1031 66 0 4.94 9 09:20 10.12.2019
2932 Clear 6 1028 34 0 4.94 9 08:57 10.12.2019
2933 Clear 6 1031 59 0 4.94 9 08:38 10.12.2019
2934 Clouds 4 1031 57 0 5.35 8 08:19 10.12.2019
2935 Clouds 4 1031 57 0 5.89 5 08:19 10.12.2019
2936 Clouds 5 1028 58 0 5.89 5 07:44 10.12.2019
2937 Clouds 5 1028 58 0 5.89 5 07:26 10.12.2019
2938 Clouds 5 1028 58 0 5.89 5 07:26 10.12.2019
2939 Clouds 5 1028 68 0 5.89 5 06:49 10.12.2019
2940 Clouds 5 1030 51 0 5.89 5 06:24 10.12.2019
2941 Clouds 7 1030 50 0 5.89 5 05:55 10.12.2019
2942 Clouds 6 1027 73 0 4.7 346 05:19 10.12.2019
2943 Clouds 6 1027 74 0 4.7 346 03:47 10.12.2019
2944 Clouds 5 1030 46 0 3.13 259 02:48 10.12.2019
2945 Clouds 5 1030 46 0 3.13 259 02:48 10.12.2019
2946 Snow 5 1030 45 0 3.13 259 01:51 10.12.2019
2947 Clouds 6 1026 78 0 0.45 295 01:26 10.12.2019
2948 Clouds 4 1025 81 0 4.45 348 00:49 10.12.2019
2949 Clouds 5 1026 79 0 4.45 348 00:24 10.12.2019
2950 Clouds 5 1026 78 0 0.45 333 23:43 09.12.2019
2951 Clouds 6 1029 50 0 3.58 239 23:24 09.12.2019
2952 Snow 6 1029 57 0 3.58 221 22:58 09.12.2019
2953 Snow 6 1028 54 0 3.58 283 22:40 09.12.2019
2954 Snow 6 1028 45 0 4.47 271 22:21 09.12.2019
2955 Snow 6 1028 43 0 5.81 255 21:57 09.12.2019
2956 Snow 6 1028 43 0 9.83 243 21:39 09.12.2019
2957 Snow 6 1028 39 0 6.71 283 21:19 09.12.2019
2958 Snow 6 1026 89 0 3.17 335 20:57 09.12.2019
2959 Snow 6 1026 89 0 3.17 335 20:57 09.12.2019
2960 Snow 6 1027 38 0 3.58 293 20:39 09.12.2019
2961 Snow 6 1027 33 0 3.13 277 20:20 09.12.2019
2962 Snow 6 1027 33 0 3.13 277 20:20 09.12.2019
2963 Snow 6 1027 38 0 3.13 260 19:56 09.12.2019
2964 Snow 6 1027 43 0 4.02 264 19:38 09.12.2019
2965 Snow 6 1027 40 0 4.47 221 19:19 09.12.2019
2966 Snow 6 1026 39 0 4.47 259 18:58 09.12.2019
2967 Snow 6 1025 39 0 4.02 247 18:39 09.12.2019
2968 Rain 6 1022 49 10000 6.2 280 18:20 09.12.2019
2969 Rain 6 1022 49 10000 6.2 280 17:58 09.12.2019
2970 Rain 6 1022 49 10000 6.2 280 17:39 09.12.2019
2971 Rain 8 1022 49 10000 6.2 280 17:20 09.12.2019
2972 Rain 8 1021 45 10000 3.1 280 16:56 09.12.2019
2973 Rain 9 1021 45 10000 3.1 280 16:37 09.12.2019
2974 Rain 8 1021 49 10000 5.7 290 16:19 09.12.2019
2975 Rain 9 1021 52 10000 7.7 310 15:55 09.12.2019
2976 Rain 9 1021 52 10000 7.7 310 15:37 09.12.2019
2977 Rain 10 1021 45 10000 7.2 310 15:19 09.12.2019
2978 Clouds 9 1020 32 10000 8.7 310 14:55 09.12.2019
2979 Clouds 9 1019 32 10000 9.3 310 14:37 09.12.2019
2980 -273 0 0 0 0 0 14:18 09.12.2019
2981 Clouds 9 1020 86 10000 5.1 310 13:40 09.12.2019
2982 Clouds 9 1020 40 10000 5.7 300 13:40 09.12.2019
2983 Clouds 9 1020 82 10000 5.1 310 13:20 09.12.2019
2984 Clouds 9 1020 43 10000 7.2 300 12:58 09.12.2019
2985 Clouds 8 1020 43 10000 7.2 300 12:39 09.12.2019
2986 Clouds 7 1020 46 10000 5.7 320 12:21 09.12.2019
2987 Clouds 6 1020 100 10000 2.1 0 11:59 09.12.2019
2988 Clouds 6 1020 100 10000 1.5 0 11:39 09.12.2019
2989 Clouds 6 1020 100 10000 1.5 0 11:39 09.12.2019
2990 Clouds 5 1020 100 10000 1.5 0 11:21 09.12.2019
2991 Fog 4 1020 100 8000 2.6 240 10:56 09.12.2019
2992 Fog 4 1020 100 8000 2.6 240 10:38 09.12.2019
2993 Fog 3 1020 80 100 3.1 210 10:18 09.12.2019
2994 Fog 3 1020 80 150 1 0 09:41 09.12.2019
2995 Fog 3 1020 80 150 1.5 0 09:23 09.12.2019
2996 Clouds 3 1012 76 0 1.79 32 08:55 09.12.2019
2997 Clouds 3 1012 73 0 3.58 217 08:37 09.12.2019
2998 Clear 2 1012 74 0 1.79 37 08:19 09.12.2019
2999 Clear 3 1012 70 0 0.89 359 07:42 09.12.2019
3000 Clear 3 1012 76 0 2.24 3 07:24 09.12.2019
3001 Clear 3 1012 67 0 0.45 10 06:54 09.12.2019
3002 Clear 2 1013 67 0 1.79 65 06:27 09.12.2019
3003 Clear 3 1011 92 0 0.89 198 05:29 09.12.2019
3004 Clear 3 1012 63 0 1.15 334 04:51 09.12.2019
3005 Clear 3 1013 22 0 1.79 273 04:20 09.12.2019
3006 Clear 4 1014 60 0 1.15 334 02:27 09.12.2019
3007 Clouds 4 1014 20 0 2.24 77 01:44 09.12.2019
3008 Clouds 5 1014 29 0 2.98 8 00:53 09.12.2019
3009 Clouds 5 1014 28 0 1.79 52 00:32 09.12.2019
3010 Clouds 5 1014 49 0 1.79 8 23:44 08.12.2019
3011 Rain 5 1014 55 0 1.34 7 23:24 08.12.2019
3012 Rain 6 1014 76 0 0.89 150 22:58 08.12.2019
3013 Rain 6 1015 83 0 2.24 276 22:39 08.12.2019
3014 Rain 6 1015 92 0 1.34 17 22:20 08.12.2019
3015 Rain 6 1015 88 0 2.24 4 21:59 08.12.2019
3016 Rain 6 1015 91 0 1.34 41 21:40 08.12.2019
3017 Rain 6 1015 89 0 2.24 359 21:22 08.12.2019
3018 Rain 6 1014 92 0 0.89 21 20:57 08.12.2019
3019 Rain 6 1015 89 0 0.89 24 20:39 08.12.2019
3020 Rain 6 1015 91 0 1.79 17 20:21 08.12.2019
3021 Clouds 6 1015 92 0 1.34 343 19:59 08.12.2019
3022 Clouds 6 1015 89 0 2.89 7 19:41 08.12.2019
3023 Clouds 7 1015 87 0 2.89 7 19:23 08.12.2019
3024 Clouds 6 1015 79 0 1.79 359 18:55 08.12.2019
3025 Clouds 5 1014 78 0 1.34 14 18:55 08.12.2019
3026 Clouds 5 1014 74 0 0.45 1 18:37 08.12.2019
3027 Clouds 6 1019 75 10000 2.1 240 18:19 08.12.2019
3028 Clouds 5 1019 75 10000 2.1 240 17:57 08.12.2019
3029 Clouds 6 1019 75 10000 2.1 240 17:38 08.12.2019
3030 Clouds 7 1019 75 10000 2.1 240 17:20 08.12.2019
3031 Clouds 7 1019 75 10000 2.1 240 17:20 08.12.2019
3032 Clouds 7 1019 75 10000 2.1 240 17:20 08.12.2019
3033 Clouds 7 1019 75 10000 2.1 240 17:20 08.12.2019
3034 Clouds 8 1019 65 10000 2.6 240 16:57 08.12.2019
3035 Clouds 9 1019 66 10000 2.1 220 16:39 08.12.2019
3036 Clouds 9 1019 66 10000 2.1 220 16:20 08.12.2019
3037 Clouds 9 1019 57 10000 2.6 220 15:56 08.12.2019
3038 Clouds 10 1019 57 10000 2.6 220 15:36 08.12.2019
3039 Clouds 10 1019 57 10000 2.1 210 15:18 08.12.2019
3040 Clouds 10 1019 53 10000 1.5 200 14:43 08.12.2019
3041 Clouds 11 1020 57 10000 1 0 14:24 08.12.2019
3042 Clouds 10 1020 57 10000 1 0 14:24 08.12.2019
3043 Clear 11 1020 57 10000 1 0 13:59 08.12.2019
3044 Clear 11 1020 57 10000 1 0 13:40 08.12.2019
3045 Clear 10 1021 61 10000 1 0 13:21 08.12.2019
3046 Clear 10 1022 70 10000 1 0 12:56 08.12.2019
3047 Clear 10 1022 70 10000 1 0 12:38 08.12.2019
3048 Clear 10 1022 70 10000 1 0 12:18 08.12.2019
3049 Clear 11 1023 80 10000 1 0 11:56 08.12.2019
3050 Clear 9 1023 53 10000 1 0 11:37 08.12.2019
3051 Clear 5 1023 55 10000 1 0 11:19 08.12.2019
3052 Clear 5 1023 55 10000 1 0 11:19 08.12.2019
3053 Clear 5 1023 55 10000 1 0 11:19 08.12.2019
3054 Clouds 4 1023 100 10000 0.5 0 10:39 08.12.2019
3055 Clouds 4 1023 100 10000 0.5 0 10:21 08.12.2019
3056 Fog 3 1023 55 10000 1 40 09:58 08.12.2019
3057 Fog 2 1024 100 10000 1 350 09:39 08.12.2019
3058 Fog 2 1024 100 10000 1 350 09:20 08.12.2019
3059 Clear 2 1016 46 0 0.35 65 08:59 08.12.2019
3060 Clear 2 1016 48 0 0.35 65 08:39 08.12.2019
3061 Clear 0 1016 43 0 1.33 14 08:21 08.12.2019
3062 Clear 1 1016 53 0 1.33 18 07:44 08.12.2019
3063 Clear 1 1016 65 0 1.33 18 07:20 08.12.2019
3064 Clear 1 1015 38 0 1.33 18 06:51 08.12.2019
3065 Clear 1 1015 35 0 1.33 18 06:23 08.12.2019
3066 Clear 1 1015 38 0 1.33 18 05:51 08.12.2019
3067 Clear 1 1015 47 0 1.28 16 05:18 08.12.2019
3068 Clear 2 1016 50 0 1.28 16 03:51 08.12.2019
3069 Clear 2 1016 51 0 1.28 16 03:26 08.12.2019
3070 Clear 2 1016 61 0 1.28 16 02:40 08.12.2019
3071 Clear 3 1017 88 0 0.93 36 01:56 08.12.2019
3072 Clouds 3 1017 89 0 1.2 39 01:27 08.12.2019
3073 Clear 3 1017 89 0 0.93 36 01:27 08.12.2019
3074 Clouds 3 1024 75 0 1.2 39 00:40 08.12.2019
3075 Clouds 3 1017 55 0 0.45 198 00:21 08.12.2019
3076 Clouds 3 1017 74 0 1.79 173 23:42 07.12.2019
3077 Clouds 3 1017 55 0 2.24 203 23:21 07.12.2019
3078 Clouds 3 1017 60 0 2.16 26 22:58 07.12.2019
3079 Clouds 4 1017 59 0 2.16 26 22:40 07.12.2019
3080 Clouds 3 1024 72 0 2.16 26 22:40 07.12.2019
3081 Clouds 3 1024 72 0 2.16 26 22:40 07.12.2019
3082 Clouds 4 1017 59 0 2.16 26 22:40 07.12.2019
3083 Clouds 4 1017 70 0 2.16 26 22:40 07.12.2019
3084 Clouds 4 1017 75 0 2.16 26 22:22 07.12.2019
3085 Clouds 4 1024 70 0 2.16 26 21:56 07.12.2019
3086 Clouds 4 1024 69 0 2.16 26 21:38 07.12.2019
3087 Clouds 4 1017 76 0 2.16 26 21:19 07.12.2019
3088 Clouds 4 1024 69 0 2.16 26 20:59 07.12.2019
3089 Clouds 4 1017 82 0 2.16 26 20:36 07.12.2019
3090 Clouds 4 1017 83 0 1.72 22 20:18 07.12.2019
3091 Clouds 4 1023 68 0 1.72 22 19:56 07.12.2019
3092 Clouds 4 1017 80 0 1.72 22 19:38 07.12.2019
3093 Clouds 4 1023 67 0 1.72 22 19:20 07.12.2019
3094 Clouds 5 1025 40 0 1.72 22 18:44 07.12.2019
3095 Clouds 6 1022 61 10000 1.5 300 18:20 07.12.2019
3096 Clouds 6 1022 61 10000 1.5 300 17:58 07.12.2019
3097 Clouds 6 1022 61 10000 1.5 300 17:40 07.12.2019
3098 Clear 8 1022 61 10000 1.5 300 17:21 07.12.2019
3099 Clear 9 1022 50 10000 1 0 16:56 07.12.2019
3100 Clear 9 1022 50 10000 1 0 16:38 07.12.2019
3101 Clear 10 1021 53 10000 1 0 16:19 07.12.2019
3102 Clear 11 1021 53 10000 1 0 15:56 07.12.2019
3103 Clear 12 1022 57 10000 1 0 15:38 07.12.2019
3104 Clear 12 1022 57 10000 1 0 15:18 07.12.2019
3105 Clear 12 1022 57 10000 1 0 15:18 07.12.2019
3106 Clear 12 1022 57 10000 0.5 0 14:42 07.12.2019
3107 Clear 11 1023 57 10000 1.5 110 14:19 07.12.2019
3108 Clear 11 1023 61 10000 1 0 13:41 07.12.2019
3109 Clear 10 1023 70 10000 1 0 13:21 07.12.2019
3110 Clear 10 1023 72 0 1.02 221 12:59 07.12.2019
3111 Clear 10 1024 75 10000 1 0 12:40 07.12.2019
3112 Clear 9 1024 75 10000 1 0 12:22 07.12.2019
3113 Fog 8 1025 86 10000 0.5 0 11:58 07.12.2019
3114 Fog 8 1025 86 10000 1.5 70 11:40 07.12.2019
3115 Fog 6 1025 86 10000 1.5 70 11:21 07.12.2019
3116 Fog 4 1025 93 10000 1 0 10:38 07.12.2019
3117 Fog 3 1025 100 10000 1 350 10:19 07.12.2019
3118 Fog 3 1025 63 10000 1 350 09:56 07.12.2019
3119 Fog 2 1025 100 10000 1.5 20 09:36 07.12.2019
3120 Fog 1 1025 100 10000 1.5 20 09:18 07.12.2019
3121 Clear 1 1024 77 0 1.41 29 08:40 07.12.2019
3122 Clear 0 1024 80 0 2.46 29 08:21 07.12.2019
3123 Clear 1 1016 84 0 2.46 29 07:45 07.12.2019
3124 Clear 1 1024 82 0 2.46 29 07:26 07.12.2019
3125 Clear 1 1016 79 0 2.46 29 06:50 07.12.2019
3126 Clear 1 1015 70 0 2.46 29 06:25 07.12.2019
3127 Clear 1 1015 70 0 2.46 29 06:25 07.12.2019
3128 Clear 1 1015 70 0 2.46 29 05:34 07.12.2019
3129 Clear 1 1024 87 0 2.1 36 03:59 07.12.2019
3130 Clear 2 1016 89 0 2.1 36 03:40 07.12.2019
3131 Clouds 2 1016 92 0 2.17 24 02:21 07.12.2019
3132 Clouds 2 1016 91 0 2.17 24 01:34 07.12.2019
3133 Clouds 2 1016 91 0 2.17 24 01:34 07.12.2019
3134 Clouds 2 1016 82 0 1.98 22 00:53 07.12.2019
3135 Clouds 2 1017 76 0 1.98 22 00:20 07.12.2019
3136 Clouds 3 1016 77 0 1.98 22 23:56 06.12.2019
3137 Clouds 2 1016 80 0 1.98 22 23:36 06.12.2019
3138 Clouds 2 1016 83 0 1.19 24 23:18 06.12.2019
3139 Clouds 2 1016 88 0 1.19 24 22:38 06.12.2019
3140 Clouds 3 1016 85 0 1.19 24 22:19 06.12.2019
3141 Clouds 3 1023 86 0 1.19 24 21:57 06.12.2019
3142 Clouds 3 1015 80 0 1.19 24 21:38 06.12.2019
3143 Clouds 3 1016 93 0 1.19 24 21:19 06.12.2019
3144 Clouds 4 1023 84 0 1.19 24 20:42 06.12.2019
3145 Clouds 4 1023 84 0 1.19 24 20:42 06.12.2019
3146 Clouds 5 1022 76 0 1.07 7 20:23 06.12.2019
3147 Clouds 5 1024 46 0 1.07 7 19:59 06.12.2019
3148 Clouds 5 1022 94 0 1.07 7 19:40 06.12.2019
3149 Clouds 6 1023 82 0 1.07 7 19:21 06.12.2019
3150 Clouds 6 1023 82 0 1.07 7 19:21 06.12.2019
3151 Clouds 6 1024 40 0 1.07 7 18:55 06.12.2019
3152 Clouds 7 1020 88 0 1.07 7 18:37 06.12.2019
3153 Clouds 7 1021 61 10000 2.1 290 18:19 06.12.2019
3154 Clouds 9 1021 61 10000 2.1 290 17:55 06.12.2019
3155 Clouds 9 1021 61 10000 2.1 290 17:55 06.12.2019
3156 Clouds 8 1021 61 10000 2.1 290 17:37 06.12.2019
3157 Clouds 8 1021 61 10000 2.1 290 17:19 06.12.2019
3158 Clouds 9 1021 62 10000 2.1 220 16:42 06.12.2019
3159 Clouds 10 1021 57 10000 1.5 190 16:24 06.12.2019
3160 Clouds 10 1021 57 10000 1.5 180 15:57 06.12.2019
3161 Clouds 11 1021 57 10000 1.5 180 15:39 06.12.2019
3162 Clouds 11 1021 53 10000 1 0 15:18 06.12.2019
3163 Clouds 11 1022 57 10000 1.5 130 14:55 06.12.2019
3164 Clouds 9 1022 57 10000 1.5 130 14:37 06.12.2019
3165 Clear 11 1022 57 10000 1.5 180 14:18 06.12.2019
3166 Clear 11 1023 61 10000 1 0 13:42 06.12.2019
3167 Clouds 10 1023 66 10000 0.5 0 13:23 06.12.2019
3168 Clouds 10 1024 70 10000 0.5 0 12:41 06.12.2019
3169 Clouds 10 1025 70 10000 1 0 12:22 06.12.2019
3170 Clouds 7 1025 75 10000 1.59 224 11:55 06.12.2019
3171 Clouds 7 1025 75 10000 1.59 224 11:37 06.12.2019
3172 Clouds 6 1025 80 10000 0.5 0 11:19 06.12.2019
3173 Clouds 5 1025 86 10000 2.1 70 10:42 06.12.2019
3174 Clear 4 1025 100 10000 1.5 50 10:21 06.12.2019
3175 Clear 4 1025 93 10000 1.5 50 09:57 06.12.2019
3176 Clear 3 1025 100 10000 1 20 09:37 06.12.2019
3177 Clear 2 1025 100 10000 1 20 09:19 06.12.2019
3178 Clear 3 1026 79 0 0.34 304 08:44 06.12.2019
3179 Clear 3 1026 79 0 0.34 304 08:44 06.12.2019
3180 Clear 3 1026 79 0 0.34 304 08:44 06.12.2019
3181 Clear 2 1016 94 0 1.05 27 08:25 06.12.2019
3182 Clear 2 1015 90 0 1.05 27 07:44 06.12.2019
3183 Clear 2 1015 92 0 1.05 27 07:23 06.12.2019
3184 Clear 2 1023 86 0 1.05 27 06:55 06.12.2019
3185 Clear 2 1015 90 0 1.05 27 06:26 06.12.2019
3186 Clear 2 1015 91 0 1.05 27 05:52 06.12.2019
3187 Clear 3 1015 93 0 0.72 43 04:34 06.12.2019
3188 Clouds 3 1015 94 0 1.61 47 01:48 06.12.2019
3189 Clouds 3 1015 94 0 1.61 47 01:48 06.12.2019
3190 Clouds 3 1022 82 0 1.06 69 00:57 06.12.2019
3191 Clouds 4 1016 95 0 1.06 69 00:37 06.12.2019
3192 Clouds 4 1016 95 0 1.06 69 00:19 06.12.2019
3193 Clouds 4 1022 81 0 2.54 35 23:21 05.12.2019
3194 Clouds 4 1016 95 0 2.54 35 22:59 05.12.2019
3195 Clouds 5 1026 54 0 2.54 35 22:39 05.12.2019
3196 Clouds 5 1016 94 0 2.54 35 22:20 05.12.2019
3197 Clouds 5 1016 94 0 2.54 35 22:20 05.12.2019
3198 Clouds 5 1021 80 0 2.54 35 21:58 05.12.2019
3199 Clouds 6 1026 50 0 2.54 35 21:40 05.12.2019
3200 Clouds 6 1026 50 0 2.54 35 21:22 05.12.2019
3201 Clouds 6 1026 51 0 2.54 35 20:58 05.12.2019
3202 Clouds 6 1026 50 0 2.54 35 20:39 05.12.2019
3203 Clouds 6 1026 49 0 2.13 42 20:19 05.12.2019
3204 Clouds 7 1025 48 0 2.13 42 19:43 05.12.2019
3205 Clouds 7 1025 48 0 2.13 42 19:25 05.12.2019
3206 Clouds 5 1015 93 0 2.13 42 18:59 05.12.2019
3207 Clouds 4 1015 92 0 2.13 42 18:39 05.12.2019
3208 Clouds 7 1020 57 10000 2.1 30 18:20 05.12.2019
3209 Clouds 6 1020 57 10000 2.1 30 17:56 05.12.2019
3210 Clouds 6 1020 57 10000 2.1 30 17:37 05.12.2019
3211 Clouds 9 1020 53 10000 3.1 360 17:18 05.12.2019
3212 Clouds 9 1020 53 10000 3.6 60 16:40 05.12.2019
3213 Clouds 9 1020 53 10000 3.6 60 16:40 05.12.2019
3214 Clouds 9 1020 53 10000 3.6 60 16:22 05.12.2019
3215 Clouds 10 1020 53 10000 4.1 40 15:58 05.12.2019
3216 Clouds 9 1020 88 10000 5.1 30 15:40 05.12.2019
3217 Clouds 9 1020 88 10000 5.1 30 15:20 05.12.2019
3218 Clouds 9 1019 53 10000 7.2 40 14:56 05.12.2019
3219 Clouds 10 1019 53 10000 7.7 40 14:38 05.12.2019
3220 Clouds 10 1019 53 10000 7.7 40 14:20 05.12.2019
3221 Clouds 10 1019 53 10000 8.7 50 13:58 05.12.2019
3222 Clouds 9 1019 57 10000 8.2 50 13:39 05.12.2019
3223 Clouds 9 1019 57 10000 8.2 50 13:21 05.12.2019
3224 Clouds 9 1019 57 10000 6.7 50 12:58 05.12.2019
3225 Clouds 9 1019 57 10000 7.2 50 12:39 05.12.2019
3226 Clouds 9 1019 57 10000 7.2 50 12:21 05.12.2019
3227 Clouds 7 1019 66 10000 6.2 50 11:40 05.12.2019
3228 Clouds 8 1019 66 10000 6.2 50 11:22 05.12.2019
3229 Clouds 7 1019 70 10000 4.1 40 10:58 05.12.2019
3230 Rain 7 1018 75 10000 2.1 30 10:40 05.12.2019
3231 Rain 7 1018 75 10000 2.1 30 10:19 05.12.2019
3232 Rain 7 1018 81 10000 1.5 350 09:56 05.12.2019
3233 Rain 7 1018 75 10000 1.5 340 09:38 05.12.2019
3234 Rain 6 1018 75 10000 1.5 340 09:19 05.12.2019
3235 Rain 6 1023 83 0 2.73 28 08:54 05.12.2019
3236 Rain 6 1017 73 0 0.45 129 08:36 05.12.2019
3237 Clouds 6 1014 77 0 4.02 68 08:18 05.12.2019
3238 Clouds 6 1022 82 0 2.8 44 07:40 05.12.2019
3239 Clouds 6 1022 82 0 2.8 44 07:21 05.12.2019
3240 Clouds 5 1010 95 0 2.8 44 06:47 05.12.2019
3241 Clouds 5 1009 95 0 2.8 44 06:23 05.12.2019
3242 Clouds 5 1009 95 0 2.8 44 05:53 05.12.2019
3243 Clouds 6 1009 95 0 2.8 44 05:24 05.12.2019
3244 Clouds 6 1009 95 0 3.62 34 04:33 05.12.2019
3245 Clouds 5 1008 95 0 3.62 34 03:33 05.12.2019
3246 Clouds 5 1008 95 0 3.62 34 02:41 05.12.2019
3247 Rain 6 1018 78 0 2.99 36 02:21 05.12.2019
3248 Rain 6 1018 78 0 2.99 36 01:49 05.12.2019
3249 Snow 6 1018 78 0 2.97 38 01:22 05.12.2019
3250 Snow 6 1018 76 0 2.97 38 00:38 05.12.2019
3251 Snow 6 1018 75 0 2.97 38 00:20 05.12.2019
3252 Snow 6 1018 75 0 2.97 38 00:20 05.12.2019
3253 Snow 6 1016 94 0 2.97 38 23:45 04.12.2019
3254 Snow 6 1018 73 0 2.39 47 23:22 04.12.2019
3255 Snow 6 1018 73 0 2.39 47 22:57 04.12.2019
3256 Snow 6 1018 72 0 2.39 47 22:37 04.12.2019
3257 Snow 6 1018 72 0 2.39 47 22:19 04.12.2019
3258 Snow 6 1018 72 0 2.39 47 21:56 04.12.2019
3259 Snow 6 1018 70 0 2.39 47 21:37 04.12.2019
3260 Snow 6 1018 70 0 2.39 47 21:18 04.12.2019
3261 Snow 6 1018 69 0 2.39 47 20:56 04.12.2019
3262 Snow 6 1018 64 0 2.39 47 20:38 04.12.2019
3263 Clouds 5 1006 94 0 3.73 32 20:19 04.12.2019
3264 Clouds 6 1005 95 0 3.73 32 19:40 04.12.2019
3265 Clouds 6 1005 95 0 3.73 32 19:22 04.12.2019
3266 Clouds 7 1017 55 0 3.73 32 18:59 04.12.2019
3267 Clouds 6 1005 95 0 3.73 32 18:40 04.12.2019
3268 Clouds 5 1005 95 0 3.73 32 18:22 04.12.2019
3269 Clouds 6 1005 94 0 3.73 32 17:57 04.12.2019
3270 Clouds 5 1004 93 0 3.73 32 17:38 04.12.2019
3271 Clouds 7 1011 64 0 2.97 47 17:18 04.12.2019
3272 Clouds 7 1016 38 0 2.97 47 16:40 04.12.2019
3273 Clouds 7 1016 38 0 2.97 47 16:40 04.12.2019
3274 Clouds 7 1011 62 0 2.97 47 16:20 04.12.2019
3275 Clouds 6 1004 92 0 2.97 47 15:57 04.12.2019
3276 Clouds 7 1010 61 0 2.97 47 15:39 04.12.2019
3277 Clouds 8 1010 63 0 2.97 47 15:20 04.12.2019
3278 Clouds 6 1004 94 0 2.97 47 14:57 04.12.2019
3279 Clouds 6 1004 94 0 2.97 47 14:57 04.12.2019
3280 Clouds 6 1004 95 0 2.97 47 14:39 04.12.2019
3281 Clouds 8 1010 64 0 1.75 81 14:20 04.12.2019
3282 Clouds 8 1016 40 0 1.75 81 13:39 04.12.2019
3283 Clouds 8 1016 42 0 1.75 81 13:21 04.12.2019
3284 Clouds 8 1011 70 0 2.2 60 12:59 04.12.2019
3285 Clouds 8 1011 72 0 2.2 60 12:41 04.12.2019
3286 Clouds 8 1012 71 0 2.2 60 12:23 04.12.2019
3287 Clouds 8 1012 71 0 2.2 60 11:43 04.12.2019
3288 Clouds 6 1005 81 0 2.2 60 11:24 04.12.2019
3289 Clouds 6 1005 81 0 2.2 60 11:24 04.12.2019
3290 Clouds 4 1005 80 0 2.23 82 10:57 04.12.2019
3291 Clouds 3 1005 80 0 2.23 82 10:39 04.12.2019
3292 Clouds 3 1005 80 0 2.23 82 10:21 04.12.2019
3293 Clouds 7 1013 75 0 2.23 82 09:42 04.12.2019
3294 Clouds 7 1013 74 0 2.23 82 09:23 04.12.2019
3295 Clouds 7 1013 70 0 2.23 82 08:43 04.12.2019
3296 Clouds 1 1005 88 0 0.45 186 08:25 04.12.2019
3297 Clouds 1 1005 85 0 3.08 55 07:51 04.12.2019
3298 Clouds 1 1005 85 0 0.89 222 07:31 04.12.2019
3299 Clouds 1 1005 83 0 3.08 55 06:57 04.12.2019
3300 Clouds 1 1005 86 0 0.89 150 06:31 04.12.2019
3301 Clouds 1 1005 83 0 0.89 198 05:46 04.12.2019
3302 Clouds 1 1006 70 0 2.08 54 04:34 04.12.2019
3303 Clouds 1 1007 70 0 2.08 54 03:47 04.12.2019
3304 Clouds 1 1008 71 0 1.71 76 01:34 04.12.2019
3305 Clouds 2 1009 73 0 1.71 76 00:47 04.12.2019
3306 Clouds 1 1009 75 0 1.71 76 00:20 04.12.2019
3307 Clouds 1 1009 86 0 1.71 76 23:41 03.12.2019
3308 Clouds 1 1009 86 0 1.52 85 23:20 03.12.2019
3309 Clouds 1 1009 89 0 1.52 85 22:57 03.12.2019
3310 Clouds 2 1009 90 0 1.52 85 22:38 03.12.2019
3311 Clouds 1 1009 91 0 1.52 85 22:18 03.12.2019
3312 Clouds 1 1009 89 0 1.52 85 21:55 03.12.2019
3313 Clouds 1 1009 86 0 1.52 85 21:36 03.12.2019
3314 Clouds 2 1009 89 0 1.79 205 21:18 03.12.2019
3315 Clouds 2 1009 84 0 0.45 186 20:41 03.12.2019
3316 Clouds 2 1009 77 0 1.49 94 20:19 03.12.2019
3317 Clouds 2 1009 87 0 1.49 94 19:56 03.12.2019
3318 Clouds 3 1009 73 0 1.49 94 19:38 03.12.2019
3319 Clouds 3 1009 83 0 1.49 94 19:20 03.12.2019
3320 Clouds 3 1020 42 0 1.49 94 18:57 03.12.2019
3321 Clouds -1 1009 87 0 1.49 94 18:39 03.12.2019
3322 Clouds -1 1009 69 0 1.49 94 18:21 03.12.2019
3323 Clouds -1 1009 76 0 0.45 191 17:57 03.12.2019
3324 Clouds -1 1009 76 0 0.45 191 17:57 03.12.2019
3325 Clouds 2 1009 80 0 1.49 94 17:38 03.12.2019
3326 Clouds 2 1009 80 0 1.49 94 17:38 03.12.2019
3327 Clouds 6 1017 52 0 2.17 170 17:18 03.12.2019
3328 Clouds 6 1017 49 0 2.17 170 16:57 03.12.2019
3329 Clouds 6 1017 45 0 2.17 170 16:38 03.12.2019
3330 Clouds 6 1017 38 0 2.17 170 16:20 03.12.2019
3331 Clouds 5 1008 80 0 0.45 136 15:55 03.12.2019
3332 Clouds 5 1009 83 0 2.17 170 15:36 03.12.2019
3333 Clouds 5 1008 83 0 0.45 271 15:18 03.12.2019
3334 Clouds 5 1009 80 0 2.17 170 14:42 03.12.2019
3335 Clear 7 1017 37 0 1.98 162 14:20 03.12.2019
3336 Clear 7 1017 39 0 1.98 162 13:56 03.12.2019
3337 Clear 7 1018 39 0 1.98 162 13:36 03.12.2019
3338 Clear 7 1018 44 0 1.84 160 13:18 03.12.2019
3339 Clear 6 1019 50 0 1.84 160 12:40 03.12.2019
3340 Clear 6 1019 51 0 1.84 160 12:18 03.12.2019
3341 Clear 5 1019 53 0 1.84 160 11:58 03.12.2019
3342 Clear 4 1019 55 0 1.84 160 11:38 03.12.2019
3343 Clear 3 1019 57 0 1.17 125 11:20 03.12.2019
3344 Clear 3 1017 70 0 57.22 315 10:57 03.12.2019
3345 Clear 3 1019 65 0 1.17 125 10:38 03.12.2019
3346 Clear 3 1019 65 0 1.17 125 10:38 03.12.2019
3347 Clear 1 1009 64 0 1.17 125 10:19 03.12.2019
3348 Clear 3 1022 41 0 1.17 125 09:45 03.12.2019
3349 Clear 2 1022 50 0 1.17 125 09:25 03.12.2019
3350 Clear 1 1019 70 0 1.17 125 08:58 03.12.2019
3351 Clear 1 1019 70 0 1.17 125 08:39 03.12.2019
3352 Clouds 0 1009 93 0 2.7 38 08:21 03.12.2019
3353 Clouds 0 1009 92 0 2.7 38 07:52 03.12.2019
3354 Clouds 0 1009 92 0 2.7 38 07:29 03.12.2019
3355 Clouds 0 1018 73 0 2.7 38 07:29 03.12.2019
3356 Clouds 0 1009 79 0 2.7 38 06:45 03.12.2019
3357 Clouds 0 1009 82 0 2.7 38 06:45 03.12.2019
3358 Clouds 0 1009 75 0 2.7 38 06:20 03.12.2019
3359 Clouds 0 1009 78 0 2.7 38 05:53 03.12.2019
3360 Clouds 1 1009 83 0 2.62 26 03:42 03.12.2019
3361 Clouds 1 1010 81 0 2.62 26 03:22 03.12.2019
3362 Clouds 1 1010 83 0 2.62 26 02:53 03.12.2019
3363 Clouds 1 1010 83 0 2.62 26 02:53 03.12.2019
3364 Clouds 1 1010 84 0 2.62 26 02:32 03.12.2019
3365 Clouds 2 1010 81 0 2.96 26 01:58 03.12.2019
3366 Clouds 2 1010 85 0 2.96 26 01:38 03.12.2019
3367 Clouds 2 1010 86 0 2.8 27 01:18 03.12.2019
3368 Clouds 2 1010 91 0 2.8 27 00:41 03.12.2019
3369 Clouds 2 1010 91 0 2.8 27 00:41 03.12.2019
3370 Clouds 2 1010 94 0 2.8 27 00:23 03.12.2019
3371 Clouds 1 1010 95 0 2.8 27 23:44 02.12.2019
3372 Clouds 2 1010 95 0 3.54 14 23:22 02.12.2019
3373 Clouds 2 1010 95 0 3.54 14 22:56 02.12.2019
3374 Clouds 2 1010 95 0 3.54 14 22:56 02.12.2019
3375 Clouds 2 1010 95 0 3.54 14 22:37 02.12.2019
3376 Clouds 2 1010 95 0 3.54 14 22:19 02.12.2019
3377 Clouds 2 1011 95 0 3.54 14 21:39 02.12.2019
3378 Clouds 3 1011 95 0 3.54 14 21:20 02.12.2019
3379 Clouds 3 1010 95 0 3.54 14 20:57 02.12.2019
3380 Clouds 3 1010 95 0 3.54 14 20:57 02.12.2019
3381 Clouds 3 1010 95 0 3.54 14 20:39 02.12.2019
3382 Clouds 4 1023 43 0 2.24 331 20:20 02.12.2019
3383 Clouds 5 1021 91 0 3.85 16 19:56 02.12.2019
3384 Clouds 5 1021 91 0 3.85 16 19:56 02.12.2019
3385 Clouds 5 1021 91 0 3.85 16 19:56 02.12.2019
3386 Clouds 5 1023 43 0 3.85 16 19:38 02.12.2019
3387 Clouds 5 1023 43 0 3.85 16 19:38 02.12.2019
3388 Clouds 5 1023 42 0 3.85 16 19:20 02.12.2019
3389 Clouds 5 1022 42 0 3.85 16 18:48 02.12.2019
3390 Clouds 6 1016 87 10000 3.1 260 18:21 02.12.2019
3391 Clouds 6 1016 87 10000 3.1 260 17:59 02.12.2019
3392 Clouds 8 1016 87 10000 3.1 260 17:40 02.12.2019
3393 Clouds 7 1016 75 10000 3.1 260 17:20 02.12.2019
3394 Clouds 8 1015 53 10000 2.1 220 16:55 02.12.2019
3395 Clouds 8 1015 75 10000 2.1 230 16:36 02.12.2019
3396 Clouds 9 1015 75 10000 2.1 230 16:18 02.12.2019
3397 Clouds 9 1015 75 10000 1.5 200 15:55 02.12.2019
3398 Clouds 9 1015 75 10000 1.5 180 15:37 02.12.2019
3399 Clouds 9 1015 75 10000 1.5 180 15:18 02.12.2019
3400 Clouds 8 1016 43 10000 1 0 14:39 02.12.2019
3401 Clouds 10 1016 43 10000 1 0 14:20 02.12.2019
3402 Clouds 10 1016 62 10000 1 0 13:58 02.12.2019
3403 Clouds 9 1017 61 10000 1.5 190 13:39 02.12.2019
3404 Clouds 9 1017 61 10000 1.5 190 13:20 02.12.2019
3405 Clouds 9 1017 65 10000 1.5 210 12:57 02.12.2019
3406 Clouds 8 1017 70 10000 0.5 0 12:38 02.12.2019
3407 Clouds 8 1018 70 10000 0.5 0 12:20 02.12.2019
3408 Clouds 7 1018 70 10000 0.5 0 11:56 02.12.2019
3409 Clouds 7 1018 63 10000 0.5 0 11:37 02.12.2019
3410 Clouds 6 1018 76 10000 0.5 0 11:18 02.12.2019
3411 Clouds 5 1018 80 10000 0.5 0 10:55 02.12.2019
3412 Clouds 4 1017 93 10000 0.5 0 10:36 02.12.2019
3413 Clouds 4 1017 93 10000 0.5 0 10:18 02.12.2019
3414 Clouds 2 1017 76 10000 2.84 10 09:40 02.12.2019
3415 Clouds 2 1017 76 10000 2.84 10 09:19 02.12.2019
3416 Clouds 2 1020 75 0 2.84 10 08:56 02.12.2019
3417 Clouds 2 1017 76 0 2.84 10 08:38 02.12.2019
3418 Clouds 1 1017 76 0 3.51 20 08:20 02.12.2019
3419 Clouds 1 1017 77 0 3.51 20 07:42 02.12.2019
3420 Clouds 1 1008 95 0 0.45 359 07:21 02.12.2019
3421 Clouds 1 1008 92 0 1.34 326 06:52 02.12.2019
3422 Clouds 1 1007 94 0 0.89 27 06:34 02.12.2019
3423 Clouds 1 1007 95 0 0.45 359 05:24 02.12.2019
3424 Clouds 2 1016 81 0 3.29 20 04:20 02.12.2019
3425 Clouds 2 1007 95 0 0.45 4 02:51 02.12.2019
3426 Clouds 2 1019 62 0 3.24 24 01:50 02.12.2019
3427 Clouds 2 1019 60 0 3.07 27 01:21 02.12.2019
3428 Clouds 3 1014 79 0 3.07 27 00:44 02.12.2019
3429 Clouds 4 1019 55 0 3.07 27 00:23 02.12.2019
3430 Clouds 4 1018 51 0 3.07 27 23:44 01.12.2019
3431 Clouds 4 1018 49 0 2.08 23 23:23 01.12.2019
3432 Clouds 5 1014 77 0 2.08 23 22:57 01.12.2019
3433 Clouds 5 1014 75 0 2.08 23 22:57 01.12.2019
3434 Clouds 5 1014 75 0 2.08 23 22:38 01.12.2019
3435 Clouds 5 1014 75 0 2.08 23 22:19 01.12.2019
3436 Clouds 5 1013 76 0 2.08 23 21:56 01.12.2019
3437 Clouds 5 1013 75 0 2.08 23 21:38 01.12.2019
3438 Clouds 5 1013 76 0 2.08 23 21:20 01.12.2019
3439 Clouds 5 1017 46 0 2.08 23 20:58 01.12.2019
3440 Clouds 5 1013 76 0 2.08 23 20:39 01.12.2019
3441 Clouds 6 1017 44 0 2.8 30 20:21 01.12.2019
3442 Clouds 6 1012 77 0 2.8 30 19:57 01.12.2019
3443 Clouds 6 1017 40 0 2.8 30 19:39 01.12.2019
3444 Clouds 6 1011 79 0 2.8 30 19:20 01.12.2019
3445 Clouds 6 1011 80 0 2.8 30 18:56 01.12.2019
3446 Clouds 7 1016 38 0 2.8 30 18:38 01.12.2019
3447 Clouds 7 1016 38 0 2.8 30 18:38 01.12.2019
3448 Clouds 7 1010 66 10000 3.1 270 18:19 01.12.2019
3449 Clouds 7 1010 66 10000 3.1 270 17:56 01.12.2019
3450 Clouds 8 1010 66 10000 3.1 270 17:38 01.12.2019
3451 Clouds 8 1010 66 10000 3.1 270 17:20 01.12.2019
3452 Clouds 9 1010 57 10000 3.6 230 16:45 01.12.2019
3453 Clouds 10 1010 57 10000 3.6 230 16:25 01.12.2019
3454 Clouds 10 1010 50 10000 3.1 230 15:59 01.12.2019
3455 Clouds 10 1010 50 10000 2.6 220 15:41 01.12.2019
3456 Clouds 11 1010 50 10000 2.6 220 15:22 01.12.2019
3457 Clouds 11 1010 50 10000 2.6 220 15:22 01.12.2019
3458 Clouds 11 1010 50 10000 2.6 220 15:22 01.12.2019
3459 Clouds 10 1010 66 10000 2.1 210 14:38 01.12.2019
3460 Clouds 10 1010 66 10000 2.1 210 14:19 01.12.2019
3461 Clouds 10 1011 66 10000 0.5 0 13:40 01.12.2019
3462 Clouds 10 1011 66 10000 0.5 0 13:22 01.12.2019
3463 Clouds 10 1012 71 10000 1.5 140 12:58 01.12.2019
3464 Clouds 10 1012 87 10000 1.5 120 12:40 01.12.2019
3465 Clouds 10 1012 87 10000 1.5 120 12:40 01.12.2019
3466 Clouds 10 1012 87 10000 1.5 120 12:40 01.12.2019
3467 Clouds 10 1012 87 10000 1.5 120 12:40 01.12.2019
3468 Clouds 10 1012 87 10000 1.5 120 12:40 01.12.2019
3469 Clouds 9 1012 100 10000 1.82 198 11:46 01.12.2019
3470 Clouds 7 1012 100 10000 1.82 198 11:24 01.12.2019
3471 Fog 7 1012 100 10000 0.5 0 10:55 01.12.2019
3472 Fog 7 1012 100 10000 0.5 0 10:55 01.12.2019
3473 Fog 7 1012 100 10000 1 0 10:37 01.12.2019
3474 Fog 6 1012 100 10000 1 0 10:19 01.12.2019
3475 Fog 5 1012 100 10000 2.1 310 09:41 01.12.2019
3476 Fog 5 1012 100 10000 2.1 310 09:22 01.12.2019
3477 Clouds 4 1010 93 0 0.96 174 08:49 01.12.2019
3478 Rain 4 1003 91 0 2.24 193 08:24 01.12.2019
3479 Rain 4 1003 92 0 0.76 114 07:54 01.12.2019
3480 Rain 5 1003 92 0 0.45 174 07:36 01.12.2019
3481 Rain 5 1003 94 0 0.76 114 07:18 01.12.2019
3482 Rain 5 1003 92 0 0.76 114 06:49 01.12.2019
3483 Rain 5 1002 92 0 0.45 166 05:58 01.12.2019
3484 Rain 7 1010 86 0 3.63 206 04:54 01.12.2019
3485 Rain 7 1010 91 0 3.63 206 04:22 01.12.2019
3486 Rain 7 1011 82 0 3.63 206 02:43 01.12.2019
3487 Rain 7 1011 78 0 2.24 99 02:24 01.12.2019
3488 Rain 7 1011 78 0 0.89 162 01:53 01.12.2019
3489 Rain 7 1011 80 0 0.45 112 01:26 01.12.2019
3490 Rain 7 1011 77 0 2.24 206 00:44 01.12.2019
3491 Rain 8 1008 89 0 0.45 67 00:26 01.12.2019
3492 Rain 8 1017 48 0 2.62 196 23:45 30.11.2019
3493 Rain 8 1017 45 0 2.57 205 23:25 30.11.2019
3494 Rain 8 1017 42 0 1.34 280 22:58 30.11.2019
3495 Rain 8 1017 41 0 1.34 267 22:39 30.11.2019
3496 Rain 8 1017 40 0 2.68 221 22:20 30.11.2019
3497 Rain 8 1017 34 0 3.58 216 21:47 30.11.2019
3498 Rain 8 1007 88 0 2.57 205 21:28 30.11.2019
3499 Rain 8 1007 88 0 2.24 217 20:58 30.11.2019
3500 Rain 8 1007 88 0 1.79 198 20:39 30.11.2019
3501 Clouds 8 1007 87 0 2.68 210 20:19 30.11.2019
3502 Clouds 8 1016 32 0 1.95 177 19:56 30.11.2019
3503 Clouds 8 1007 86 0 1.95 177 19:38 30.11.2019
3504 Clouds 8 1007 85 0 0.89 204 19:20 30.11.2019
3505 Clouds 9 1015 85 0 1.95 177 18:58 30.11.2019
3506 Clouds 8 1008 87 0 3.13 236 18:38 30.11.2019
3507 Clouds 9 1015 62 10000 1 0 18:19 30.11.2019
3508 Clouds 10 1015 62 10000 1 0 17:57 30.11.2019
3509 Clouds 10 1015 62 10000 1 0 17:38 30.11.2019
3510 Clouds 11 1015 58 10000 1.5 210 17:19 30.11.2019
3511 Clouds 12 1015 58 10000 1.5 210 16:56 30.11.2019
3512 Clouds 12 1015 58 10000 1.5 210 16:56 30.11.2019
3513 Clouds 12 1015 58 10000 1 0 16:38 30.11.2019
3514 Clouds 12 1015 58 10000 1 0 16:19 30.11.2019
3515 Clouds 13 1016 50 10000 1 0 15:42 30.11.2019
3516 Clouds 12 1016 50 10000 1.5 150 15:19 30.11.2019
3517 Clouds 13 1016 50 10000 1 0 15:19 30.11.2019
3518 Clouds 13 1016 50 10000 1.5 150 14:57 30.11.2019
3519 Clouds 12 1017 46 10000 1 0 14:38 30.11.2019
3520 Clouds 13 1017 46 10000 1 0 14:19 30.11.2019
3521 Clouds 12 1018 50 10000 1 0 13:57 30.11.2019
3522 Clouds 12 1018 61 10000 0.5 0 13:37 30.11.2019
3523 Clouds 12 1018 61 10000 0.5 0 13:37 30.11.2019
3524 Clouds 11 1018 61 10000 0.5 0 13:19 30.11.2019
3525 Clouds 12 1020 61 10000 1 0 12:45 30.11.2019
3526 Clouds 11 1020 61 10000 1 0 12:27 30.11.2019
3527 Clouds 9 1021 75 10000 3.14 214 11:45 30.11.2019
3528 Clouds 7 1021 80 10000 0.5 0 11:20 30.11.2019
3529 Clouds 7 1021 80 10000 0.5 0 10:58 30.11.2019
3530 Clouds 6 1021 86 10000 0.5 0 10:39 30.11.2019
3531 Clouds 5 1021 86 10000 0.5 0 10:20 30.11.2019
3532 Fog 4 1021 93 10000 0.9 199 09:47 30.11.2019
3533 Fog 3 1021 100 10000 1 360 09:29 30.11.2019
3534 Clouds 3 1020 79 0 0.9 199 08:45 30.11.2019
3535 Clouds 2 1012 81 0 2.24 181 08:24 30.11.2019
3536 Clouds 3 1020 79 0 0.23 111 07:59 30.11.2019
3537 Clouds 2 1020 78 0 0.23 111 07:41 30.11.2019
3538 Clouds 2 1012 80 0 2.68 224 07:22 30.11.2019
3539 Clouds 2 1012 85 0 1.79 229 06:30 30.11.2019
3540 Clouds 2 1020 75 0 0.23 111 06:30 30.11.2019
3541 Clouds 2 1012 74 0 2.24 217 05:58 30.11.2019
3542 Clouds 3 1013 55 0 0.45 203 03:54 30.11.2019
3543 Clouds 3 1013 55 0 0.45 203 03:54 30.11.2019
3544 Clouds 3 1013 55 0 0.45 203 03:54 30.11.2019
3545 Clouds 4 1013 75 0 1.34 204 02:53 30.11.2019
3546 Clouds 5 1013 81 0 1.79 205 02:22 30.11.2019
3547 Clouds 5 1020 64 0 0.3 71 01:46 30.11.2019
3548 Clouds 5 1014 85 0 1.79 170 01:24 30.11.2019
3549 Clouds 5 1014 76 0 1.79 219 00:38 30.11.2019
3550 Clouds 6 1014 80 0 2.24 207 00:18 30.11.2019
3551 Clouds 6 1014 88 0 2.68 240 23:43 29.11.2019
3552 Clouds 5 1014 88 0 1.34 205 23:23 29.11.2019
3553 Clouds 6 1014 87 0 1.21 40 22:47 29.11.2019
3554 Clouds 6 1014 61 0 1.21 40 22:26 29.11.2019
3555 Clouds 5 1014 76 0 1.21 40 21:45 29.11.2019
3556 Clouds 6 1014 83 0 1.21 40 21:26 29.11.2019
3557 Clouds 7 1020 58 0 1.21 40 20:59 29.11.2019
3558 Clouds 7 1020 58 0 1.21 40 20:39 29.11.2019
3559 Clouds 8 1014 90 0 2.56 27 20:21 29.11.2019
3560 Clouds 8 1019 58 0 2.56 27 19:58 29.11.2019
3561 Clouds 8 1019 58 0 2.56 27 19:58 29.11.2019
3562 Clouds 7 1019 56 0 2.56 27 19:39 29.11.2019
3563 Clouds 7 1019 55 0 2.56 27 19:20 29.11.2019
3564 Clouds 7 1019 55 0 2.56 27 19:20 29.11.2019
3565 Clouds 7 1019 55 0 2.56 27 18:58 29.11.2019
3566 Clouds 7 1014 92 0 2.56 27 18:39 29.11.2019
3567 Clouds 8 1018 66 10000 3.6 240 18:20 29.11.2019
3568 Clouds 7 1018 66 10000 3.6 240 17:44 29.11.2019
3569 Clouds 10 1018 66 10000 3.6 240 17:25 29.11.2019
3570 Clouds 11 1017 62 10000 4.1 230 16:57 29.11.2019
3571 Clouds 12 1017 54 10000 3.6 230 16:39 29.11.2019
3572 Clouds 12 1017 54 10000 3.6 230 16:19 29.11.2019
3573 Clouds 12 1017 54 10000 3.6 210 15:41 29.11.2019
3574 Clouds 13 1017 54 10000 3.6 210 15:23 29.11.2019
3575 Clouds 13 1017 54 10000 3.6 210 15:23 29.11.2019
3576 Clouds 13 1017 50 10000 2.1 210 14:56 29.11.2019
3577 Clouds 13 1017 50 10000 1.5 0 14:38 29.11.2019
3578 Clouds 13 1017 58 10000 1.5 0 14:19 29.11.2019
3579 Clouds 13 1018 62 10000 1 0 13:41 29.11.2019
3580 Clouds 13 1018 66 10000 1 0 13:21 29.11.2019
3581 Clouds 13 1018 66 10000 1 0 12:57 29.11.2019
3582 Clouds 13 1018 66 10000 1 0 12:39 29.11.2019
3583 Clouds 13 1018 66 10000 1 0 12:39 29.11.2019
3584 Clouds 13 1019 76 10000 0.5 0 12:20 29.11.2019
3585 Clouds 11 1019 76 10000 0.5 0 11:54 29.11.2019
3586 Clouds 11 1019 81 10000 0.5 0 11:36 29.11.2019
3587 Clouds 10 1019 81 10000 0.5 0 11:18 29.11.2019
3588 Clouds 10 1018 81 10000 2.81 16 10:55 29.11.2019
3589 Clouds 8 1018 93 10000 2.81 16 10:37 29.11.2019
3590 Clouds 7 1018 93 10000 2.81 16 10:18 29.11.2019
3591 Fog 7 1018 93 10000 2.81 16 09:54 29.11.2019
3592 Fog 6 1018 100 10000 0.5 0 09:36 29.11.2019
3593 Clouds 6 1017 92 0 2.81 16 09:18 29.11.2019
3594 Clouds 6 1010 96 0 1.34 51 08:38 29.11.2019
3595 Clouds 5 1010 95 0 0.45 0 08:20 29.11.2019
3596 Clouds 5 1009 95 0 1.34 7 07:55 29.11.2019
3597 Clouds 5 1009 91 0 2.82 22 07:37 29.11.2019
3598 Clouds 5 1009 90 0 2.82 22 07:18 29.11.2019
3599 Clouds 5 1008 87 0 1.34 349 06:41 29.11.2019
3600 Clouds 5 1008 83 0 1.34 4 05:47 29.11.2019
3601 Clouds 5 1008 85 0 0.89 357 05:23 29.11.2019
3602 Clouds 5 1007 82 0 0.89 353 04:20 29.11.2019
3603 Clouds 5 1007 79 0 2.51 14 03:19 29.11.2019
3604 Clouds 5 1013 93 0 2.51 14 02:28 29.11.2019
3605 Clouds 6 1006 93 0 2.68 191 01:51 29.11.2019
3606 Clouds 7 1012 93 0 1.02 265 01:25 29.11.2019
3607 Clouds 7 1013 92 0 0.85 348 00:42 29.11.2019
3608 Clouds 8 1013 92 0 0.85 348 00:20 29.11.2019
3609 Clouds 8 1013 92 0 0.85 348 23:44 28.11.2019
3610 Clouds 8 1013 92 0 0.85 348 23:44 28.11.2019
3611 Rain 8 1016 42 0 1.21 219 23:21 28.11.2019
3612 Rain 8 1013 90 0 1.21 219 22:58 28.11.2019
3613 Rain 8 1013 86 0 0.89 278 22:38 28.11.2019
3614 Rain 8 1013 87 0 1.34 91 22:20 28.11.2019
3615 Rain 8 1016 42 0 1.21 219 21:56 28.11.2019
3616 Rain 8 1012 90 0 1.21 219 21:37 28.11.2019
3617 Rain 8 1012 88 0 0.45 262 21:18 28.11.2019
3618 Rain 7 1012 90 0 1.21 219 20:42 28.11.2019
3619 Clouds 7 1013 87 0 1.65 198 20:23 28.11.2019
3620 Clouds 8 1012 88 0 0.45 202 19:58 28.11.2019
3621 Clouds 8 1015 38 0 1.65 198 19:40 28.11.2019
3622 Clouds 9 1012 84 0 0.89 146 19:22 28.11.2019
3623 Clouds 9 1012 80 0 1.34 246 18:59 28.11.2019
3624 Clouds 9 1014 33 0 0.45 181 18:39 28.11.2019
3625 Clouds 9 1013 62 10000 3.6 210 18:18 28.11.2019
3626 Clouds 9 1013 62 10000 3.6 210 18:18 28.11.2019
3627 Clouds 9 1013 62 10000 3.6 210 17:59 28.11.2019
3628 Clouds 8 1013 62 10000 3.6 210 17:41 28.11.2019
3629 Clouds 10 1013 62 10000 3.6 210 17:21 28.11.2019
3630 Clouds 11 1012 54 10000 4.1 200 16:55 28.11.2019
3631 Clouds 11 1012 54 10000 3.1 190 16:37 28.11.2019
3632 Clouds 12 1012 54 10000 3.1 190 16:18 28.11.2019
3633 Clouds 12 1012 54 10000 4.1 200 15:41 28.11.2019
3634 Clouds 14 1012 47 10000 4.1 190 15:20 28.11.2019
3635 Clouds 13 1012 47 10000 4.1 190 14:58 28.11.2019
3636 Clouds 12 1012 54 10000 3.6 210 14:40 28.11.2019
3637 Clouds 12 1012 54 10000 3.6 210 14:21 28.11.2019
3638 Clouds 13 1013 58 10000 2.1 210 13:56 28.11.2019
3639 Clouds 12 1013 57 10000 0.5 0 13:38 28.11.2019
3640 Clouds 12 1013 66 10000 1 0 13:19 28.11.2019
3641 Clouds 12 1013 71 10000 1 0 12:42 28.11.2019
3642 Clouds 11 1013 71 10000 1 0 12:23 28.11.2019
3643 Clouds 10 1014 76 10000 0.5 0 11:57 28.11.2019
3644 Clouds 10 1014 76 10000 0.5 0 11:57 28.11.2019
3645 Clouds 10 1014 70 10000 0.5 0 11:39 28.11.2019
3646 Clouds 9 1014 70 10000 0.5 0 11:20 28.11.2019
3647 Clouds 8 1013 93 10000 1 0 10:42 28.11.2019
3648 Clouds 8 1013 93 10000 1 0 10:42 28.11.2019
3649 Clouds 6 1013 93 10000 1 0 10:22 28.11.2019
3650 Clouds 6 1013 93 10000 1.5 50 09:59 28.11.2019
3651 Clouds 5 1013 93 10000 1 0 09:40 28.11.2019
3652 Clouds 4 1013 93 10000 1 0 09:20 28.11.2019
3653 Clouds 5 1012 90 0 1.32 354 09:20 28.11.2019
3654 Clouds 4 1004 94 0 1.32 354 08:44 28.11.2019
3655 Clouds 4 1004 93 0 0.94 351 08:23 28.11.2019
3656 Clouds 4 1011 90 0 1.1 23 07:58 28.11.2019
3657 Clouds 4 1011 90 0 1.1 23 07:58 28.11.2019
3658 Clouds 4 1011 90 0 1.1 23 07:58 28.11.2019
3659 Clouds 4 1003 94 0 2.68 204 07:40 28.11.2019
3660 Clouds 4 1003 93 0 0.89 187 07:22 28.11.2019
3661 Clouds 4 1010 91 0 1.1 23 06:43 28.11.2019
3662 Clouds 4 1002 87 0 1.1 23 05:58 28.11.2019
3663 Clouds 4 1002 83 0 1.1 23 05:40 28.11.2019
3664 Clouds 4 1002 91 0 0.45 194 04:51 28.11.2019
3665 Clouds 5 1008 90 0 0.84 322 02:32 28.11.2019
3666 Clouds 6 1012 47 0 0.69 232 01:25 28.11.2019
3667 Clouds 6 1012 43 0 0.69 232 00:42 28.11.2019
3668 Clouds 6 1002 93 0 0.89 212 00:19 28.11.2019
3669 Clouds 6 1008 86 0 0.69 232 23:39 27.11.2019
3670 Clouds 7 1008 86 0 1.07 239 23:21 27.11.2019
3671 Clouds 7 1008 85 0 1.07 239 22:56 27.11.2019
3672 Clouds 7 1012 39 0 1.07 239 22:38 27.11.2019
3673 Clouds 7 1008 86 0 1.07 239 22:19 27.11.2019
3674 Clouds 8 1008 87 0 1.07 239 21:56 27.11.2019
3675 Clouds 8 1008 87 0 1.07 239 21:56 27.11.2019
3676 Clouds 8 1008 87 0 1.07 239 21:37 27.11.2019
3677 Clouds 8 1008 87 0 1.07 239 21:18 27.11.2019
3678 Clouds 8 1008 87 0 1.07 239 20:56 27.11.2019
3679 Clouds 8 1008 85 0 1.07 239 20:37 27.11.2019
3680 Snow 8 1008 85 0 1.98 202 20:19 27.11.2019
3681 Snow 9 1008 85 0 2.13 210 19:55 27.11.2019
3682 Snow 9 1008 85 0 2.13 210 19:37 27.11.2019
3683 Snow 9 1008 84 0 2.13 210 19:18 27.11.2019
3684 Snow 9 1008 84 0 2.13 210 18:54 27.11.2019
3685 Snow 8 1002 91 0 0.45 222 18:36 27.11.2019
3686 Snow 8 1002 91 0 1.34 203 18:18 27.11.2019
3687 Snow 8 1002 91 0 1.34 193 18:18 27.11.2019
3688 Snow 8 1007 84 0 2.13 210 17:41 27.11.2019
3689 Snow 11 1011 13 0 1.34 311 17:23 27.11.2019
3690 -273 0 0 0 0 0 17:23 27.11.2019
3691 Clouds 12 1007 80 0 2.16 207 16:58 27.11.2019
3692 Clouds 12 1007 80 0 2.16 207 16:58 27.11.2019
3693 Clouds 12 1006 80 0 2.16 207 16:40 27.11.2019
3694 Clouds 12 1006 80 0 2.16 207 16:40 27.11.2019
3695 Clouds 12 1006 79 0 2.16 207 16:21 27.11.2019
3696 Clouds 12 1006 79 0 2.16 207 16:21 27.11.2019
3697 Clouds 12 1006 79 0 2.16 207 15:58 27.11.2019
3698 Clouds 12 1006 79 0 2.16 207 15:58 27.11.2019
3699 Clouds 13 1006 78 0 2.16 207 15:40 27.11.2019
3700 Clouds 13 1006 76 0 2.16 207 15:21 27.11.2019
3701 Clouds 13 1006 74 0 2.16 207 14:58 27.11.2019
3702 Clouds 12 1005 75 0 2.16 207 14:39 27.11.2019
3703 Clouds 13 1005 75 0 2.16 207 14:39 27.11.2019
3704 Clouds 12 1005 76 0 1 294 14:21 27.11.2019
3705 Clouds 12 1005 76 0 1 294 14:21 27.11.2019
3706 Clouds 12 1006 78 0 1 294 13:58 27.11.2019
3707 Clouds 12 1005 76 0 1 294 13:39 27.11.2019
3708 Clouds 12 1005 80 0 0.77 252 13:19 27.11.2019
3709 Clouds 13 1010 11 0 0.77 252 12:57 27.11.2019
3710 Clouds 13 1006 78 0 0.77 252 12:39 27.11.2019
3711 Clouds 13 1006 85 0 0.77 252 12:19 27.11.2019
3712 Clouds 12 1011 14 0 1.34 163 11:38 27.11.2019
3713 Clouds 12 1011 14 0 1.34 163 11:38 27.11.2019
3714 Clouds 9 1001 94 0 1.29 296 11:19 27.11.2019
3715 Clouds 10 1007 90 0 1.29 296 10:58 27.11.2019
3716 Clouds 8 1007 90 0 1.29 296 10:40 27.11.2019
3717 Clouds 8 1001 95 0 1.29 296 10:22 27.11.2019
3718 Clouds 8 1000 95 0 1.29 296 09:44 27.11.2019
3719 Clouds 7 1000 96 0 1.29 296 09:26 27.11.2019
3720 Clouds 7 1005 91 0 1.29 296 08:57 27.11.2019
3721 Clouds 8 1005 93 0 1.29 296 08:38 27.11.2019
3722 Rain 7 999 95 0 1.17 231 08:19 27.11.2019
3723 Rain 7 1004 93 0 1.17 231 07:45 27.11.2019
3724 Rain 7 1004 91 0 1.17 231 07:27 27.11.2019
3725 Rain 8 998 91 0 1.17 231 06:46 27.11.2019
3726 Rain 8 998 90 0 1.17 231 06:26 27.11.2019
3727 Rain 8 1007 56 0 0.45 321 05:27 27.11.2019
3728 Rain 8 1003 93 0 2.53 197 04:57 27.11.2019
3729 Rain 8 1006 43 0 1.34 343 04:37 27.11.2019
3730 Rain 8 1004 90 0 2.53 197 03:50 27.11.2019
3731 Rain 8 1002 90 0 2.24 225 03:21 27.11.2019
3732 Rain 8 1001 86 0 2.53 197 02:54 27.11.2019
3733 Rain 8 1004 27 0 2.88 197 01:34 27.11.2019
3734 Rain 8 1004 29 0 0.89 167 00:42 27.11.2019
3735 Rain 7 999 90 0 2.68 188 00:24 27.11.2019
3736 Rain 7 998 89 0 5.36 176 23:44 26.11.2019
3737 Rain 6 999 87 0 5.36 195 23:25 26.11.2019
3738 Rain 6 999 88 0 4.92 159 22:56 26.11.2019
3739 Rain 7 998 87 0 4.92 201 22:38 26.11.2019
3740 Rain 7 1000 88 0 4.47 204 22:19 26.11.2019
3741 Rain 7 1001 87 0 1.79 148 21:40 26.11.2019
3742 Rain 7 1001 86 0 2.24 184 21:21 26.11.2019
3743 Rain 7 1008 82 0 2.69 206 20:58 26.11.2019
3744 Rain 7 1008 81 0 2.69 206 20:39 26.11.2019
3745 Clouds 7 1002 84 0 3.58 163 20:20 26.11.2019
3746 Clouds 7 1009 77 0 1 196 19:56 26.11.2019
3747 Clouds 7 1001 82 0 1.79 207 19:38 26.11.2019
3748 Clouds 7 1001 82 0 4.47 197 19:20 26.11.2019
3749 Clouds 7 1008 75 0 1 196 18:59 26.11.2019
3750 Clouds 8 1002 80 0 2.68 200 18:40 26.11.2019
3751 Clouds 8 1002 80 0 2.24 218 18:21 26.11.2019
3752 Clouds 9 1002 81 0 4.47 215 17:59 26.11.2019
3753 Clouds 9 1003 80 0 0.89 184 17:41 26.11.2019
3754 Clouds 10 1003 78 0 0.45 215 17:22 26.11.2019
3755 Clouds 11 1009 69 0 1.32 208 16:57 26.11.2019
3756 Clouds 12 1008 12 0 1.32 208 16:38 26.11.2019
3757 Clouds 12 1009 65 0 1.32 208 16:19 26.11.2019
3758 Clouds 13 1009 65 0 1.32 208 15:59 26.11.2019
3759 Clouds 13 1009 62 0 1.32 208 15:38 26.11.2019
3760 Clouds 12 1010 63 0 1.32 208 15:20 26.11.2019
3761 Clouds 12 1010 63 0 1.32 208 14:52 26.11.2019
3762 Clouds 12 1007 57 0 1.79 45 14:26 26.11.2019
3763 Clouds 12 1008 69 0 0.45 180 13:59 26.11.2019
3764 Clouds 12 1008 80 0 1.66 213 13:40 26.11.2019
3765 Clouds 13 1011 9 0 0.45 152 13:22 26.11.2019
3766 Clouds 11 1011 64 0 1.71 199 12:40 26.11.2019
3767 Clouds 10 1011 63 0 1.71 199 12:22 26.11.2019
3768 Clouds 9 1011 66 0 1.71 199 11:59 26.11.2019
3769 Clouds 8 1007 41 0 1.71 199 11:40 26.11.2019
3770 Clouds 8 1007 42 0 1.9 38 11:20 26.11.2019
3771 Clouds 8 1012 70 0 1.9 38 10:59 26.11.2019
3772 Clouds 6 1012 79 0 1.9 38 10:41 26.11.2019
3773 Clouds 6 1007 39 0 1.9 38 10:21 26.11.2019
3774 Clouds 4 1012 85 0 1.9 38 09:57 26.11.2019
3775 Clouds 4 1007 41 0 1.9 38 09:38 26.11.2019
3776 Clouds 4 1007 49 0 1.9 38 09:19 26.11.2019
3777 Clouds 3 1007 43 0 1.9 38 08:44 26.11.2019
3778 Clouds 3 1007 43 0 1.9 38 08:44 26.11.2019
3779 Clouds 2 1014 78 0 0.98 20 08:24 26.11.2019
3780 Clouds 2 1012 88 0 0.98 20 07:46 26.11.2019
3781 Clouds 2 1012 88 0 0.98 20 07:27 26.11.2019
3782 Clouds 2 1006 75 0 0.98 20 06:55 26.11.2019
3783 Clouds 3 1006 71 0 0.98 20 06:35 26.11.2019
3784 Clouds 3 1006 68 0 0.98 20 06:35 26.11.2019
3785 Clouds 2 1006 35 0 0.98 20 05:52 26.11.2019
3786 Clouds 3 1012 87 0 0.95 355 04:46 26.11.2019
3787 Clouds 4 1006 58 0 0.45 218 02:52 26.11.2019
3788 Clouds 4 1006 72 0 0.14 91 01:33 26.11.2019
3789 Clouds 5 1007 88 0 0.22 241 00:52 26.11.2019
3790 Clouds 5 1007 77 0 0.22 241 00:29 26.11.2019
3791 Clouds 5 1007 81 0 0.22 241 23:41 25.11.2019
3792 Clouds 5 1007 88 0 1.34 194 23:21 25.11.2019
3793 Clouds 5 1014 84 0 0.53 68 22:59 25.11.2019
3794 Clouds 5 1007 89 0 1.34 187 22:39 25.11.2019
3795 Clouds 5 1007 89 0 1.34 201 22:19 25.11.2019
3796 Clouds 6 1014 83 0 0.53 68 21:58 25.11.2019
3797 Clouds 6 1007 90 0 3.13 208 21:39 25.11.2019
3798 Clouds 5 1007 89 0 0.53 68 21:21 25.11.2019
3799 Clouds 5 1014 81 0 0.53 68 20:57 25.11.2019
3800 Clouds 6 1014 80 0 0.53 68 20:39 25.11.2019
3801 Clouds 6 1014 80 0 0.53 68 20:39 25.11.2019
3802 Clouds 6 1007 89 0 3.13 184 20:19 25.11.2019
3803 Clouds 7 1007 90 0 1.79 228 19:56 25.11.2019
3804 Clouds 7 1007 90 0 3.13 218 19:37 25.11.2019
3805 Clouds 7 1007 90 0 1.79 190 19:37 25.11.2019
3806 Clouds 7 1007 90 0 1.79 201 19:18 25.11.2019
3807 Clouds 7 1007 93 0 2 17 18:57 25.11.2019
3808 Clouds 6 1007 93 0 2 17 18:38 25.11.2019
3809 Clouds 7 1007 92 0 2 17 18:38 25.11.2019
3810 Clouds 7 1012 57 10000 1.5 240 18:20 25.11.2019
3811 Clouds 7 1012 57 10000 1.5 240 17:57 25.11.2019
3812 Clouds 9 1012 57 10000 1.5 240 17:38 25.11.2019
3813 Clouds 10 1011 53 10000 2.6 230 17:19 25.11.2019
3814 Clouds 11 1011 53 10000 2.6 230 16:56 25.11.2019
3815 Clouds 11 1011 53 10000 2.6 220 16:37 25.11.2019
3816 Clouds 12 1011 46 10000 1 0 16:19 25.11.2019
3817 Clouds 13 1011 46 10000 1 0 15:42 25.11.2019
3818 Clouds 13 1011 46 10000 1 0 15:21 25.11.2019
3819 Clouds 12 1011 84 10000 1 0 14:59 25.11.2019
3820 Clouds 12 1011 84 10000 1 0 14:40 25.11.2019
3821 Clouds 12 1011 74 10000 1 0 14:22 25.11.2019
3822 Clouds 12 1011 74 10000 0.5 0 13:54 25.11.2019
3823 Clouds 11 1011 49 10000 1 0 13:36 25.11.2019
3824 Clouds 11 1011 75 10000 1 0 13:18 25.11.2019
3825 Clouds 11 1012 56 0 2.06 17 12:40 25.11.2019
3826 Clouds 10 1012 75 10000 0.5 0 12:21 25.11.2019
3827 Clouds 10 1012 65 10000 1 0 11:58 25.11.2019
3828 Clouds 9 1013 65 10000 2.06 17 11:39 25.11.2019
3829 Clouds 7 1013 74 10000 2.1 70 11:20 25.11.2019
3830 Clouds 6 1012 80 10000 1 0 10:45 25.11.2019
3831 Clouds 5 1012 80 10000 1 0 10:27 25.11.2019
3832 Clouds 4 1012 86 10000 1.5 100 09:58 25.11.2019
3833 Clouds 4 1012 86 10000 1 0 09:39 25.11.2019
3834 Clouds 3 1012 86 10000 1 0 09:21 25.11.2019
3835 Clouds 2 1011 83 0 2.47 26 08:41 25.11.2019
3836 Rain 1 1014 62 0 2.8 23 08:21 25.11.2019
3837 Rain 1 1011 85 0 2.8 23 07:43 25.11.2019
3838 Rain 1 1011 83 0 2.8 23 07:24 25.11.2019
3839 Rain 1 1004 87 0 2.8 23 07:24 25.11.2019
3840 Rain 2 1010 82 0 2.8 23 06:49 25.11.2019
3841 Rain 2 1003 81 0 1.79 34 06:21 25.11.2019
3842 Rain 2 1010 79 0 2.8 23 05:39 25.11.2019
3843 Rain 2 1003 86 0 0.45 336 04:52 25.11.2019
3844 Rain 2 1003 62 0 3 27 03:18 25.11.2019
3845 Rain 2 1011 79 0 3 27 02:26 25.11.2019
3846 Clear 2 1011 78 0 2.1 14 01:40 25.11.2019
3847 Clouds 2 1011 78 0 1.99 4 01:21 25.11.2019
3848 Clouds 2 1003 85 0 1.99 4 00:23 25.11.2019
3849 Clouds 2 1012 78 0 1.99 4 23:58 24.11.2019
3850 Clouds 2 1011 76 0 1.99 4 23:39 24.11.2019
3851 Clouds 2 1002 86 0 0.45 197 23:19 24.11.2019
3852 Clouds 2 1002 83 0 1.79 193 22:55 24.11.2019
3853 Clouds 2 1002 87 0 0.55 22 22:36 24.11.2019
3854 Clouds 2 1002 85 0 2.24 203 22:18 24.11.2019
3855 Clouds 2 1002 89 0 0.55 22 21:42 24.11.2019
3856 Clouds 3 1002 83 0 0.55 22 21:21 24.11.2019
3857 Clouds 3 1003 90 0 0.55 22 20:59 24.11.2019
3858 Clouds 3 1003 90 0 0.55 22 20:59 24.11.2019
3859 Clouds 3 1002 87 0 0.55 22 20:40 24.11.2019
3860 Clouds 4 1002 82 0 2.7 24 20:20 24.11.2019
3861 Clouds 4 1002 82 0 2.7 24 20:20 24.11.2019
3862 Clouds 4 1002 88 0 2.7 24 19:57 24.11.2019
3863 Clouds 5 1012 92 0 2.7 24 19:39 24.11.2019
3864 Clouds 5 1011 74 0 2.7 24 19:21 24.11.2019
3865 Clouds 6 1014 47 0 2.7 24 18:59 24.11.2019
3866 Clouds 6 1014 47 0 2.7 24 18:59 24.11.2019
3867 Clouds 6 1014 46 0 2.7 24 18:38 24.11.2019
3868 Clouds 7 1008 37 10000 5.1 320 18:20 24.11.2019
3869 Clouds 7 1008 37 10000 5.1 320 17:57 24.11.2019
3870 Clouds 7 1008 37 10000 5.1 320 17:39 24.11.2019
3871 Clouds 8 1008 37 10000 3.6 310 17:20 24.11.2019
3872 Clouds 9 1008 37 10000 3.6 310 16:57 24.11.2019
3873 Clouds 10 1008 35 10000 4.1 320 16:39 24.11.2019
3874 Clouds 10 1008 35 10000 4.1 320 16:39 24.11.2019
3875 Clouds 11 1008 35 10000 4.1 320 16:20 24.11.2019
3876 Clouds 11 1008 30 10000 1.5 0 15:45 24.11.2019
3877 Clouds 11 1008 30 10000 1.5 0 15:26 24.11.2019
3878 Clouds 11 1007 32 10000 4.6 20 14:58 24.11.2019
3879 Clouds 11 1007 32 10000 6.2 40 14:38 24.11.2019
3880 Clouds 11 1007 32 10000 3.1 70 14:19 24.11.2019
3881 Clouds 11 1007 32 10000 3.1 70 13:54 24.11.2019
3882 Clouds 11 1007 32 10000 3.1 70 13:54 24.11.2019
3883 Clouds 11 1008 32 10000 2.1 80 13:36 24.11.2019
3884 Clouds 11 1008 43 10000 1.5 0 13:18 24.11.2019
3885 Clouds 10 1008 45 10000 1 0 12:42 24.11.2019
3886 Clouds 9 1009 65 10000 1 0 12:19 24.11.2019
3887 Clouds 9 1009 65 10000 1 0 11:57 24.11.2019
3888 Clouds 8 1008 70 10000 0.5 0 11:37 24.11.2019
3889 Clouds 8 1008 70 10000 0.5 0 11:37 24.11.2019
3890 Clouds 7 1008 83 10000 1 0 11:18 24.11.2019
3891 Clouds 7 1008 69 10000 2.1 40 10:47 24.11.2019
3892 Clouds 6 1008 69 10000 2.1 40 10:29 24.11.2019
3893 Clouds 5 1008 74 10000 1.5 20 09:57 24.11.2019
3894 Clouds 4 1007 74 10000 1 0 09:37 24.11.2019
3895 Clouds 4 1007 74 10000 1 0 09:18 24.11.2019
3896 Clouds 3 1009 64 0 4.25 7 08:44 24.11.2019
3897 Clouds 2 1000 87 0 0.89 214 08:22 24.11.2019
3898 Clouds 2 1008 62 0 4.06 1 07:58 24.11.2019
3899 Clouds 3 1012 77 0 4.06 1 07:37 24.11.2019
3900 Clouds 3 1008 65 0 4.06 1 07:19 24.11.2019
3901 Clouds 3 1007 66 0 4.06 1 06:20 24.11.2019
3902 Clouds 3 1007 66 0 4.06 1 06:20 24.11.2019
3903 Clouds 4 1006 65 0 0.45 163 04:48 24.11.2019
3904 Clouds 4 1005 66 0 3.84 10 03:37 24.11.2019
3905 Clouds 4 1009 68 0 4.02 5 02:22 24.11.2019
3906 Clouds 5 1004 69 0 4.02 5 01:40 24.11.2019
3907 Clouds 5 1004 62 0 4.02 5 01:21 24.11.2019
3908 Clouds 5 1004 61 0 0.89 209 00:47 24.11.2019
3909 Clouds 5 1004 61 0 0.45 283 00:23 24.11.2019
3910 Clouds 5 1004 61 0 0.45 283 00:23 24.11.2019
3911 Clouds 5 1004 59 0 4 353 23:45 23.11.2019
3912 Clouds 5 1009 50 0 4.31 5 23:23 23.11.2019
3913 Clouds 5 1004 62 0 4.31 5 22:59 23.11.2019
3914 Clouds 6 1008 48 0 4.31 5 22:40 23.11.2019
3915 Clouds 6 1008 43 0 4.31 5 22:22 23.11.2019
3916 Clouds 6 1008 40 0 2.24 295 21:59 23.11.2019
3917 Clouds 6 1008 51 0 1.34 204 21:40 23.11.2019
3918 Clouds 6 1002 71 0 4.31 5 21:22 23.11.2019
3919 Clouds 6 1006 50 0 4.31 5 20:57 23.11.2019
3920 Clouds 6 1006 44 0 4.31 5 20:36 23.11.2019
3921 Snow 6 1002 72 0 0.89 104 20:18 23.11.2019
3922 Snow 6 1005 45 0 2.24 230 19:54 23.11.2019
3923 Snow 6 1000 77 0 0.45 264 19:36 23.11.2019
3924 Snow 6 999 79 0 3.44 351 19:18 23.11.2019
3925 Snow 7 1004 49 0 3.44 351 18:39 23.11.2019
3926 Clouds 7 995 93 10000 3.1 220 18:20 23.11.2019
3927 Clouds 7 995 93 10000 3.1 220 17:54 23.11.2019
3928 Clouds 7 995 93 10000 3.1 220 17:54 23.11.2019
3929 Clouds 7 995 93 10000 3.1 220 17:36 23.11.2019
3930 Clouds 7 995 93 10000 2.6 230 17:18 23.11.2019
3931 Clouds 7 995 93 10000 2.6 230 16:54 23.11.2019
3932 Clouds 7 994 100 10000 2.1 230 16:36 23.11.2019
3933 Rain 8 994 93 10000 1 0 16:18 23.11.2019
3934 Rain 8 993 87 10000 2.1 280 15:40 23.11.2019
3935 Rain 8 993 93 10000 1.5 290 15:19 23.11.2019
3936 Rain 9 993 93 10000 1.5 290 14:58 23.11.2019
3937 Clouds 9 993 93 10000 1 0 14:40 23.11.2019
3938 Clouds 9 993 93 10000 1 0 14:21 23.11.2019
3939 Clouds 9 993 87 10000 1 0 13:56 23.11.2019
3940 Clouds 9 992 93 10000 1 0 13:38 23.11.2019
3941 Clouds 9 993 93 10000 1.5 260 13:18 23.11.2019
3942 Clouds 9 993 100 10000 1.5 200 12:42 23.11.2019
3943 Clouds 8 993 100 10000 1.5 200 12:24 23.11.2019
3944 Fog 8 992 100 6000 1 0 11:45 23.11.2019
3945 Fog 8 992 100 6000 1 0 11:24 23.11.2019
3946 Fog 7 992 100 6000 1.5 20 10:56 23.11.2019
3947 Fog 7 992 100 150 0.5 0 10:37 23.11.2019
3948 Fog 6 991 100 750 0.5 0 10:18 23.11.2019
3949 Fog 5 991 100 200 0.5 0 09:40 23.11.2019
3950 Fog 4 991 100 200 0.5 0 09:18 23.11.2019
3951 Clouds 3 990 94 0 0.95 326 08:41 23.11.2019
3952 Clouds 3 990 94 0 0.95 326 08:41 23.11.2019
3953 Clouds 4 981 95 0 1.23 205 08:19 23.11.2019
3954 Clouds 4 989 94 0 1.23 205 07:42 23.11.2019
3955 Clouds 4 980 94 0 1.23 205 06:53 23.11.2019
3956 Clouds 4 989 92 0 1.23 205 06:27 23.11.2019
3957 Clouds 6 989 93 0 1.23 205 05:57 23.11.2019
3958 Clouds 5 989 92 0 1.23 205 05:32 23.11.2019
3959 Snow 6 989 91 0 2.57 191 04:57 23.11.2019
3960 Snow 6 989 92 0 2.57 191 04:32 23.11.2019
3961 Snow 7 991 37 0 2.57 191 03:26 23.11.2019
3962 Snow 8 990 35 0 2.57 191 02:38 23.11.2019
3963 Rain 9 991 36 0 2.84 174 01:40 23.11.2019
3964 Rain 8 990 91 0 2.87 189 00:47 23.11.2019
3965 Rain 8 991 92 0 2.87 189 00:19 23.11.2019
3966 Rain 8 991 92 0 0.45 94 23:54 22.11.2019
3967 Rain 8 991 91 0 2.87 189 23:36 22.11.2019
3968 Snow 9 991 90 0 2.71 159 23:18 22.11.2019
3969 Snow 9 992 90 0 0.45 181 22:42 22.11.2019
3970 Snow 9 992 13 0 2.71 159 22:23 22.11.2019
3971 Snow 9 993 93 0 0.45 116 21:59 22.11.2019
3972 Snow 9 994 92 0 2.71 159 21:40 22.11.2019
3973 Snow 8 985 95 0 4.47 200 21:21 22.11.2019
3974 Snow 9 995 90 0 2.71 159 20:44 22.11.2019
3975 Rain 9 995 89 0 0.89 79 20:23 22.11.2019
3976 Snow 8 996 89 0 0.45 88 19:58 22.11.2019
3977 Snow 8 996 88 0 0.45 122 19:39 22.11.2019
3978 Snow 9 994 12 0 5.16 194 19:19 22.11.2019
3979 Snow 8 996 88 0 0.45 85 18:59 22.11.2019
3980 Snow 9 985 95 0 6.71 208 18:37 22.11.2019
3981 Rain 8 997 93 10000 1.5 60 18:18 22.11.2019
3982 Rain 8 997 93 10000 1.5 60 17:41 22.11.2019
3983 Rain 8 997 93 10000 1.5 60 17:22 22.11.2019
3984 Rain 9 997 87 10000 1.5 10 16:48 22.11.2019
3985 Rain 9 998 93 10000 1.5 10 16:29 22.11.2019
3986 Rain 9 998 93 10000 1.5 10 16:29 22.11.2019
3987 Rain 9 998 80 10000 1 330 15:54 22.11.2019
3988 Rain 9 999 75 10000 1 0 15:36 22.11.2019
3989 Rain 8 999 70 10000 0.5 0 15:18 22.11.2019
3990 Rain 8 999 70 10000 0.5 0 14:54 22.11.2019
3991 Clouds 9 1000 70 10000 0.5 0 14:36 22.11.2019
3992 Clouds 8 1000 70 10000 0.5 0 14:18 22.11.2019
3993 Clouds 8 1000 70 10000 0.5 0 14:18 22.11.2019
3994 Rain 8 1002 75 10000 0.5 0 13:37 22.11.2019
3995 Rain 8 1002 75 10000 0.5 0 13:19 22.11.2019
3996 Clouds 7 1003 87 10000 0.5 0 12:57 22.11.2019
3997 Clouds 7 1004 87 10000 5.67 192 12:39 22.11.2019
3998 Clouds 7 1004 87 10000 5.67 192 12:19 22.11.2019
3999 Clouds 7 1004 87 10000 5.67 192 12:19 22.11.2019
4000 Clouds 5 1004 80 10000 1 0 11:56 22.11.2019
4001 Clouds 5 1005 87 10000 1 0 11:36 22.11.2019
4002 Clouds 4 1005 89 10000 3.84 193 11:18 22.11.2019
4003 Clouds 4 1005 89 10000 1 0 10:41 22.11.2019
4004 Clouds 4 1005 89 10000 1 0 10:22 22.11.2019
4005 Clouds 3 1006 89 10000 1 60 09:58 22.11.2019
4006 Clouds 3 1006 89 10000 0.5 0 09:39 22.11.2019
4007 Clouds 2 1006 89 10000 0.5 0 09:21 22.11.2019
4008 Clouds 2 1006 89 10000 0.5 0 09:21 22.11.2019
4009 Clouds 2 994 83 0 4.92 128 08:47 22.11.2019
4010 Clouds 1 1006 76 0 0.45 132 08:28 22.11.2019
4011 Clouds 1 995 83 0 5.36 217 07:56 22.11.2019
4012 Clouds 1 994 82 0 6.26 222 07:37 22.11.2019
4013 Clouds 1 994 82 0 4.92 201 07:18 22.11.2019
4014 Clouds 0 995 82 0 4.02 204 06:41 22.11.2019
4015 Clouds 0 995 81 0 4.47 226 05:56 22.11.2019
4016 Clouds 0 996 81 0 4.02 207 04:52 22.11.2019
4017 Clouds 0 1009 82 0 1.3 190 02:57 22.11.2019
4018 Clouds 0 1009 88 0 1.3 190 02:33 22.11.2019
4019 Clouds 0 997 79 0 3.58 211 01:46 22.11.2019
4020 Clouds -1 997 79 0 3.13 224 01:20 22.11.2019
4021 Clouds -1 998 78 0 4.47 238 00:54 22.11.2019
4022 Clouds 0 1010 88 0 1.34 194 00:25 22.11.2019
4023 Clouds 1 1010 87 0 1.34 194 23:56 21.11.2019
4024 Clouds 1 1010 87 0 1.34 194 23:56 21.11.2019
4025 Clouds 0 999 80 0 3.13 200 23:37 21.11.2019
4026 Clouds 2 999 79 0 1.34 236 23:18 21.11.2019
4027 Clouds 1 1010 87 0 0.88 214 22:41 21.11.2019
4028 Clouds 1 999 81 0 1.34 214 22:22 21.11.2019
4029 Clouds 0 999 81 0 0.45 188 21:58 21.11.2019
4030 Clouds 0 999 81 0 0.88 214 21:39 21.11.2019
4031 Clouds 0 999 80 0 0.88 214 21:20 21.11.2019
4032 Clouds 1 1010 86 0 0.88 214 20:59 21.11.2019
4033 Clouds 0 998 80 0 2.68 211 20:39 21.11.2019
4034 Clouds 0 998 80 0 2.68 211 20:39 21.11.2019
4035 Clouds 1 998 81 0 1.79 208 20:19 21.11.2019
4036 Clouds 1 1010 83 0 0.91 230 20:19 21.11.2019
4037 Clouds 2 1009 82 0 0.91 230 19:59 21.11.2019
4038 Clouds 1 999 81 0 0.91 230 19:59 21.11.2019
4039 Clouds 1 998 81 0 0.91 230 19:41 21.11.2019
4040 Clouds 2 998 80 0 0.45 197 19:23 21.11.2019
4041 Clouds 2 998 79 0 0.45 197 18:58 21.11.2019
4042 Clouds 2 998 78 0 2.24 194 18:40 21.11.2019
4043 Clouds 4 1006 57 10000 3.1 230 18:19 21.11.2019
4044 Clouds 4 1006 57 10000 3.1 230 17:57 21.11.2019
4045 Clouds 4 1006 57 10000 3.1 230 17:38 21.11.2019
4046 Clouds 7 1006 57 10000 3.1 230 17:19 21.11.2019
4047 Clouds 7 1006 57 10000 3.1 230 17:19 21.11.2019
4048 Clouds 8 1005 50 10000 4.1 210 16:42 21.11.2019
4049 Clouds 9 1005 50 10000 4.1 210 16:42 21.11.2019
4050 Clouds 9 1005 50 10000 4.1 210 16:22 21.11.2019
4051 Clouds 9 1005 79 10000 2.6 220 15:58 21.11.2019
4052 Clouds 10 1005 49 10000 2.1 220 15:39 21.11.2019
4053 Clouds 10 1005 49 10000 2.1 220 15:19 21.11.2019
4054 Clouds 10 1006 45 10000 1.5 0 14:56 21.11.2019
4055 Clouds 10 1006 45 10000 1.5 0 14:56 21.11.2019
4056 Clouds 10 1006 45 10000 1.5 210 14:36 21.11.2019
4057 Clouds 10 1006 45 10000 1.5 210 14:18 21.11.2019
4058 Clouds 9 1006 52 10000 0.5 0 13:39 21.11.2019
4059 Clouds 9 1006 52 10000 0.5 0 13:20 21.11.2019
4060 Clouds 7 1007 60 10000 1 0 12:57 21.11.2019
4061 Clouds 6 1008 59 10000 0.5 0 12:38 21.11.2019
4062 Clouds 6 1008 59 10000 0.5 0 12:19 21.11.2019
4063 Clouds 5 1008 69 10000 1 0 11:41 21.11.2019
4064 Clouds 5 1008 69 10000 1 0 11:22 21.11.2019
4065 Clouds 4 1008 74 10000 1 0 10:59 21.11.2019
4066 Clouds 2 1008 86 10000 1 70 10:41 21.11.2019
4067 Clouds 1 1008 86 10000 1 70 10:22 21.11.2019
4068 Clouds 1 1008 92 10000 1 0 09:57 21.11.2019
4069 Clouds 0 1008 92 10000 0.5 0 09:38 21.11.2019
4070 Clouds -1 1008 92 10000 0.5 0 09:19 21.11.2019
4071 Clouds -1 1010 80 0 0.71 234 08:41 21.11.2019
4072 Clouds -2 996 79 0 1.79 212 08:20 21.11.2019
4073 Clouds -2 996 79 0 1.79 210 07:42 21.11.2019
4074 Clouds -1 996 77 0 0.04 225 07:18 21.11.2019
4075 Clouds -1 996 75 0 0.89 184 06:57 21.11.2019
4076 Clouds -2 996 72 0 0.45 224 06:33 21.11.2019
4077 Clouds -2 996 73 0 0.89 195 05:37 21.11.2019
4078 Clouds -2 996 69 0 0.45 218 03:34 21.11.2019
4079 Clouds -1 996 65 0 3.58 204 02:42 21.11.2019
4080 Clouds -1 996 66 0 3.58 238 01:55 21.11.2019
4081 Clouds -1 996 65 0 4.02 217 01:55 21.11.2019
4082 Clouds -1 997 63 0 3.58 194 01:37 21.11.2019
4083 Clouds -1 997 64 0 3.58 228 00:55 21.11.2019
4084 Clouds -1 997 66 0 3.13 207 00:21 21.11.2019
4085 Clouds -1 1010 80 0 0.39 182 23:58 20.11.2019
4086 Clouds -1 997 67 0 4.02 211 23:40 20.11.2019
4087 Clouds -1 997 66 0 3.58 201 23:20 20.11.2019
4088 Clouds -1 1011 79 0 0.84 179 22:55 20.11.2019
4089 Clouds -1 1011 79 0 0.84 179 22:55 20.11.2019
4090 Clouds -1 998 66 0 2.68 232 22:37 20.11.2019
4091 Clouds -1 998 66 0 3.13 205 22:37 20.11.2019
4092 Clouds 0 1011 80 0 0.84 179 22:18 20.11.2019
4093 Clouds 0 1011 80 0 0.84 179 22:18 20.11.2019
4094 Clouds 0 998 65 0 3.58 204 21:55 20.11.2019
4095 Clouds 0 998 66 0 3.58 245 21:36 20.11.2019
4096 Clouds 0 998 67 0 2.24 217 21:18 20.11.2019
4097 Clouds 0 1011 76 0 0.84 179 20:54 20.11.2019
4098 Clouds 1 998 67 0 0.45 212 20:36 20.11.2019
4099 Clouds 1 1011 74 0 1.15 183 20:18 20.11.2019
4100 Clouds 1 1011 74 0 1.15 183 20:18 20.11.2019
4101 Clouds 1 998 69 0 2.68 250 19:54 20.11.2019
4102 Clouds 1 998 68 0 3.13 176 19:36 20.11.2019
4103 Clouds 2 998 70 0 3.58 207 19:18 20.11.2019
4104 Clouds 2 998 72 0 1.34 203 18:41 20.11.2019
4105 Clouds 3 998 72 0 3.58 229 18:22 20.11.2019
4106 Clouds 3 998 75 0 1.79 211 17:59 20.11.2019
4107 Clouds 3 998 75 0 1.79 211 17:59 20.11.2019
4108 Clouds 0 998 75 0 2.68 194 17:39 20.11.2019
4109 Clouds 0 998 75 0 2.68 194 17:39 20.11.2019
4110 Clouds 5 999 74 0 3.13 197 17:21 20.11.2019
4111 Clouds 5 999 74 0 3.13 197 17:21 20.11.2019
4112 Clouds 6 1010 58 0 2.63 203 16:58 20.11.2019
4113 Clouds 7 1009 17 0 2.63 203 16:39 20.11.2019
4114 Clouds 7 1010 48 0 2.63 203 16:20 20.11.2019
4115 Clouds 8 1009 14 0 2.63 203 15:57 20.11.2019
4116 Clouds 9 1009 11 0 2.63 203 15:38 20.11.2019
4117 Clouds 9 1009 11 0 2.63 203 15:19 20.11.2019
4118 Clouds 9 1009 11 0 2.63 203 14:41 20.11.2019
4119 Clouds 8 1011 48 0 2.98 207 14:22 20.11.2019
4120 Clouds 8 1011 49 0 2.98 207 13:59 20.11.2019
4121 Clouds 7 1011 50 0 2.98 207 13:40 20.11.2019
4122 Clouds 6 1012 53 0 2.94 208 13:20 20.11.2019
4123 Clouds 7 1012 50 0 2.94 208 12:59 20.11.2019
4124 Clouds 5 1000 69 0 3.58 191 12:38 20.11.2019
4125 Clouds 5 1012 59 0 2.94 208 12:19 20.11.2019
4126 Clouds 3 1013 61 0 2.94 208 11:45 20.11.2019
4127 Clouds 2 1001 69 0 1.79 253 11:23 20.11.2019
4128 Clouds 2 1013 69 0 1.46 195 10:57 20.11.2019
4129 Clouds 2 1013 69 0 1.46 195 10:57 20.11.2019
4130 Clouds 1 1001 71 0 2.24 207 10:39 20.11.2019
4131 Clouds 0 1001 71 0 2.68 208 10:20 20.11.2019
4132 Clouds -1 1001 71 0 2.24 212 09:56 20.11.2019
4133 Clouds 0 1001 71 0 4.02 211 09:37 20.11.2019
4134 Clouds -2 1001 72 0 2.68 217 09:19 20.11.2019
4135 Clouds -2 1013 75 0 1.46 195 08:41 20.11.2019
4136 Clouds -3 1001 80 0 3.13 198 08:23 20.11.2019
4137 Clouds -3 1013 75 0 0.23 121 07:48 20.11.2019
4138 Clouds -3 1013 75 0 0.23 121 07:30 20.11.2019
4139 Clouds -3 1001 65 0 0.23 121 06:55 20.11.2019
4140 Clouds -3 1001 48 0 0.23 121 06:36 20.11.2019
4141 Clouds -3 1001 75 0 0.45 232 06:18 20.11.2019
4142 Clear -3 1002 62 0 0.71 56 03:55 20.11.2019
4143 Clear -2 1003 79 0 2.24 210 02:22 20.11.2019
4144 Clear -2 1003 77 0 1.34 212 01:34 20.11.2019
4145 Clear -2 1015 71 0 0.47 111 00:43 20.11.2019
4146 Clear -1 1004 82 0 2.24 195 00:18 20.11.2019
4147 Clear -1 1015 70 0 0.47 111 23:39 19.11.2019
4148 Clear -1 1004 81 0 1.34 207 23:20 19.11.2019
4149 Clear 0 1016 68 0 0.48 108 22:42 19.11.2019
4150 Clear -1 1004 83 0 0.48 108 22:19 19.11.2019
4151 Clear -1 1004 86 0 0.48 108 21:58 19.11.2019
4152 Clear 0 1004 82 0 0.48 108 21:38 19.11.2019
4153 Clear 0 1004 85 0 0.48 108 21:20 19.11.2019
4154 Clear 0 1004 77 0 0.48 108 20:57 19.11.2019
4155 Clear 0 1004 81 0 0.48 108 20:57 19.11.2019
4156 Clear 0 1004 85 0 0.48 108 20:39 19.11.2019
4157 Clear 0 1004 84 0 0.69 49 20:20 19.11.2019
4158 Clear 0 1004 81 0 0.69 49 19:57 19.11.2019
4159 Clear 0 1004 81 0 0.69 49 19:57 19.11.2019
4160 Clear 0 1004 86 0 0.69 49 19:39 19.11.2019
4161 Clear 0 1004 82 0 0.69 49 19:19 19.11.2019
4162 Clear 0 1004 85 0 0.69 49 18:55 19.11.2019
4163 Clear 0 1004 85 0 0.69 49 18:36 19.11.2019
4164 Clear 2 1004 85 0 0.69 49 18:18 19.11.2019
4165 Clear -1 1004 85 0 0.69 49 17:55 19.11.2019
4166 Clear -2 1004 85 0 0.69 49 17:37 19.11.2019
4167 Clear -2 1004 85 0 0.69 49 17:37 19.11.2019
4168 Clear 5 1015 47 0 0.68 304 17:18 19.11.2019
4169 Clear 6 1015 44 0 0.68 304 16:43 19.11.2019
4170 Clear 7 1017 18 0 0.68 304 16:23 19.11.2019
4171 Clear 7 1017 15 0 0.68 304 15:57 19.11.2019
4172 Clear 8 1017 15 0 0.68 304 15:39 19.11.2019
4173 Clear 8 1015 36 0 0.68 304 15:20 19.11.2019
4174 Clear 8 1017 12 0 0.68 304 14:55 19.11.2019
4175 Clear 8 1015 35 0 0.45 186 14:37 19.11.2019
4176 Clear 8 1015 37 0 0.45 232 14:19 19.11.2019
4177 Clear 8 1015 33 0 0.85 331 13:40 19.11.2019
4178 Clear 8 1016 45 0 0.86 291 13:19 19.11.2019
4179 Clear 8 1016 46 0 0.86 291 12:40 19.11.2019
4180 Clear 7 1019 11 0 0.86 291 12:22 19.11.2019
4181 Clear 6 1017 46 0 0.86 291 11:58 19.11.2019
4182 Clear 5 1017 49 0 0.86 291 11:38 19.11.2019
4183 Clear 4 1017 55 0 2.36 29 11:19 19.11.2019
4184 Clear 4 1017 55 0 2.36 29 11:19 19.11.2019
4185 Clear 3 1017 46 0 2.36 29 10:48 19.11.2019
4186 Clear 2 1017 49 0 2.36 29 10:22 19.11.2019
4187 Clear 1 1016 57 0 2.36 29 09:58 19.11.2019
4188 Clear 2 1016 57 0 2.36 29 09:40 19.11.2019
4189 Clear 0 1005 59 0 2.36 29 09:18 19.11.2019
4190 Clear -1 1005 66 0 2.36 29 08:41 19.11.2019
4191 Clear -2 1005 64 0 3.49 22 08:22 19.11.2019
4192 Clear -2 1004 56 0 3.49 22 07:57 19.11.2019
4193 Clear -2 1004 60 0 3.49 22 07:38 19.11.2019
4194 Clear -2 1004 57 0 3.49 22 07:20 19.11.2019
4195 Clear -3 1004 63 0 3.49 22 06:45 19.11.2019
4196 Clear -1 1004 86 0 3.49 22 06:27 19.11.2019
4197 Clear -2 1004 84 0 3.77 23 05:20 19.11.2019
4198 Clear -1 1004 73 0 3.77 23 03:45 19.11.2019
4199 Clear -1 1004 76 0 3.77 23 03:22 19.11.2019
4200 Clear -1 1004 85 0 3.77 23 02:51 19.11.2019
4201 Clouds 0 1004 86 0 3.55 21 01:58 19.11.2019
4202 Clouds -1 1004 87 0 3.61 20 00:51 19.11.2019
4203 Clouds 1 1020 53 0 3.61 20 00:21 19.11.2019
4204 Clouds 1 1020 52 0 3.61 20 23:41 18.11.2019
4205 Clouds 2 1020 50 0 4.06 18 23:20 18.11.2019
4206 Clouds 2 1020 50 0 4.06 18 23:20 18.11.2019
4207 Clouds 1 1020 48 0 4.06 18 22:48 18.11.2019
4208 Clouds 2 1020 47 0 4.06 18 22:24 18.11.2019
4209 Clouds 2 1020 49 0 4.06 18 21:59 18.11.2019
4210 Clouds 2 1020 51 0 4.06 18 21:40 18.11.2019
4211 Clouds 2 1020 51 0 4.06 18 21:40 18.11.2019
4212 Clouds 2 1020 51 0 4.06 18 21:22 18.11.2019
4213 Clouds 2 1019 50 0 4.06 18 20:59 18.11.2019
4214 Clouds 2 1019 49 0 4.06 18 20:41 18.11.2019
4215 Clouds 2 1019 52 0 4.35 18 20:19 18.11.2019
4216 Clouds 2 1019 51 0 4.35 18 19:58 18.11.2019
4217 Clouds 2 1019 51 0 4.35 18 19:38 18.11.2019
4218 Clouds 2 1019 51 0 4.35 18 19:38 18.11.2019
4219 Clouds 2 1019 47 0 4.35 18 19:20 18.11.2019
4220 Clouds 3 1019 48 0 4.35 18 19:20 18.11.2019
4221 Clouds 3 1016 93 0 4.35 18 18:56 18.11.2019
4222 Clouds 3 1018 42 0 4.35 18 18:38 18.11.2019
4223 Clouds 5 1009 39 10000 6.2 320 18:19 18.11.2019
4224 Clouds 4 1009 39 10000 6.2 320 17:56 18.11.2019
4225 Clouds 4 1009 39 10000 6.2 320 17:37 18.11.2019
4226 Clouds 6 1009 39 10000 6.2 320 17:19 18.11.2019
4227 Clouds 7 1009 39 10000 6.2 310 16:43 18.11.2019
4228 Clouds 6 1009 39 10000 6.2 310 16:43 18.11.2019
4229 Clouds 6 1009 39 10000 6.2 310 16:24 18.11.2019
4230 Clouds 6 1009 39 10000 5.7 310 15:59 18.11.2019
4231 Clouds 7 1009 37 10000 4.1 310 15:40 18.11.2019
4232 Clouds 7 1009 37 10000 4.1 310 15:21 18.11.2019
4233 Clouds 8 1009 37 10000 1 0 14:58 18.11.2019
4234 Clouds 6 1009 39 10000 3.6 310 14:38 18.11.2019
4235 Clouds 7 1009 77 10000 1.5 0 14:18 18.11.2019
4236 Clouds 7 1009 77 10000 1.5 0 13:42 18.11.2019
4237 Clouds 7 1009 77 10000 1.5 0 13:24 18.11.2019
4238 Clouds 7 1009 77 10000 1 0 12:40 18.11.2019
4239 Clouds 6 1009 77 10000 1 0 12:20 18.11.2019
4240 Clouds 6 1010 77 10000 1.5 330 11:56 18.11.2019
4241 Clouds 5 1010 77 10000 2.1 80 11:38 18.11.2019
4242 Clouds 5 1010 83 10000 2.1 80 11:19 18.11.2019
4243 Clouds 5 1009 83 10000 0.5 0 10:43 18.11.2019
4244 Clouds 4 1009 83 10000 0.5 0 10:25 18.11.2019
4245 Clouds 3 1009 83 10000 3.05 4 09:57 18.11.2019
4246 Clouds 3 1009 83 10000 0.5 0 09:38 18.11.2019
4247 Clouds 2 1014 80 0 3.05 4 09:19 18.11.2019
4248 Clouds 2 1009 83 10000 0.5 0 09:19 18.11.2019
4249 Clouds 2 999 95 0 1.34 0 08:47 18.11.2019
4250 Clouds 1 998 95 0 1.34 357 08:24 18.11.2019
4251 Clouds 1 998 95 0 0.89 14 07:55 18.11.2019
4252 Clouds 1 998 95 0 3.52 19 07:37 18.11.2019
4253 Clouds 1 998 94 0 0.45 32 07:19 18.11.2019
4254 Clouds 2 998 91 0 3.52 19 06:41 18.11.2019
4255 Clouds 2 998 91 0 3.52 19 06:21 18.11.2019
4256 Clouds 1 997 90 0 2.4 19 05:26 18.11.2019
4257 Clouds 1 997 93 0 2.4 19 03:40 18.11.2019
4258 Clouds 2 997 90 0 1.92 22 01:39 18.11.2019
4259 Clouds 2 997 87 0 1.97 34 00:53 18.11.2019
4260 Clouds 2 997 87 0 1.97 34 00:18 18.11.2019
4261 Clouds 2 997 89 0 1.97 34 23:40 17.11.2019
4262 Clouds 3 997 90 0 1.2 65 23:21 17.11.2019
4263 Clouds 3 997 89 0 1.2 65 22:57 17.11.2019
4264 Clouds 3 997 89 0 1.2 65 22:38 17.11.2019
4265 Clouds 3 997 90 0 1.2 65 22:20 17.11.2019
4266 Clouds 3 997 89 0 1.2 65 21:42 17.11.2019
4267 Clouds 2 997 89 0 1.2 65 21:20 17.11.2019
4268 Clouds 3 997 90 0 1.2 65 20:58 17.11.2019
4269 Clouds 3 997 81 0 1.2 65 20:39 17.11.2019
4270 Clouds 4 997 89 0 1.46 45 20:20 17.11.2019
4271 Clouds 3 997 90 0 1.46 45 19:57 17.11.2019
4272 Clouds 3 997 89 0 1.46 45 19:39 17.11.2019
4273 Clouds 3 997 90 0 1.46 45 19:20 17.11.2019
4274 Clouds 3 997 89 0 1.46 45 18:56 17.11.2019
4275 Clouds 4 1006 70 10000 3.6 230 18:38 17.11.2019
4276 Clouds 4 1006 70 10000 3.6 230 18:19 17.11.2019
4277 Clouds 4 1006 70 10000 3.6 230 18:19 17.11.2019
4278 Clouds 4 1006 70 10000 3.6 230 17:58 17.11.2019
4279 Clouds 5 1006 70 10000 3.6 230 17:40 17.11.2019
4280 Clouds 6 1006 70 10000 3.6 230 17:20 17.11.2019
4281 Clouds 6 1005 81 10000 4.1 230 16:59 17.11.2019
4282 Clouds 6 1005 81 10000 3.1 220 16:40 17.11.2019
4283 Clouds 7 1005 81 10000 3.1 220 16:21 17.11.2019
4284 Clouds 7 1006 81 10000 2.1 0 15:56 17.11.2019
4285 Clouds 7 1006 81 10000 2.1 220 15:38 17.11.2019
4286 Clouds 7 1006 81 10000 2.1 220 15:18 17.11.2019
4287 Clouds 7 1006 56 10000 2.6 210 15:18 17.11.2019
4288 Clouds 7 1006 56 10000 2.6 210 14:56 17.11.2019
4289 Clouds 7 1006 56 10000 2.1 190 14:37 17.11.2019
4290 Clouds 6 1006 56 10000 2.1 190 14:19 17.11.2019
4291 Clouds 7 1006 71 10000 3.1 210 13:56 17.11.2019
4292 Clouds 7 1006 71 10000 3.1 210 13:56 17.11.2019
4293 Clouds 7 1007 60 10000 1.5 0 13:38 17.11.2019
4294 Clouds 7 1007 60 10000 1 0 13:18 17.11.2019
4295 Clouds 6 1008 64 10000 0.5 0 12:44 17.11.2019
4296 Clouds 5 1008 64 10000 0.5 0 12:22 17.11.2019
4297 Clouds 5 1008 69 10000 1 0 11:57 17.11.2019
4298 Clouds 5 1008 69 10000 1 0 11:57 17.11.2019
4299 Clouds 4 1008 80 10000 1.5 200 11:38 17.11.2019
4300 Clouds 4 1008 80 10000 1.5 200 11:20 17.11.2019
4301 Clouds 2 1008 75 10000 1 0 10:44 17.11.2019
4302 Clouds 2 1008 75 10000 1 0 10:23 17.11.2019
4303 Clouds 2 1009 92 10000 1 0 09:57 17.11.2019
4304 Clouds 2 1009 100 10000 1 0 09:39 17.11.2019
4305 Clouds 1 1009 100 10000 1 0 09:20 17.11.2019
4306 Clouds 0 997 90 0 1.79 10 08:40 17.11.2019
4307 Snow 0 997 91 0 1.79 342 08:20 17.11.2019
4308 Clouds 0 1010 92 0 2.57 2 07:47 17.11.2019
4309 Clouds 0 996 92 0 1.34 1 07:24 17.11.2019
4310 Clouds 0 997 90 0 2.57 2 06:57 17.11.2019
4311 Clouds 0 1010 92 0 2.57 2 06:57 17.11.2019
4312 Clouds 0 997 94 0 1.34 215 06:32 17.11.2019
4313 Clouds 0 1010 92 0 2.57 2 05:40 17.11.2019
4314 Clouds 0 997 87 0 1.79 359 04:23 17.11.2019
4315 Clouds 0 1011 92 0 2.53 4 03:45 17.11.2019
4316 Clouds 0 997 87 0 2.24 45 03:25 17.11.2019
4317 Clouds 0 1011 89 0 2.53 4 02:27 17.11.2019
4318 Clouds 0 998 87 0 0.45 30 01:25 17.11.2019
4319 Clouds 0 999 85 0 0.45 23 00:53 17.11.2019
4320 Clouds 1 999 84 0 0.89 336 00:22 17.11.2019
4321 Clouds 1 1012 88 0 2.25 13 23:44 16.11.2019
4322 Clouds 1 999 87 0 0.89 18 23:20 16.11.2019
4323 Clouds 1 999 89 0 2.65 22 22:59 16.11.2019
4324 Clouds 1 999 82 0 0.89 347 22:40 16.11.2019
4325 Clouds 1 999 82 0 0.89 347 22:40 16.11.2019
4326 Clouds 1 1012 82 0 2.65 22 22:18 16.11.2019
4327 Clouds 1 1012 82 0 2.65 22 21:42 16.11.2019
4328 Clouds 1 999 87 0 1.34 10 21:23 16.11.2019
4329 Clouds 1 1012 82 0 2.65 22 20:59 16.11.2019
4330 Clouds 1 1012 83 0 2.65 22 20:41 16.11.2019
4331 Clouds 2 999 87 0 0.89 23 20:20 16.11.2019
4332 Clouds 2 999 85 0 1.79 24 19:57 16.11.2019
4333 Clouds 2 999 87 0 1.34 15 19:38 16.11.2019
4334 Clouds 2 999 88 0 0.89 23 19:20 16.11.2019
4335 Clouds 1 999 83 0 0.45 13 18:45 16.11.2019
4336 Clouds 1 1009 56 10000 3.1 210 18:27 16.11.2019
4337 Clouds 3 1009 56 10000 3.1 210 17:56 16.11.2019
4338 Clouds 4 1009 56 10000 3.1 210 17:56 16.11.2019
4339 Clouds 4 1009 56 10000 3.1 210 17:37 16.11.2019
4340 Clouds 4 1009 48 10000 3.1 210 17:18 16.11.2019
4341 Clouds 5 1009 48 10000 2.6 220 16:47 16.11.2019
4342 Clouds 5 1009 48 10000 2.6 220 16:28 16.11.2019
4343 Clouds 6 1009 45 10000 2.1 220 15:57 16.11.2019
4344 Clouds 6 1009 42 10000 1.5 180 15:38 16.11.2019
4345 Clouds 6 1009 45 10000 1.5 180 15:20 16.11.2019
4346 Clouds 5 1009 52 10000 1.5 290 14:42 16.11.2019
4347 Clouds 6 1009 52 10000 1.5 290 14:22 16.11.2019
4348 Clouds 7 1010 56 10000 0.5 0 13:58 16.11.2019
4349 Clouds 7 1010 51 10000 1.5 0 13:39 16.11.2019
4350 Clouds 7 1010 51 10000 1.5 0 13:39 16.11.2019
4351 Clouds 7 1010 51 10000 1.5 0 13:19 16.11.2019
4352 Clouds 6 1011 55 10000 1.5 0 12:59 16.11.2019
4353 Clouds 5 1011 69 10000 1.5 140 12:40 16.11.2019
4354 Clouds 5 1011 69 10000 1.5 140 12:20 16.11.2019
4355 Clouds 4 1011 69 10000 1 0 11:46 16.11.2019
4356 Clouds 3 1011 69 10000 1 0 11:28 16.11.2019
4357 Clouds 3 1011 63 10000 0.38 253 10:58 16.11.2019
4358 Clouds 2 1011 92 10000 1 0 10:39 16.11.2019
4359 Clouds 0 1011 92 10000 1 0 10:21 16.11.2019
4360 Clouds 0 1011 100 10000 0.38 253 09:45 16.11.2019
4361 Clear -1 1013 82 0 0.38 253 09:22 16.11.2019
4362 Clear -2 1013 82 0 0.38 253 08:59 16.11.2019
4363 Clear -3 998 87 0 0.26 294 08:39 16.11.2019
4364 Clear -3 1012 82 0 2.53 27 08:19 16.11.2019
4365 Clear -3 1012 83 0 2.53 27 07:43 16.11.2019
4366 Clear -3 1012 83 0 2.53 27 07:21 16.11.2019
4367 Clear -2 1012 72 0 2.53 27 06:55 16.11.2019
4368 Clear -2 1011 81 0 2.53 27 06:34 16.11.2019
4369 Clear -2 1010 85 0 2.53 27 05:40 16.11.2019
4370 Clear -1 1011 73 0 2.8 27 03:50 16.11.2019
4371 Clear -1 1009 92 0 2.8 27 03:25 16.11.2019
4372 Clear -1 1009 92 0 2.8 27 03:25 16.11.2019
4373 Clouds 0 1010 72 0 2.85 26 01:52 16.11.2019
4374 Clouds 0 1010 72 0 2.78 24 01:21 16.11.2019
4375 Clouds 0 1009 72 0 2.78 24 00:46 16.11.2019
4376 Clouds -1 993 89 0 2.78 24 00:26 16.11.2019
4377 Clouds 0 993 92 0 2.78 24 23:40 15.11.2019
4378 Snow 0 993 92 0 2.93 11 23:21 15.11.2019
4379 Snow 1 1008 69 0 2.93 11 22:57 15.11.2019
4380 Snow 0 992 84 0 0.45 359 22:38 15.11.2019
4381 Snow 0 992 87 0 2.93 11 22:18 15.11.2019
4382 Snow 0 1006 91 0 2.93 11 21:42 15.11.2019
4383 Snow 0 1005 92 0 2.93 11 21:21 15.11.2019
4384 Snow 1 991 94 0 0.89 349 20:59 15.11.2019
4385 Snow 1 1005 92 0 2.93 11 20:40 15.11.2019
4386 Snow 1 991 92 0 0.97 343 20:22 15.11.2019
4387 Snow 2 1004 92 0 0.97 343 19:59 15.11.2019
4388 Snow 1 990 88 0 0.89 3 19:41 15.11.2019
4389 Snow 2 1004 91 0 0.97 343 19:21 15.11.2019
4390 Snow 2 1004 92 0 0.97 343 18:58 15.11.2019
4391 Snow 2 1004 92 0 0.97 343 18:58 15.11.2019
4392 Snow 1 1003 92 0 0.97 343 18:40 15.11.2019
4393 Clouds 2 999 96 10000 1.5 250 18:21 15.11.2019
4394 Clouds 2 999 96 10000 1.5 250 17:43 15.11.2019
4395 Clouds 4 999 89 10000 1 0 17:25 15.11.2019
4396 Clouds 3 999 89 10000 1 0 16:58 15.11.2019
4397 Clouds 3 999 89 10000 1 0 16:58 15.11.2019
4398 Clouds 4 998 89 10000 1.5 240 16:39 15.11.2019
4399 Clouds 4 998 89 10000 1.5 240 16:20 15.11.2019
4400 Clouds 4 998 89 10000 1 0 15:39 15.11.2019
4401 Clouds 5 998 89 10000 1 0 15:20 15.11.2019
4402 Clouds 5 998 69 10000 1.5 260 14:58 15.11.2019
4403 Clouds 5 998 69 10000 1.5 240 14:38 15.11.2019
4404 Clouds 5 998 69 10000 1.5 240 14:20 15.11.2019
4405 Clouds 5 999 74 10000 1 0 13:58 15.11.2019
4406 Clouds 5 999 80 10000 2.98 207 13:39 15.11.2019
4407 Clouds 4 999 77 10000 2.71 216 13:21 15.11.2019
4408 Clouds 5 999 100 10000 1.5 90 12:59 15.11.2019
4409 Clouds 5 1000 100 10000 2.71 216 12:40 15.11.2019
4410 Clouds 5 1000 100 10000 2.71 216 12:20 15.11.2019
4411 Fog 4 1000 77 6000 1 0 11:58 15.11.2019
4412 Fog 3 1000 100 2100 0.5 0 11:38 15.11.2019
4413 Fog 3 1000 100 2100 0.5 0 11:20 15.11.2019
4414 Fog 3 1000 100 150 1 0 10:56 15.11.2019
4415 Fog 2 1000 100 50 1 0 10:38 15.11.2019
4416 Fog 1 1000 100 50 1 0 10:18 15.11.2019
4417 Fog 1 1000 100 50 1 0 10:18 15.11.2019
4418 Fog 0 1000 100 50 1.49 177 09:40 15.11.2019
4419 Fog -1 1000 100 50 1.49 177 09:19 15.11.2019
4420 Clouds -1 987 85 0 0.45 172 08:44 15.11.2019
4421 Clouds -2 987 84 0 1.34 235 08:23 15.11.2019
4422 Clouds -2 986 87 0 1.79 240 07:48 15.11.2019
4423 Clouds -2 1001 89 0 0.77 29 07:28 15.11.2019
4424 Clouds -2 1002 78 0 0.77 29 06:44 15.11.2019
4425 Clouds -1 1002 77 0 0.77 29 06:25 15.11.2019
4426 Clouds -1 1003 77 0 0.77 29 05:40 15.11.2019
4427 Clouds -1 1003 77 0 1.2 33 05:22 15.11.2019
4428 Clouds -1 1003 77 0 1.2 33 03:50 15.11.2019
4429 Clouds -1 1002 77 0 1.2 33 03:22 15.11.2019
4430 Clouds 0 1002 78 0 1.31 56 02:18 15.11.2019
4431 Clouds 0 1002 78 0 1.31 56 01:33 15.11.2019
4432 Clouds 0 1002 78 0 1.31 56 01:33 15.11.2019
4433 Clouds 0 1002 78 0 1.31 49 00:49 15.11.2019
4434 Clouds 0 1002 78 0 1.31 49 00:31 15.11.2019
4435 Clouds 1 1002 78 0 1.31 49 23:50 14.11.2019
4436 Clouds 0 999 90 0 1.31 49 23:27 14.11.2019
4437 Clouds 0 986 87 0 2.49 20 22:57 14.11.2019
4438 Clouds 0 986 87 0 2.49 20 22:39 14.11.2019
4439 Clouds 1 1002 77 0 2.49 20 22:20 14.11.2019
4440 Clouds 1 1002 76 0 2.49 20 21:42 14.11.2019
4441 Clouds 1 986 90 0 2.49 20 21:23 14.11.2019
4442 Clouds 1 985 91 0 2.49 20 20:57 14.11.2019
4443 Clouds 1 985 90 0 2.49 20 20:39 14.11.2019
4444 Snow 2 985 90 0 2.35 9 20:21 14.11.2019
4445 Snow 2 997 92 0 2.35 9 19:58 14.11.2019
4446 Snow 2 997 92 0 2.35 9 19:58 14.11.2019
4447 Snow 2 997 92 0 2.35 9 19:40 14.11.2019
4448 Snow 2 997 92 0 2.35 9 19:18 14.11.2019
4449 Snow 1 985 87 0 2.35 9 18:43 14.11.2019
4450 Clouds 3 995 93 10000 1.5 230 18:24 14.11.2019
4451 Clouds 3 995 93 10000 1.5 230 17:58 14.11.2019
4452 Clouds 1 995 93 10000 1.5 230 17:38 14.11.2019
4453 Clouds 4 995 93 10000 1.5 200 17:20 14.11.2019
4454 Clouds 4 995 93 10000 1.5 200 16:58 14.11.2019
4455 Clouds 4 995 93 10000 1.5 200 16:58 14.11.2019
4456 Clouds 4 995 93 10000 1.5 200 16:58 14.11.2019
4457 Clouds 5 994 100 10000 1 0 16:38 14.11.2019
4458 Clouds 5 994 100 10000 1 0 16:19 14.11.2019
4459 Rain 5 995 100 10000 1 0 15:58 14.11.2019
4460 Rain 5 995 100 5000 1 0 15:38 14.11.2019
4461 Rain 5 995 100 5000 1 0 15:20 14.11.2019
4462 Clouds 5 995 100 7000 1 0 14:57 14.11.2019
4463 Clouds 4 995 100 10000 1 0 14:38 14.11.2019
4464 Clouds 4 995 100 10000 1 0 14:38 14.11.2019
4465 Clouds 4 995 100 10000 1 0 14:20 14.11.2019
4466 Clouds 4 996 100 10000 1 0 13:42 14.11.2019
4467 Clouds 4 996 100 10000 1 0 13:23 14.11.2019
4468 Clouds 4 997 100 10000 1 0 12:57 14.11.2019
4469 Clouds 4 998 100 10000 1 0 12:38 14.11.2019
4470 Clouds 4 998 100 10000 1 0 12:38 14.11.2019
4471 Clouds 4 998 100 10000 1 0 12:38 14.11.2019
4472 Clouds 4 998 100 10000 1 0 12:20 14.11.2019
4473 Rain 4 998 86 10000 2.1 320 11:55 14.11.2019
4474 Rain 3 998 93 10000 4.6 310 11:36 14.11.2019
4475 Rain 3 998 93 10000 4.6 310 11:18 14.11.2019
4476 Rain 3 998 100 5000 1 0 10:42 14.11.2019
4477 Rain 3 998 100 5000 1 0 10:21 14.11.2019
4478 Rain 3 998 100 6000 1 0 09:59 14.11.2019
4479 Rain 3 998 100 3200 0.5 0 09:41 14.11.2019
4480 Rain 3 998 100 3200 0.5 0 09:41 14.11.2019
4481 Snow -2 1000 97 0 0.74 197 09:23 14.11.2019
4482 Snow -2 1000 97 0 0.74 197 08:49 14.11.2019
4483 Snow -2 1000 97 0 0.74 197 08:28 14.11.2019
4484 Snow -2 1000 98 0 3.15 195 07:59 14.11.2019
4485 Snow -2 1000 98 0 3.15 195 07:38 14.11.2019
4486 Snow -2 1000 98 0 3.15 195 07:20 14.11.2019
4487 Snow -2 1000 98 0 3.15 195 06:45 14.11.2019
4488 Snow -2 1000 98 0 3.15 195 06:19 14.11.2019
4489 Clouds -2 1002 93 0 3.05 199 04:49 14.11.2019
4490 Clouds -2 1002 93 0 3.05 199 04:27 14.11.2019
4491 Clouds -2 1002 93 0 3.05 199 02:49 14.11.2019
4492 Clouds -2 1002 93 0 3.05 199 02:28 14.11.2019
4493 Clouds -4 1006 86 0 1.53 192 01:34 14.11.2019
4494 Clouds -4 1006 74 0 2.06 195 00:55 14.11.2019
4495 Clouds -4 1006 74 0 2.06 195 00:34 14.11.2019
4496 Clouds -4 1006 74 0 2.06 195 23:58 13.11.2019
4497 Clouds -4 1006 74 0 2.06 195 23:37 13.11.2019
4498 Clouds -4 1009 53 0 0.26 54 23:18 13.11.2019
4499 Clouds -4 1009 53 0 0.26 54 22:41 13.11.2019
4500 Clouds 3 999 85 0 2.24 203 22:22 13.11.2019
4501 Clouds 2 999 85 0 2.68 184 21:57 13.11.2019
4502 Clouds 2 1000 87 0 1.79 210 21:39 13.11.2019
4503 Clouds 2 1000 88 0 1.79 217 21:20 13.11.2019
4504 Clouds 2 1000 88 0 1.79 217 20:57 13.11.2019
4505 Clouds 2 1000 87 0 1.34 170 20:38 13.11.2019
4506 Clouds 4 1008 55 0 2.2 14 20:19 13.11.2019
4507 Clouds 4 1008 57 0 2.2 14 19:58 13.11.2019
4508 Clouds 4 1012 50 0 2.2 14 19:40 13.11.2019
4509 Clouds 4 1000 88 0 2.2 14 19:18 13.11.2019
4510 Clouds 5 1000 88 0 2.2 14 18:55 13.11.2019
4511 Clouds 5 999 88 0 2.2 14 18:36 13.11.2019
4512 Clouds 6 1010 93 0 2.2 14 18:18 13.11.2019
4513 Clouds 6 1010 93 0 2.2 14 18:18 13.11.2019
4514 Clouds 6 1010 93 0 2.2 14 18:18 13.11.2019
4515 Clouds 7 1013 33 0 2.2 14 17:54 13.11.2019
4516 Clouds 7 1013 31 0 2.2 14 17:36 13.11.2019
4517 Clouds 8 1008 60 0 0.45 181 17:18 13.11.2019
4518 Clouds 8 1007 57 0 3.35 349 16:41 13.11.2019
4519 Clouds 8 1007 57 0 3.35 349 16:41 13.11.2019
4520 Clouds 9 1013 20 0 4.02 265 16:22 13.11.2019
4521 -273 0 0 0 0 0 15:59 13.11.2019
4522 Clouds 9 1012 30 0 3.58 230 15:41 13.11.2019
4523 Clouds 9 1012 29 0 3.13 263 15:23 13.11.2019
4524 Clouds 9 1012 28 0 3.58 238 14:59 13.11.2019
4525 Clouds 10 1012 28 0 2.68 220 14:59 13.11.2019
4526 Clouds 10 1012 27 0 3.13 265 14:37 13.11.2019
4527 Clouds 10 1007 42 0 0.45 297 14:19 13.11.2019
4528 Clouds 9 1006 43 0 0.89 63 13:37 13.11.2019
4529 Clouds 9 1006 46 0 0.89 226 13:19 13.11.2019
4530 Clouds 9 1009 89 0 3.12 338 12:58 13.11.2019
4531 Clouds 8 1006 52 0 0.89 29 12:38 13.11.2019
4532 Clouds 8 1006 57 0 3.12 338 12:20 13.11.2019
4533 Clouds 8 1006 57 0 3.12 338 12:20 13.11.2019
4534 Clouds 8 1006 56 0 3.12 338 11:41 13.11.2019
4535 Clouds 6 1011 49 0 1.34 215 11:21 13.11.2019
4536 Clouds 6 1006 62 0 3.32 356 10:59 13.11.2019
4537 Clouds 5 1006 66 0 3.32 356 10:41 13.11.2019
4538 Clouds 5 1006 65 0 3.32 356 10:41 13.11.2019
4539 Clouds 4 1005 64 0 3.32 356 10:21 13.11.2019
4540 Clouds 4 997 90 0 0.89 329 09:57 13.11.2019
4541 Clouds 4 997 90 0 1.79 4 09:39 13.11.2019
4542 Clouds 3 997 93 0 1.34 359 09:20 13.11.2019
4543 Clouds 3 1010 78 0 3.32 356 08:39 13.11.2019
4544 Clouds 3 1010 78 0 3.32 356 08:39 13.11.2019
4545 Clouds 2 996 90 0 2.83 25 08:20 13.11.2019
4546 Clouds 2 1004 71 0 2.77 24 07:43 13.11.2019
4547 Clouds 2 996 87 0 2.77 24 07:21 13.11.2019
4548 Clouds 2 996 86 0 0.45 23 06:47 13.11.2019
4549 Clouds 2 995 85 0 0.89 15 06:19 13.11.2019
4550 Clouds 2 995 85 0 0.89 15 06:19 13.11.2019
4551 Clouds 2 995 87 0 0.45 245 05:57 13.11.2019
4552 Clouds 2 995 85 0 2.77 24 05:38 13.11.2019
4553 Clouds 2 1003 77 0 2.67 28 04:44 13.11.2019
4554 Clouds 3 995 81 0 2.49 19 02:19 13.11.2019
4555 Clouds 3 996 80 0 0.45 20 01:46 13.11.2019
4556 Clouds 3 997 80 0 2.31 28 00:52 13.11.2019
4557 Clouds 3 997 80 0 0.45 354 00:34 13.11.2019
4558 Clouds 4 997 84 0 0.89 120 23:42 12.11.2019
4559 Clouds 4 998 84 0 0.45 39 23:22 12.11.2019
4560 Clouds 4 998 87 0 2.35 6 22:56 12.11.2019
4561 Clouds 4 998 84 0 2.35 6 22:37 12.11.2019
4562 Clouds 4 998 89 0 2.35 6 22:18 12.11.2019
4563 Clouds 4 998 86 0 2.35 6 21:43 12.11.2019
4564 Clouds 4 998 86 0 2.35 6 21:24 12.11.2019
4565 Clouds 5 998 87 0 0.89 23 20:57 12.11.2019
4566 Clouds 6 1011 47 0 2.35 6 20:37 12.11.2019
4567 Clouds 6 1006 67 0 3.03 358 20:19 12.11.2019
4568 Clouds 6 1007 67 0 3.03 358 19:57 12.11.2019
4569 Clouds 6 1007 69 0 3.03 358 19:39 12.11.2019
4570 Clouds 6 1007 68 0 3.03 358 19:19 12.11.2019
4571 Clouds 6 1007 68 0 3.03 358 18:58 12.11.2019
4572 Clouds 7 1011 47 0 3.03 358 18:39 12.11.2019
4573 Clouds 7 1007 69 0 3.03 358 18:21 12.11.2019
4574 Clouds 7 1011 44 0 3.03 358 17:57 12.11.2019
4575 Clouds 7 1007 66 0 3.03 358 17:39 12.11.2019
4576 Clouds 9 1011 44 0 2.7 346 17:21 12.11.2019
4577 Clouds 10 1007 63 0 2.7 346 16:56 12.11.2019
4578 Clouds 10 1007 58 0 0.45 283 16:38 12.11.2019
4579 Clouds 10 1007 57 0 0.45 39 16:20 12.11.2019
4580 Clouds 11 1008 59 0 0.45 228 15:41 12.11.2019
4581 Clouds 11 1008 59 0 2.7 346 15:21 12.11.2019
4582 Clouds 11 1008 57 0 2.7 346 14:56 12.11.2019
4583 Clouds 11 1008 54 0 1.34 194 14:37 12.11.2019
4584 Clouds 11 1008 52 0 3.5 354 14:18 12.11.2019
4585 Clouds 12 1013 26 0 3.5 354 13:55 12.11.2019
4586 Clouds 11 1014 29 0 3.5 354 13:36 12.11.2019
4587 Clouds 11 1014 31 0 3.92 355 13:18 12.11.2019
4588 Clouds 11 1014 31 0 3.8 355 13:18 12.11.2019
4589 Clouds 11 1014 31 0 3.8 355 13:18 12.11.2019
4590 Clouds 11 1010 48 0 0.89 19 12:40 12.11.2019
4591 Clouds 10 1010 44 0 0.45 290 12:19 12.11.2019
4592 Clouds 10 1015 29 0 3.92 355 11:56 12.11.2019
4593 Clouds 10 1015 21 0 3.8 355 11:38 12.11.2019
4594 Clouds 10 1010 45 0 0.89 290 11:38 12.11.2019
4595 Clouds 8 1015 38 0 3.12 351 11:20 12.11.2019
4596 Clouds 5 1002 93 0 2.24 3 10:55 12.11.2019
4597 Clouds 7 1015 39 0 3.12 351 10:36 12.11.2019
4598 Clouds 8 1010 55 0 3.12 351 10:18 12.11.2019
4599 Clouds 6 1011 63 0 3.12 351 09:39 12.11.2019
4600 Clouds 5 1011 65 0 3.12 351 09:20 12.11.2019
4601 Clouds 5 1011 63 0 3.12 351 08:50 12.11.2019
4602 Clouds 4 1011 61 0 0.45 293 08:29 12.11.2019
4603 Clouds 3 1011 61 0 3.94 357 07:43 12.11.2019
4604 Clouds 3 1011 61 0 3.94 357 07:25 12.11.2019
4605 Clouds 3 1011 68 0 3.94 357 06:54 12.11.2019
4606 Clouds 3 1016 68 0 3.94 357 06:28 12.11.2019
4607 Clouds 3 1011 64 0 3.94 357 05:56 12.11.2019
4608 Clouds 3 1011 59 0 4.04 0 04:59 12.11.2019
4609 Clouds 4 1011 60 0 4.04 0 04:35 12.11.2019
4610 Clouds 4 1017 49 0 4.04 0 02:39 12.11.2019
4611 Snow 4 1012 56 0 0.89 291 01:27 12.11.2019
4612 Snow 5 1018 41 0 2.24 277 00:56 12.11.2019
4613 Snow 5 1013 62 0 0.45 221 00:37 12.11.2019
4614 Snow 5 1018 49 0 2.68 288 23:55 11.11.2019
4615 Snow 5 1018 49 0 1.34 272 23:37 11.11.2019
4616 Snow 5 1013 59 0 0.45 18 23:18 11.11.2019
4617 Snow 5 1013 61 0 3.91 356 22:39 11.11.2019
4618 Snow 5 1018 42 0 2.68 227 22:20 11.11.2019
4619 Snow 5 1013 60 0 3.91 356 21:58 11.11.2019
4620 Snow 5 1018 32 0 3.58 283 21:39 11.11.2019
4621 Snow 5 1015 92 0 3.91 356 21:20 11.11.2019
4622 Snow 5 1015 92 0 3.91 356 21:20 11.11.2019
4623 Snow 5 1015 92 0 3.91 356 21:20 11.11.2019
4624 Snow 5 1013 72 0 2.24 292 20:55 11.11.2019
4625 Snow 5 1013 73 0 58.56 337 20:37 11.11.2019
4626 Clouds 5 1013 61 0 1.34 100 20:19 11.11.2019
4627 Clouds 6 1018 15 0 5.36 296 19:42 11.11.2019
4628 Clouds 6 1012 74 0 0.45 336 19:20 11.11.2019
4629 Clouds 6 1015 52 0 1.34 333 18:58 11.11.2019
4630 Clouds 6 1011 88 0 3.46 3 18:40 11.11.2019
4631 Clouds 6 1009 52 10000 3.6 240 18:20 11.11.2019
4632 Clouds 7 1009 52 10000 3.6 240 17:45 11.11.2019
4633 Clouds 8 1009 52 10000 3.6 240 17:27 11.11.2019
4634 Clouds 9 1008 45 10000 3.1 220 16:56 11.11.2019
4635 Clouds 9 1008 39 10000 2.1 210 16:38 11.11.2019
4636 Clouds 9 1008 39 10000 2.1 210 16:20 11.11.2019
4637 Clouds 10 1008 27 10000 1 0 15:41 11.11.2019
4638 Clouds 10 1008 27 10000 1 0 15:41 11.11.2019
4639 Clouds 10 1008 27 10000 1 0 15:20 11.11.2019
4640 Clouds 10 1008 27 10000 1 0 15:20 11.11.2019
4641 Clouds 10 1009 25 10000 1 0 14:55 11.11.2019
4642 Clouds 10 1009 25 10000 1 0 14:37 11.11.2019
4643 Clouds 11 1009 25 10000 1 0 14:18 11.11.2019
4644 Clouds 11 1010 34 10000 1.5 180 13:40 11.11.2019
4645 Clouds 11 1010 34 10000 1.5 180 13:21 11.11.2019
4646 Clouds 10 1011 39 10000 1 0 12:58 11.11.2019
4647 Clouds 10 1011 42 10000 1 0 12:40 11.11.2019
4648 Clouds 10 1011 42 10000 1 0 12:40 11.11.2019
4649 Clouds 9 1011 42 10000 1 0 12:22 11.11.2019
4650 Clouds 8 1012 45 10000 0.5 0 11:58 11.11.2019
4651 Clouds 7 1013 55 10000 0.5 0 11:39 11.11.2019
4652 Clouds 7 1013 55 10000 0.5 0 11:39 11.11.2019
4653 Clouds 6 1013 55 10000 0.5 0 11:21 11.11.2019
4654 Clouds 4 1013 59 10000 2.1 360 10:43 11.11.2019
4655 Clouds 3 1013 59 10000 2.1 360 10:19 11.11.2019
4656 Clouds 2 1013 55 10000 1 0 09:58 11.11.2019
4657 Clouds 2 1013 55 10000 1 0 09:58 11.11.2019
4658 Clouds 2 1013 40 10000 1 0 09:39 11.11.2019
4659 Clouds 2 1013 40 10000 1 0 09:19 11.11.2019
4660 Clouds 1 1014 58 0 2.68 18 08:41 11.11.2019
4661 Clouds 0 1004 67 0 3.9 16 08:22 11.11.2019
4662 Clouds 0 1004 87 0 4.12 20 07:57 11.11.2019
4663 Clouds 0 1004 89 0 0.45 193 07:37 11.11.2019
4664 Clouds 0 1004 88 0 4.12 20 07:18 11.11.2019
4665 Clouds 0 1004 69 0 4.12 20 06:47 11.11.2019
4666 Clouds 0 1004 56 0 0.45 1 06:22 11.11.2019
4667 Clouds 0 1004 59 0 0.45 7 05:51 11.11.2019
4668 Clouds 0 1018 77 0 4.66 16 04:30 11.11.2019
4669 Clouds 0 1019 76 0 4.66 16 03:23 11.11.2019
4670 Clouds 0 1015 66 0 4.17 15 02:24 11.11.2019
4671 Clouds 0 1015 68 0 4.17 15 01:56 11.11.2019
4672 Clouds 1 1014 71 0 4.13 17 01:34 11.11.2019
4673 Clouds 1 1004 94 0 4.13 17 00:49 11.11.2019
4674 Clouds 1 1014 68 0 0.45 160 00:49 11.11.2019
4675 Clouds 1 1014 69 0 4.13 17 00:21 11.11.2019
4676 Clouds 2 1013 68 0 4.13 17 23:40 10.11.2019
4677 Clouds 2 1013 68 0 4.13 17 23:40 10.11.2019
4678 Clouds 3 1014 66 0 4.81 10 23:20 10.11.2019
4679 Clouds 3 1018 56 0 4.81 10 22:58 10.11.2019
4680 Clouds 3 1014 65 0 0.45 290 22:38 10.11.2019
4681 Clouds 4 1014 66 0 0.45 350 22:20 10.11.2019
4682 Clouds 4 1014 66 0 0.45 350 22:20 10.11.2019
4683 Clouds 3 1019 56 0 2.24 302 21:58 10.11.2019
4684 Clouds 3 1019 56 0 2.24 302 21:58 10.11.2019
4685 Clouds 3 1013 68 0 0.45 61 21:39 10.11.2019
4686 Clouds 3 1013 67 0 0.89 293 21:21 10.11.2019
4687 Clouds 3 1013 67 0 0.45 232 20:56 10.11.2019
4688 Clouds 4 1013 63 0 1.34 319 20:37 10.11.2019
4689 Clouds 4 1013 66 0 4.27 1 20:19 10.11.2019
4690 Clouds 4 1018 56 0 1.34 270 19:54 10.11.2019
4691 Clouds 4 1012 68 0 4.27 1 19:36 10.11.2019
4692 Clouds 4 1012 69 0 0.45 4 19:18 10.11.2019
4693 Clouds 4 1012 69 0 0.45 4 19:18 10.11.2019
4694 Clouds 4 1014 93 0 4.27 1 18:54 10.11.2019
4695 Clouds 4 1011 70 0 0.89 209 18:36 10.11.2019
4696 Clouds 6 1008 36 10000 4.6 340 18:18 10.11.2019
4697 Clouds 6 1008 36 10000 4.6 340 17:54 10.11.2019
4698 Clouds 6 1008 36 10000 4.6 340 17:36 10.11.2019
4699 Clouds 7 1008 31 10000 3.6 340 17:18 10.11.2019
4700 Clouds 7 1008 31 10000 3.6 340 17:18 10.11.2019
4701 Clouds 7 1008 31 10000 5.1 350 16:43 10.11.2019
4702 Clouds 8 1008 31 10000 5.1 350 16:25 10.11.2019
4703 Clouds 8 1007 31 10000 2.6 0 15:56 10.11.2019
4704 Clouds 8 1007 31 10000 5.1 310 15:37 10.11.2019
4705 Clouds 9 1007 31 10000 5.1 310 15:18 10.11.2019
4706 Clouds 9 1007 31 10000 5.7 320 14:56 10.11.2019
4707 Clouds 9 1007 29 10000 3.1 310 14:38 10.11.2019
4708 Clouds 9 1007 29 10000 3.1 310 14:19 10.11.2019
4709 Clouds 9 1008 31 10000 2.6 0 13:44 10.11.2019
4710 Clouds 9 1008 31 10000 2.6 0 13:22 10.11.2019
4711 Clouds 9 1008 31 10000 2.6 0 13:22 10.11.2019
4712 Clouds 9 1008 34 10000 2.6 140 12:59 10.11.2019
4713 Clouds 9 1008 34 10000 2.1 0 12:40 10.11.2019
4714 Clouds 9 1009 36 10000 2.1 120 12:19 10.11.2019
4715 Clouds 8 1009 36 10000 2.1 120 11:55 10.11.2019
4716 Clouds 8 1009 56 10000 1 0 11:37 10.11.2019
4717 Clouds 6 1009 56 10000 1 0 11:18 10.11.2019
4718 Clouds 6 1009 60 10000 1.5 200 11:18 10.11.2019
4719 Clouds 6 1009 69 10000 1 0 10:42 10.11.2019
4720 Clouds 6 1009 69 10000 1 0 10:42 10.11.2019
4721 Clouds 5 1009 69 10000 1 0 10:20 10.11.2019
4722 Clouds 5 1009 60 10000 1 0 09:55 10.11.2019
4723 Clouds 4 1009 55 10000 1.5 160 09:37 10.11.2019
4724 Clouds 4 1009 55 10000 1.5 160 09:18 10.11.2019
4725 Clouds 3 1010 69 0 3.29 5 08:39 10.11.2019
4726 Snow 3 1010 67 0 0.45 246 08:19 10.11.2019
4727 Snow 3 1010 67 0 0.45 246 08:19 10.11.2019
4728 Snow 3 1014 64 0 3.6 360 07:44 10.11.2019
4729 Snow 3 1009 66 0 3.6 360 07:25 10.11.2019
4730 Snow 4 1009 62 0 0.89 136 06:38 10.11.2019
4731 Snow 4 1009 62 0 0.89 136 06:38 10.11.2019
4732 Snow 4 1014 56 0 3.6 360 05:44 10.11.2019
4733 Snow 5 1014 45 0 2.24 323 03:26 10.11.2019
4734 Snow 5 1009 92 0 0.45 183 02:18 10.11.2019
4735 Snow 5 1010 93 0 2.4 2 01:19 10.11.2019
4736 Snow 5 1010 93 0 2.4 2 00:41 10.11.2019
4737 Snow 5 1014 64 0 2.4 2 23:58 09.11.2019
4738 Snow 5 1014 63 0 2.4 2 23:37 09.11.2019
4739 Snow 5 1010 93 0 0.45 120 23:18 09.11.2019
4740 Snow 5 1011 92 0 1.62 352 22:41 09.11.2019
4741 Snow 5 1010 91 0 1.62 352 22:21 09.11.2019
4742 Snow 6 1011 91 0 1.62 352 21:56 09.11.2019
4743 Snow 6 1011 90 0 1.62 352 21:37 09.11.2019
4744 Snow 6 1011 90 0 1.62 352 21:19 09.11.2019
4745 Snow 6 1015 46 0 1.62 352 20:42 09.11.2019
4746 Clouds 6 1015 46 0 0.87 3 20:22 09.11.2019
4747 Clouds 6 1002 88 0 1.23 340 19:58 09.11.2019
4748 Clouds 6 1002 87 0 1.34 194 19:39 09.11.2019
4749 Clouds 6 1002 88 0 2.24 198 19:21 09.11.2019
4750 Clouds 6 1002 87 0 0.45 215 18:55 09.11.2019
4751 Clouds 6 1011 61 10000 4.1 230 18:36 09.11.2019
4752 Clouds 6 1011 61 10000 4.1 230 18:18 09.11.2019
4753 Clouds 7 1011 61 10000 4.1 230 17:41 09.11.2019
4754 Clouds 8 1011 61 10000 4.1 230 17:22 09.11.2019
4755 Clouds 8 1011 53 10000 3.6 220 16:55 09.11.2019
4756 Clouds 9 1011 77 10000 5.7 210 16:36 09.11.2019
4757 Clouds 10 1012 77 10000 4.6 220 16:18 09.11.2019
4758 Clouds 10 1012 37 10000 4.1 210 15:41 09.11.2019
4759 Clouds 10 1012 37 10000 4.1 210 15:23 09.11.2019
4760 Clouds 10 1012 43 10000 4.1 230 14:45 09.11.2019
4761 Clouds 10 1012 43 10000 4.1 230 14:22 09.11.2019
4762 Clouds 10 1012 40 10000 4.1 240 13:58 09.11.2019
4763 Clouds 10 1013 29 10000 5.1 250 13:39 09.11.2019
4764 Clouds 10 1013 29 10000 5.1 250 13:21 09.11.2019
4765 Clouds 10 1013 37 10000 3.6 250 12:56 09.11.2019
4766 Clouds 10 1013 37 10000 3.6 250 12:56 09.11.2019
4767 Clouds 10 1014 74 10000 1.5 230 12:38 09.11.2019
4768 Clouds 9 1014 74 10000 1.5 230 12:20 09.11.2019
4769 Clouds 8 1014 65 10000 1 0 11:47 09.11.2019
4770 Clouds 7 1014 65 10000 1 0 11:21 09.11.2019
4771 Clouds 6 1014 70 10000 1 0 10:56 09.11.2019
4772 Clouds 6 1014 81 10000 0.5 0 10:38 09.11.2019
4773 Clouds 6 1014 81 10000 0.5 0 10:18 09.11.2019
4774 Clouds 5 1014 81 10000 1 0 09:42 09.11.2019
4775 Clouds 4 1014 81 10000 1 0 09:20 09.11.2019
4776 Snow 3 1016 83 0 3.06 350 08:45 09.11.2019
4777 Snow 3 1019 73 0 3.12 351 08:25 09.11.2019
4778 Snow 3 1018 72 0 3.23 352 07:55 09.11.2019
4779 Snow 3 1015 89 0 3.23 352 07:37 09.11.2019
4780 Snow 3 1015 90 0 3.23 352 07:19 09.11.2019
4781 Snow 3 1015 90 0 3.23 352 06:43 09.11.2019
4782 Snow 3 1015 92 0 3.23 352 06:25 09.11.2019
4783 Snow 2 1015 89 0 3.23 352 05:40 09.11.2019
4784 Snow 3 1014 88 0 3.69 8 04:29 09.11.2019
4785 Snow 3 1014 93 0 3.69 8 02:49 09.11.2019
4786 Snow 3 1014 92 0 3.69 8 02:26 09.11.2019
4787 Snow 3 1014 94 0 2.97 357 01:18 09.11.2019
4788 Snow 3 1014 94 0 2.97 357 00:40 09.11.2019
4789 Snow 3 1013 93 0 2.97 357 00:22 09.11.2019
4790 Snow 3 1013 90 0 2.97 357 23:40 08.11.2019
4791 Snow 3 1013 93 0 2.58 338 23:22 08.11.2019
4792 Snow 3 1013 93 0 2.58 338 22:58 08.11.2019
4793 Snow 3 1013 93 0 2.58 338 22:38 08.11.2019
4794 Snow 3 1012 94 0 2.58 338 22:20 08.11.2019
4795 Snow 3 1012 94 0 2.58 338 21:42 08.11.2019
4796 Snow 4 1014 56 0 2.68 245 21:23 08.11.2019
4797 Snow 3 1012 94 0 2.58 338 21:23 08.11.2019
4798 Snow 3 1012 94 0 2.58 338 20:57 08.11.2019
4799 Snow 3 1013 57 0 4.02 306 20:39 08.11.2019
4800 Snow 3 1011 94 0 3.72 358 20:19 08.11.2019
4801 Snow 4 1011 93 0 3.72 358 19:40 08.11.2019
4802 Snow 4 1011 92 0 3.72 358 19:19 08.11.2019
4803 Snow 4 1012 60 0 3.72 358 18:57 08.11.2019
4804 Snow 5 1012 56 0 3.72 358 18:39 08.11.2019
4805 Snow 5 1012 56 0 3.72 358 18:39 08.11.2019
4806 Snow 5 1012 56 0 3.72 358 18:39 08.11.2019
4807 Clouds 4 1007 81 10000 4.1 220 18:21 08.11.2019
4808 Clouds 5 1007 81 10000 4.1 220 17:56 08.11.2019
4809 Clouds 6 1007 81 10000 4.1 220 17:38 08.11.2019
4810 Clouds 6 1006 75 10000 3.1 230 17:20 08.11.2019
4811 Clouds 6 1006 75 10000 3.1 230 16:59 08.11.2019
4812 Rain 6 1006 75 10000 4.6 290 16:40 08.11.2019
4813 Rain 6 1006 75 10000 4.6 290 16:40 08.11.2019
4814 Rain 6 1006 75 10000 4.6 290 16:21 08.11.2019
4815 Clouds 6 1005 52 10000 5.7 210 15:59 08.11.2019
4816 Clouds 6 1005 87 10000 5.1 190 15:40 08.11.2019
4817 Clouds 7 1005 87 10000 5.1 190 15:22 08.11.2019
4818 Clouds 7 1005 57 10000 5.7 200 14:56 08.11.2019
4819 Clouds 7 1005 87 10000 5.7 210 14:37 08.11.2019
4820 Clouds 7 1005 87 10000 5.7 210 14:37 08.11.2019
4821 Clouds 8 1005 78 10000 5.7 210 14:19 08.11.2019
4822 Clouds 7 1005 61 10000 3.1 220 13:58 08.11.2019
4823 Clouds 8 1006 69 10000 1.5 220 13:39 08.11.2019
4824 Clouds 7 1006 78 10000 1.5 220 13:19 08.11.2019
4825 Clouds 7 1006 70 10000 1 0 12:43 08.11.2019
4826 Clouds 7 1006 70 10000 1 0 12:24 08.11.2019
4827 Clouds 6 1006 75 10000 1 0 11:57 08.11.2019
4828 Clouds 5 1007 86 10000 1.5 210 11:38 08.11.2019
4829 Clouds 5 1007 86 10000 1.5 210 11:20 08.11.2019
4830 Clouds 5 1007 80 10000 0.5 0 10:56 08.11.2019
4831 Clouds 4 1007 100 10000 1 0 10:38 08.11.2019
4832 Clouds 4 1007 100 10000 1 0 10:20 08.11.2019
4833 Clouds 2 1007 100 10000 1.5 230 09:41 08.11.2019
4834 Clouds 2 1007 100 10000 1.5 230 09:20 08.11.2019
4835 Snow -1 1008 79 0 0.96 340 08:59 08.11.2019
4836 Snow -1 1008 79 0 0.96 340 08:37 08.11.2019
4837 Clouds -7 1008 88 0 1.19 342 08:18 08.11.2019
4838 Clouds -7 1008 88 0 1.19 342 07:40 08.11.2019
4839 Clouds -7 1008 88 0 1.19 342 07:22 08.11.2019
4840 Clouds -7 1008 88 0 1.19 342 06:41 08.11.2019
4841 Clouds -7 1008 88 0 1.19 342 06:41 08.11.2019
4842 Clouds -7 1008 88 0 1.19 342 06:21 08.11.2019
4843 Clouds -7 1008 88 0 1.19 342 05:55 08.11.2019
4844 Clouds -5 1007 88 0 1.62 20 05:21 08.11.2019
4845 Clouds -5 1007 88 0 1.62 20 03:44 08.11.2019
4846 Clouds -5 1007 88 0 1.62 20 03:21 08.11.2019
4847 Clouds -5 1007 88 0 1.62 20 02:42 08.11.2019
4848 Clouds -6 1008 88 0 2.15 41 01:47 08.11.2019
4849 Clouds -6 1008 88 0 2.15 41 01:22 08.11.2019
4850 Snow 3 996 91 0 2.58 26 00:24 08.11.2019
4851 Snow 3 996 91 0 2.58 26 00:24 08.11.2019
4852 Snow 3 996 91 0 2.58 26 23:58 07.11.2019
4853 Snow 3 996 91 0 2.58 26 23:40 07.11.2019
4854 Snow 3 996 92 0 1.86 12 23:21 07.11.2019
4855 Snow 3 1007 94 0 1.86 12 22:42 07.11.2019
4856 Snow 3 1007 94 0 1.86 12 22:21 07.11.2019
4857 Snow 3 1008 94 0 1.86 12 21:56 07.11.2019
4858 Snow 3 1011 66 0 1.86 12 21:37 07.11.2019
4859 Snow 3 1008 94 0 1.86 12 21:19 07.11.2019
4860 Snow 4 1010 63 0 1.86 12 20:55 07.11.2019
4861 Snow 4 1010 62 0 1.86 12 20:37 07.11.2019
4862 Snow 4 997 93 0 1.72 33 20:19 07.11.2019
4863 Snow 5 1011 59 0 1.72 33 19:41 07.11.2019
4864 Snow 5 1011 59 0 1.72 33 19:23 07.11.2019
4865 Snow 6 1011 56 0 1.72 33 18:58 07.11.2019
4866 Snow 4 997 86 0 1.72 33 18:40 07.11.2019
4867 Clouds 6 1006 65 10000 5.1 290 18:19 07.11.2019
4868 Clouds 6 1006 65 10000 5.1 290 17:59 07.11.2019
4869 Clouds 6 1006 65 10000 5.1 290 17:39 07.11.2019
4870 Clouds 7 1006 65 10000 5.1 290 17:20 07.11.2019
4871 Clouds 7 1005 81 10000 2.6 220 16:56 07.11.2019
4872 Clouds 7 1005 93 10000 3.6 210 16:38 07.11.2019
4873 Clouds 7 1005 93 10000 3.6 210 16:19 07.11.2019
4874 Rain 7 1005 87 10000 5.1 200 15:54 07.11.2019
4875 Clouds 7 1005 93 10000 1 0 15:36 07.11.2019
4876 Clouds 7 1005 93 10000 1 0 15:18 07.11.2019
4877 Clouds 7 1006 93 10000 2.1 70 14:41 07.11.2019
4878 Clouds 7 1006 93 10000 2.1 70 14:23 07.11.2019
4879 Clouds 7 1006 87 10000 1 0 13:56 07.11.2019
4880 Clouds 7 1007 87 10000 0.5 0 13:37 07.11.2019
4881 Clouds 8 1007 87 10000 0.5 0 13:19 07.11.2019
4882 Clouds 7 1007 93 10000 0.5 0 12:57 07.11.2019
4883 Clouds 7 1007 93 10000 0.5 0 12:39 07.11.2019
4884 Clouds 7 1007 93 10000 1.5 70 12:19 07.11.2019
4885 Clouds 7 1008 86 10000 0.5 0 11:42 07.11.2019
4886 Clouds 7 1008 86 10000 0.5 0 11:42 07.11.2019
4887 Rain 7 1008 100 8000 0.5 0 11:23 07.11.2019
4888 Clouds 7 1008 93 10000 0.5 0 10:44 07.11.2019
4889 Clouds 6 1008 93 10000 1 80 10:20 07.11.2019
4890 Fog 5 1008 93 10000 1.15 45 09:58 07.11.2019
4891 Fog 5 1008 93 10000 1.15 45 09:40 07.11.2019
4892 Fog 5 1008 93 10000 1 0 09:40 07.11.2019
4893 Fog 5 1008 93 10000 1 0 09:20 07.11.2019
4894 -273 0 0 0 0 0 08:46 07.11.2019
4895 -273 0 0 0 0 0 08:25 07.11.2019
4896 Clouds 4 999 91 0 1.83 28 08:25 07.11.2019
4897 Snow 4 1011 90 0 0.73 112 08:24 07.11.2019
4898 Clouds 4 999 93 0 2.19 36 07:58 07.11.2019
4899 Clouds 4 999 91 0 2.19 36 07:40 07.11.2019
4900 Clouds 4 999 90 0 2.19 36 07:20 07.11.2019
4901 Clouds 4 999 93 0 2.19 36 06:46 07.11.2019
4902 Clouds 3 999 91 0 2.19 36 06:25 07.11.2019
4903 Clouds 3 999 93 0 2.19 36 05:51 07.11.2019
4904 Clouds 3 999 83 0 2.19 36 05:32 07.11.2019
4905 Clouds 3 999 87 0 0.95 303 04:52 07.11.2019
4906 Clouds 3 999 90 0 0.89 211 04:31 07.11.2019
4907 Clear 3 1000 87 0 3.13 210 01:54 07.11.2019
4908 Clouds 3 1001 89 0 0.89 180 00:46 07.11.2019
4909 Clouds 3 1001 90 0 0.76 213 00:19 07.11.2019
4910 Clouds 4 1001 89 0 2.68 190 23:47 06.11.2019
4911 Clear 4 1002 89 0 1.79 204 23:21 06.11.2019
4912 Clear 4 1002 90 0 0.45 212 22:55 06.11.2019
4913 Clear 4 1002 90 0 0.72 71 22:37 06.11.2019
4914 Clear 5 1002 88 0 0.72 71 22:18 06.11.2019
4915 Clear 5 1002 91 0 0.72 71 21:42 06.11.2019
4916 Clear 5 1003 91 0 1.79 166 21:20 06.11.2019
4917 Clear 5 1003 91 0 0.45 190 20:58 06.11.2019
4918 Clear 5 1003 91 0 0.72 71 20:39 06.11.2019
4919 Clouds 6 1003 91 0 0.45 181 20:20 06.11.2019
4920 Clouds 7 1015 70 0 2.34 26 19:58 06.11.2019
4921 Clouds 7 1015 70 0 2.34 26 19:38 06.11.2019
4922 Clouds 7 1003 91 0 2.34 26 19:19 06.11.2019
4923 Clouds 7 1003 91 0 2.34 26 18:57 06.11.2019
4924 Clouds 7 1003 92 0 2.34 26 18:38 06.11.2019
4925 Clouds 8 1003 92 0 2.34 26 18:18 06.11.2019
4926 Clouds 6 1003 93 0 2.34 26 17:42 06.11.2019
4927 Snow 10 1014 58 0 1.81 332 17:24 06.11.2019
4928 Snow 10 1014 55 0 1.81 332 16:58 06.11.2019
4929 Snow 10 1014 53 0 1.81 332 16:39 06.11.2019
4930 Snow 11 1014 51 0 1.81 332 16:21 06.11.2019
4931 Snow 11 1014 53 0 1.81 332 15:58 06.11.2019
4932 Snow 11 1015 53 0 1.81 332 15:38 06.11.2019
4933 Snow 11 1015 51 0 1.81 332 15:19 06.11.2019
4934 Snow 11 1015 51 0 1.81 332 14:57 06.11.2019
4935 Snow 11 1015 52 0 1.81 332 14:39 06.11.2019
4936 Snow 11 1015 52 0 1.81 332 14:39 06.11.2019
4937 Snow 10 1015 50 0 2 315 14:21 06.11.2019
4938 Snow 10 1015 49 0 2 315 13:59 06.11.2019
4939 Snow 10 1011 83 0 2 315 13:37 06.11.2019
4940 Snow 10 1011 83 0 2 315 13:18 06.11.2019
4941 Snow 10 1011 79 0 1.92 305 12:55 06.11.2019
4942 Snow 9 1015 49 0 1.92 305 12:37 06.11.2019
4943 Snow 9 1011 79 0 1.92 305 12:18 06.11.2019
4944 Snow 9 1011 78 0 1.92 305 11:55 06.11.2019
4945 Snow 9 1011 82 0 1.92 305 11:36 06.11.2019
4946 Snow 8 1015 69 0 1.64 323 11:18 06.11.2019
4947 Snow 8 1011 87 0 1.64 323 10:42 06.11.2019
4948 Snow 7 1015 74 0 1.64 323 10:24 06.11.2019
4949 Snow 7 1010 89 0 1.64 323 09:58 06.11.2019
4950 Snow 7 1010 89 0 1.64 323 09:58 06.11.2019
4951 Snow 6 1015 74 0 1.64 323 09:40 06.11.2019
4952 Snow 5 1010 89 0 1.64 323 09:20 06.11.2019
4953 Snow 5 1015 73 0 1.64 323 08:55 06.11.2019
4954 Snow 4 1002 95 0 1.34 333 08:37 06.11.2019
4955 Snow 4 1001 95 0 1.79 359 08:18 06.11.2019
4956 Snow 4 1001 95 0 1.79 359 08:18 06.11.2019
4957 Snow 3 1009 89 0 2.13 343 07:45 06.11.2019
4958 Snow 3 1000 95 0 2.24 15 07:27 06.11.2019
4959 Snow 3 1000 95 0 3.58 25 06:52 06.11.2019
4960 Snow 3 999 95 0 2.24 309 06:34 06.11.2019
4961 Snow 3 999 95 0 3.13 10 05:50 06.11.2019
4962 Clouds 3 999 90 0 4.02 34 03:35 06.11.2019
4963 Clouds 4 1007 87 0 2.76 355 01:42 06.11.2019
4964 Clouds 4 999 85 0 2.27 350 00:47 06.11.2019
4965 Clouds 4 998 89 0 0.89 49 00:00 06.11.2019
4966 Clouds 4 1006 79 0 2.27 350 23:40 05.11.2019
4967 Snow 5 1006 86 0 2.03 354 23:22 05.11.2019
4968 Snow 5 998 78 0 2.03 354 22:57 05.11.2019
4969 Snow 5 998 84 0 1.34 354 22:38 05.11.2019
4970 Snow 5 998 93 0 2.03 354 22:18 05.11.2019
4971 Snow 6 1006 88 0 2.03 354 21:43 05.11.2019
4972 Snow 6 1005 85 0 2.03 354 21:22 05.11.2019
4973 Snow 6 1009 55 0 2.03 354 20:59 05.11.2019
4974 Snow 6 1005 89 0 2.03 354 20:39 05.11.2019
4975 Snow 6 1004 88 0 1.34 305 20:21 05.11.2019
4976 Snow 7 1009 45 0 1.34 305 19:58 05.11.2019
4977 Snow 7 1009 45 0 1.34 305 19:58 05.11.2019
4978 Snow 7 1004 85 0 1.34 305 19:38 05.11.2019
4979 Snow 7 1009 42 0 1.34 305 19:20 05.11.2019
4980 Snow 7 1004 89 0 1.34 305 18:58 05.11.2019
4981 Snow 7 1003 89 0 1.34 305 18:39 05.11.2019
4982 Snow 8 1003 88 0 1.34 305 18:20 05.11.2019
4983 Snow 8 1003 86 0 1.34 305 17:58 05.11.2019
4984 Snow 9 1007 48 0 1.34 305 17:39 05.11.2019
4985 Clouds 9 1002 75 0 2.21 239 17:18 05.11.2019
4986 Clouds 10 1002 75 0 2.21 239 16:55 05.11.2019
4987 Clouds 10 1001 71 0 2.21 239 16:37 05.11.2019
4988 Clouds 11 1006 28 0 2.68 222 16:18 05.11.2019
4989 Clouds 9 994 89 0 0.45 17 15:37 05.11.2019
4990 Clouds 10 994 86 0 2.21 239 15:19 05.11.2019
4991 Clouds 10 994 86 0 2.21 239 15:19 05.11.2019
4992 Clouds 10 994 90 0 2.21 239 14:57 05.11.2019
4993 Clouds 10 994 94 0 2.21 239 14:38 05.11.2019
4994 Clouds 10 994 94 0 2.21 239 14:38 05.11.2019
4995 Clouds 12 1005 16 0 3.58 215 14:20 05.11.2019
4996 Clouds 12 1005 12 0 2.68 198 13:43 05.11.2019
4997 Clouds 12 1003 69 0 1.34 202 13:24 05.11.2019
4998 Clouds 13 1005 12 0 3.13 231 12:59 05.11.2019
4999 Clouds 12 1001 70 0 0.45 26 12:39 05.11.2019
5000 Clouds 11 1002 73 0 2.81 214 12:19 05.11.2019
5001 Clouds 9 995 88 0 1.34 208 11:54 05.11.2019
5002 Clouds 11 1002 76 0 2.81 214 11:36 05.11.2019
5003 Clouds 11 1002 76 0 2.81 214 11:36 05.11.2019
5004 Clouds 9 995 89 0 1.34 221 11:18 05.11.2019
5005 Clouds 9 995 89 0 1.34 221 11:18 05.11.2019
5006 Clouds 9 1002 78 0 1.65 232 10:41 05.11.2019
5007 Clouds 8 1002 82 0 1.65 232 10:23 05.11.2019
5008 Clouds 8 1002 82 0 1.65 232 10:23 05.11.2019
5009 Clouds 7 994 92 0 1.65 232 09:57 05.11.2019
5010 Clouds 7 994 93 0 1.65 232 09:38 05.11.2019
5011 Clouds 6 1001 87 0 1.65 232 09:18 05.11.2019
5012 Clouds 6 1006 75 0 1.65 232 08:40 05.11.2019
5013 Snow 6 1001 84 0 1.63 226 08:20 05.11.2019
5014 Snow 6 993 90 0 1.63 226 07:58 05.11.2019
5015 Snow 6 1000 88 0 1.63 226 07:58 05.11.2019
5016 Snow 6 1006 75 0 1.63 226 07:40 05.11.2019
5017 Snow 6 1006 75 0 1.63 226 07:40 05.11.2019
5018 Snow 6 993 90 0 1.63 226 07:22 05.11.2019
5019 Snow 6 994 90 0 1.63 226 06:50 05.11.2019
5020 Snow 6 993 89 0 0.89 190 05:51 05.11.2019
5021 Snow 6 993 89 0 0.89 190 05:51 05.11.2019
5022 Rain 7 993 89 0 1.67 192 05:23 05.11.2019
5023 Rain 8 1000 76 0 1.67 192 04:31 05.11.2019
5024 Rain 9 1006 69 0 1.67 192 03:55 05.11.2019
5025 Rain 9 1006 71 0 2.24 300 02:48 05.11.2019
5026 Rain 9 1000 69 0 1.79 224 02:22 05.11.2019
5027 Rain 9 1007 69 0 2.58 189 01:25 05.11.2019
5028 Snow 9 1007 62 0 2.74 187 00:37 05.11.2019
5029 Snow 9 1007 59 0 2.74 187 23:56 04.11.2019
5030 Snow 10 1007 59 0 2.74 187 23:37 04.11.2019
5031 Rain 10 1001 79 0 1.34 198 23:18 04.11.2019
5032 Rain 10 1001 79 0 1.34 198 23:18 04.11.2019
5033 Rain 10 1001 77 0 3.89 208 22:42 04.11.2019
5034 Rain 10 1007 52 0 0.89 303 22:23 04.11.2019
5035 Rain 10 1007 51 0 3.89 208 21:56 04.11.2019
5036 Rain 10 1007 51 0 3.89 208 21:56 04.11.2019
5037 Rain 10 1005 93 0 3.89 208 21:38 04.11.2019
5038 Rain 10 1007 52 0 1.34 314 21:19 04.11.2019
5039 Rain 10 1007 49 0 3.89 208 20:58 04.11.2019
5040 Rain 10 1007 48 0 3.89 208 20:39 04.11.2019
5041 Rain 11 1002 83 0 1.34 110 20:21 04.11.2019
5042 Rain 11 1002 82 0 3.13 103 19:59 04.11.2019
5043 Rain 11 1002 84 0 3.58 143 19:40 04.11.2019
5044 Rain 11 1002 85 0 3.58 188 19:21 04.11.2019
5045 Rain 11 1002 90 0 2.44 191 18:57 04.11.2019
5046 Rain 11 1002 89 0 2.44 191 18:38 04.11.2019
5047 Clouds 12 1004 76 10000 2.1 10 18:19 04.11.2019
5048 Clouds 11 1004 76 10000 2.1 10 17:39 04.11.2019
5049 Clouds 12 1004 76 10000 2.1 10 17:39 04.11.2019
5050 Clouds 13 1004 76 10000 2.1 10 17:21 04.11.2019
5051 Clouds 13 1004 76 10000 1 0 16:57 04.11.2019
5052 Clouds 13 1004 76 10000 2.1 360 16:39 04.11.2019
5053 Clouds 14 1004 76 10000 2.1 360 16:20 04.11.2019
5054 Clouds 14 1004 76 10000 2.1 360 16:20 04.11.2019
5055 Clouds 13 1004 71 10000 2.6 350 15:54 04.11.2019
5056 Clouds 14 1004 71 10000 1.5 230 15:36 04.11.2019
5057 Clouds 14 1004 66 10000 2.1 260 15:18 04.11.2019
5058 Clouds 14 1005 71 10000 2.1 270 14:41 04.11.2019
5059 Clouds 15 1005 71 10000 2.1 270 14:21 04.11.2019
5060 Clouds 15 1005 71 10000 2.1 270 13:58 04.11.2019
5061 Clouds 15 1005 76 10000 1.5 240 13:40 04.11.2019
5062 Clouds 15 1005 76 10000 1.5 240 13:21 04.11.2019
5063 Clouds 15 1005 76 10000 1.5 240 13:21 04.11.2019
5064 Clouds 15 1006 76 10000 0.5 0 12:58 04.11.2019
5065 Clouds 14 1006 70 10000 1 0 12:39 04.11.2019
5066 Clouds 14 1006 70 10000 1 0 12:21 04.11.2019
5067 Clouds 14 1007 81 10000 1 0 11:55 04.11.2019
5068 Clouds 13 1007 87 10000 0.5 0 11:37 04.11.2019
5069 Clouds 11 1007 93 10000 1 0 11:18 04.11.2019
5070 Clouds 10 1007 93 10000 1.5 70 10:41 04.11.2019
5071 Clouds 9 1007 87 10000 1 0 10:23 04.11.2019
5072 Clouds 9 1007 100 10000 0.5 0 09:46 04.11.2019
5073 Clouds 8 1007 100 10000 0.5 0 09:28 04.11.2019
5074 Clouds 7 1007 91 0 2 211 08:59 04.11.2019
5075 Clouds 7 1000 89 0 0.89 214 08:38 04.11.2019
5076 Clouds 6 1000 89 0 0.89 207 08:19 04.11.2019
5077 Clouds 6 1000 89 0 0.89 207 08:19 04.11.2019
5078 Clouds 6 999 89 0 0.89 129 07:43 04.11.2019
5079 Clouds 6 999 90 0 0.89 200 07:21 04.11.2019
5080 Clouds 6 999 90 0 1.34 221 06:56 04.11.2019
5081 Clouds 6 999 89 0 2.68 186 06:18 04.11.2019
5082 Clouds 6 1000 89 0 1.34 170 05:46 04.11.2019
5083 Rain 6 1006 88 0 0.71 291 04:43 04.11.2019
5084 Rain 6 999 89 0 1.34 187 04:21 04.11.2019
5085 Rain 6 1007 85 0 0.71 291 02:25 04.11.2019
5086 Rain 6 999 86 0 2.68 214 01:21 04.11.2019
5087 Rain 5 1006 82 0 0.52 5 00:40 04.11.2019
5088 Rain 5 999 86 0 2.24 186 00:20 04.11.2019
5089 Rain 5 999 86 0 0.52 5 23:41 03.11.2019
5090 Clear 6 999 86 0 2.34 19 23:21 03.11.2019
5091 Clear 6 999 85 0 0.45 222 22:57 03.11.2019
5092 Clear 6 999 77 0 2.34 19 22:39 03.11.2019
5093 Clear 6 999 87 0 2.34 19 22:19 03.11.2019
5094 Clear 7 999 88 0 2.34 19 21:46 03.11.2019
5095 Clear 6 999 82 0 2.34 19 21:22 03.11.2019
5096 Clear 7 999 87 0 2.34 19 20:59 03.11.2019
5097 Clear 8 1009 39 0 2.34 19 20:38 03.11.2019
5098 Clear 8 1009 40 0 2.34 19 20:38 03.11.2019
5099 Clear 8 1009 39 0 2.34 19 20:38 03.11.2019
5100 Clouds 9 1009 39 0 2.95 10 20:20 03.11.2019
5101 Clouds 9 1009 39 0 2.95 10 19:58 03.11.2019
5102 Clouds 9 1000 67 0 2.95 10 19:39 03.11.2019
5103 Clouds 9 1009 37 0 2.95 10 19:21 03.11.2019
5104 Clouds 10 1008 25 0 2.24 134 18:58 03.11.2019
5105 Clouds 10 1008 25 0 2.24 134 18:38 03.11.2019
5106 Clouds 11 1002 92 10000 6.7 300 18:18 03.11.2019
5107 Clouds 11 1002 92 10000 6.7 300 17:55 03.11.2019
5108 Clouds 11 1002 92 10000 6.7 300 17:37 03.11.2019
5109 Clouds 12 1001 33 10000 4.6 0 17:18 03.11.2019
5110 Clouds 12 1001 33 10000 2.6 0 16:42 03.11.2019
5111 Clouds 13 1001 33 10000 2.6 0 16:22 03.11.2019
5112 Clouds 13 1001 33 10000 2.6 0 16:22 03.11.2019
5113 Clouds 13 1000 75 10000 4.1 280 15:59 03.11.2019
5114 Clouds 13 1000 33 10000 3.1 280 15:41 03.11.2019
5115 Clouds 13 1000 33 10000 3.1 280 15:23 03.11.2019
5116 Clouds 13 999 30 10000 6.2 290 14:56 03.11.2019
5117 Clouds 13 998 75 10000 4.1 0 14:37 03.11.2019
5118 Clouds 14 998 79 10000 4.1 0 14:18 03.11.2019
5119 Clouds 14 998 79 10000 4.1 0 14:18 03.11.2019
5120 Clouds 13 998 38 10000 2.6 0 13:43 03.11.2019
5121 Clouds 13 998 38 10000 2.6 0 13:20 03.11.2019
5122 Clouds 13 997 41 10000 4.1 230 12:58 03.11.2019
5123 Clouds 12 997 50 10000 3.1 220 12:37 03.11.2019
5124 Clouds 12 997 50 10000 3.1 220 12:37 03.11.2019
5125 Clouds 11 997 66 10000 3.1 210 12:18 03.11.2019
5126 Clouds 10 996 53 10000 3.6 0 11:42 03.11.2019
5127 Clouds 10 996 53 10000 3.6 0 11:22 03.11.2019
5128 Clouds 9 996 70 10000 2.6 0 10:56 03.11.2019
5129 Clouds 9 996 70 10000 2.6 0 10:37 03.11.2019
5130 Clouds 9 996 70 10000 2.6 0 10:19 03.11.2019
5131 Clouds 9 996 70 10000 2.6 0 10:19 03.11.2019
5132 Rain 9 994 100 6000 1 0 09:43 03.11.2019
5133 Rain 9 994 100 6000 1 0 09:43 03.11.2019
5134 Rain 9 994 100 6000 1 0 09:25 03.11.2019
5135 Snow 9 994 87 0 0.45 298 08:56 03.11.2019
5136 Snow 10 1002 33 0 7.6 248 08:37 03.11.2019
5137 Rain 10 991 87 0 0.89 120 08:19 03.11.2019
5138 Rain 10 992 90 0 2.87 203 07:45 03.11.2019
5139 Rain 10 992 85 0 0.89 236 07:22 03.11.2019
5140 Rain 10 992 84 0 2.87 203 06:39 03.11.2019
5141 Rain 10 988 86 0 0.89 128 05:55 03.11.2019
5142 Rain 10 996 79 0 1.34 149 05:37 03.11.2019
5143 Rain 10 993 79 0 0.89 109 04:55 03.11.2019
5144 Rain 10 997 76 0 3.56 213 04:26 03.11.2019
5145 Rain 11 998 76 0 3.56 213 03:23 03.11.2019
5146 Rain 11 999 75 0 1.34 346 02:29 03.11.2019
5147 Rain 11 1000 72 0 5.74 225 01:55 03.11.2019
5148 Rain 11 996 75 0 2.24 128 01:36 03.11.2019
5149 Rain 10 993 85 0 2.68 225 01:18 03.11.2019
5150 Rain 11 1000 69 0 5.17 217 00:38 03.11.2019
5151 Rain 10 993 82 0 2.24 248 00:20 03.11.2019
5152 Rain 10 994 83 0 4.02 183 23:55 02.11.2019
5153 Rain 10 994 82 0 3.58 221 23:36 02.11.2019
5154 Rain 11 999 76 0 0.45 257 23:18 02.11.2019
5155 Rain 11 999 76 0 0.45 257 23:18 02.11.2019
5156 Rain 11 1004 55 0 4.01 204 22:54 02.11.2019
5157 Rain 11 1004 52 0 4.01 204 22:36 02.11.2019
5158 Rain 12 1004 55 0 1.34 317 22:18 02.11.2019
5159 Rain 11 1005 56 0 4.01 204 21:55 02.11.2019
5160 Rain 11 1005 53 0 4.01 204 21:36 02.11.2019
5161 Rain 11 1005 55 0 2.24 287 21:18 02.11.2019
5162 Rain 11 1005 55 0 2.24 287 21:18 02.11.2019
5163 Rain 11 1006 54 0 1.34 289 20:41 02.11.2019
5164 Rain 12 1001 89 0 2.68 207 20:21 02.11.2019
5165 Rain 12 1002 90 0 2.68 207 19:59 02.11.2019
5166 Rain 12 1002 87 0 2.68 207 19:37 02.11.2019
5167 Rain 12 1002 92 0 2.68 207 19:18 02.11.2019
5168 Rain 11 1007 49 0 2.68 207 18:54 02.11.2019
5169 Rain 11 999 86 0 1.34 152 18:36 02.11.2019
5170 Clouds 13 1005 100 10000 1 0 18:18 02.11.2019
5171 Clouds 13 1005 100 10000 1 0 17:43 02.11.2019
5172 Clouds 14 1005 100 10000 1 0 17:25 02.11.2019
5173 Clouds 14 1005 93 0 1.5 220 16:59 02.11.2019
5174 Clouds 15 1005 87 10000 1 0 16:39 02.11.2019
5175 Rain 15 1005 87 10000 1.5 10 16:20 02.11.2019
5176 Clouds 15 1006 87 10000 1.5 70 15:43 02.11.2019
5177 Clouds 15 1006 87 10000 1.5 70 15:21 02.11.2019
5178 Clouds 15 1006 87 10000 0.5 0 14:57 02.11.2019
5179 Clouds 15 1007 87 10000 1 0 14:39 02.11.2019
5180 Clouds 15 1007 87 10000 1 0 14:21 02.11.2019
5181 Clouds 15 1008 87 10000 1.5 220 13:40 02.11.2019
5182 Clouds 15 1008 87 10000 1.5 220 13:20 02.11.2019
5183 Clouds 15 1008 87 10000 1 0 12:58 02.11.2019
5184 Clouds 15 1009 76 10000 1.5 0 12:38 02.11.2019
5185 Clouds 15 1009 87 10000 1.5 200 12:20 02.11.2019
5186 Clouds 15 1009 87 10000 1.5 200 12:20 02.11.2019
5187 Clouds 14 1010 87 10000 1.5 110 11:43 02.11.2019
5188 Clouds 14 1010 87 10000 1.5 110 11:24 02.11.2019
5189 Clouds 13 1010 87 10000 1 0 10:57 02.11.2019
5190 Clouds 13 1010 93 10000 0.5 0 10:39 02.11.2019
5191 Clouds 12 1010 93 10000 0.5 0 10:20 02.11.2019
5192 Fog 11 1011 100 1500 0.5 0 09:43 02.11.2019
5193 Fog 11 1011 100 1500 0.5 0 09:22 02.11.2019
5194 Clouds 9 1005 89 0 0.45 183 08:52 02.11.2019
5195 Clouds 9 1008 96 0 2.45 186 08:25 02.11.2019
5196 Clouds 8 1008 96 0 0.95 117 07:58 02.11.2019
5197 Clouds 8 1005 90 0 0.95 117 07:40 02.11.2019
5198 Clouds 8 1008 96 0 0.95 117 07:40 02.11.2019
5199 Clouds 8 1005 90 0 0.45 203 07:22 02.11.2019
5200 Clouds 8 1005 90 0 0.95 117 06:50 02.11.2019
5201 Clouds 9 1005 90 0 0.95 117 06:22 02.11.2019
5202 Clouds 9 1008 96 0 0.95 117 05:41 02.11.2019
5203 Clouds 9 1006 90 0 0.77 144 04:24 02.11.2019
5204 Clouds 10 1006 89 0 0.77 144 03:51 02.11.2019
5205 Clouds 10 1009 94 0 0.77 144 03:28 02.11.2019
5206 Clouds 11 1007 89 0 1.11 41 01:57 02.11.2019
5207 Clouds 11 1010 94 0 1.11 41 01:27 02.11.2019
5208 Clouds 11 1008 89 0 0.28 133 00:55 02.11.2019
5209 Clouds 11 1011 94 0 0.28 133 00:29 02.11.2019
5210 Clouds 11 1016 85 0 0.28 133 23:55 01.11.2019
5211 Clouds 11 1012 93 0 0.28 133 23:37 01.11.2019
5212 Clouds 11 1012 93 0 0.28 133 23:37 01.11.2019
5213 Rain 12 1012 93 0 0.41 339 23:18 01.11.2019
5214 Rain 11 1009 91 0 0.41 339 22:41 01.11.2019
5215 Rain 11 1012 93 0 0.41 339 22:41 01.11.2019
5216 Rain 11 1010 84 0 0.41 339 22:20 01.11.2019
5217 Rain 11 1012 91 0 0.41 339 21:42 01.11.2019
5218 Rain 11 1010 84 0 0.45 193 21:24 01.11.2019
5219 Rain 11 1009 86 0 1.34 195 20:59 01.11.2019
5220 Rain 11 1013 77 0 0.41 339 20:40 01.11.2019
5221 Clouds 11 1010 86 0 0.2 344 20:21 01.11.2019
5222 Clouds 12 1010 86 0 0.2 344 19:57 01.11.2019
5223 Clouds 12 1010 86 0 0.2 344 19:39 01.11.2019
5224 Clouds 12 1010 86 0 1.79 190 19:20 01.11.2019
5225 Clouds 12 1010 86 0 0.2 344 18:40 01.11.2019
5226 Clouds 13 1015 51 10000 0.5 0 18:21 01.11.2019
5227 Clouds 13 1015 51 10000 0.5 0 17:56 01.11.2019
5228 Clouds 13 1015 51 10000 0.5 0 17:56 01.11.2019
5229 Clouds 14 1015 51 10000 0.5 0 17:38 01.11.2019
5230 Clouds 14 1015 51 10000 0.5 0 17:19 01.11.2019
5231 Clouds 15 1015 58 10000 1.5 200 16:38 01.11.2019
5232 Clouds 15 1015 58 10000 1.5 200 16:20 01.11.2019
5233 Clouds 15 1015 47 10000 1 0 15:55 01.11.2019
5234 Clouds 15 1016 54 10000 1 0 15:36 01.11.2019
5235 Clouds 15 1016 54 10000 1 0 15:18 01.11.2019
5236 Clouds 15 1017 50 10000 1 0 14:41 01.11.2019
5237 Clouds 15 1017 50 10000 1 0 14:41 01.11.2019
5238 Clouds 15 1017 50 10000 1 0 14:23 01.11.2019
5239 Clouds 15 1017 54 10000 0.5 0 13:57 01.11.2019
5240 Clouds 15 1017 54 10000 0.5 0 13:57 01.11.2019
5241 Clouds 15 1017 58 10000 1.5 200 13:38 01.11.2019
5242 Clouds 15 1017 58 10000 1.5 200 13:20 01.11.2019
5243 Clouds 14 1019 58 10000 1.5 70 12:43 01.11.2019
5244 Clouds 14 1019 58 10000 1.5 70 12:25 01.11.2019
5245 Clouds 13 1019 62 10000 1 0 11:56 01.11.2019
5246 Clouds 13 1020 71 10000 1.5 70 11:38 01.11.2019
5247 Clouds 12 1020 71 10000 1.5 70 11:19 01.11.2019
5248 Clouds 11 1020 81 10000 0.5 0 10:41 01.11.2019
5249 Clouds 10 1020 81 10000 0.5 0 10:21 01.11.2019
5250 Clouds 9 1020 75 10000 0.5 0 09:57 01.11.2019
5251 Clouds 9 1020 87 10000 0.5 0 09:38 01.11.2019
5252 Clouds 9 1020 87 10000 0.5 0 09:19 01.11.2019
5253 Clouds 9 1020 87 10000 0.5 0 09:19 01.11.2019
5254 Clouds 8 1018 74 0 0.85 18 08:42 01.11.2019
5255 Clouds 7 1014 84 0 1.72 25 08:22 01.11.2019
5256 Clouds 7 1014 84 0 1.72 25 08:22 01.11.2019
5257 Clouds 7 1014 84 0 1.93 21 08:22 01.11.2019
5258 Clouds 7 1014 79 0 1.93 21 07:55 01.11.2019
5259 Clouds 7 1014 77 0 1.93 21 07:36 01.11.2019
5260 Clouds 7 1014 82 0 1.93 21 07:18 01.11.2019
5261 Clouds 7 1014 82 0 1.93 21 07:18 01.11.2019
5262 Clouds 7 1014 81 0 1.93 21 06:40 01.11.2019
5263 Clouds 7 1014 69 0 1.93 21 06:21 01.11.2019
5264 Clouds 7 1017 78 0 1.93 21 05:43 01.11.2019
5265 Clouds 7 1015 85 0 1.95 22 03:34 01.11.2019
5266 Clouds 7 1015 85 0 1.95 22 03:34 01.11.2019
5267 Clouds 8 1015 85 0 2.22 22 01:56 01.11.2019
5268 Clouds 8 1019 74 0 2.16 16 01:28 01.11.2019
5269 Clouds 8 1017 85 0 2.16 16 00:21 01.11.2019
5270 Clouds 9 1016 84 0 2.16 16 23:56 31.10.2019
5271 Clouds 9 1016 85 0 2.16 16 23:38 31.10.2019
5272 Clouds 9 1016 86 0 2.85 16 23:19 31.10.2019
5273 Clouds 10 1019 72 0 2.85 16 22:42 31.10.2019
5274 Clouds 10 1017 87 0 2.85 16 22:24 31.10.2019
5275 Clouds 11 1019 75 0 2.85 16 21:58 31.10.2019
5276 Clouds 11 1025 73 0 2.85 16 21:40 31.10.2019
5277 Clouds 11 1025 72 0 2.85 16 21:19 31.10.2019
5278 Clouds 11 1025 71 0 2.85 16 20:41 31.10.2019
5279 Rain 12 1025 70 0 2.85 9 20:23 31.10.2019
5280 Rain 12 1019 76 0 2.85 9 19:59 31.10.2019
5281 Rain 12 1025 69 0 2.85 9 19:39 31.10.2019
5282 Rain 12 1025 68 0 2.85 9 19:21 31.10.2019
5283 Rain 13 1025 63 0 2.85 9 18:44 31.10.2019
5284 Clouds 14 1019 67 10000 2.1 220 18:26 31.10.2019
5285 Clouds 14 1019 67 10000 2.1 220 17:59 31.10.2019
5286 Clouds 14 1019 67 10000 2.1 220 17:41 31.10.2019
5287 Clouds 15 1019 67 10000 2.1 220 17:20 31.10.2019
5288 Clouds 15 1019 37 10000 4.6 290 16:55 31.10.2019
5289 Clouds 16 1019 39 10000 5.1 290 16:37 31.10.2019
5290 Clouds 16 1019 39 10000 5.1 290 16:18 31.10.2019
5291 Clouds 16 1019 42 10000 3.1 250 15:40 31.10.2019
5292 Clouds 16 1019 42 10000 3.1 250 15:22 31.10.2019
5293 Clouds 16 1019 59 10000 2.6 200 14:59 31.10.2019
5294 Clouds 16 1019 63 10000 1.5 0 14:41 31.10.2019
5295 Clouds 16 1019 63 10000 1.5 0 14:22 31.10.2019
5296 Clouds 16 1020 72 10000 1.5 0 13:59 31.10.2019
5297 Clouds 16 1020 72 10000 0.5 0 13:39 31.10.2019
5298 Clouds 16 1021 82 10000 1 0 13:19 31.10.2019
5299 Clouds 16 1021 82 10000 1 0 12:55 31.10.2019
5300 Clouds 15 1021 82 10000 0.5 0 12:37 31.10.2019
5301 Clouds 15 1021 93 10000 1 0 12:18 31.10.2019
5302 Clouds 15 1022 87 10000 1 0 11:45 31.10.2019
5303 Clouds 14 1022 87 10000 1 0 11:20 31.10.2019
5304 Clouds 14 1021 87 10000 1.5 80 10:58 31.10.2019
5305 Clouds 14 1021 87 10000 1.5 80 10:58 31.10.2019
5306 Clouds 13 1022 100 10000 1 80 10:39 31.10.2019
5307 Clouds 13 1022 100 10000 1 80 10:20 31.10.2019
5308 Clouds 12 1021 100 10000 0.5 0 09:46 31.10.2019
5309 Rain 12 1018 92 0 1.61 6 09:20 31.10.2019
5310 Clouds 12 1021 100 10000 0.5 0 09:20 31.10.2019
5311 Rain 12 1018 92 0 1.61 6 08:57 31.10.2019
5312 Rain 11 1016 85 0 1.61 6 08:39 31.10.2019
5313 Rain 11 1016 83 0 1.91 355 08:20 31.10.2019
5314 Rain 11 1017 89 0 1.91 355 07:45 31.10.2019
5315 Rain 11 1016 84 0 1.91 355 07:24 31.10.2019
5316 Rain 11 1016 84 0 1.91 355 06:50 31.10.2019
5317 Rain 11 1017 87 0 1.91 355 06:30 31.10.2019
5318 Clouds 11 1016 88 0 1.99 25 05:18 31.10.2019
5319 Clouds 11 1016 88 0 1.99 25 05:18 31.10.2019
5320 Clouds 11 1018 87 0 1.99 25 02:47 31.10.2019
5321 Clouds 11 1017 84 0 1.2 28 02:22 31.10.2019
5322 Clouds 11 1017 84 0 1.2 28 02:22 31.10.2019
5323 Clouds 11 1017 82 0 1.45 29 00:47 31.10.2019
5324 Clouds 11 1017 82 0 1.45 29 00:24 31.10.2019
5325 Clouds 12 1018 82 0 1.45 29 23:34 30.10.2019
5326 Clouds 12 1018 86 0 1.08 20 22:59 30.10.2019
5327 Clouds 12 1018 81 0 1.08 20 22:39 30.10.2019
5328 Clouds 12 1018 81 0 1.08 20 22:19 30.10.2019
5329 Clouds 12 1019 83 0 1.08 20 21:54 30.10.2019
5330 Clouds 12 1018 82 0 1.08 20 21:36 30.10.2019
5331 Clouds 12 1018 82 0 1.08 20 21:36 30.10.2019
5332 Clouds 12 1018 82 0 1.08 20 21:18 30.10.2019
5333 Clouds 12 1017 82 0 1.08 20 20:42 30.10.2019
5334 Clouds 12 1017 82 0 1.31 359 20:22 30.10.2019
5335 Clouds 12 1018 82 0 1.31 359 19:59 30.10.2019
5336 Clouds 13 1017 82 0 1.31 359 19:39 30.10.2019
5337 Clouds 13 1018 81 0 1.31 359 19:21 30.10.2019
5338 Clouds 13 1018 81 0 1.31 359 18:58 30.10.2019
5339 Clouds 12 1017 81 0 1.31 359 18:37 30.10.2019
5340 Clouds 12 1017 82 0 1.31 359 18:18 30.10.2019
5341 Clouds 11 1017 84 0 1.31 359 17:42 30.10.2019
5342 Clouds 17 1022 25 0 0.89 329 17:21 30.10.2019
5343 Clouds 18 1017 70 0 1.58 230 16:59 30.10.2019
5344 Clouds 18 1021 17 0 0.89 170 16:41 30.10.2019
5345 Clouds 19 1017 62 0 1.58 230 16:22 30.10.2019
5346 Clouds 18 1017 62 0 1.58 230 15:57 30.10.2019
5347 Clouds 18 1017 66 0 1.58 230 15:38 30.10.2019
5348 Clouds 19 1017 64 0 1.58 230 15:19 30.10.2019
5349 Clouds 19 1017 59 0 1.58 230 14:56 30.10.2019
5350 Clouds 19 1017 59 0 1.58 230 14:56 30.10.2019
5351 Clouds 19 1021 8 0 2.68 262 14:38 30.10.2019
5352 Clouds 19 1017 59 0 2.04 214 14:19 30.10.2019
5353 Clouds 19 1018 64 0 2.04 214 13:42 30.10.2019
5354 Clouds 18 1018 67 0 2.19 223 13:21 30.10.2019
5355 Clouds 18 1018 65 0 2.19 223 12:59 30.10.2019
5356 Clouds 18 1018 65 0 2.19 223 12:59 30.10.2019
5357 Clouds 18 1019 68 0 2.19 223 12:41 30.10.2019
5358 Clouds 18 1019 69 0 2.19 223 12:23 30.10.2019
5359 Clouds 17 1019 66 0 2.19 223 11:43 30.10.2019
5360 Clouds 15 1019 68 0 0.96 197 11:25 30.10.2019
5361 Clouds 15 1019 73 0 0.96 197 10:58 30.10.2019
5362 Clouds 14 1019 73 0 0.96 197 10:39 30.10.2019
5363 Clouds 14 1019 75 0 0.96 197 10:20 30.10.2019
5364 Clouds 12 1019 82 0 0.96 197 09:40 30.10.2019
5365 Clouds 11 1019 85 0 0.96 197 09:22 30.10.2019
5366 Clouds 11 1019 86 0 0.96 197 08:55 30.10.2019
5367 Clouds 11 1024 73 0 0.62 185 08:37 30.10.2019
5368 Clouds 9 1018 83 0 1.24 35 08:18 30.10.2019
5369 Clouds 8 1019 85 0 1.24 35 07:43 30.10.2019
5370 Clouds 8 1017 83 0 1.24 35 06:56 30.10.2019
5371 Clouds 8 1017 83 0 1.24 35 06:56 30.10.2019
5372 Clouds 8 1017 82 0 1.24 35 06:37 30.10.2019
5373 Clouds 8 1019 83 0 1.24 35 05:56 30.10.2019
5374 Clouds 8 1017 83 0 1.24 35 05:37 30.10.2019
5375 Clear 8 1017 82 0 0.76 44 03:51 30.10.2019
5376 Clear 8 1017 81 0 0.76 44 03:21 30.10.2019
5377 Clear 9 1019 80 0 0.76 44 02:48 30.10.2019
5378 Clear 9 1019 78 0 0.77 44 01:43 30.10.2019
5379 Clouds 10 1018 79 0 0.45 174 00:37 30.10.2019
5380 Clouds 10 1019 76 0 1.14 36 00:18 30.10.2019
5381 Clouds 10 1017 80 0 1.14 36 23:39 29.10.2019
5382 Clouds 10 1018 79 0 1.72 45 23:18 29.10.2019
5383 Clouds 11 1018 79 0 1.72 45 22:41 29.10.2019
5384 Clouds 11 1018 79 0 1.72 45 22:19 29.10.2019
5385 Clouds 11 1018 79 0 1.72 45 21:55 29.10.2019
5386 Clouds 11 1018 78 0 1.72 45 21:36 29.10.2019
5387 Clouds 11 1018 78 0 1.72 45 21:18 29.10.2019
5388 Clouds 12 1017 78 0 1.72 45 20:42 29.10.2019
5389 Rain 12 1017 78 0 1.28 27 20:22 29.10.2019
5390 Rain 12 1017 69 0 1.28 27 19:58 29.10.2019
5391 Rain 12 1017 78 0 1.28 27 19:58 29.10.2019
5392 Rain 12 1017 78 0 1.28 27 19:39 29.10.2019
5393 Rain 13 1017 79 0 1.28 27 19:20 29.10.2019
5394 Rain 12 1017 79 0 1.28 27 18:57 29.10.2019
5395 Rain 12 1017 81 0 1.28 27 18:38 29.10.2019
5396 Rain 13 1017 80 0 1.28 27 18:19 29.10.2019
5397 Rain 12 1016 78 0 1.28 27 17:56 29.10.2019
5398 Rain 14 1016 75 0 1.28 27 17:37 29.10.2019
5399 Rain 14 1016 75 0 1.28 27 17:37 29.10.2019
5400 Rain 17 1015 57 0 1.46 235 17:19 29.10.2019
5401 Rain 19 1019 9 0 1.46 235 16:40 29.10.2019
5402 Rain 20 1019 8 0 1.34 197 16:21 29.10.2019
5403 Rain 20 1019 8 0 1.34 234 15:57 29.10.2019
5404 Rain 20 1019 8 0 2.24 212 15:39 29.10.2019
5405 Rain 21 1016 73 0 1.46 235 15:20 29.10.2019
5406 Rain 21 1016 73 0 1.46 235 15:20 29.10.2019
5407 Rain 20 1018 8 0 2.24 210 14:55 29.10.2019
5408 Rain 21 1018 8 0 2.68 194 14:37 29.10.2019
5409 Rain 20 1015 53 0 1.5 209 14:19 29.10.2019
5410 Rain 20 1015 53 0 1.5 209 14:19 29.10.2019
5411 Rain 19 1015 53 0 1.5 209 13:40 29.10.2019
5412 Rain 19 1015 52 0 0.96 224 13:22 29.10.2019
5413 Rain 19 1016 57 0 0.96 224 12:46 29.10.2019
5414 Rain 18 1016 63 0 0.96 224 12:27 29.10.2019
5415 Rain 17 1016 64 0 0.96 224 11:59 29.10.2019
5416 Rain 17 1016 67 0 0.96 224 11:41 29.10.2019
5417 Clouds 16 1016 68 0 0.71 30 11:20 29.10.2019
5418 Clouds 15 1017 69 0 0.71 30 10:57 29.10.2019
5419 Clouds 13 1017 71 0 0.71 30 10:38 29.10.2019
5420 Clouds 12 1017 70 0 0.71 30 10:20 29.10.2019
5421 Clouds 11 1021 39 0 0.71 30 09:55 29.10.2019
5422 Clouds 11 1017 77 0 0.71 30 09:37 29.10.2019
5423 Clouds 11 1017 79 0 0.71 30 09:19 29.10.2019
5424 Clouds 11 1017 79 0 0.71 30 09:19 29.10.2019
5425 Clouds 9 1020 57 0 0.71 30 08:43 29.10.2019
5426 Clouds 8 1015 80 0 2.49 24 08:24 29.10.2019
5427 Clouds 7 1015 79 0 2.49 24 07:54 29.10.2019
5428 Clouds 7 1014 79 0 2.49 24 07:36 29.10.2019
5429 Clouds 7 1014 79 0 2.49 24 07:18 29.10.2019
5430 Clouds 8 1015 77 0 2.49 24 06:42 29.10.2019
5431 Clouds 8 1014 78 0 2.49 24 06:20 29.10.2019
5432 Clouds 8 1014 77 0 2.49 24 05:50 29.10.2019
5433 Clouds 8 1014 74 0 1.92 32 05:19 29.10.2019
5434 Clouds 8 1014 74 0 1.92 32 03:55 29.10.2019
5435 Clouds 9 1014 75 0 1.92 32 02:32 29.10.2019
5436 Clouds 9 1015 75 0 1.91 35 01:43 29.10.2019
5437 Clouds 10 1015 73 0 2.1 33 00:57 29.10.2019
5438 Clouds 10 1015 74 0 2.1 33 00:30 29.10.2019
5439 Clouds 10 1015 70 0 2.1 33 23:41 28.10.2019
5440 Clouds 11 1015 72 0 2.41 33 23:20 28.10.2019
5441 Clouds 11 1015 70 0 2.41 33 22:57 28.10.2019
5442 Clouds 11 1015 65 0 2.41 33 22:36 28.10.2019
5443 Clouds 11 1015 72 0 2.41 33 22:18 28.10.2019
5444 Clouds 11 1015 65 0 2.41 33 21:54 28.10.2019
5445 Clouds 11 1015 71 0 2.41 33 21:36 28.10.2019
5446 Clouds 11 1016 78 0 2.41 33 21:18 28.10.2019
5447 Clouds 12 1015 72 0 2.41 33 20:41 28.10.2019
5448 Clouds 12 1015 73 0 1.08 31 20:23 28.10.2019
5449 Clouds 12 1016 75 0 1.08 31 19:55 28.10.2019
5450 Clouds 12 1015 71 0 1.08 31 19:37 28.10.2019
5451 Clouds 13 1015 71 0 1.08 31 19:18 28.10.2019
5452 Clouds 13 1015 71 0 1.08 31 18:57 28.10.2019
5453 Clouds 13 1015 72 0 1.08 31 18:38 28.10.2019
5454 Clouds 14 1018 76 10000 1.5 210 18:20 28.10.2019
5455 Clouds 14 1018 76 10000 1.5 210 17:56 28.10.2019
5456 Clouds 14 1018 76 10000 1.5 210 17:37 28.10.2019
5457 Clouds 15 1018 72 10000 1 0 17:18 28.10.2019
5458 Clouds 15 1018 72 10000 1 0 16:54 28.10.2019
5459 Clouds 15 1018 72 10000 2.1 300 16:36 28.10.2019
5460 Clouds 15 1018 72 10000 2.1 300 16:36 28.10.2019
5461 Clouds 15 1018 72 10000 2.1 300 16:18 28.10.2019
5462 Clouds 15 1018 72 10000 1.03 228 15:55 28.10.2019
5463 Clouds 16 1018 72 10000 1 0 15:37 28.10.2019
5464 Clouds 16 1018 72 10000 1 0 15:18 28.10.2019
5465 Clouds 16 1018 67 10000 1 0 14:54 28.10.2019
5466 Clouds 16 1019 71 10000 2.1 200 14:36 28.10.2019
5467 Clouds 16 1019 67 10000 1 0 14:18 28.10.2019
5468 Clouds 15 1019 71 10000 1 0 13:41 28.10.2019
5469 Clouds 15 1019 71 10000 1 0 13:18 28.10.2019
5470 Clouds 15 1020 76 10000 1.79 253 12:43 28.10.2019
5471 Clouds 15 1020 76 10000 1.79 253 12:22 28.10.2019
5472 Clouds 14 1020 87 10000 1 0 11:59 28.10.2019
5473 Clouds 13 1020 87 10000 0.5 0 11:38 28.10.2019
5474 Clouds 13 1020 100 10000 1 0 11:19 28.10.2019
5475 Clouds 12 1020 93 10000 2.1 20 10:41 28.10.2019
5476 Clouds 11 1020 93 10000 2.1 20 10:22 28.10.2019
5477 Clouds 11 1021 100 10000 1.5 30 09:58 28.10.2019
5478 Clouds 10 1021 100 10000 0.5 0 09:39 28.10.2019
5479 Clouds 10 1017 81 0 0.49 314 09:19 28.10.2019
5480 Clouds 10 1021 53 0 0.87 1 08:57 28.10.2019
5481 Clouds 9 1021 54 0 0.87 1 08:38 28.10.2019
5482 Clouds 9 1016 73 0 1.14 28 08:19 28.10.2019
5483 Clouds 9 1016 73 0 1.14 28 07:56 28.10.2019
5484 Clouds 9 1016 67 0 1.14 28 07:38 28.10.2019
5485 Clouds 9 1017 83 0 1.14 28 07:19 28.10.2019
5486 Clouds 9 1016 60 0 1.14 28 06:40 28.10.2019
5487 Clouds 9 1017 83 0 1.14 28 05:41 28.10.2019
5488 Clouds 9 1018 82 0 0.98 22 03:48 28.10.2019
5489 Clouds 9 1018 83 0 0.98 22 02:46 28.10.2019
5490 Clouds 9 1019 82 0 0.98 22 02:27 28.10.2019
5491 Clouds 10 1019 80 0 0.7 14 00:57 28.10.2019
5492 Clouds 10 1018 76 0 0.7 14 00:33 28.10.2019
5493 Clouds 10 1019 73 0 0.7 14 23:47 27.10.2019
5494 Clouds 10 1019 74 0 0.66 81 23:24 27.10.2019
5495 Clouds 10 1019 73 0 0.66 81 22:58 27.10.2019
5496 Clouds 10 1021 80 0 0.66 81 22:58 27.10.2019
5497 Clouds 10 1019 73 0 0.66 81 22:39 27.10.2019
5498 Clouds 11 1021 79 0 0.66 81 22:21 27.10.2019
5499 Clouds 11 1021 79 0 0.66 81 22:21 27.10.2019
5500 Clouds 11 1021 79 0 0.66 81 21:57 27.10.2019
5501 Clouds 11 1019 74 0 0.66 81 21:39 27.10.2019
5502 Clouds 11 1019 75 0 0.66 81 21:20 27.10.2019
5503 Clouds 11 1019 75 0 0.66 81 20:56 27.10.2019
5504 Clouds 12 1019 74 0 0.66 81 20:38 27.10.2019
5505 Clouds 12 1019 77 0 1 19 20:19 27.10.2019
5506 Clouds 13 1020 75 0 1 19 19:40 27.10.2019
5507 Clouds 13 1019 78 0 1 19 19:21 27.10.2019
5508 Clouds 14 1020 75 0 1 19 18:58 27.10.2019
5509 Clouds 14 1019 77 0 1 19 18:40 27.10.2019
5510 Clouds 17 1021 55 10000 1.5 220 18:22 27.10.2019
5511 Clouds 15 1021 55 10000 1.5 220 17:58 27.10.2019
5512 Clouds 14 1021 55 10000 1.5 220 17:39 27.10.2019
5513 Clouds 14 1021 55 10000 1.5 220 17:39 27.10.2019
5514 Clouds 17 1021 55 10000 1 0 17:19 27.10.2019
5515 Clouds 17 1021 55 10000 1 0 16:57 27.10.2019
5516 Clouds 19 1021 52 10000 1 0 16:38 27.10.2019
5517 Clouds 18 1021 52 10000 1 0 16:20 27.10.2019
5518 Clouds 19 1021 48 10000 1.5 210 15:55 27.10.2019
5519 Clouds 19 1021 48 10000 1.5 0 15:37 27.10.2019
5520 Clouds 20 1021 48 10000 1.5 0 15:19 27.10.2019
5521 Clouds 20 1022 52 10000 1 0 14:42 27.10.2019
5522 Clear 19 1022 52 10000 1 0 14:20 27.10.2019
5523 Clear 20 1023 59 10000 1 0 13:57 27.10.2019
5524 Clear 19 1023 59 10000 1 0 13:38 27.10.2019
5525 Clouds 18 1023 59 10000 1 0 13:19 27.10.2019
5526 Clouds 18 1024 58 10000 1 0 12:45 27.10.2019
5527 Clouds 17 1024 58 10000 1 0 12:24 27.10.2019
5528 Clouds 16 1024 71 10000 1 0 11:57 27.10.2019
5529 Clouds 15 1024 76 10000 1 0 11:38 27.10.2019
5530 Clouds 15 1024 76 10000 1 0 11:20 27.10.2019
5531 Clouds 14 1021 72 0 0.93 217 10:43 27.10.2019
5532 Clouds 13 1025 81 10000 1.5 100 10:24 27.10.2019
5533 Fog 11 1025 100 10000 1 0 09:45 27.10.2019
5534 Fog 9 1025 100 10000 1 0 09:20 27.10.2019
5535 Clouds 10 1022 86 0 0.93 217 08:59 27.10.2019
5536 Clouds 9 1024 62 0 0.95 207 08:40 27.10.2019
5537 Clouds 7 1020 81 0 1 48 08:20 27.10.2019
5538 Clouds 6 1019 80 0 1 48 07:50 27.10.2019
5539 Clouds 6 1021 87 0 1 48 07:29 27.10.2019
5540 Clouds 7 1019 81 0 1 48 06:56 27.10.2019
5541 Clouds 7 1019 80 0 1 48 06:37 27.10.2019
5542 Clouds 6 1021 87 0 1 48 06:18 27.10.2019
5543 Clouds 7 1019 78 0 1 48 05:37 27.10.2019
5544 Clouds 7 1019 77 0 1 40 04:32 27.10.2019
5545 Clouds 8 1022 82 0 0.59 71 02:42 27.10.2019
5546 Clouds 8 1022 80 0 0.59 71 01:28 27.10.2019
5547 Clouds 9 1022 80 0 0.59 71 01:28 27.10.2019
5548 Clouds 9 1022 81 0 0.59 71 00:56 27.10.2019
5549 Clouds 9 1020 75 0 0.59 71 00:37 27.10.2019
5550 Clouds 10 1020 78 0 0.8 81 23:59 26.10.2019
5551 Clouds 10 1020 77 0 0.8 81 23:40 26.10.2019
5552 Clouds 10 1020 75 0 0.8 81 23:21 26.10.2019
5553 Clouds 10 1020 76 0 0.8 81 22:58 26.10.2019
5554 Clouds 10 1020 76 0 0.8 81 22:58 26.10.2019
5555 Clouds 10 1020 76 0 0.8 81 22:39 26.10.2019
5556 Clouds 10 1020 77 0 0.8 81 22:19 26.10.2019
5557 Clouds 11 1020 77 0 0.89 67 21:56 26.10.2019
5558 Clouds 11 1020 76 0 0.8 81 21:38 26.10.2019
5559 Clear 11 1020 76 0 0.1 120 21:19 26.10.2019
5560 Clear 12 1021 72 0 0.1 120 20:43 26.10.2019
5561 Clear 12 1022 59 10000 3.1 260 20:20 26.10.2019
5562 Clear 12 1022 59 10000 3.1 260 20:20 26.10.2019
5563 Clear 13 1022 59 10000 3.1 260 19:44 26.10.2019
5564 Clear 14 1022 59 10000 3.1 260 19:21 26.10.2019
5565 Clear 15 1021 48 10000 3.1 240 18:59 26.10.2019
5566 Clear 14 1021 45 10000 2.6 230 18:40 26.10.2019
5567 Clear 17 1021 45 10000 2.6 230 18:20 26.10.2019
5568 Clear 18 1021 48 10000 2.1 220 17:59 26.10.2019
5569 Clear 19 1021 45 10000 2.1 220 17:39 26.10.2019
5570 Clear 19 1022 45 10000 1.5 220 17:20 26.10.2019
5571 Clear 19 1022 45 10000 1.5 220 16:57 26.10.2019
5572 Clear 20 1022 42 10000 1 0 16:38 26.10.2019
5573 Clear 19 1022 42 10000 1 0 16:20 26.10.2019
5574 Clear 20 1023 45 10000 1 0 15:40 26.10.2019
5575 Clear 20 1023 45 10000 1 0 15:40 26.10.2019
5576 Clear 19 1023 48 10000 1 0 15:18 26.10.2019
5577 Clear 20 1023 45 10000 1 0 15:18 26.10.2019
5578 Clear 20 1024 41 10000 1 0 14:40 26.10.2019
5579 Clear 20 1024 41 10000 1 0 14:20 26.10.2019
5580 Clear 13 1021 46 0 2.09 211 13:59 26.10.2019
5581 Clear 13 1021 46 0 2.09 211 13:39 26.10.2019
5582 Clear 13 1021 46 0 2.09 211 13:20 26.10.2019
5583 Clear 13 1019 64 0 2.09 211 12:45 26.10.2019
5584 Clear 12 1025 75 10000 1 0 12:21 26.10.2019
5585 Clear 13 1025 75 10000 1 0 11:48 26.10.2019
5586 Clear 11 1025 75 10000 1 0 11:26 26.10.2019
5587 Clear 11 1025 75 10000 1 0 11:26 26.10.2019
5588 Clear 10 1021 51 0 1.41 194 10:47 26.10.2019
5589 Clear 10 1021 51 0 1.41 194 10:27 26.10.2019
5590 Clear 10 1021 51 0 1.41 194 10:27 26.10.2019
5591 Clear 10 1021 51 0 1.41 194 09:50 26.10.2019
5592 Clear 10 1021 50 0 1.32 181 09:30 26.10.2019
5593 Clear 4 1021 60 0 0.88 48 08:57 26.10.2019
5594 Clear 4 1021 60 0 0.88 48 08:39 26.10.2019
5595 Clear 4 1021 60 0 0.88 48 08:20 26.10.2019
5596 Clear 4 1021 60 0 0.88 48 07:43 26.10.2019
5597 Clear 4 1021 60 0 0.88 48 07:23 26.10.2019
5598 Clear 4 1021 60 0 0.88 48 06:40 26.10.2019
5599 Clear 4 1021 54 0 0.74 85 05:57 26.10.2019
5600 Clear 4 1021 54 0 0.74 85 05:19 26.10.2019
5601 Clear 7 1021 62 0 0.74 85 03:53 26.10.2019
5602 Clear 7 1021 60 0 0.92 68 02:33 26.10.2019
5603 Clear 7 1022 60 0 0.87 64 01:47 26.10.2019
5604 Clear 7 1020 80 0 0.87 64 00:52 26.10.2019
5605 Clear 8 1021 75 0 2.1 42 23:56 25.10.2019
5606 Clear 8 1021 75 0 2.1 42 23:37 25.10.2019
5607 Clear 8 1021 76 0 2.1 42 23:18 25.10.2019
5608 Clear 9 1021 70 0 2.1 42 22:39 25.10.2019
5609 Clear 9 1021 66 0 2.1 42 22:21 25.10.2019
5610 Clear 9 1021 66 0 2.1 42 21:55 25.10.2019
5611 Clear 10 1021 42 0 2.1 42 21:37 25.10.2019
5612 Clear 10 1021 40 0 2.1 42 21:37 25.10.2019
5613 Clear 10 1021 54 0 2.56 32 21:18 25.10.2019
5614 Clear 10 1021 43 0 2.56 32 20:42 25.10.2019
5615 Clear 11 1022 58 10000 3.6 260 20:19 25.10.2019
5616 Clear 12 1022 58 10000 3.6 260 19:47 25.10.2019
5617 Clear 12 1022 58 10000 3.6 260 19:27 25.10.2019
5618 Clear 14 1022 51 10000 3.6 240 18:55 25.10.2019
5619 Clear 14 1021 51 10000 3.6 230 18:37 25.10.2019
5620 Clear 15 1021 45 10000 3.6 230 18:18 25.10.2019
5621 Clear 18 1021 39 10000 2.1 200 17:39 25.10.2019
5622 Clear 18 1021 37 10000 2.1 220 17:18 25.10.2019
5623 Clear 18 1021 37 10000 1.5 0 16:46 25.10.2019
5624 Clear 18 1021 37 10000 1.5 0 16:22 25.10.2019
5625 Clear 18 1021 42 10000 1 0 15:56 25.10.2019
5626 Clear 18 1022 45 10000 1.5 170 15:38 25.10.2019
5627 Clouds 18 1022 39 10000 1.5 320 15:19 25.10.2019
5628 Clouds 18 1023 48 10000 1 0 14:42 25.10.2019
5629 Clouds 18 1023 48 10000 1 0 14:23 25.10.2019
5630 Clouds 17 1023 54 10000 1.5 0 13:57 25.10.2019
5631 Clouds 16 1024 54 10000 0.5 0 13:38 25.10.2019
5632 Clouds 16 1022 43 0 2.17 4 13:18 25.10.2019
5633 Clouds 15 1024 66 10000 1 0 12:42 25.10.2019
5634 Clouds 14 1024 66 10000 1 0 12:22 25.10.2019
5635 Clouds 12 1024 81 10000 0.5 0 11:58 25.10.2019
5636 Clouds 12 1027 14 0 3.18 13 11:38 25.10.2019
5637 Clouds 12 1023 50 0 3.18 13 11:18 25.10.2019
5638 Clouds 11 1023 57 0 3.18 13 10:41 25.10.2019
5639 Clouds 11 1023 57 0 3.18 13 10:41 25.10.2019
5640 Clouds 9 1028 27 0 3.18 13 10:22 25.10.2019
5641 Clouds 8 1028 66 0 3.18 13 09:58 25.10.2019
5642 Clouds 8 1028 73 0 3.09 9 09:38 25.10.2019
5643 Clouds 7 1023 67 0 3.9 16 09:19 25.10.2019
5644 Clouds 6 1023 68 0 3.9 16 08:48 25.10.2019
5645 Clouds 6 1023 70 0 3.9 16 08:29 25.10.2019
5646 Clouds 6 1027 77 0 3.9 16 07:55 25.10.2019
5647 Clouds 6 1027 77 0 3.9 16 07:34 25.10.2019
5648 Clouds 6 1023 74 0 3.9 16 06:42 25.10.2019
5649 Clouds 7 1023 77 0 3.77 18 05:51 25.10.2019
5650 Clouds 7 1022 77 0 3.77 18 05:33 25.10.2019
5651 Clouds 8 1022 77 0 3.77 18 04:52 25.10.2019
5652 Clouds 9 1022 80 0 3.77 18 03:36 25.10.2019
5653 Clouds 9 1026 72 0 3.07 16 01:54 25.10.2019
5654 Clouds 10 1025 67 0 3.07 16 00:57 25.10.2019
5655 Rain 9 1021 82 0 2.55 349 00:20 25.10.2019
5656 Rain 11 1024 58 0 2.55 349 23:40 24.10.2019
5657 Rain 10 1020 86 0 2.55 349 23:22 24.10.2019
5658 Rain 11 1024 57 0 2.55 349 22:54 24.10.2019
5659 Rain 11 1023 53 0 2.55 349 22:36 24.10.2019
5660 Rain 11 1023 50 0 2.55 349 22:18 24.10.2019
5661 Rain 11 1023 50 0 2.55 349 22:18 24.10.2019
5662 Rain 11 1023 49 0 2.55 349 21:56 24.10.2019
5663 -273 0 0 0 0 0 21:37 24.10.2019
5664 Rain 11 1021 92 0 2.97 360 21:37 24.10.2019
5665 Rain 11 1021 92 0 2.97 360 21:37 24.10.2019
5666 Rain 12 1023 47 0 2.44 7 21:18 24.10.2019
5667 Rain 12 1023 47 0 2.44 7 21:18 24.10.2019
5668 Rain 12 1022 46 0 2.44 7 20:55 24.10.2019
5669 Rain 12 1022 46 0 2.44 7 20:55 24.10.2019
5670 Rain 12 1022 46 0 2.44 7 20:37 24.10.2019
5671 Rain 12 1018 84 0 2.44 7 20:19 24.10.2019
5672 Clouds 13 1016 67 10000 2.6 230 19:42 24.10.2019
5673 Clouds 13 1016 67 10000 2.6 230 19:23 24.10.2019
5674 Clouds 13 1016 67 10000 2.6 230 18:58 24.10.2019
5675 Clouds 13 1016 67 10000 2.6 230 18:39 24.10.2019
5676 Clouds 13 1016 67 10000 2.6 230 18:39 24.10.2019
5677 Clouds 13 1016 67 10000 2.6 230 18:21 24.10.2019
5678 Clouds 14 1016 58 10000 2.1 230 17:57 24.10.2019
5679 Clouds 15 1016 58 10000 1 0 17:37 24.10.2019
5680 Clouds 15 1016 58 10000 1 0 17:18 24.10.2019
5681 Clouds 15 1015 58 10000 1.5 0 16:42 24.10.2019
5682 Clouds 15 1015 58 10000 1.5 0 16:23 24.10.2019
5683 Clouds 14 1015 54 10000 1.5 190 15:59 24.10.2019
5684 Clouds 15 1015 62 10000 1.5 200 15:41 24.10.2019
5685 Clouds 15 1015 62 10000 1.5 200 15:23 24.10.2019
5686 Clouds 14 1015 66 10000 1.5 0 14:59 24.10.2019
5687 Clouds 14 1016 71 10000 1.5 0 14:41 24.10.2019
5688 Clouds 14 1016 71 10000 1.5 0 14:22 24.10.2019
5689 Clouds 14 1016 71 10000 1.5 0 14:22 24.10.2019
5690 Clouds 13 1016 71 10000 1.5 300 13:42 24.10.2019
5691 Clouds 13 1016 71 10000 1.5 300 13:21 24.10.2019
5692 Clouds 12 1016 71 10000 1 0 12:59 24.10.2019
5693 Clouds 12 1016 76 10000 3.1 320 12:40 24.10.2019
5694 Clouds 11 1016 76 10000 1 0 12:20 24.10.2019
5695 Clouds 10 1016 76 10000 1 0 11:57 24.10.2019
5696 Clouds 10 1016 81 10000 1.5 70 11:39 24.10.2019
5697 Clouds 9 1016 81 10000 1.5 70 11:20 24.10.2019
5698 Clouds 9 1016 93 10000 1 0 10:59 24.10.2019
5699 Clear 8 1014 88 0 0.95 189 10:41 24.10.2019
5700 Clear 8 1014 88 0 0.95 189 10:41 24.10.2019
5701 Clear 7 1014 91 0 0.95 189 10:22 24.10.2019
5702 Clear 7 1013 92 0 1.14 196 09:39 24.10.2019
5703 Clear 7 1013 93 0 0.59 42 09:19 24.10.2019
5704 Clear 6 1012 94 0 0.59 42 08:55 24.10.2019
5705 Clear 6 1012 94 0 0.59 42 08:37 24.10.2019
5706 Clear 6 1012 93 0 0.59 42 08:18 24.10.2019
5707 Clear 6 1012 93 0 0.59 42 07:45 24.10.2019
5708 Clear 6 1011 92 0 0.59 42 07:22 24.10.2019
5709 Clear 6 1013 94 0 0.59 42 06:46 24.10.2019
5710 Clear 6 1011 92 0 0.13 108 06:23 24.10.2019
5711 Clear 7 1010 91 0 0.13 108 05:49 24.10.2019
5712 Clear 7 1010 93 0 0.13 108 05:28 24.10.2019
5713 Clear 8 1010 92 0 0.13 108 03:38 24.10.2019
5714 Clouds 8 1010 91 0 0.19 40 02:56 24.10.2019
5715 Clouds 8 1009 91 0 0.71 75 02:25 24.10.2019
5716 Clouds 8 1009 90 0 0.71 75 01:51 24.10.2019
5717 Clouds 8 1009 87 0 0.71 75 01:27 24.10.2019
5718 Clouds 9 1009 86 0 0.45 167 00:41 24.10.2019
5719 Rain 9 1012 50 0 1.53 217 00:23 24.10.2019
5720 Rain 9 1012 47 0 1.53 217 23:43 23.10.2019
5721 Rain 9 1009 88 0 1.53 217 23:23 23.10.2019
5722 Rain 9 1011 45 0 1.53 217 22:57 23.10.2019
5723 Rain 9 1011 44 0 1.53 217 22:38 23.10.2019
5724 Rain 9 1008 93 0 1.53 217 22:38 23.10.2019
5725 Rain 10 1011 41 0 1.53 217 22:19 23.10.2019
5726 Rain 10 1011 44 0 1.53 217 21:57 23.10.2019
5727 Rain 11 1011 44 0 2.37 203 21:38 23.10.2019
5728 Rain 11 1011 41 0 1.33 182 21:19 23.10.2019
5729 Rain 12 1011 41 0 1.33 182 20:56 23.10.2019
5730 Rain 12 1010 41 0 1.33 182 20:38 23.10.2019
5731 Rain 12 1010 38 0 1.33 182 20:20 23.10.2019
5732 Rain 13 1009 36 0 1.33 182 19:55 23.10.2019
5733 Rain 13 1009 36 0 1.33 182 19:36 23.10.2019
5734 Rain 13 1009 33 0 1.33 182 19:18 23.10.2019
5735 Rain 11 1006 89 0 1.33 182 18:40 23.10.2019
5736 Rain 13 1008 19 0 2.74 196 18:19 23.10.2019
5737 Rain 15 1007 11 0 2.74 196 17:59 23.10.2019
5738 Rain 14 1006 85 0 2.74 196 17:41 23.10.2019
5739 Rain 13 1005 79 0 0.45 136 17:19 23.10.2019
5740 Rain 13 1005 79 0 0.45 136 17:19 23.10.2019
5741 Rain 14 1005 73 0 2.74 196 16:54 23.10.2019
5742 Rain 14 1005 70 0 0.45 147 16:36 23.10.2019
5743 Rain 14 1005 67 0 0.45 108 16:18 23.10.2019
5744 Rain 16 1005 82 0 0.89 318 15:40 23.10.2019
5745 Rain 15 1006 69 0 0.45 138 15:21 23.10.2019
5746 Rain 14 1007 24 0 2.73 189 14:57 23.10.2019
5747 Rain 15 1006 74 0 2.84 186 14:38 23.10.2019
5748 Rain 14 1006 77 0 2.84 186 14:19 23.10.2019
5749 Rain 14 1006 78 0 0.45 139 13:54 23.10.2019
5750 Rain 13 1006 83 0 2.84 186 13:36 23.10.2019
5751 Rain 13 1005 83 0 0.45 218 13:18 23.10.2019
5752 Rain 13 1009 72 0 2.24 0 12:41 23.10.2019
5753 Rain 13 1009 72 0 1.34 183 12:20 23.10.2019
5754 Rain 13 1008 72 0 2.71 165 11:58 23.10.2019
5755 Rain 12 1009 76 0 2.71 165 11:40 23.10.2019
5756 Rain 11 1006 91 0 2.71 165 11:21 23.10.2019
5757 Rain 11 1006 90 0 0.45 159 10:57 23.10.2019
5758 Rain 11 1006 90 0 2.71 165 10:38 23.10.2019
5759 Rain 11 1006 90 0 2.71 165 10:38 23.10.2019
5760 Rain 11 1006 90 0 2.71 165 10:19 23.10.2019
5761 Rain 11 1006 95 0 3.73 183 09:40 23.10.2019
5762 Rain 11 1006 95 0 3.73 183 09:40 23.10.2019
5763 Rain 11 1011 86 0 2.33 150 09:22 23.10.2019
5764 Rain 11 1010 87 0 2.33 150 08:54 23.10.2019
5765 Rain 11 1010 87 0 0.89 157 08:36 23.10.2019
5766 Rain 11 1010 86 0 2.33 150 08:18 23.10.2019
5767 Rain 11 1010 85 0 2.33 150 07:41 23.10.2019
5768 Rain 11 1011 84 0 2.33 150 07:19 23.10.2019
5769 Rain 11 1003 98 0 2.68 263 06:41 23.10.2019
5770 Rain 11 1002 98 0 2.68 316 06:19 23.10.2019
5771 Rain 11 1003 93 0 0.53 12 05:19 23.10.2019
5772 Rain 11 1004 86 0 5.36 45 03:46 23.10.2019
5773 Rain 10 1005 92 0 1.01 176 02:43 23.10.2019
5774 Rain 11 1009 77 0 56.33 202 01:40 23.10.2019
5775 Rain 11 1011 98 0 2.16 117 00:59 23.10.2019
5776 Rain 11 1011 95 0 2.16 117 00:33 23.10.2019
5777 Rain 11 1012 93 0 3.49 88 23:55 22.10.2019
5778 Rain 10 1012 90 0 0.45 305 23:37 22.10.2019
5779 Rain 10 1013 88 0 2.24 142 23:18 22.10.2019
5780 Rain 10 1015 73 0 3.49 88 22:40 22.10.2019
5781 Rain 10 1009 95 0 3.49 88 22:22 22.10.2019
5782 Rain 11 1009 96 0 3.49 88 21:57 22.10.2019
5783 Rain 11 1008 95 0 3.49 88 21:38 22.10.2019
5784 Rain 11 1008 95 0 2.28 119 21:19 22.10.2019
5785 Rain 11 1009 94 0 2.28 119 20:58 22.10.2019
5786 Rain 11 1010 92 0 2.28 119 20:40 22.10.2019
5787 Rain 11 1010 88 0 0.89 56 20:21 22.10.2019
5788 Rain 12 1010 90 0 2.28 119 19:55 22.10.2019
5789 Rain 12 1009 90 0 0.45 314 19:37 22.10.2019
5790 Rain 12 1009 94 0 0.45 147 19:19 22.10.2019
5791 Rain 13 1010 93 0 2.28 119 18:41 22.10.2019
5792 Rain 12 1010 94 0 0.48 75 18:22 22.10.2019
5793 Rain 11 1011 96 0 0.48 75 17:59 22.10.2019
5794 Rain 11 1010 96 0 0.48 75 17:39 22.10.2019
5795 Rain 11 1010 96 0 0.48 75 17:20 22.10.2019
5796 Rain 11 1010 96 0 0.48 75 17:20 22.10.2019
5797 Rain 11 1010 96 0 0.48 75 17:20 22.10.2019
5798 Rain 11 1016 67 0 0.48 75 16:57 22.10.2019
5799 Rain 12 1016 68 0 0.48 75 16:39 22.10.2019
5800 Rain 12 1017 64 0 0.48 75 16:19 22.10.2019
5801 Rain 11 1017 58 0 0.48 75 15:58 22.10.2019
5802 Rain 11 1017 58 0 0.48 75 15:58 22.10.2019
5803 Rain 12 1017 55 0 0.48 75 15:39 22.10.2019
5804 Rain 12 1017 55 0 3.54 67 15:18 22.10.2019
5805 Rain 12 1012 94 0 2.15 78 14:43 22.10.2019
5806 Rain 12 1018 47 0 2.15 78 14:20 22.10.2019
5807 Rain 12 1019 46 0 2.15 78 13:43 22.10.2019
5808 Rain 12 1019 48 0 2.15 78 13:22 22.10.2019
5809 Rain 12 1019 48 0 2.15 78 13:22 22.10.2019
5810 Rain 12 1019 49 0 2.15 78 12:59 22.10.2019
5811 Rain 11 1020 51 0 2.15 78 12:40 22.10.2019
5812 Rain 10 1020 54 0 4.43 48 12:21 22.10.2019
5813 Rain 10 1021 57 0 4.43 48 11:56 22.10.2019
5814 Rain 10 1021 61 0 4.43 48 11:37 22.10.2019
5815 Rain 10 1021 65 0 1.34 194 11:19 22.10.2019
5816 Rain 10 1019 93 0 4.43 48 10:55 22.10.2019
5817 Rain 10 1019 93 0 4.43 48 10:55 22.10.2019
5818 Rain 10 1021 68 0 4.43 48 10:36 22.10.2019
5819 Rain 10 1021 68 0 4.43 48 10:18 22.10.2019
5820 Rain 9 1022 66 0 2.06 11 09:42 22.10.2019
5821 Rain 9 1022 65 0 2.73 33 09:22 22.10.2019
5822 Rain 9 1022 64 0 2.73 33 08:59 22.10.2019
5823 Rain 9 1021 63 0 2.73 33 08:41 22.10.2019
5824 Rain 9 1021 60 0 2.73 33 08:19 22.10.2019
5825 Rain 9 1021 56 0 2.73 33 07:45 22.10.2019
5826 Rain 9 1022 55 0 2.73 33 07:26 22.10.2019
5827 Rain 9 1020 93 0 2.73 33 06:46 22.10.2019
5828 Rain 9 1022 60 0 2.73 33 06:27 22.10.2019
5829 Rain 9 1022 59 0 1.66 40 05:48 22.10.2019
5830 Rain 9 1022 59 0 1.66 40 05:48 22.10.2019
5831 Rain 8 1018 89 0 1.66 40 04:54 22.10.2019
5832 Clouds 8 1019 90 0 1.59 68 02:31 22.10.2019
5833 Clouds 8 1020 89 0 1.59 68 01:39 22.10.2019
5834 Clouds 8 1023 59 0 1.59 68 01:21 22.10.2019
5835 Clouds 8 1020 86 0 1.59 68 00:56 22.10.2019
5836 Clouds 8 1019 87 0 1.59 68 00:38 22.10.2019
5837 Clouds 8 1023 51 0 0.09 86 00:19 22.10.2019
5838 Clouds 9 1023 47 0 0.09 86 23:38 21.10.2019
5839 Clouds 9 1023 47 0 0.09 86 23:19 21.10.2019
5840 Clouds 9 1023 44 0 0.09 86 22:59 21.10.2019
5841 Clouds 9 1023 43 0 0.09 86 22:39 21.10.2019
5842 Clouds 9 1023 42 0 0.09 86 22:20 21.10.2019
5843 Clouds 10 1022 38 0 0.09 86 21:58 21.10.2019
5844 Clouds 10 1023 37 0 0.09 86 21:38 21.10.2019
5845 Rain 10 1022 37 0 1.28 185 21:20 21.10.2019
5846 Rain 10 1019 85 0 1.28 185 20:57 21.10.2019
5847 Rain 10 1019 85 0 1.28 185 20:38 21.10.2019
5848 Rain 11 1019 85 0 1.28 185 20:20 21.10.2019
5849 Clouds 13 1018 66 10000 4.1 220 19:55 21.10.2019
5850 Clouds 11 1018 66 10000 4.1 220 19:37 21.10.2019
5851 Clouds 13 1018 66 10000 4.1 220 19:19 21.10.2019
5852 Clouds 13 1018 66 10000 4.1 220 18:55 21.10.2019
5853 Clouds 14 1018 62 10000 4.6 220 18:36 21.10.2019
5854 Clouds 14 1018 62 10000 4.6 220 18:36 21.10.2019
5855 Clouds 14 1018 62 10000 4.6 220 18:36 21.10.2019
5856 Clouds 13 1018 62 10000 4.6 220 18:18 21.10.2019
5857 Clouds 13 1018 62 10000 4.6 220 18:18 21.10.2019
5858 Clouds 13 1018 62 10000 4.6 220 18:18 21.10.2019
5859 Clouds 13 1018 58 10000 3.6 220 17:39 21.10.2019
5860 Clouds 13 1018 58 10000 3.6 220 17:39 21.10.2019
5861 Clouds 13 1018 58 10000 3.6 220 17:19 21.10.2019
5862 Clouds 13 1018 58 10000 2.6 230 16:58 21.10.2019
5863 Clouds 14 1018 58 10000 1.5 0 16:40 21.10.2019
5864 Clouds 14 1018 58 10000 1.5 0 16:22 21.10.2019
5865 Clouds 14 1018 58 10000 1 0 15:58 21.10.2019
5866 Clouds 13 1018 66 10000 1.5 90 15:39 21.10.2019
5867 Clouds 13 1018 66 10000 1.5 90 15:19 21.10.2019
5868 Clouds 12 1019 76 10000 0.5 0 14:40 21.10.2019
5869 Clouds 12 1019 76 10000 0.5 0 14:22 21.10.2019
5870 Clouds 12 1019 81 10000 1 0 13:59 21.10.2019
5871 Clouds 12 1020 81 10000 1.5 130 13:40 21.10.2019
5872 Clouds 11 1020 81 10000 1.5 130 13:20 21.10.2019
5873 Clouds 11 1020 81 10000 1 0 12:58 21.10.2019
5874 Clouds 11 1020 81 10000 1 0 12:40 21.10.2019
5875 Clouds 10 1020 81 10000 1 0 12:20 21.10.2019
5876 Clouds 10 1020 81 10000 1 0 12:20 21.10.2019
5877 Clouds 9 1019 87 10000 1 0 11:42 21.10.2019
5878 Clouds 9 1019 87 10000 1 0 11:23 21.10.2019
5879 Clouds 8 1019 93 10000 1 0 10:58 21.10.2019
5880 Clouds 9 1017 87 0 1.81 182.089 10:40 21.10.2019
5881 Clouds 8 1017 90 0 1.81 182.089 10:20 21.10.2019
5882 Clouds 8 1016 90 0 1.81 182.089 09:57 21.10.2019
5883 Clouds 7 1018 93 0 1.81 182.089 09:37 21.10.2019
5884 Clouds 7 1016 89 0 0.43 186.891 09:19 21.10.2019
5885 Clouds 7 1015 89 0 1 156.508 08:40 21.10.2019
5886 Clouds 8 1015 88 0 1 156.508 08:22 21.10.2019
5887 Clouds 8 1015 88 0 1 156.508 07:45 21.10.2019
5888 Clouds 8 1015 88 0 1 156.508 07:23 21.10.2019
5889 Clouds 8 1014 88 0 1 156.508 06:58 21.10.2019
5890 Clouds 8 1019 51 0 1 156.508 06:40 21.10.2019
5891 Clouds 8 1014 88 0 0.71 144.782 05:57 21.10.2019
5892 Clouds 8 1013 85 0 0.71 144.782 04:50 21.10.2019
5893 Clouds 8 1018 51 0 0.71 144.782 03:39 21.10.2019
5894 Clouds 9 1013 80 0 0.45 277 02:37 21.10.2019
5895 Clouds 9 1013 81 0 1.18 131.694 02:19 21.10.2019
5896 Clouds 10 1017 64 0 1.18 131.694 01:43 21.10.2019
5897 Clouds 10 1017 68 0 0.89 305 00:51 21.10.2019
5898 Clouds 10 1017 66 0 0.89 305 00:28 21.10.2019
5899 Rain 10 1016 57 0 0.89 305 23:43 20.10.2019
5900 Rain 10 1013 93 0 1.75 196.238 23:23 20.10.2019
5901 Rain 10 1016 56 0 0.89 305 22:58 20.10.2019
5902 Rain 11 1016 48 0 0.89 305 22:39 20.10.2019
5903 Rain 11 1015 46 0 1.34 305 22:19 20.10.2019
5904 Rain 10 1010 75 0 0.89 160 21:59 20.10.2019
5905 Rain 11 1014 65 0 1.75 196.238 21:39 20.10.2019
5906 Rain 11 1010 77 0 1.98 206.604 21:21 20.10.2019
5907 Rain 11 1009 81 0 1.56 183.595 20:42 20.10.2019
5908 Clouds 11 1010 87 10000 2.1 240 20:20 20.10.2019
5909 Clouds 11 1010 87 10000 2.1 240 19:57 20.10.2019
5910 Clouds 11 1010 87 10000 2.1 240 19:39 20.10.2019
5911 Clouds 11 1010 87 10000 2.1 240 19:20 20.10.2019
5912 Clouds 11 1010 93 10000 1.5 210 18:58 20.10.2019
5913 Clouds 11 1010 93 10000 1.5 260 18:40 20.10.2019
5914 Clouds 12 1010 93 10000 1.5 260 18:20 20.10.2019
5915 Rain 13 1009 82 10000 0.5 0 17:56 20.10.2019
5916 Clouds 13 1010 87 10000 1.5 250 17:37 20.10.2019
5917 Clouds 13 1010 87 10000 1.5 250 17:18 20.10.2019
5918 Clouds 12 1009 93 10000 2.6 30 16:42 20.10.2019
5919 Clouds 12 1009 93 10000 2.6 30 16:42 20.10.2019
5920 Clouds 12 1009 93 10000 2.6 30 16:23 20.10.2019
5921 Rain 12 1009 100 10000 4.1 50 15:58 20.10.2019
5922 Rain 12 1009 93 5000 3.6 50 15:38 20.10.2019
5923 Rain 13 1009 93 5000 3.6 50 15:20 20.10.2019
5924 Rain 13 1009 93 5000 3.6 50 15:20 20.10.2019
5925 Rain 14 1009 100 5000 1.5 70 14:57 20.10.2019
5926 Rain 15 1009 100 10000 3.1 30 14:37 20.10.2019
5927 Rain 15 1009 100 10000 3.1 30 14:19 20.10.2019
5928 Rain 15 1009 100 6000 1.5 100 13:55 20.10.2019
5929 Rain 15 1010 82 5000 1.5 220 13:36 20.10.2019
5930 Rain 14 1010 82 5000 1.5 220 13:18 20.10.2019
5931 Clouds 15 1009 87 10000 1.5 0 12:55 20.10.2019
5932 Clouds 15 1009 87 10000 1.5 0 12:55 20.10.2019
5933 Rain 15 1009 87 9000 1 0 12:37 20.10.2019
5934 Clouds 14 1008 93 10000 2.1 30 12:19 20.10.2019
5935 Rain 15 1008 87 10000 1 0 11:42 20.10.2019
5936 Rain 16 1008 87 10000 1 0 11:23 20.10.2019
5937 Rain 16 1008 87 10000 1 0 11:23 20.10.2019
5938 Rain 16 1005 94 0 1.34 180 10:59 20.10.2019
5939 Rain 17 1007 24 0 4.96 211.487 10:40 20.10.2019
5940 Rain 16 1006 33 0 4.96 211.487 10:21 20.10.2019
5941 Rain 14 1008 56 0 4.96 211.487 09:57 20.10.2019
5942 Rain 14 1008 46 0 1.34 247 09:38 20.10.2019
5943 Rain 14 1007 62 0 3.07 193.51 09:20 20.10.2019
5944 Rain 14 1006 70 0 2.39 203.385 08:44 20.10.2019
5945 Rain 14 1006 68 0 0.89 172 08:22 20.10.2019
5946 Rain 14 1007 64 0 2.39 203.385 07:49 20.10.2019
5947 Rain 14 1006 54 0 2.39 203.385 07:29 20.10.2019
5948 Rain 14 1006 31 0 2.24 338 06:31 20.10.2019
5949 Rain 13 1002 84 0 0.45 149 04:41 20.10.2019
5950 Rain 13 1006 29 0 1.34 2 03:59 20.10.2019
5951 Rain 14 1006 25 0 1.34 2 03:39 20.10.2019
5952 Rain 14 1007 25 0 1.34 2 03:18 20.10.2019
5953 Rain 14 1007 26 0 1.34 138 02:28 20.10.2019
5954 Rain 14 1008 27 0 1.34 138 01:54 20.10.2019
5955 Rain 14 1008 26 0 4.39 196.618 01:23 20.10.2019
5956 Rain 14 1008 25 0 4.39 196.618 00:53 20.10.2019
5957 Rain 14 1008 26 0 0.89 148 00:21 20.10.2019
5958 Rain 14 1008 26 0 4.77 195.447 23:55 19.10.2019
5959 Rain 14 1009 26 0 4.77 195.447 23:37 19.10.2019
5960 Rain 14 1009 25 0 4.77 195.447 23:19 19.10.2019
5961 Rain 14 1009 25 0 0.89 49 22:41 19.10.2019
5962 Rain 14 1009 22 0 4.77 195.447 22:23 19.10.2019
5963 Rain 14 1009 18 0 4.77 195.447 21:58 19.10.2019
5964 Rain 14 1009 20 0 4.77 195.447 21:40 19.10.2019
5965 Rain 15 1005 66 0 3.62 192.163 21:20 19.10.2019
5966 Rain 15 1005 65 0 4.27 190.508 20:43 19.10.2019
5967 Clouds 16 1008 48 10000 1 0 20:21 19.10.2019
5968 Clouds 16 1008 48 10000 1 0 19:45 19.10.2019
5969 Clouds 16 1008 48 10000 1 0 19:26 19.10.2019
5970 Clouds 17 1009 48 10000 1.5 180 18:57 19.10.2019
5971 Clouds 18 1009 42 10000 4.6 190 18:39 19.10.2019
5972 Clouds 19 1009 42 10000 4.6 190 18:19 19.10.2019
5973 Clouds 19 1009 45 10000 5.7 200 17:41 19.10.2019
5974 Clouds 20 1009 45 10000 5.7 200 17:23 19.10.2019
5975 Clouds 19 1009 43 10000 5.7 200 16:57 19.10.2019
5976 Clouds 19 1009 40 10000 6.2 210 16:38 19.10.2019
5977 Clouds 20 1009 45 10000 6.7 200 16:19 19.10.2019
5978 Clouds 20 1009 43 10000 6.7 210 15:41 19.10.2019
5979 Clouds 19 1009 43 10000 6.7 210 15:23 19.10.2019
5980 Clouds 20 1010 55 10000 3.6 220 14:39 19.10.2019
5981 Clouds 19 1010 55 10000 3.6 220 14:20 19.10.2019
5982 Clouds 19 1010 63 10000 3.1 220 13:58 19.10.2019
5983 Clouds 19 1011 63 10000 1.5 240 13:40 19.10.2019
5984 Clouds 19 1011 63 10000 1.5 240 13:40 19.10.2019
5985 Clouds 19 1011 63 10000 1.5 240 13:19 19.10.2019
5986 Clouds 18 1011 72 10000 0.5 0 12:57 19.10.2019
5987 Clouds 18 1011 67 10000 0.5 0 12:37 19.10.2019
5988 Clouds 18 1011 67 10000 0.5 0 12:18 19.10.2019
5989 Clouds 16 1012 93 10000 1 0 11:41 19.10.2019
5990 Clouds 16 1009 76 0 0.89 157 11:23 19.10.2019
5991 Clouds 14 1008 66 0 1.34 170 10:56 19.10.2019
5992 Clouds 13 1008 65 0 2.68 156 10:38 19.10.2019
5993 Clouds 12 1008 66 0 0.89 235 10:20 19.10.2019
5994 Clouds 11 1008 68 0 0.45 137 09:42 19.10.2019
5995 Clouds 11 1009 88 0 4.11 206.521 09:24 19.10.2019
5996 Rain 10 1008 92 0 3.05 198.185 08:59 19.10.2019
5997 Rain 10 1008 92 0 3.05 198.185 08:59 19.10.2019
5998 Rain 10 1008 92 0 3.05 198.185 08:59 19.10.2019
5999 Rain 10 1008 92 0 3.05 198.185 08:59 19.10.2019
6000 Rain 10 1008 92 0 3.05 198.185 08:40 19.10.2019
6001 Rain 10 1009 86 0 0.89 67 08:21 19.10.2019
6002 Rain 9 1008 92 0 3.05 198.185 07:44 19.10.2019
6003 Rain 9 1008 92 0 3.05 198.185 07:25 19.10.2019
6004 Rain 9 1008 92 0 3.05 198.185 07:25 19.10.2019
6005 Rain 10 1010 84 0 3.05 198.185 06:47 19.10.2019
6006 Rain 10 1008 91 0 3.04 196.92 05:58 19.10.2019
6007 Rain 10 1008 91 0 3.04 196.92 05:32 19.10.2019
6008 Rain 10 1013 73 0 3.04 196.92 04:21 19.10.2019
6009 Rain 11 1013 68 0 2.64 209.933 02:44 19.10.2019
6010 Rain 11 1014 72 0 0.45 162 01:53 19.10.2019
6011 Rain 11 1014 71 0 2.88 204.849 01:20 19.10.2019
6012 Rain 12 1014 72 0 2.88 204.849 00:47 19.10.2019
6013 Rain 12 1014 70 0 1.34 199 00:25 19.10.2019
6014 Clouds 12 1015 63 0 2.24 329 23:43 18.10.2019
6015 Clouds 12 1015 59 0 2.49 200.432 23:25 18.10.2019
6016 Clouds 12 1015 53 0 2.49 200.432 22:56 18.10.2019
6017 Clouds 12 1015 48 0 2.49 200.432 22:38 18.10.2019
6018 Clouds 12 1015 48 0 2.49 200.432 22:38 18.10.2019
6019 Clouds 12 1016 48 0 2.49 200.432 22:20 18.10.2019
6020 Clouds 12 1016 48 0 2.49 200.432 22:20 18.10.2019
6021 Clouds 12 1016 48 0 2.49 200.432 22:20 18.10.2019
6022 Clouds 12 1016 46 0 2.49 200.432 21:57 18.10.2019
6023 Clouds 13 1016 45 0 2.49 200.432 21:38 18.10.2019
6024 Clouds 14 1013 67 0 0.45 109 21:20 18.10.2019
6025 Clouds 14 1013 67 0 1.34 174 20:56 18.10.2019
6026 Clouds 14 1013 66 0 2.53 200.551 20:38 18.10.2019
6027 Clouds 14 1015 55 10000 2.1 230 20:19 18.10.2019
6028 Clouds 15 1015 55 10000 2.1 230 19:54 18.10.2019
6029 Clouds 16 1015 55 10000 2.1 230 19:36 18.10.2019
6030 Clouds 16 1015 55 10000 2.1 230 19:18 18.10.2019
6031 Clouds 16 1015 52 10000 2.1 210 18:42 18.10.2019
6032 Clouds 17 1015 52 10000 2.1 210 18:23 18.10.2019
6033 Clouds 18 1015 52 10000 1.5 0 17:57 18.10.2019
6034 Clouds 18 1015 52 10000 1 0 17:38 18.10.2019
6035 Clouds 18 1015 52 10000 1 0 17:20 18.10.2019
6036 Clouds 18 1015 52 10000 1.5 280 16:44 18.10.2019
6037 Clouds 18 1015 52 10000 1.5 280 16:44 18.10.2019
6038 Clouds 19 1015 52 10000 1.5 280 16:22 18.10.2019
6039 Clouds 19 1016 55 10000 1 0 15:59 18.10.2019
6040 Clouds 18 1016 52 10000 0.5 0 15:39 18.10.2019
6041 Clouds 18 1016 51 10000 1 0 15:20 18.10.2019
6042 Clouds 18 1016 51 10000 1 0 14:57 18.10.2019
6043 Clouds 18 1017 59 10000 1.5 0 14:38 18.10.2019
6044 Clouds 18 1017 59 10000 1.5 0 14:20 18.10.2019
6045 Clouds 18 1017 58 10000 1 0 13:57 18.10.2019
6046 Clouds 17 1018 62 10000 0.5 0 13:39 18.10.2019
6047 Clouds 17 1018 62 10000 0.5 0 13:20 18.10.2019
6048 Clouds 16 1018 66 10000 0.5 0 12:56 18.10.2019
6049 Clouds 15 1018 71 10000 1 0 12:37 18.10.2019
6050 Clouds 14 1018 71 10000 1 0 12:19 18.10.2019
6051 Clouds 14 1019 24 0 1.03 222.033 11:42 18.10.2019
6052 Clouds 13 1019 81 10000 1.5 40 11:21 18.10.2019
6053 Clouds 13 1019 81 10000 1.5 40 11:21 18.10.2019
6054 Clouds 12 1019 36 0 1.03 222.033 10:59 18.10.2019
6055 Clouds 12 1019 36 0 1.03 222.033 10:59 18.10.2019
6056 Clouds 12 1019 36 0 1.03 222.033 10:59 18.10.2019
6057 Clouds 11 1016 84 0 1.03 222.033 10:41 18.10.2019
6058 Clouds 11 1019 47 0 1.03 222.033 10:22 18.10.2019
6059 Clouds 10 1016 86 0 1.03 222.033 09:58 18.10.2019
6060 Clouds 10 1019 50 0 1.03 222.033 09:39 18.10.2019
6061 Clouds 9 1016 86 0 0.64 343.676 09:19 18.10.2019
6062 Clouds 9 1018 51 0 0.64 343.676 08:45 18.10.2019
6063 -273 0 0 0 0 0 08:25 18.10.2019
6064 Clouds 8 1015 87 0 0.64 343.676 07:57 18.10.2019
6065 Clouds 8 1016 88 0 0.64 343.676 07:38 18.10.2019
6066 Clouds 8 1015 84 0 0.64 343.676 06:56 18.10.2019
6067 Clouds 8 1019 68 0 0.64 343.676 06:37 18.10.2019
6068 Clouds 8 1016 84 0 0.41 241.49 06:19 18.10.2019
6069 Clouds 8 1018 72 0 0.41 241.49 05:53 18.10.2019
6070 Clouds 8 1016 84 0 0.41 241.49 05:19 18.10.2019
6071 Clouds 8 1019 72 0 0.41 241.49 03:38 18.10.2019
6072 Clear 8 1017 83 0 0.08 131.878 02:56 18.10.2019
6073 Clear 8 1016 83 0 0.08 131.878 02:32 18.10.2019
6074 Clear 8 1019 65 0 0.08 131.878 01:40 18.10.2019
6075 Clear 8 1017 81 0 0.04 189.926 01:21 18.10.2019
6076 Clear 9 1020 58 0 0.04 189.926 00:43 18.10.2019
6077 Clear 9 1020 56 0 0.38 56.479 00:19 18.10.2019
6078 Clear 10 1020 52 0 0.38 56.479 23:40 17.10.2019
6079 Clear 10 1020 50 0 0.38 56.479 23:21 17.10.2019
6080 Clear 10 1020 48 0 0.38 56.479 22:57 17.10.2019
6081 Clear 10 1020 47 0 0.38 56.479 22:39 17.10.2019
6082 Clear 11 1020 47 0 0.38 56.479 22:19 17.10.2019
6083 Clear 11 1020 48 0 0.38 56.479 21:57 17.10.2019
6084 Clear 11 1020 49 0 0.38 56.479 21:39 17.10.2019
6085 Clouds 12 1017 72 0 0.39 66.337 21:20 17.10.2019
6086 Clouds 13 1016 70 0 0.16 229.97 20:57 17.10.2019
6087 Clouds 13 1019 43 0 0.16 229.97 20:39 17.10.2019
6088 Clouds 14 1016 69 0 0.16 229.97 20:19 17.10.2019
6089 Clouds 14 1016 69 0 0.16 229.97 20:19 17.10.2019
6090 Clear 15 1016 42 10000 2.6 230 19:57 17.10.2019
6091 Clear 16 1016 42 10000 2.6 230 19:38 17.10.2019
6092 Clear 17 1016 42 10000 2.6 230 19:19 17.10.2019
6093 Clear 19 1016 39 10000 3.6 220 18:43 17.10.2019
6094 Clear 18 1016 39 10000 3.6 220 18:21 17.10.2019
6095 Clouds 19 1016 37 10000 3.1 220 17:58 17.10.2019
6096 Clouds 19 1016 42 10000 4.6 210 17:40 17.10.2019
6097 Clouds 19 1016 42 10000 4.6 210 17:22 17.10.2019
6098 Clouds 19 1016 37 10000 4.6 200 16:55 17.10.2019
6099 Clouds 19 1016 37 10000 5.7 210 16:37 17.10.2019
6100 Clouds 19 1016 37 10000 5.7 210 16:18 17.10.2019
6101 Clouds 20 1017 42 10000 2.1 210 15:41 17.10.2019
6102 Clouds 19 1017 45 10000 1 0 15:21 17.10.2019
6103 Clouds 19 1017 45 10000 1 0 14:59 17.10.2019
6104 Clouds 19 1017 51 10000 2.1 180 14:41 17.10.2019
6105 Clouds 19 1017 51 10000 2.1 180 14:23 17.10.2019
6106 Clouds 18 1018 59 10000 0.5 0 13:42 17.10.2019
6107 Clouds 18 1018 59 10000 0.5 0 13:21 17.10.2019
6108 Clouds 17 1019 58 10000 1 0 12:58 17.10.2019
6109 Clouds 16 1019 62 10000 1 0 12:40 17.10.2019
6110 Clouds 15 1019 62 10000 1 0 12:20 17.10.2019
6111 Clouds 15 1019 62 10000 1 0 12:20 17.10.2019
6112 Clouds 15 1019 71 10000 1 0 11:57 17.10.2019
6113 Clouds 15 1019 71 10000 1 0 11:57 17.10.2019
6114 Clouds 13 1019 76 10000 1 0 11:38 17.10.2019
6115 Clouds 13 1019 76 10000 1 0 11:18 17.10.2019
6116 Clouds 12 1017 80 0 2.291 212 10:42 17.10.2019
6117 Clouds 10 1017 88 0 2.291 212 10:20 17.10.2019
6118 Clouds 9 1017 89 0 2.291 212 09:58 17.10.2019
6119 -273 0 0 0 0 0 09:39 17.10.2019
6120 Clouds 7 1017 90 0 0.69 197 09:20 17.10.2019
6121 Clouds 7 1017 89 0 0.69 197 08:58 17.10.2019
6122 Clouds 6 1016 89 0 0.69 197 08:38 17.10.2019
6123 Clouds 6 1016 91 0 0.69 197 08:18 17.10.2019
6124 Clouds 6 1016 89 0 0.69 197 07:48 17.10.2019
6125 Clouds 6 1016 90 0 0.69 197 07:21 17.10.2019
6126 Clouds 6 1016 90 0 0.69 197 06:56 17.10.2019
6127 Clouds 6 1016 90 0 0.69 197 06:38 17.10.2019
6128 Clear 7 1016 90 0 0.225 119 06:19 17.10.2019
6129 Clear 7 1016 89 0 0.225 119 05:41 17.10.2019
6130 Clear 7 1016 88 0 0.225 119 05:20 17.10.2019
6131 Clear 7 1016 88 0 0.225 119 04:48 17.10.2019
6132 Clear 7 1017 87 0 0.225 119 03:49 17.10.2019
6133 Clear 7 1017 87 0 0.225 119 03:49 17.10.2019
6134 Clouds 8 1017 85 0 0.363 43 02:32 17.10.2019
6135 Clouds 8 1020 50 0 0.363 43 00:42 17.10.2019
6136 Clear 8 1017 81 0 0.913 349 00:21 17.10.2019
6137 Clear 9 1017 81 0 0.913 349 23:59 16.10.2019
6138 Clear 9 1020 45 0 0.913 349 23:41 16.10.2019
6139 Clear 9 1020 45 0 0.913 349 23:41 16.10.2019
6140 Clear 9 1017 78 0 0.913 349 23:19 16.10.2019
6141 Clear 10 1020 44 0 0.913 349 22:54 16.10.2019
6142 Clear 10 1017 79 0 0.913 349 22:36 16.10.2019
6143 Clear 10 1017 79 0 0.913 349 22:36 16.10.2019
6144 Clear 10 1017 79 0 0.913 349 22:18 16.10.2019
6145 Clear 11 1020 40 0 0.913 349 21:54 16.10.2019
6146 Clear 11 1020 39 0 0.808 26 21:36 16.10.2019
6147 Clouds 11 1017 77 0 0.42 302 21:18 16.10.2019
6148 Clouds 12 1016 78 0 0.42 302 20:56 16.10.2019
6149 Clouds 12 1019 36 0 0.42 302 20:37 16.10.2019
6150 Clouds 12 1019 36 0 0.42 302 20:37 16.10.2019
6151 Clouds 13 1016 76 0 0.42 302 20:19 16.10.2019
6152 Clouds 13 1018 27 0 0.42 302 19:40 16.10.2019
6153 -273 0 0 0 0 0 19:40 16.10.2019
6154 Clouds 13 1018 27 0 0.42 302 19:40 16.10.2019
6155 Clouds 14 1016 70 0 0.42 302 19:21 16.10.2019
6156 Clouds 16 1016 58 0 0.42 302 18:58 16.10.2019
6157 Clouds 16 1016 58 0 0.42 302 18:58 16.10.2019
6158 Clouds 18 1016 50 0 1.34 125 18:38 16.10.2019
6159 Clouds 18 1017 10 0 2.253 209 18:18 16.10.2019
6160 Clouds 18 1017 10 0 2.253 209 18:18 16.10.2019
6161 Clouds 18 1017 10 0 2.253 209 17:56 16.10.2019
6162 Clouds 18 1017 10 0 1.34 203 17:37 16.10.2019
6163 -273 0 0 0 0 0 17:37 16.10.2019
6164 Clouds 18 1016 58 0 2.253 209 17:19 16.10.2019
6165 Clouds 18 1016 57 0 2.253 209 16:56 16.10.2019
6166 Clouds 19 1017 9 0 3.13 191 16:38 16.10.2019
6167 Clouds 19 1016 59 0 2.253 209 16:19 16.10.2019
6168 -273 0 0 0 0 0 15:40 16.10.2019
6169 Clouds 18 1016 55 0 2.627 212 15:19 16.10.2019
6170 Clouds 18 1016 53 0 2.627 212 14:59 16.10.2019
6171 Clouds 18 1017 54 0 2.379 214 14:40 16.10.2019
6172 Clouds 18 1017 55 0 0.45 302 14:21 16.10.2019
6173 Clouds 17 1017 56 0 2.379 214 13:58 16.10.2019
6174 Clouds 17 1019 10 0 2.24 213 13:39 16.10.2019
6175 Clouds 16 1018 59 0 2.379 214 13:21 16.10.2019
6176 Clouds 14 1019 11 0 2.379 214 12:43 16.10.2019
6177 Clouds 14 1018 65 0 2.15 221 12:20 16.10.2019
6178 Clouds 13 1018 65 0 2.15 221 11:55 16.10.2019
6179 Clouds 12 1018 69 0 2.15 221 11:37 16.10.2019
6180 Clouds 12 1019 73 0 2.15 221 11:18 16.10.2019
6181 Clouds 10 1019 85 0 2.15 221 10:36 16.10.2019
6182 Clouds 9 1019 86 0 2.15 221 10:18 16.10.2019
6183 Clouds 7 1019 87 0 2.15 221 09:40 16.10.2019
6184 Clouds 7 1019 87 0 2.15 221 09:40 16.10.2019
6185 Clouds 6 1018 87 0 0.631 195 09:22 16.10.2019
6186 Clouds 6 1018 86 0 0.631 195 08:57 16.10.2019
6187 Clouds 5 1018 87 0 0.631 195 08:38 16.10.2019
6188 Clouds 5 1018 87 0 0.631 195 08:20 16.10.2019
6189 Clouds 5 1018 87 0 0.631 195 07:42 16.10.2019
6190 Clouds 5 1021 55 0 0.631 195 07:23 16.10.2019
6191 Clouds 5 1018 86 0 0.631 195 06:51 16.10.2019
6192 Clouds 5 1018 87 0 0.631 195 06:30 16.10.2019
6193 Clouds 6 1018 84 0 0.723 202 04:48 16.10.2019
6194 Clouds 7 1022 49 0 0.863 185 02:51 16.10.2019
6195 Clouds 7 1022 48 0 0.994 182 01:21 16.10.2019
6196 Clouds 8 1022 48 0 0.994 182 00:59 16.10.2019
6197 Clouds 8 1022 49 0 0.994 182 00:40 16.10.2019
6198 Clouds 8 1018 81 0 1.107 107 23:59 15.10.2019
6199 Clouds 8 1018 79 0 1.107 107 23:38 15.10.2019
6200 Clouds 8 1017 61 0 3.13 247 23:20 15.10.2019
6201 Clouds 8 1023 42 0 1.107 107 22:55 15.10.2019
6202 Clouds 9 1023 42 0 1.107 107 22:37 15.10.2019
6203 Clouds 9 1023 43 0 1.107 107 22:18 15.10.2019
6204 Clouds 9 1022 41 0 1.107 107 21:55 15.10.2019
6205 Clouds 9 1022 41 0 1.107 107 21:55 15.10.2019
6206 Clouds 10 1022 39 0 0.978 109 21:36 15.10.2019
6207 Clouds 10 1022 39 0 0.978 109 21:36 15.10.2019
6208 Clouds 10 1017 77 0 2.242 22 21:18 15.10.2019
6209 -273 0 0 0 0 0 20:55 15.10.2019
6210 Clouds 11 1022 36 0 2.242 22 20:37 15.10.2019
6211 Clouds 12 1022 33 0 2.242 22 20:19 15.10.2019
6212 Clouds 12 1022 29 0 2.242 22 19:55 15.10.2019
6213 Clouds 13 1022 28 0 2.242 22 19:36 15.10.2019
6214 Clouds 13 1022 28 0 2.242 22 19:36 15.10.2019
6215 Clouds 12 1016 69 0 2.242 22 19:18 15.10.2019
6216 Clouds 14 1020 22 0 2.242 22 18:41 15.10.2019
6217 Clouds 15 1020 12 0 0.45 266 18:23 15.10.2019
6218 Clouds 15 1013 61 0 2.059 355 17:54 15.10.2019
6219 Clouds 16 1020 11 0 1.34 176 17:36 15.10.2019
6220 Clouds 16 1019 11 0 2.24 177 17:18 15.10.2019
6221 Clouds 16 1019 10 0 2.24 173 16:42 15.10.2019
6222 Clouds 16 1019 8 0 0.89 202 16:21 15.10.2019
6223 Clouds 16 1019 10 0 2.68 174 15:56 15.10.2019
6224 Clouds 16 1019 11 0 1.34 205 15:38 15.10.2019
6225 Clouds 16 1020 11 0 2.68 208 15:19 15.10.2019
6226 Clouds 15 1020 11 0 2.68 190 14:55 15.10.2019
6227 Clouds 16 1020 11 0 0.89 191 14:36 15.10.2019
6228 Clouds 15 1020 11 0 2.68 203 14:18 15.10.2019
6229 Clouds 15 1020 11 0 2.68 203 14:18 15.10.2019
6230 Clouds 15 1014 52 0 0.45 287 13:43 15.10.2019
6231 Clouds 14 1014 54 0 0.45 243 13:20 15.10.2019
6232 Clouds 14 1014 57 0 1.633 333 12:46 15.10.2019
6233 Clouds 13 1020 12 0 2.68 180 12:23 15.10.2019
6234 Clouds 13 1020 12 0 2.68 234 11:59 15.10.2019
6235 Clouds 13 1013 71 0 2.519 2 11:41 15.10.2019
6236 Clouds 11 1020 25 0 2.519 2 11:20 15.10.2019
6237 Clouds 11 1020 25 0 2.519 2 11:20 15.10.2019
6238 Clouds 10 1013 81 0 2.519 2 10:47 15.10.2019
6239 Clouds 10 1014 71 0 0.45 0 10:24 15.10.2019
6240 Clouds 10 1019 45 0 2.52 2.162 09:59 15.10.2019
6241 Clouds 9 1019 53 0 2.52 2.162 09:40 15.10.2019
6242 Rain 9 1019 53 0 2.42 358.958 09:21 15.10.2019
6243 Rain 9 1012 96 0 2.72 5.434 08:58 15.10.2019
6244 Rain 8 1018 47 0 2.72 5.434 08:39 15.10.2019
6245 Rain 8 1018 48 0 2.72 5.434 08:20 15.10.2019
6246 Rain 8 1018 48 0 2.72 5.434 08:19 15.10.2019
6247 Rain 8 1017 46 0 2.72 5.434 07:43 15.10.2019
6248 Rain 8 1009 89 0 2.72 5.434 07:43 15.10.2019
6249 Rain 9 1017 40 0 2.72 5.434 07:22 15.10.2019
6250 Rain 9 1017 38 0 2.24 235 06:56 15.10.2019
6251 Rain 10 1016 37 0 3.13 228 06:37 15.10.2019
6252 Clouds 10 1015 38 0 5.81 221 05:56 15.10.2019
6253 Clouds 10 1015 42 0 3.13 217 05:36 15.10.2019
6254 Clouds 10 1015 39 0 2.24 251 04:48 15.10.2019
6255 Clouds 11 1008 78 0 0.45 105 03:59 15.10.2019
6256 Clouds 11 1013 90 0 0.58 176.055 03:34 15.10.2019
6257 Clouds 11 1013 90 0 0.58 176.055 03:34 15.10.2019
6258 Rain 12 1015 76 0 2.44 194.55 01:51 15.10.2019
6259 Rain 12 1014 74 0 2.63 196.449 01:26 15.10.2019
6260 Rain 12 1009 84 0 2.63 196.449 00:58 15.10.2019
6261 Rain 13 1013 70 0 4.32 209.141 00:24 15.10.2019
6262 Rain 13 1009 81 0 0.45 231 23:55 14.10.2019
6263 Rain 13 1014 65 0 4.32 209.141 23:36 14.10.2019
6264 Rain 13 1009 82 0 4.32 209.141 23:18 14.10.2019
6265 Rain 15 1013 44 0 4.32 209.141 22:39 14.10.2019
6266 Rain 15 1013 44 0 3.13 311 22:19 14.10.2019
6267 Rain 15 1013 38 0 1.34 303 21:57 14.10.2019
6268 Rain 15 1008 85 0 1.79 8 21:39 14.10.2019
6269 Rain 15 1008 85 0 1.34 51 21:20 14.10.2019
6270 Rain 16 1012 44 0 0.89 50 20:56 14.10.2019
6271 Rain 15 1012 45 0 0.89 146 20:37 14.10.2019
6272 Rain 15 1012 47 0 3.2 174.056 20:18 14.10.2019
6273 Clouds 15 1014 100 10000 1 0 19:43 14.10.2019
6274 Clouds 15 1014 100 10000 1 0 19:25 14.10.2019
6275 Clouds 15 1014 100 10000 1 0 19:24 14.10.2019
6276 Clouds 16 1014 100 10000 1 0 18:59 14.10.2019
6277 Clouds 16 1014 100 10000 1 0 18:59 14.10.2019
6278 Clouds 16 1014 100 10000 1 0 18:39 14.10.2019
6279 Clouds 16 1014 100 10000 1 0 18:39 14.10.2019
6280 Clouds 16 1015 93 10000 2.6 30 18:20 14.10.2019
6281 Clouds 16 1015 93 10000 2.6 30 18:19 14.10.2019
6282 Clouds 16 1015 93 10000 1 0 17:57 14.10.2019
6283 Rain 18 1015 82 10000 3.1 290 17:39 14.10.2019
6284 Rain 18 1015 82 10000 3.1 290 17:21 14.10.2019
6285 Clouds 19 1015 63 10000 2.6 190 16:44 14.10.2019
6286 Clouds 19 1015 63 10000 4.1 200 16:21 14.10.2019
6287 Clouds 20 1015 63 10000 4.1 200 15:54 14.10.2019
6288 Rain 20 1016 63 10000 4.6 190 15:36 14.10.2019
6289 Clouds 21 1016 56 10000 2.1 0 15:18 14.10.2019
6290 Clouds 20 1016 63 10000 1.5 0 14:43 14.10.2019
6291 Clouds 20 1016 63 10000 1.5 0 14:23 14.10.2019
6292 Clouds 20 1016 67 10000 1 0 13:45 14.10.2019
6293 Clouds 19 1017 67 10000 0.5 0 13:22 14.10.2019
6294 Clouds 20 1017 67 10000 0.5 0 12:59 14.10.2019
6295 Clouds 20 1011 57 0 0.45 100 12:40 14.10.2019
6296 Clouds 20 1015 11 0 3.92 177.165 12:19 14.10.2019
6297 Clouds 18 1018 77 10000 1 0 11:46 14.10.2019
6298 Clouds 18 1018 77 10000 1 0 11:26 14.10.2019
6299 Clouds 18 1018 77 10000 1 0 11:26 14.10.2019
6300 Clouds 17 1018 87 10000 3.92 177.165 10:58 14.10.2019
6301 Clouds 17 1018 87 10000 3.92 177.165 10:58 14.10.2019
6302 Clouds 17 1012 57 0 0.45 207 10:38 14.10.2019
6303 Clouds 16 1016 12 0 0.89 155 10:20 14.10.2019
6304 Clouds 14 1012 79 0 3.92 177.165 09:55 14.10.2019
6305 Clouds 14 1017 29 0 3.92 177.165 09:36 14.10.2019
6306 Clouds 12 1012 78 0 1.18 122.677 09:18 14.10.2019
6307 Clouds 12 1012 81 0 1.18 122.677 08:43 14.10.2019
6308 Clouds 12 1011 81 0 1.18 122.677 08:22 14.10.2019
6309 Clouds 12 1017 39 0 1.34 158 07:42 14.10.2019
6310 Clouds 13 1017 40 0 1.18 122.677 07:19 14.10.2019
6311 Clouds 13 1017 38 0 1.18 122.677 06:38 14.10.2019
6312 Clouds 13 1017 36 0 1.55 182.103 06:20 14.10.2019
6313 Clouds 14 1017 35 0 1.55 182.103 05:46 14.10.2019
6314 Clouds 14 1017 32 0 0.89 30 04:42 14.10.2019
6315 Clouds 13 1017 34 0 1.55 182.103 03:27 14.10.2019
6316 Clouds 13 1018 40 0 1.7 133.855 02:36 14.10.2019
6317 Clouds 14 1018 41 0 1.71 143.665 01:22 14.10.2019
6318 Clouds 14 1018 39 0 0.89 45 00:53 14.10.2019
6319 Clouds 14 1018 39 0 0.89 45 00:53 14.10.2019
6320 Clear 15 1014 71 0 0.89 142 00:19 14.10.2019
6321 Clear 15 1018 35 0 1.98 147.93 23:44 13.10.2019
6322 Clear 15 1018 32 0 1.34 77 23:20 13.10.2019
6323 Clear 15 1018 33 0 1.98 147.93 22:58 13.10.2019
6324 Clear 16 1018 34 0 1.98 147.93 22:40 13.10.2019
6325 Clear 16 1018 31 0 1.98 147.93 22:21 13.10.2019
6326 Clear 17 1018 29 0 1.98 147.93 21:58 13.10.2019
6327 Clear 17 1018 27 0 1.98 147.93 21:37 13.10.2019
6328 Clear 17 1015 74 0 1.71 160.833 21:18 13.10.2019
6329 Clear 17 1015 74 0 1.71 160.833 20:57 13.10.2019
6330 Clear 18 1015 73 0 1.61 165.981 20:38 13.10.2019
6331 Clouds 18 1018 52 10000 2.6 230 20:19 13.10.2019
6332 -273 0 0 0 0 0 19:57 13.10.2019
6333 Clouds 19 1018 52 10000 2.6 230 19:57 13.10.2019
6334 Clouds 20 1018 52 10000 2.6 230 19:39 13.10.2019
6335 Clouds 21 1018 52 10000 2.6 230 19:20 13.10.2019
6336 Clouds 21 1018 49 10000 3.1 220 18:55 13.10.2019
6337 -273 0 0 0 0 0 18:54 13.10.2019
6338 Clouds 22 1018 46 10000 4.6 210 18:36 13.10.2019
6339 Clouds 21 1018 44 10000 4.6 210 18:18 13.10.2019
6340 Clouds 22 1018 44 10000 4.6 220 17:42 13.10.2019
6341 Clouds 22 1018 44 10000 4.6 220 17:42 13.10.2019
6342 Clouds 22 1018 44 10000 4.6 220 17:42 13.10.2019
6343 Clouds 22 1018 44 10000 4.6 220 17:24 13.10.2019
6344 Clouds 22 1018 44 10000 4.6 220 17:24 13.10.2019
6345 Clouds 23 1018 38 10000 5.1 210 16:45 13.10.2019
6346 Clouds 24 1018 38 10000 5.7 200 16:20 13.10.2019
6347 Clouds 24 1018 38 10000 5.7 200 15:59 13.10.2019
6348 Clouds 24 1018 38 10000 5.7 200 15:59 13.10.2019
6349 Clouds 24 1019 38 10000 4.1 200 15:39 13.10.2019
6350 Clouds 24 1019 38 10000 4.1 200 15:21 13.10.2019
6351 Clouds 23 1019 44 10000 3.1 200 14:59 13.10.2019
6352 Clouds 23 1020 46 10000 1.5 0 14:40 13.10.2019
6353 Clouds 23 1020 46 10000 1.5 0 14:22 13.10.2019
6354 Clouds 22 1020 46 10000 1 0 13:58 13.10.2019
6355 Clouds 22 1021 52 10000 1.5 0 13:38 13.10.2019
6356 Clouds 22 1021 52 10000 1.5 0 13:20 13.10.2019
6357 Clouds 21 1021 60 10000 1 0 12:56 13.10.2019
6358 Clouds 21 1021 63 10000 1 0 12:38 13.10.2019
6359 Clouds 20 1021 63 10000 1 0 12:18 13.10.2019
6360 Clouds 20 1021 72 10000 2.1 180 11:55 13.10.2019
6361 Clouds 20 1021 77 10000 1 0 11:37 13.10.2019
6362 Clear 20 1019 8 0 2.39 178.896 11:18 13.10.2019
6363 Clear 20 1019 8 0 2.39 178.896 11:18 13.10.2019
6364 Clear 17 1016 73 0 2.39 178.896 10:41 13.10.2019
6365 Clear 16 1016 78 0 2.39 178.896 10:41 13.10.2019
6366 Clear 16 1020 12 0 2.39 178.896 10:23 13.10.2019
6367 Clear 15 1019 27 0 0.89 163 09:41 13.10.2019
6368 Clear 14 1019 43 0 1.64 118.664 09:21 13.10.2019
6369 Clear 13 1016 84 0 1.61 114.609 08:58 13.10.2019
6370 Clear 13 1019 39 0 1.61 114.609 08:38 13.10.2019
6371 Clear 13 1016 87 0 1.61 114.609 08:19 13.10.2019
6372 Clear 13 1016 92 0 1.61 114.609 07:46 13.10.2019
6373 Clear 13 1015 91 0 1.61 114.609 07:21 13.10.2019
6374 Clear 13 1019 46 0 1.61 114.609 06:41 13.10.2019
6375 Clear 13 1019 46 0 1.61 114.609 06:41 13.10.2019
6376 Clear 12 1015 84 0 1.49 109.802 05:46 13.10.2019
6377 Clear 13 1015 84 0 1.49 109.802 04:46 13.10.2019
6378 Clear 13 1015 83 0 1.49 109.802 03:51 13.10.2019
6379 Clear 14 1016 83 0 1.3 119.996 02:41 13.10.2019
6380 Clear 14 1016 81 0 1.3 119.996 01:53 13.10.2019
6381 Clear 14 1020 37 0 1.37 123.376 01:26 13.10.2019
6382 Clear 14 1017 81 0 1.37 123.376 01:26 13.10.2019
6383 Clear 14 1020 36 0 1.37 123.376 00:46 13.10.2019
6384 Clear 14 1016 69 0 1.29 120.054 00:21 13.10.2019
6385 Clear 15 1016 72 0 1.34 80 23:55 12.10.2019
6386 Clear 15 1020 33 0 1.29 120.054 23:36 12.10.2019
6387 Clear 15 1016 68 0 0.89 160 23:18 12.10.2019
6388 Clear 15 1020 36 0 1.29 120.054 22:55 12.10.2019
6389 Clear 15 1020 36 0 1.29 120.054 22:37 12.10.2019
6390 Clear 15 1020 35 0 1.29 120.054 22:18 12.10.2019
6391 Clear 15 1020 39 0 1.29 120.054 21:41 12.10.2019
6392 Rain 16 1020 39 0 1.51 178.182 21:23 12.10.2019
6393 Rain 17 1020 40 0 1.34 79 20:56 12.10.2019
6394 Rain 17 1016 74 0 1.52 177.773 20:38 12.10.2019
6395 Clouds 17 1020 53 10000 2.6 230 20:20 12.10.2019
6396 Clouds 20 1020 53 10000 2.6 230 19:37 12.10.2019
6397 Clouds 20 1020 53 10000 2.6 230 19:19 12.10.2019
6398 Clouds 21 1020 53 10000 3.1 220 18:46 12.10.2019
6399 Clouds 21 1020 53 10000 3.1 220 18:27 12.10.2019
6400 Clouds 21 1020 53 10000 4.1 210 17:58 12.10.2019
6401 Clouds 22 1020 49 10000 3.6 220 17:40 12.10.2019
6402 Clouds 22 1020 47 10000 5.7 210 17:18 12.10.2019
6403 Clouds 23 1020 47 10000 5.7 220 16:41 12.10.2019
6404 Clouds 23 1020 47 10000 5.7 220 16:21 12.10.2019
6405 Clouds 22 1020 47 10000 3.1 230 15:58 12.10.2019
6406 Clouds 23 1021 49 10000 3.1 220 15:38 12.10.2019
6407 Clouds 23 1022 53 10000 3.1 210 15:19 12.10.2019
6408 Clouds 23 1022 53 10000 2.1 0 14:41 12.10.2019
6409 Clouds 22 1022 53 10000 2.1 0 14:21 12.10.2019
6410 Clouds 22 1022 53 10000 2.1 0 14:21 12.10.2019
6411 Clouds 22 1023 56 10000 2.1 0 13:52 12.10.2019
6412 Clouds 22 1023 63 10000 1 0 13:33 12.10.2019
6413 Clouds 20 1023 68 10000 1 0 12:57 12.10.2019
6414 Clouds 20 1024 67 10000 0.5 0 12:38 12.10.2019
6415 Clouds 19 1024 67 10000 0.5 0 12:20 12.10.2019
6416 Clouds 18 1024 77 10000 1 0 11:47 12.10.2019
6417 Clouds 18 1024 77 10000 1 0 11:25 12.10.2019
6418 Clouds 17 1018 80 0 2 188.146 10:59 12.10.2019
6419 Clouds 17 1018 83 0 2 188.146 10:40 12.10.2019
6420 Clouds 16 1018 83 0 2 188.146 10:21 12.10.2019
6421 Clouds 15 1021 36 0 2 188.146 09:57 12.10.2019
6422 Clouds 15 1020 34 0 2 188.146 09:38 12.10.2019
6423 Clouds 15 1017 85 0 0.8 202.174 09:20 12.10.2019
6424 Clouds 15 1017 85 0 0.8 202.174 09:20 12.10.2019
6425 Clouds 14 1017 85 0 0.71 210.268 08:45 12.10.2019
6426 Clouds 15 1020 34 0 0.71 210.268 08:25 12.10.2019
6427 Clouds 14 1017 81 0 0.71 210.268 07:59 12.10.2019
6428 Clouds 15 1017 81 0 0.71 210.268 07:31 12.10.2019
6429 Clouds 14 1017 80 0 0.71 210.268 06:37 12.10.2019
6430 Clouds 14 1017 79 0 0.58 145.292 05:44 12.10.2019
6431 Clouds 14 1017 74 0 0.58 145.292 04:43 12.10.2019
6432 Clouds 14 1017 74 0 0.58 145.292 03:56 12.10.2019
6433 Clouds 14 1021 44 0 0.34 158.95 02:50 12.10.2019
6434 Clouds 14 1022 46 0 0.21 182.171 01:35 12.10.2019
6435 Clouds 14 1022 45 0 0.21 182.171 00:56 12.10.2019
6436 Clouds 15 1022 45 0 0.21 182.171 00:38 12.10.2019
6437 Clear 15 1022 41 0 0.48 97.36 23:55 11.10.2019
6438 Clear 15 1022 40 0 0.48 97.36 23:36 11.10.2019
6439 Clear 15 1022 40 0 0.48 97.36 23:18 11.10.2019
6440 Clear 14 1022 36 0 0.48 97.36 22:38 11.10.2019
6441 Clear 14 1022 35 0 0.48 97.36 22:19 11.10.2019
6442 Clear 14 1022 33 0 0.48 97.36 21:43 11.10.2019
6443 Clear 15 1018 64 0 1 203.659 21:22 11.10.2019
6444 Clear 16 1022 28 0 0.86 196.119 20:57 11.10.2019
6445 Clear 16 1018 60 0 0.86 196.119 20:39 11.10.2019
6446 Clear 16 1018 59 0 0.86 196.119 20:20 11.10.2019
6447 Clear 16 1018 59 0 0.86 196.119 20:20 11.10.2019
6448 Clear 19 1020 49 10000 4.1 240 19:55 11.10.2019
6449 Clear 19 1020 49 10000 4.1 240 19:37 11.10.2019
6450 Clear 20 1020 46 10000 4.1 220 19:18 11.10.2019
6451 Clear 20 1020 46 10000 4.1 220 19:18 11.10.2019
6452 Clear 20 1020 49 10000 4.1 240 19:18 11.10.2019
6453 Clear 20 1020 46 10000 4.1 220 19:18 11.10.2019
6454 Clear 21 1020 46 10000 4.1 220 18:54 11.10.2019
6455 Clear 22 1020 44 10000 5.1 220 18:36 11.10.2019
6456 Clear 22 1020 41 10000 4.6 210 18:18 11.10.2019
6457 Clear 23 1020 41 10000 4.6 210 17:55 11.10.2019
6458 Clear 23 1020 41 10000 5.1 210 17:36 11.10.2019
6459 Clear 23 1020 36 10000 4.1 200 17:18 11.10.2019
6460 Clear 23 1020 36 10000 4.1 200 17:18 11.10.2019
6461 Clear 23 1021 36 10000 3.1 220 16:40 11.10.2019
6462 Clear 23 1021 36 10000 1.5 0 16:19 11.10.2019
6463 Clear 23 1021 36 10000 1.5 0 15:58 11.10.2019
6464 Clear 23 1022 35 10000 1.5 220 15:38 11.10.2019
6465 Clear 23 1022 35 10000 1 0 15:18 11.10.2019
6466 Clear 22 1023 42 10000 1.5 120 14:44 11.10.2019
6467 Clear 22 1023 42 10000 1.5 120 14:25 11.10.2019
6468 Clear 21 1024 45 10000 1 0 13:47 11.10.2019
6469 Clear 20 1024 51 10000 1 0 13:27 11.10.2019
6470 Clear 19 1024 51 10000 1 0 12:58 11.10.2019
6471 Clear 19 1024 51 10000 1 0 12:58 11.10.2019
6472 Clear 18 1025 54 10000 1.5 130 12:40 11.10.2019
6473 Clear 18 1025 54 10000 1.5 130 12:21 11.10.2019
6474 Clear 17 1025 58 10000 1 0 11:59 11.10.2019
6475 Clear 16 1025 66 10000 1 0 11:39 11.10.2019
6476 Clear 15 1025 66 10000 1 0 11:21 11.10.2019
6477 Clear 14 1021 64 0 2.09 203.739 10:56 11.10.2019
6478 Clear 13 1024 17 0 2.09 203.739 10:37 11.10.2019
6479 Clear 13 1024 19 0 2.09 203.739 10:18 11.10.2019
6480 Clear 11 1024 48 0 2.23 208.9 09:43 11.10.2019
6481 Clear 8 1024 62 0 0.5 66.937 09:21 11.10.2019
6482 Clear 7 1021 78 0 0.5 66.937 08:59 11.10.2019
6483 Clear 7 1021 78 0 0.5 66.937 08:39 11.10.2019
6484 Clear 7 1021 78 0 0.5 66.937 08:39 11.10.2019
6485 Clear 7 1021 79 0 0.5 66.937 08:20 11.10.2019
6486 Clear 7 1024 52 0 0.5 66.937 07:57 11.10.2019
6487 Clear 7 1020 77 0 0.5 66.937 07:38 11.10.2019
6488 Clear 7 1020 79 0 0.5 66.937 07:19 11.10.2019
6489 Clear 7 1020 78 0 0.5 66.937 06:43 11.10.2019
6490 Clear 7 1020 78 0 0.58 47.779 06:19 11.10.2019
6491 Clear 7 1020 77 0 0.58 47.779 05:32 11.10.2019
6492 Clear 7 1020 75 0 0.58 47.779 04:58 11.10.2019
6493 Clear 8 1021 73 0 0.58 47.779 03:45 11.10.2019
6494 Clear 9 1021 69 0 0.75 14.611 01:28 11.10.2019
6495 Clear 10 1026 41 0 0.75 14.611 00:41 11.10.2019
6496 Clear 10 1026 42 0 0.25 344.646 00:20 11.10.2019
6497 Clear 10 1026 41 0 0.25 344.646 00:20 11.10.2019
6498 Clear 10 1026 38 0 0.25 344.646 23:41 10.10.2019
6499 Clear 10 1026 38 0 0.25 344.646 23:20 10.10.2019
6500 Clear 10 1026 37 0 0.25 344.646 22:56 10.10.2019
6501 Clear 10 1026 38 0 0.25 344.646 22:36 10.10.2019
6502 Clear 10 1026 38 0 0.25 344.646 22:18 10.10.2019
6503 Clear 11 1026 36 0 0.25 344.646 21:42 10.10.2019
6504 Clear 11 1026 36 0 0.25 344.646 21:42 10.10.2019
6505 Clear 12 1026 36 0 0.8 188.293 21:22 10.10.2019
6506 Clear 13 1019 59 0 0.74 190.215 20:59 10.10.2019
6507 Clear 13 1019 59 0 0.74 190.215 20:59 10.10.2019
6508 Clear 12 1019 59 0 0.74 190.215 20:40 10.10.2019
6509 Clear 14 1018 57 0 0.74 190.215 20:20 10.10.2019
6510 Clear 14 1021 42 10000 4.6 230 19:57 10.10.2019
6511 Clear 15 1021 42 10000 4.6 230 19:39 10.10.2019
6512 Clear 16 1021 42 10000 4.6 230 19:19 10.10.2019
6513 Clear 18 1021 40 10000 4.1 230 18:42 10.10.2019
6514 Clear 19 1021 40 10000 4.1 230 18:21 10.10.2019
6515 Clear 19 1021 37 10000 4.6 230 17:59 10.10.2019
6516 Clear 20 1021 37 10000 4.6 220 17:40 10.10.2019
6517 Clear 20 1021 37 10000 4.6 220 17:19 10.10.2019
6518 Clear 20 1021 37 10000 5.1 220 16:56 10.10.2019
6519 Clear 21 1021 35 10000 5.1 210 16:37 10.10.2019
6520 Clear 20 1021 35 10000 5.1 210 16:19 10.10.2019
6521 Clear 20 1022 37 10000 4.6 200 15:40 10.10.2019
6522 Clouds 19 1022 37 10000 5.1 210 15:22 10.10.2019
6523 Clouds 20 1022 37 10000 5.1 210 14:58 10.10.2019
6524 Clouds 20 1022 37 10000 4.6 210 14:37 10.10.2019
6525 Clouds 20 1022 37 10000 4.6 210 14:19 10.10.2019
6526 Clouds 19 1023 40 10000 3.6 230 13:57 10.10.2019
6527 Clouds 19 1023 42 10000 4.6 220 13:39 10.10.2019
6528 Clouds 19 1023 42 10000 4.6 220 13:18 10.10.2019
6529 Clouds 17 1024 55 10000 2.1 200 12:42 10.10.2019
6530 Clouds 16 1024 55 10000 2.1 200 12:21 10.10.2019
6531 Clouds 16 1024 58 10000 2.6 220 11:58 10.10.2019
6532 Clouds 15 1024 71 10000 1.5 190 11:40 10.10.2019
6533 Clouds 14 1024 76 10000 1 0 11:19 10.10.2019
6534 Clouds 14 1019 78 0 1.42 233.999 10:47 10.10.2019
6535 Clouds 13 1019 81 0 1.42 233.999 10:28 10.10.2019
6536 Clouds 12 1018 82 0 1.42 233.999 09:59 10.10.2019
6537 Clouds 12 1027 44 0 1.42 233.999 09:41 10.10.2019
6538 Clouds 11 1018 83 0 0.67 274.092 09:23 10.10.2019
6539 Clouds 10 1018 84 0 0.74 267.521 08:59 10.10.2019
6540 Clouds 10 1018 85 0 0.74 267.521 08:38 10.10.2019
6541 Clouds 10 1018 85 0 0.74 267.521 08:38 10.10.2019
6542 Clouds 10 1017 84 0 0.74 267.521 08:19 10.10.2019
6543 Clouds 10 1017 83 0 0.74 267.521 07:46 10.10.2019
6544 Clouds 10 1026 44 0 0.74 267.521 07:23 10.10.2019
6545 Clouds 11 1017 83 0 0.74 267.521 06:49 10.10.2019
6546 Clouds 11 1017 82 0 0.74 267.521 06:29 10.10.2019
6547 Rain 12 1025 40 0 2.29 215.593 05:28 10.10.2019
6548 Rain 12 1025 38 0 2.29 215.593 04:55 10.10.2019
6549 Rain 13 1025 42 0 2.29 215.593 04:33 10.10.2019
6550 Rain 13 1017 75 0 0.89 169 02:19 10.10.2019
6551 Rain 13 1025 42 0 1.8 231.589 02:19 10.10.2019
6552 Rain 13 1017 77 0 2.19 221.625 01:36 10.10.2019
6553 Rain 13 1017 77 0 2.19 221.625 01:36 10.10.2019
6554 Rain 13 1017 76 0 2.19 221.625 01:18 10.10.2019
6555 Rain 13 1025 38 0 2.19 221.625 00:24 10.10.2019
6556 Rain 13 1016 76 0 1.61 231.24 23:41 09.10.2019
6557 Rain 13 1016 77 0 1.61 231.24 23:23 09.10.2019
6558 Rain 13 1025 36 0 1.34 244 22:59 09.10.2019
6559 Rain 13 1016 78 0 1.61 231.24 22:40 09.10.2019
6560 Rain 13 1015 78 0 1.61 231.24 22:22 09.10.2019
6561 Rain 13 1015 76 0 1.61 231.24 21:41 09.10.2019
6562 Rain 14 1015 76 0 1 243.461 21:21 09.10.2019
6563 Rain 14 1025 41 0 0.89 309 20:56 09.10.2019
6564 Rain 14 1014 75 0 0.84 266.665 20:38 09.10.2019
6565 Rain 14 1014 73 0 0.84 266.665 20:19 09.10.2019
6566 Rain 14 1014 73 0 0.84 266.665 20:19 09.10.2019
6567 Rain 14 1014 70 0 0.84 266.665 19:58 09.10.2019
6568 Rain 14 1024 36 0 1.34 238 19:40 09.10.2019
6569 Rain 14 1024 35 0 0.89 205 19:22 09.10.2019
6570 Rain 15 1024 34 0 1.34 247 18:38 09.10.2019
6571 Clouds 18 1013 56 0 0.89 195 18:20 09.10.2019
6572 Clouds 18 1013 56 0 2.68 243 17:57 09.10.2019
6573 Clouds 18 1013 54 0 2.68 256 17:37 09.10.2019
6574 Clouds 17 1013 53 0 1.79 242 17:19 09.10.2019
6575 Clouds 17 1023 28 0 2.68 219 16:56 09.10.2019
6576 Clouds 19 1012 51 0 0.89 172 16:37 09.10.2019
6577 Clouds 18 1012 51 0 0.89 190 16:18 09.10.2019
6578 Clouds 19 1012 48 0 0.45 181 15:55 09.10.2019
6579 Clouds 19 1012 48 0 0.45 181 15:55 09.10.2019
6580 Clouds 19 1012 48 0 1.34 250 15:36 09.10.2019
6581 Clear 19 1012 48 0 0.89 120 15:18 09.10.2019
6582 Clear 19 1023 34 0 2.24 239 14:42 09.10.2019
6583 Clear 19 1023 34 0 2.24 239 14:42 09.10.2019
6584 Clear 19 1012 48 0 0.89 238 14:18 09.10.2019
6585 Clear 19 1024 34 0 2.68 193 13:55 09.10.2019
6586 Clear 19 1013 49 0 0.89 274 13:36 09.10.2019
6587 Clear 19 1013 49 0 0.89 274 13:36 09.10.2019
6588 Clear 19 1013 51 0 3.47 213.896 13:18 09.10.2019
6589 Clear 19 1013 58 0 3.47 213.896 12:42 09.10.2019
6590 Clear 18 1024 35 0 0.89 170 12:22 09.10.2019
6591 Clear 17 1013 60 0 2.54 214.697 11:57 09.10.2019
6592 Clear 17 1014 61 0 2.54 214.697 11:37 09.10.2019
6593 Clear 16 1014 64 0 2.54 214.697 11:19 09.10.2019
6594 Clear 15 1023 36 0 2.54 214.697 10:45 09.10.2019
6595 Clear 14 1013 73 0 2.54 214.697 10:22 09.10.2019
6596 Clear 14 1022 39 0 2.68 240 09:59 09.10.2019
6597 Clear 14 1013 75 0 2.54 214.697 09:41 09.10.2019
6598 Clouds 13 1014 76 0 0.75 169.832 09:19 09.10.2019
6599 Clouds 12 1022 54 0 0.75 169.832 08:55 09.10.2019
6600 Clouds 12 1014 77 0 0.79 177.184 08:37 09.10.2019
6601 Clouds 12 1014 78 0 0.79 177.184 08:18 09.10.2019
6602 Clouds 12 1022 49 0 0.79 177.184 07:39 09.10.2019
6603 Clouds 12 1014 75 0 0.79 177.184 07:21 09.10.2019
6604 Clouds 12 1014 76 0 0.79 177.184 06:52 09.10.2019
6605 Clouds 12 1014 76 0 0.79 177.184 06:52 09.10.2019
6606 Clouds 12 1013 75 0 1.08 147.781 06:19 09.10.2019
6607 Clouds 12 1014 75 0 1.08 147.781 05:44 09.10.2019
6608 Clouds 13 1021 42 0 1.08 147.781 04:26 09.10.2019
6609 Clouds 13 1021 41 0 0.99 125.115 02:53 09.10.2019
6610 Clouds 14 1021 40 0 0.99 125.115 01:43 09.10.2019
6611 Clouds 13 1021 40 0 0.94 97.562 01:20 09.10.2019
6612 Clouds 14 1022 39 0 0.94 97.562 00:57 09.10.2019
6613 Clouds 14 1022 38 0 0.94 97.562 00:38 09.10.2019
6614 Clouds 15 1015 64 0 1.43 52.705 00:20 09.10.2019
6615 Clouds 15 1022 35 0 1.43 52.705 23:39 08.10.2019
6616 Clouds 15 1022 35 0 1.43 52.705 23:19 08.10.2019
6617 Clouds 15 1016 76 0 1.43 52.705 22:56 08.10.2019
6618 Clouds 14 1021 71 0 0.45 67 22:38 08.10.2019
6619 Clouds 15 1021 68 0 1.34 207 22:19 08.10.2019
6620 Clouds 15 1019 75 0 1.43 52.705 21:57 08.10.2019
6621 Clouds 15 1019 74 0 0.45 262 21:39 08.10.2019
6622 Clouds 17 1014 57 0 1.04 352.533 21:19 08.10.2019
6623 Clouds 17 1014 57 0 1.04 352.533 21:19 08.10.2019
6624 Clouds 17 1021 23 0 1.04 352.533 20:56 08.10.2019
6625 Clouds 18 1014 55 0 1 360 20:37 08.10.2019
6626 Clouds 18 1014 54 0 1 360 20:19 08.10.2019
6627 Clouds 18 1014 53 0 1 360 19:56 08.10.2019
6628 Clouds 17 1019 69 0 2.68 190 19:37 08.10.2019
6629 Clouds 18 1019 69 0 2.24 198 19:18 08.10.2019
6630 Clouds 18 1020 56 0 1.34 90 18:46 08.10.2019
6631 Clouds 22 1020 11 0 1 360 18:25 08.10.2019
6632 Clouds 23 1013 41 0 2.31 223.388 17:58 08.10.2019
6633 Clouds 24 1013 40 0 0.45 257 17:39 08.10.2019
6634 Clouds 24 1013 40 0 0.45 257 17:39 08.10.2019
6635 Clouds 25 1013 39 0 0.45 283 17:20 08.10.2019
6636 Clouds 25 1019 7 0 1.34 226 16:56 08.10.2019
6637 Clouds 25 1019 7 0 1.34 226 16:56 08.10.2019
6638 Clouds 25 1019 7 0 2.68 190 16:37 08.10.2019
6639 Clouds 25 1019 7 0 2.68 181 16:19 08.10.2019
6640 Clouds 25 1019 6 0 2.68 175 15:39 08.10.2019
6641 Clouds 25 1017 40 0 1.79 202 15:20 08.10.2019
6642 Clouds 25 1017 40 0 1.79 202 15:20 08.10.2019
6643 Clouds 24 1018 45 0 0.45 338 14:57 08.10.2019
6644 Clouds 24 1014 44 0 2.58 219.791 14:38 08.10.2019
6645 Clouds 24 1014 44 0 2.58 219.791 14:19 08.10.2019
6646 Clouds 24 1014 44 0 2.58 219.791 14:19 08.10.2019
6647 Clouds 23 1019 6 0 2.68 252 13:55 08.10.2019
6648 Clouds 22 1015 49 0 2.58 219.791 13:37 08.10.2019
6649 Clouds 22 1015 49 0 2.58 219.791 13:37 08.10.2019
6650 Clouds 23 1015 52 0 2.58 219.791 13:18 08.10.2019
6651 Clouds 21 1015 54 0 2.69 217.864 12:41 08.10.2019
6652 Clouds 19 1016 57 0 0.94 225.689 12:20 08.10.2019
6653 Clouds 19 1016 57 0 0.94 225.689 12:20 08.10.2019
6654 Clouds 19 1016 59 0 0.94 225.689 11:58 08.10.2019
6655 Clouds 18 1016 61 0 0.94 225.689 11:39 08.10.2019
6656 Clouds 17 1016 63 0 0.94 225.689 11:21 08.10.2019
6657 Clouds 17 1016 63 0 0.94 225.689 11:21 08.10.2019
6658 Clouds 17 1016 69 0 0.94 225.689 10:42 08.10.2019
6659 Clouds 15 1016 79 0 0.94 225.689 10:23 08.10.2019
6660 Clouds 14 1017 78 0 0.94 225.689 09:59 08.10.2019
6661 -273 0 0 0 0 0 09:40 08.10.2019
6662 Clear 11 1016 78 0 2.46 26.284 09:22 08.10.2019
6663 Clear 10 1016 79 0 2.63 24.771 08:45 08.10.2019
6664 Clear 11 1016 79 0 2.63 24.771 08:25 08.10.2019
6665 Clear 11 1018 43 0 2.63 24.771 07:57 08.10.2019
6666 Clear 11 1018 43 0 2.63 24.771 07:38 08.10.2019
6667 Clear 11 1018 43 0 2.63 24.771 07:19 08.10.2019
6668 Clear 10 1018 42 0 2.63 24.771 06:45 08.10.2019
6669 Clear 10 1018 40 0 2.84 15.643 06:21 08.10.2019
6670 Clear 10 1018 40 0 2.84 15.643 05:43 08.10.2019
6671 Clear 10 1018 40 0 2.84 15.643 05:19 08.10.2019
6672 Clear 10 1018 37 0 2.84 15.643 03:31 08.10.2019
6673 Clouds 11 1019 36 0 2.51 15.876 02:43 08.10.2019
6674 Clouds 11 1019 36 0 2.51 15.876 02:25 08.10.2019
6675 Clouds 11 1019 37 0 2.51 15.876 01:41 08.10.2019
6676 Clouds 11 1019 35 0 2.78 18.975 00:56 08.10.2019
6677 Clouds 12 1019 35 0 2.98 17.135 00:25 08.10.2019
6678 Clouds 12 1020 35 0 2.98 17.135 23:56 07.10.2019
6679 Clouds 12 1019 34 0 2.98 17.135 23:37 07.10.2019
6680 Clouds 12 1020 32 0 2.98 17.135 23:19 07.10.2019
6681 Clouds 11 1019 67 0 2.98 17.135 22:54 07.10.2019
6682 Clouds 11 1019 67 0 2.98 17.135 22:54 07.10.2019
6683 Clouds 11 1019 67 0 0.45 104 22:36 07.10.2019
6684 Clouds 13 1019 66 0 2.98 17.135 22:18 07.10.2019
6685 Clouds 12 1019 64 0 0.45 104 21:54 07.10.2019
6686 Clouds 13 1019 62 0 2.98 17.135 21:36 07.10.2019
6687 Clouds 15 1017 51 0 0.45 191 21:18 07.10.2019
6688 Clouds 15 1017 51 0 0.45 191 21:18 07.10.2019
6689 Clouds 15 1017 49 0 3.39 14.27 20:54 07.10.2019
6690 Clouds 15 1017 47 0 3.39 14.27 20:36 07.10.2019
6691 Clouds 15 1017 45 0 0.45 274 20:18 07.10.2019
6692 Clear 16 1017 13 10000 2.1 0 19:41 07.10.2019
6693 Clear 17 1017 13 10000 2.1 0 19:20 07.10.2019
6694 Clear 23 1017 13 10000 2.1 0 18:59 07.10.2019
6695 Clouds 24 1016 12 10000 2.6 50 18:40 07.10.2019
6696 Clouds 20 1016 11 10000 4.1 290 18:19 07.10.2019
6697 Clouds 20 1016 11 10000 4.1 290 18:19 07.10.2019
6698 Clouds 20 1016 11 10000 4.1 290 17:55 07.10.2019
6699 Clouds 21 1016 9 10000 2.1 0 17:37 07.10.2019
6700 Clouds 21 1016 9 10000 3.1 260 17:18 07.10.2019
6701 Clouds 21 1016 10 10000 2.1 190 16:43 07.10.2019
6702 Clouds 20 1016 10 10000 2.1 190 16:25 07.10.2019
6703 Clear 21 1016 17 10000 1 0 15:46 07.10.2019
6704 Clear 21 1016 17 10000 1 0 15:26 07.10.2019
6705 Clear 21 1017 19 10000 1.5 0 14:58 07.10.2019
6706 Clear 21 1017 19 10000 1.5 0 14:58 07.10.2019
6707 Clear 20 1017 20 10000 1.5 100 14:40 07.10.2019
6708 Clear 20 1017 20 10000 1.5 100 14:22 07.10.2019
6709 Clear 20 1018 27 10000 2.1 0 13:44 07.10.2019
6710 Clear 19 1018 31 10000 0.5 0 13:21 07.10.2019
6711 Clear 18 1018 31 10000 0.5 0 12:57 07.10.2019
6712 Clear 18 1018 36 10000 1 0 12:39 07.10.2019
6713 Clear 16 1018 36 10000 1 0 12:19 07.10.2019
6714 Clear 16 1019 44 10000 0.5 0 11:58 07.10.2019
6715 Clear 15 1019 50 10000 1 0 11:38 07.10.2019
6716 Clear 15 1019 50 10000 1 0 11:20 07.10.2019
6717 Clouds 14 1015 15 0 0.45 19 10:42 07.10.2019
6718 Clouds 15 1015 19 0 0.45 140 10:21 07.10.2019
6719 Clouds 13 1018 17 0 1.34 152 09:55 07.10.2019
6720 -273 0 0 0 0 0 09:54 07.10.2019
6721 Clouds 11 1015 32 0 3.38 4.188 09:36 07.10.2019
6722 Clouds 10 1015 34 0 1.79 197 09:18 07.10.2019
6723 Clouds 10 1018 34 0 4.79 11.674 08:41 07.10.2019
6724 Clouds 9 1015 54 0 4.79 11.674 08:20 07.10.2019
6725 Clouds 10 1014 55 0 4.79 11.674 07:44 07.10.2019
6726 Clouds 10 1018 27 0 1.34 304 07:25 07.10.2019
6727 Clouds 10 1014 47 0 4.79 11.674 06:55 07.10.2019
6728 Clouds 10 1014 49 0 4.79 11.674 06:37 07.10.2019
6729 Clouds 10 1013 46 0 3.71 5.439 05:50 07.10.2019
6730 Clouds 10 1018 27 0 2.68 242 05:24 07.10.2019
6731 Clouds 10 1014 56 0 3.71 5.439 04:44 07.10.2019
6732 Clouds 11 1014 60 0 3.71 5.439 03:45 07.10.2019
6733 Clouds 11 1018 26 0 3.97 11.494 03:23 07.10.2019
6734 Clouds 12 1015 59 0 3.97 11.494 02:23 07.10.2019
6735 Clouds 12 1015 56 0 0.45 271 01:57 07.10.2019
6736 Clouds 13 1018 25 0 2.68 237 01:22 07.10.2019
6737 Clouds 13 1018 22 0 0.89 295 00:44 07.10.2019
6738 Clouds 13 1016 66 0 3.43 7.042 00:22 07.10.2019
6739 Clouds 13 1016 59 0 3.43 7.042 23:56 06.10.2019
6740 Clouds 14 1017 62 0 0.45 276 23:38 06.10.2019
6741 Clouds 14 1016 63 0 3.43 7.042 23:18 06.10.2019
6742 Clouds 14 1018 17 0 3.13 286 22:42 06.10.2019
6743 Clouds 14 1018 25 0 2.24 266 22:22 06.10.2019
6744 Clouds 15 1022 23 0 4.02 270 21:58 06.10.2019
6745 Clouds 15 1022 23 0 4.02 270 21:58 06.10.2019
6746 Clouds 15 1022 24 0 2.24 268 21:38 06.10.2019
6747 Clouds 15 1015 67 0 3.29 3.484 21:19 06.10.2019
6748 Clouds 15 1022 25 0 2.68 213 20:59 06.10.2019
6749 Clouds 15 1015 63 0 3.17 359.856 20:40 06.10.2019
6750 Clouds 16 1017 59 10000 5.1 240 20:21 06.10.2019
6751 Clouds 16 1017 59 10000 5.1 240 19:58 06.10.2019
6752 Clouds 16 1017 59 10000 5.1 240 19:38 06.10.2019
6753 Clouds 17 1016 56 10000 4.6 240 19:20 06.10.2019
6754 Clouds 17 1016 56 10000 4.6 240 18:57 06.10.2019
6755 Clouds 17 1016 56 10000 3.6 230 18:39 06.10.2019
6756 Clouds 18 1016 56 10000 3.6 230 18:20 06.10.2019
6757 Clouds 19 1016 52 10000 4.6 230 17:58 06.10.2019
6758 Clouds 19 1016 49 10000 5.1 240 17:39 06.10.2019
6759 Clouds 19 1016 49 10000 5.1 240 17:19 06.10.2019
6760 Clear 20 1016 49 10000 5.1 220 16:42 06.10.2019
6761 Clear 20 1016 49 10000 5.1 220 16:24 06.10.2019
6762 Clear 20 1017 49 10000 4.6 220 15:58 06.10.2019
6763 Clear 20 1018 52 10000 4.1 230 15:39 06.10.2019
6764 Clear 20 1018 52 10000 1.5 190 15:18 06.10.2019
6765 Clear 19 1019 52 10000 2.1 0 14:43 06.10.2019
6766 Clear 19 1019 52 10000 2.1 0 14:24 06.10.2019
6767 Clear 18 1019 55 10000 1 0 13:58 06.10.2019
6768 Clear 18 1019 48 10000 1 0 13:39 06.10.2019
6769 Clear 18 1019 48 10000 1 0 13:20 06.10.2019
6770 Clear 18 1020 59 10000 1.5 160 12:56 06.10.2019
6771 Clear 17 1020 58 10000 1.5 130 12:38 06.10.2019
6772 Clear 17 1020 58 10000 1.5 130 12:20 06.10.2019
6773 Clear 16 1020 66 10000 1 0 11:56 06.10.2019
6774 Clear 16 1020 67 10000 0.5 0 11:37 06.10.2019
6775 Clear 16 1020 67 10000 0.5 0 11:37 06.10.2019
6776 Clouds 15 1015 57 0 0.95 343.278 11:18 06.10.2019
6777 Clouds 15 1015 61 0 0.95 343.278 10:42 06.10.2019
6778 Clouds 15 1023 27 0 0.95 343.278 10:24 06.10.2019
6779 Clouds 14 1023 37 0 0.89 50 09:42 06.10.2019
6780 Clouds 13 1015 63 0 2.34 22.964 09:22 06.10.2019
6781 Clouds 13 1015 63 0 2.34 22.964 09:22 06.10.2019
6782 Clouds 13 1015 65 0 2.34 22.964 08:59 06.10.2019
6783 Clouds 12 1014 66 0 2.29 30.518 08:40 06.10.2019
6784 Clouds 12 1014 66 0 2.29 30.518 08:20 06.10.2019
6785 Clouds 12 1014 67 0 2.29 30.518 07:44 06.10.2019
6786 Clouds 12 1022 39 0 0.89 1 07:18 06.10.2019
6787 Clear 11 1014 70 0 2.03 18.765 06:19 06.10.2019
6788 Clear 12 1014 68 0 2.03 18.765 05:28 06.10.2019
6789 Clear 14 1021 40 0 2.03 18.765 03:35 06.10.2019
6790 Clear 12 1014 66 0 1.59 7.642 02:40 06.10.2019
6791 Clear 12 1014 67 0 1.59 7.642 02:19 06.10.2019
6792 Clear 12 1016 88 0 1.59 7.642 01:38 06.10.2019
6793 Clear 12 1016 88 0 1.87 11.898 01:20 06.10.2019
6794 Clear 12 1016 89 0 1.87 11.898 00:45 06.10.2019
6795 -273 0 0 0 0 0 00:24 06.10.2019
6796 Clear 12 1022 44 0 1.16 2.425 23:43 05.10.2019
6797 Clear 13 1022 44 0 1.16 2.425 23:21 05.10.2019
6798 Clear 13 1019 71 0 1.16 2.425 22:57 05.10.2019
6799 Clear 13 1018 89 0 1.16 2.425 22:38 05.10.2019
6800 Clear 13 1018 89 0 1.16 2.425 22:38 05.10.2019
6801 Clear 13 1018 89 0 1.16 2.425 22:38 05.10.2019
6802 Clear 13 1018 89 0 1.16 2.425 22:38 05.10.2019
6803 Clear 13 1018 89 0 1.16 2.425 22:19 05.10.2019
6804 Clear 14 1017 88 0 1.16 2.425 21:42 05.10.2019
6805 Clear 14 1017 88 0 1.16 2.425 21:42 05.10.2019
6806 Clear 16 1014 57 0 0.98 8.378 21:24 05.10.2019
6807 Clear 16 1013 57 0 0.98 8.378 20:58 05.10.2019
6808 Clear 15 1021 35 0 0.98 6.768 20:40 05.10.2019
6809 Clear 16 1013 55 0 0.98 6.768 20:20 05.10.2019